# Wetter Temperatur Luftdruck Luftfeuchtigkeit Sichtweite Windgeschwindigkeit Windrichtung Zeit
1 Fog 10 1026 100 300 2.1 40 09:58 29.01.2020
2 Fog 10 1026 100 300 2.1 40 09:40 29.01.2020
3 Fog 10 1026 100 300 2.1 40 09:20 29.01.2020
4 Fog 10 1026 100 500 2.6 30 08:56 29.01.2020
5 Fog 10 1026 100 500 2.6 30 08:37 29.01.2020
6 Fog 10 1025 100 900 3.1 30 08:18 29.01.2020
7 Rain 10 1025 100 1200 2.6 70 07:43 29.01.2020
8 Rain 10 1025 93 4000 2.6 20 07:23 29.01.2020
9 Mist 10 1025 100 4000 1 0 06:38 29.01.2020
10 Mist 10 1025 93 3500 1 20 06:20 29.01.2020
11 Mist 10 1025 100 3000 1 10 05:52 29.01.2020
12 Mist 10 1025 100 3000 1 10 05:52 29.01.2020
13 Mist 10 1025 100 3000 1.44 44 05:34 29.01.2020
14 Mist 10 1026 100 3000 1 50 04:39 29.01.2020
15 Mist 11 1026 93 3000 1.5 360 03:59 29.01.2020
16 Mist 11 1026 100 3600 1.4 18 02:39 29.01.2020
17 Clouds 12 1026 100 10000 0.71 11 01:27 29.01.2020
18 Clouds 12 1026 93 10000 2.1 140 00:39 29.01.2020
19 Clouds 12 1026 93 10000 1 130 00:21 29.01.2020
20 Clouds 12 1026 93 10000 1 120 23:41 28.01.2020
21 Clouds 13 1026 87 10000 1 60 23:20 28.01.2020
22 Clouds 13 1026 93 10000 1.5 30 22:56 28.01.2020
23 Clouds 13 1026 93 10000 1.5 30 22:56 28.01.2020
24 Clouds 14 1026 93 10000 1.5 30 22:36 28.01.2020
25 Clouds 14 1026 82 10000 3.1 220 22:18 28.01.2020
26 Clouds 15 1026 82 10000 3.1 200 21:41 28.01.2020
27 Clouds 15 1026 82 10000 1 0 21:20 28.01.2020
28 Clouds 15 1026 77 10000 2.1 200 20:46 28.01.2020
29 Clouds 15 1026 82 10000 1 130 20:28 28.01.2020
30 Clouds 15 1026 82 10000 1 190 19:58 28.01.2020
31 Clouds 15 1026 82 10000 1 190 19:38 28.01.2020
32 Clouds 15 1026 82 10000 1 190 19:19 28.01.2020
33 Clouds 16 1025 82 10000 1 150 18:57 28.01.2020
34 Clouds 15 1025 82 10000 1 150 18:38 28.01.2020
35 Clouds 16 1026 82 10000 1 170 18:20 28.01.2020
36 Clouds 16 1026 77 10000 1.5 170 17:55 28.01.2020
37 Clouds 16 1026 77 10000 1.5 170 17:36 28.01.2020
38 Clouds 16 1025 82 10000 1.5 180 17:18 28.01.2020
39 Clouds 16 1026 77 10000 1.9 233 16:45 28.01.2020
40 Clouds 16 1026 82 10000 1.9 233 16:27 28.01.2020
41 Clouds 16 1026 82 10000 1.9 233 15:59 28.01.2020
42 Clouds 16 1026 82 10000 1.9 233 15:40 28.01.2020
43 Clouds 15 1026 77 10000 0.5 0 15:18 28.01.2020
44 Clouds 15 1026 87 8000 0.5 310 14:44 28.01.2020
45 Clouds 15 1027 87 10000 1 0 14:20 28.01.2020
46 Clouds 15 1027 93 6000 1.5 330 13:45 28.01.2020
47 Clouds 14 1028 93 10000 1 0 13:25 28.01.2020
48 Mist 13 1028 93 5000 0.5 0 12:58 28.01.2020
49 Mist 13 1028 93 5000 0.5 0 12:40 28.01.2020
50 Clouds 12 1028 100 6000 1 20 12:22 28.01.2020
51 Mist 12 1028 100 3800 1.12 207 11:43 28.01.2020
52 Mist 12 1027 100 1500 1 50 11:22 28.01.2020
53 Fog 11 1027 100 800 1 0 10:56 28.01.2020
54 Fog 11 1027 100 200 1.5 60 10:38 28.01.2020
55 Fog 11 1027 100 200 1.5 60 10:18 28.01.2020
56 Fog 11 1027 100 200 2.1 110 09:42 28.01.2020
57 Fog 11 1027 93 200 2.1 50 09:21 28.01.2020
58 Fog 10 1027 100 100 1.5 30 08:56 28.01.2020
59 Fog 10 1027 100 100 1.5 30 08:38 28.01.2020
60 Fog 10 1026 100 100 1 40 08:18 28.01.2020
61 Fog 10 1026 100 100 1 50 07:36 28.01.2020
62 Mist 10 1026 100 2000 1 160 06:49 28.01.2020
63 Mist 10 1026 100 2000 1 150 06:25 28.01.2020
64 Mist 10 1026 100 4000 0.91 55 05:53 28.01.2020
65 Clouds 11 1026 93 6000 1.5 250 05:25 28.01.2020
66 Mist 11 1026 100 4000 0.5 360 03:57 28.01.2020
67 Clouds 12 1026 93 6000 1 10 02:58 28.01.2020
68 Clouds 12 1027 87 9000 1.5 210 02:25 28.01.2020
69 Clouds 12 1027 93 9000 1.5 190 01:57 28.01.2020
70 Clouds 12 1027 93 8000 1.5 160 01:23 28.01.2020
71 Clouds 12 1027 93 7000 0.28 225 00:45 28.01.2020
72 Clouds 12 1027 93 7000 0.28 225 00:24 28.01.2020
73 Clouds 12 1027 93 6000 1.5 160 23:48 27.01.2020
74 Clouds 12 1027 93 6000 1.5 140 23:28 27.01.2020
75 Clouds 12 1027 93 8000 0.5 0 22:54 27.01.2020
76 Clouds 12 1027 93 8000 0.5 0 22:36 27.01.2020
77 Clouds 12 1027 93 9000 1.71 246 22:18 27.01.2020
78 Clouds 12 1026 93 10000 1.5 160 21:40 27.01.2020
79 Clouds 12 1026 93 10000 1 180 21:19 27.01.2020
80 Clouds 12 1026 87 10000 1.5 160 20:59 27.01.2020
81 Clouds 12 1026 87 10000 1.5 160 20:40 27.01.2020
82 Clouds 13 1026 93 10000 1 0 20:21 27.01.2020
83 Clouds 13 1026 87 10000 2.44 246 19:58 27.01.2020
84 Clouds 13 1026 87 10000 2.44 246 19:40 27.01.2020
85 Clouds 13 1026 87 10000 1.5 200 19:21 27.01.2020
86 Clouds 13 1026 87 10000 1.5 200 19:21 27.01.2020
87 Clouds 14 1025 82 10000 1 40 18:55 27.01.2020
88 Clouds 14 1025 82 10000 1.5 200 18:37 27.01.2020
89 Clouds 14 1025 82 10000 1 40 18:37 27.01.2020
90 Clouds 14 1025 82 10000 1.5 200 18:19 27.01.2020
91 Clouds 14 1025 77 10000 0.5 0 17:39 27.01.2020
92 Clouds 15 1025 77 10000 0.5 0 17:39 27.01.2020
93 Clouds 15 1025 82 10000 0.5 0 17:19 27.01.2020
94 Clouds 15 1025 82 10000 0.5 0 16:57 27.01.2020
95 Clouds 15 1025 82 10000 0.5 0 16:39 27.01.2020
96 Clouds 14 1026 82 10000 1 0 16:21 27.01.2020
97 Clouds 14 1026 82 10000 1 0 15:55 27.01.2020
98 Clouds 14 1026 82 10000 1 0 15:36 27.01.2020
99 Clouds 14 1026 76 10000 1 0 15:18 27.01.2020
100 Clouds 13 1027 87 10000 1 0 14:41 27.01.2020
101 Clouds 13 1027 76 10000 1.5 30 14:22 27.01.2020
102 Rain 13 1027 82 10000 2.6 60 13:54 27.01.2020
103 Rain 12 1028 87 10000 3.1 50 13:36 27.01.2020
104 Rain 12 1028 87 10000 3.1 50 13:18 27.01.2020
105 Clouds 11 1028 87 10000 3.1 20 12:42 27.01.2020
106 Mist 10 1028 100 5000 3.1 20 12:22 27.01.2020
107 Mist 9 1028 100 3000 2.1 350 11:55 27.01.2020
108 Mist 10 1028 93 1500 2.6 20 11:36 27.01.2020
109 Mist 9 1028 93 1500 2.6 20 11:18 27.01.2020
110 Mist 7 1028 100 4000 2.6 40 10:42 27.01.2020
111 Fog 7 1028 100 500 2.6 30 10:23 27.01.2020
112 Rain 8 1027 100 4000 2.6 40 09:40 27.01.2020
113 Rain 8 1027 100 200 2.6 50 09:19 27.01.2020
114 Fog 7 1027 100 900 1.5 70 08:58 27.01.2020
115 Mist 7 1027 100 2500 2.1 40 08:40 27.01.2020
116 Mist 7 1027 100 2500 2.1 40 08:19 27.01.2020
117 Fog 7 1027 100 300 1.5 40 07:50 27.01.2020
118 Fog 7 1026 100 300 1.5 340 07:32 27.01.2020
119 Fog 7 1026 100 250 1.5 360 06:39 27.01.2020
120 Fog 8 1026 100 300 1.5 20 05:53 27.01.2020
121 Fog 8 1026 100 250 1.07 48 05:18 27.01.2020
122 Mist 8 1026 100 5000 1 70 03:36 27.01.2020
123 Mist 9 1027 100 3000 0.5 140 02:27 27.01.2020
124 Mist 9 1027 93 4000 1 260 01:29 27.01.2020
125 Mist 9 1027 100 4000 0.89 346 00:42 27.01.2020
126 Clouds 10 1027 93 9000 1 290 00:22 27.01.2020
127 Clouds 10 1027 93 10000 2.1 260 23:59 26.01.2020
128 Clouds 10 1027 93 10000 2.1 260 23:40 26.01.2020
129 Clouds 9 1027 93 10000 1.5 270 23:18 26.01.2020
130 Clouds 11 1027 87 10000 1 0 22:54 26.01.2020
131 Clouds 11 1027 87 10000 1 0 22:36 26.01.2020
132 Clouds 11 1027 81 10000 1.5 240 22:18 26.01.2020
133 Clouds 12 1027 82 10000 2.6 250 21:54 26.01.2020
134 Clouds 12 1027 82 10000 2.6 250 21:36 26.01.2020
135 Clouds 12 1026 82 10000 1.5 210 21:18 26.01.2020
136 Clouds 12 1026 87 10000 2.6 160 20:54 26.01.2020
137 Clouds 12 1026 87 10000 2.6 160 20:36 26.01.2020
138 Clouds 12 1026 82 10000 2.1 150 20:18 26.01.2020
139 Clouds 13 1026 82 10000 2.6 140 19:40 26.01.2020
140 Clouds 13 1025 82 10000 2.1 140 19:21 26.01.2020
141 Clouds 14 1025 76 10000 1.5 190 18:59 26.01.2020
142 Clouds 14 1025 76 10000 1.5 190 18:39 26.01.2020
143 Clouds 15 1025 76 10000 1.5 180 18:21 26.01.2020
144 Clouds 15 1025 67 10000 2.1 190 17:57 26.01.2020
145 Clouds 15 1025 67 10000 2.1 190 17:38 26.01.2020
146 Clouds 15 1025 67 10000 3.1 220 17:18 26.01.2020
147 Clouds 15 1025 63 10000 2.6 200 16:57 26.01.2020
148 Clouds 15 1025 63 10000 2.6 200 16:39 26.01.2020
149 Clouds 15 1025 67 10000 3.1 200 16:20 26.01.2020
150 Clouds 15 1025 72 10000 2.6 200 15:55 26.01.2020
151 Clouds 15 1025 72 10000 2.6 200 15:36 26.01.2020
152 Clear 14 1023 75 0 1.34 187 15:18 26.01.2020
153 Clear 14 1024 79 0 1.34 169 14:40 26.01.2020
154 Clear 12 1024 82 0 0.89 195 14:19 26.01.2020
155 Clear 12 1025 83 0 0.89 99 13:42 26.01.2020
156 Clear 11 1025 86 0 1.34 219 13:20 26.01.2020
157 Clear 11 1027 94 0 1.95 226 12:57 26.01.2020
158 Clear 10 1025 89 0 0.45 245 12:39 26.01.2020
159 Clear 10 1025 91 0 0.45 245 12:20 26.01.2020
160 Clear 10 1025 92 0 0.45 50 11:57 26.01.2020
161 Clear 8 1027 99 0 1.95 226 11:37 26.01.2020
162 Mist 8 1026 100 5000 0.87 357 11:18 26.01.2020
163 Mist 8 1026 100 5000 0.87 357 10:57 26.01.2020
164 Mist 8 1026 100 5000 0.87 357 10:38 26.01.2020
165 Mist 8 1026 100 5000 0.87 357 10:20 26.01.2020
166 Fog 7 1025 100 900 1.5 260 09:56 26.01.2020
167 Fog 7 1025 100 900 1.5 260 09:38 26.01.2020
168 Fog 7 1025 100 800 1 140 09:19 26.01.2020
169 Fog 7 1024 100 500 0.5 0 08:42 26.01.2020
170 Fog 7 1024 100 900 1 0 08:22 26.01.2020
171 Rain 7 1023 100 800 0.5 230 07:54 26.01.2020
172 Rain 7 1023 100 800 0.5 230 07:36 26.01.2020
173 Rain 7 1023 100 800 0.5 230 07:36 26.01.2020
174 Rain 7 1023 100 3000 0.74 340 07:18 26.01.2020
175 Rain 8 1022 100 4000 0.74 340 06:26 26.01.2020
176 Rain 9 1022 100 3000 0.74 340 05:29 26.01.2020
177 Rain 9 1022 100 5000 1.18 350 04:44 26.01.2020
178 Mist 10 1021 100 3500 1.18 350 02:38 26.01.2020
179 Fog 9 1021 100 250 0.5 316 01:46 26.01.2020
180 Fog 9 1021 100 400 0.5 0 01:23 26.01.2020
181 Fog 10 1020 100 200 1 140 00:44 26.01.2020
182 Fog 10 1020 100 400 0.68 345 00:26 26.01.2020
183 Clouds 10 1020 91 0 0.68 345 23:40 25.01.2020
184 Clouds 10 1019 100 0 1.29 27 23:21 25.01.2020
185 Clouds 10 1020 90 0 1.29 27 22:58 25.01.2020
186 Clouds 11 1019 93 0 1.29 27 22:39 25.01.2020
187 Clouds 11 1019 100 0 1.29 27 22:18 25.01.2020
188 Clouds 11 1019 91 0 1.29 27 21:56 25.01.2020
189 Clouds 11 1018 100 0 1.29 27 21:38 25.01.2020
190 Clouds 11 1018 97 0 1.29 27 21:19 25.01.2020
191 Clouds 11 1018 97 0 1.29 27 20:43 25.01.2020
192 Clouds 12 1018 91 0 1.29 27 20:25 25.01.2020
193 Rain 10 1017 94 0 3.75 45 19:54 25.01.2020
194 Rain 12 1016 89 0 0.45 50 19:36 25.01.2020
195 Rain 12 1017 88 0 2.53 39 19:18 25.01.2020
196 Rain 12 1016 88 0 2.53 39 18:41 25.01.2020
197 Rain 13 1016 86 0 3.75 45 18:21 25.01.2020
198 Rain 13 1015 87 0 2.24 357 17:57 25.01.2020
199 Rain 13 1016 86 0 1.34 344 17:37 25.01.2020
200 Rain 13 1016 86 0 1.34 344 17:37 25.01.2020
201 Rain 14 1014 80 0 0.45 305 17:18 25.01.2020
202 Rain 14 1015 81 0 3.36 99 16:42 25.01.2020
203 Rain 13 1014 87 0 3.36 99 16:23 25.01.2020
204 Rain 13 1014 88 0 3.36 99 15:57 25.01.2020
205 Rain 13 1014 88 0 3.36 99 15:39 25.01.2020
206 Rain 13 1014 89 0 0.45 0 15:20 25.01.2020
207 Rain 13 1014 89 0 0.45 0 15:20 25.01.2020
208 Rain 13 1015 88 0 3.36 99 14:42 25.01.2020
209 Rain 13 1015 88 0 0.89 152 14:19 25.01.2020
210 Rain 12 1014 89 0 0.89 193 13:45 25.01.2020
211 Rain 12 1015 89 0 0.89 178 13:27 25.01.2020
212 Clouds 12 1017 93 10000 3.1 140 12:58 25.01.2020
213 Clouds 12 1017 93 10000 3.1 140 12:39 25.01.2020
214 Clouds 12 1017 93 10000 3.1 140 12:20 25.01.2020
215 Clouds 11 1017 93 10000 3.1 140 11:40 25.01.2020
216 Drizzle 11 1017 93 10000 2.6 140 11:20 25.01.2020
217 Rain 11 1016 100 10000 2.1 130 10:56 25.01.2020
218 Rain 11 1016 100 10000 2.1 130 10:38 25.01.2020
219 Rain 10 1016 93 10000 1.5 150 10:18 25.01.2020
220 Rain 10 1016 93 10000 2.1 140 09:40 25.01.2020
221 Rain 10 1016 93 10000 3.1 140 09:20 25.01.2020
222 Rain 10 1016 93 10000 3.1 150 08:43 25.01.2020
223 Rain 11 1015 100 10000 1.5 90 07:59 25.01.2020
224 Rain 11 1015 100 10000 1.5 90 07:40 25.01.2020
225 Rain 11 1015 100 10000 2.6 90 06:44 25.01.2020
226 Rain 10 1015 93 9000 2.6 100 06:24 25.01.2020
227 Rain 10 1015 93 7000 2.1 110 05:44 25.01.2020
228 Rain 10 1016 93 10000 0.5 20 04:25 25.01.2020
229 Rain 10 1016 93 10000 1.5 320 03:50 25.01.2020
230 Rain 10 1016 93 10000 1 0 02:40 25.01.2020
231 Rain 10 1017 93 10000 1.5 140 01:58 25.01.2020
232 Rain 10 1017 100 10000 2.1 170 01:35 25.01.2020
233 Clouds 10 1017 100 10000 3.1 180 00:42 25.01.2020
234 Clouds 10 1017 100 10000 3.1 180 00:23 25.01.2020
235 Rain 11 1017 93 10000 2.1 170 23:56 24.01.2020
236 Rain 11 1017 100 10000 2.6 170 23:38 24.01.2020
237 Rain 11 1017 100 10000 2.6 170 23:19 24.01.2020
238 Clouds 11 1017 100 10000 2.6 160 22:42 24.01.2020
239 Clouds 11 1017 93 10000 3.1 150 22:23 24.01.2020
240 Clouds 11 1017 93 10000 4.1 140 21:42 24.01.2020
241 Rain 11 1017 93 10000 4.6 140 21:20 24.01.2020
242 Rain 11 1016 100 10000 5.1 120 20:56 24.01.2020
243 Rain 11 1016 100 10000 5.1 120 20:37 24.01.2020
244 Rain 11 1017 93 4000 5.1 130 20:18 24.01.2020
245 Rain 11 1016 93 8000 4.1 110 19:55 24.01.2020
246 Rain 11 1016 93 8000 4.1 110 19:37 24.01.2020
247 Rain 11 1016 93 9000 3.6 120 19:19 24.01.2020
248 Rain 12 1016 93 7000 4.1 120 18:43 24.01.2020
249 Rain 12 1016 93 8000 2.6 80 18:23 24.01.2020
250 Rain 12 1016 93 8000 2.1 70 17:46 24.01.2020
251 Rain 12 1017 93 9000 3.53 128 17:23 24.01.2020
252 Rain 13 1017 87 10000 1.5 170 16:58 24.01.2020
253 Rain 13 1017 87 10000 1.5 170 16:39 24.01.2020
254 Rain 13 1017 87 9000 1 0 16:20 24.01.2020
255 Rain 13 1017 87 10000 0.5 0 15:43 24.01.2020
256 Rain 14 1017 82 10000 3.1 90 15:22 24.01.2020
257 -273 0 0 0 0 0 15:22 24.01.2020
258 Rain 14 1018 82 10000 2.1 110 14:56 24.01.2020
259 Rain 14 1018 76 10000 3.1 110 14:38 24.01.2020
260 Rain 14 1018 76 10000 3.1 110 14:19 24.01.2020
261 Clouds 14 1018 77 10000 3.6 70 13:42 24.01.2020
262 Clouds 14 1019 76 10000 2.1 20 13:22 24.01.2020
263 Clouds 14 1019 76 10000 4.1 60 12:44 24.01.2020
264 Clouds 14 1019 76 10000 4.1 60 12:44 24.01.2020
265 Clouds 13 1020 82 10000 2.6 30 12:22 24.01.2020
266 Clouds 12 1020 82 10000 3.1 80 11:45 24.01.2020
267 Clouds 12 1019 87 10000 2.1 30 11:20 24.01.2020
268 Clouds 11 1019 87 10000 3.1 80 10:59 24.01.2020
269 Clouds 11 1019 87 10000 3.1 80 10:41 24.01.2020
270 Clouds 11 1019 93 10000 2.1 60 10:19 24.01.2020
271 Rain 11 1019 93 10000 3.1 80 09:42 24.01.2020
272 Rain 11 1019 93 10000 3.1 80 09:42 24.01.2020
273 Rain 11 1019 87 10000 2.1 40 09:24 24.01.2020
274 Clouds 11 1019 93 10000 3.1 70 09:00 24.01.2020
275 Clouds 11 1019 93 10000 3.1 70 08:38 24.01.2020
276 Clouds 11 1018 87 10000 2.6 20 08:18 24.01.2020
277 Clouds 10 1018 93 10000 3.6 80 07:43 24.01.2020
278 Clouds 10 1018 93 10000 2.6 40 07:22 24.01.2020
279 Clouds 10 1018 93 10000 2.1 70 06:43 24.01.2020
280 Clouds 10 1018 93 10000 1.5 60 06:23 24.01.2020
281 Clouds 10 1018 93 10000 2.6 80 05:22 24.01.2020
282 Clouds 10 1019 100 9000 1.5 30 03:34 24.01.2020
283 Rain 10 1019 100 10000 2.1 30 02:40 24.01.2020
284 Clouds 10 1019 100 10000 2.1 30 02:20 24.01.2020
285 Rain 10 1019 100 10000 1 80 01:38 24.01.2020
286 Clouds 10 1018 100 10000 2.1 120 00:49 24.01.2020
287 Clouds 10 1018 100 9000 2.1 90 00:19 24.01.2020
288 Rain 11 1018 100 10000 1.5 90 23:42 23.01.2020
289 Rain 11 1018 100 10000 2.1 100 23:22 23.01.2020
290 Rain 11 1018 100 10000 1.5 110 22:58 23.01.2020
291 Rain 11 1018 100 10000 1.5 110 22:37 23.01.2020
292 Rain 11 1018 100 10000 1.5 110 22:37 23.01.2020
293 Rain 11 1018 100 9000 2.1 130 22:18 23.01.2020
294 Rain 11 1018 93 6000 1 100 21:55 23.01.2020
295 Rain 11 1018 93 10000 2.1 120 21:37 23.01.2020
296 Rain 11 1017 93 10000 3.1 110 21:19 23.01.2020
297 Rain 11 1017 93 10000 3.1 130 20:55 23.01.2020
298 Rain 11 1017 93 10000 3.1 130 20:37 23.01.2020
299 Rain 11 1017 93 10000 2.6 130 20:18 23.01.2020
300 Rain 11 1017 93 10000 2.1 140 19:44 23.01.2020
301 Rain 11 1016 93 10000 2.1 160 19:23 23.01.2020
302 Rain 11 1016 93 10000 2.6 170 18:58 23.01.2020
303 Rain 11 1016 93 10000 1 0 18:39 23.01.2020
304 Rain 11 1016 93 10000 1 0 18:20 23.01.2020
305 Rain 11 1016 93 10000 2.1 350 17:56 23.01.2020
306 Rain 11 1016 93 10000 2.1 350 17:38 23.01.2020
307 Rain 11 1015 93 10000 3.1 60 17:18 23.01.2020
308 Rain 12 1015 93 10000 2.6 40 16:39 23.01.2020
309 Rain 11 1015 93 10000 2.6 40 16:20 23.01.2020
310 Rain 11 1015 93 10000 2.1 30 15:58 23.01.2020
311 Rain 11 1015 93 10000 2.1 30 15:40 23.01.2020
312 Rain 11 1015 93 7000 1.5 20 15:19 23.01.2020
313 Rain 11 1016 93 10000 3.6 300 14:59 23.01.2020
314 Rain 10 1016 93 10000 3.6 300 14:41 23.01.2020
315 Rain 11 1016 93 10000 5.1 290 14:23 23.01.2020
316 Rain 11 1016 100 6000 4.1 270 13:59 23.01.2020
317 Rain 11 1016 100 6000 4.1 270 13:37 23.01.2020
318 Rain 11 1016 93 10000 3.1 20 13:19 23.01.2020
319 Rain 11 1017 93 10000 3.1 30 12:44 23.01.2020
320 Rain 10 1017 93 9000 2.6 30 12:25 23.01.2020
321 Rain 10 1017 93 7000 3.6 20 11:57 23.01.2020
322 Rain 11 1017 93 7000 3.6 20 11:38 23.01.2020
323 Rain 10 1016 93 10000 2.1 360 11:19 23.01.2020
324 Rain 10 1016 100 8000 3.1 60 10:44 23.01.2020
325 Rain 10 1016 93 6000 1 0 10:22 23.01.2020
326 Rain 10 1016 100 4000 2.6 60 09:57 23.01.2020
327 Rain 10 1016 100 4000 2.6 60 09:36 23.01.2020
328 Rain 10 1015 93 6000 2.1 30 09:18 23.01.2020
329 Rain 10 1016 100 8000 2.1 70 08:41 23.01.2020
330 Rain 10 1015 93 7000 1.5 140 08:22 23.01.2020
331 Rain 10 1015 93 6000 2.6 100 07:45 23.01.2020
332 Rain 10 1015 93 10000 2.1 110 07:26 23.01.2020
333 Rain 9 1015 93 8000 2.32 77 06:52 23.01.2020
334 Rain 9 1015 100 10000 2.1 100 06:23 23.01.2020
335 Rain 9 1015 100 10000 2.6 70 05:57 23.01.2020
336 Rain 10 1015 100 10000 0.5 90 04:24 23.01.2020
337 Rain 10 1016 100 9000 1.5 40 02:34 23.01.2020
338 Rain 10 1016 100 9000 1.5 10 01:41 23.01.2020
339 Rain 10 1016 100 10000 1.5 50 00:28 23.01.2020
340 Rain 10 1016 87 10000 2.1 80 23:48 22.01.2020
341 Rain 10 1016 93 10000 2.6 110 23:30 22.01.2020
342 Rain 10 1015 87 10000 2.1 110 22:59 22.01.2020
343 Rain 10 1015 87 10000 2.1 110 22:41 22.01.2020
344 Rain 10 1015 87 10000 2.1 110 22:41 22.01.2020
345 Rain 10 1015 87 10000 2.6 120 22:22 22.01.2020
346 Rain 10 1015 93 10000 3.1 110 21:41 22.01.2020
347 Rain 10 1015 93 10000 3.1 100 21:22 22.01.2020
348 Rain 10 1015 93 10000 3.1 110 20:58 22.01.2020
349 Rain 10 1015 93 10000 3.1 110 20:39 22.01.2020
350 Rain 10 1015 93 10000 3.1 110 20:21 22.01.2020
351 Rain 10 1015 93 10000 2.6 110 19:57 22.01.2020
352 Rain 10 1015 93 10000 2.6 110 19:39 22.01.2020
353 Rain 10 1015 93 8000 2.6 190 19:19 22.01.2020
354 Rain 10 1015 93 8000 2.6 250 18:57 22.01.2020
355 Rain 10 1015 93 8000 2.6 250 18:38 22.01.2020
356 Rain 11 1014 93 8000 0.5 0 18:20 22.01.2020
357 Rain 11 1014 93 10000 1.5 70 17:55 22.01.2020
358 Rain 12 1014 93 10000 1.5 70 17:37 22.01.2020
359 Rain 11 1014 87 10000 2.1 50 17:19 22.01.2020
360 Clouds 11 1014 93 10000 3.1 40 16:43 22.01.2020
361 Clouds 11 1014 100 10000 3.1 30 16:23 22.01.2020
362 Rain 11 1014 93 10000 1.5 30 15:59 22.01.2020
363 Rain 11 1014 93 10000 1.5 30 15:40 22.01.2020
364 Rain 11 1014 93 10000 4.1 50 15:22 22.01.2020
365 Rain 11 1015 93 9000 2.1 340 14:57 22.01.2020
366 Rain 11 1015 87 10000 2.6 30 14:37 22.01.2020
367 Rain 11 1015 87 10000 2.6 30 14:18 22.01.2020
368 Rain 10 1015 93 10000 3.1 10 13:54 22.01.2020
369 Rain 10 1015 93 10000 3.1 10 13:36 22.01.2020
370 Rain 10 1016 93 10000 3.1 40 13:18 22.01.2020
371 Rain 10 1016 93 10000 3.1 60 12:55 22.01.2020
372 Rain 10 1016 93 10000 3.1 60 12:37 22.01.2020
373 Rain 10 1016 93 10000 2.1 60 12:18 22.01.2020
374 Rain 9 1016 93 10000 3.6 90 11:56 22.01.2020
375 Rain 9 1016 93 10000 2.6 90 11:37 22.01.2020
376 Rain 9 1016 93 10000 2.6 90 11:18 22.01.2020
377 Rain 9 1016 93 10000 2.1 90 10:44 22.01.2020
378 Rain 9 1015 93 9000 3.1 110 10:20 22.01.2020
379 Rain 9 1015 100 10000 3.1 120 09:44 22.01.2020
380 Rain 9 1015 93 10000 3.1 110 09:25 22.01.2020
381 Rain 9 1015 93 10000 2.6 130 08:58 22.01.2020
382 Drizzle 9 1014 93 8000 2.6 120 08:40 22.01.2020
383 Drizzle 9 1014 93 8000 2.6 120 08:21 22.01.2020
384 Rain 8 1014 93 10000 3.1 130 07:58 22.01.2020
385 Rain 8 1014 93 10000 3.1 130 07:58 22.01.2020
386 Rain 8 1014 93 10000 3.1 130 07:40 22.01.2020
387 Drizzle 9 1014 93 7000 2.1 120 07:21 22.01.2020
388 Rain 9 1014 100 9000 2.1 90 06:31 22.01.2020
389 Rain 9 1014 100 9000 2.1 80 05:42 22.01.2020
390 Rain 9 1014 87 10000 4.1 90 04:23 22.01.2020
391 Clouds 9 1014 87 10000 3.1 80 03:26 22.01.2020
392 Clouds 9 1014 81 10000 2.1 60 02:32 22.01.2020
393 Clouds 10 1014 76 10000 3.1 50 00:46 22.01.2020
394 Clouds 10 1013 76 10000 3.1 40 00:27 22.01.2020
395 Clouds 10 1013 76 10000 3.1 40 23:55 21.01.2020
396 Clouds 10 1013 76 10000 3.1 40 23:36 21.01.2020
397 Clouds 10 1013 81 10000 2.1 40 23:18 21.01.2020
398 Clouds 10 1013 81 10000 2.1 40 22:40 21.01.2020
399 Clouds 10 1013 71 10000 2.6 20 22:20 21.01.2020
400 Clouds 10 1013 71 10000 2.6 20 22:20 21.01.2020
401 Clouds 10 1013 71 10000 1.5 10 21:57 21.01.2020
402 Clouds 10 1013 71 10000 1.5 10 21:38 21.01.2020
403 Clouds 10 1013 71 10000 1 60 21:20 21.01.2020
404 Clouds 10 1013 66 10000 3.6 60 20:56 21.01.2020
405 Clouds 11 1013 66 10000 3.6 60 20:37 21.01.2020
406 Clouds 11 1013 62 10000 3.6 50 20:19 21.01.2020
407 Clouds 11 1013 66 10000 2.6 50 19:56 21.01.2020
408 Clouds 11 1013 66 10000 2.6 50 19:56 21.01.2020
409 Clouds 11 1013 66 10000 2.6 50 19:38 21.01.2020
410 Clouds 11 1012 66 10000 1.5 50 19:20 21.01.2020
411 Clouds 11 1012 62 10000 2.1 40 18:55 21.01.2020
412 Clouds 11 1012 62 10000 2.1 40 18:37 21.01.2020
413 Clouds 12 1012 58 10000 3.6 30 18:18 21.01.2020
414 Clouds 12 1012 54 10000 4.6 30 17:45 21.01.2020
415 Clouds 12 1012 54 10000 5.1 30 17:20 21.01.2020
416 Clouds 12 1012 50 10000 4.1 30 16:59 21.01.2020
417 Clouds 12 1012 50 10000 4.1 30 16:59 21.01.2020
418 Clouds 12 1012 50 10000 4.1 30 16:37 21.01.2020
419 Clouds 12 1012 54 10000 5.7 20 16:19 21.01.2020
420 Clouds 12 1012 54 10000 5.1 40 15:54 21.01.2020
421 Clouds 12 1012 54 10000 5.1 40 15:36 21.01.2020
422 Clouds 12 1012 58 10000 4.6 40 15:18 21.01.2020
423 Clouds 12 1013 54 10000 4.6 30 14:38 21.01.2020
424 Clouds 12 1013 54 10000 4.6 30 14:20 21.01.2020
425 Clouds 12 1013 50 10000 3.6 40 13:40 21.01.2020
426 Clouds 12 1014 54 10000 4.6 20 13:19 21.01.2020
427 Clouds 12 1014 58 10000 4.1 20 12:56 21.01.2020
428 Clouds 12 1014 58 10000 4.1 20 12:37 21.01.2020
429 Clouds 12 1014 54 10000 3.1 20 12:19 21.01.2020
430 Clouds 11 1014 62 10000 2.1 350 11:40 21.01.2020
431 Clouds 11 1014 57 10000 2.1 360 11:21 21.01.2020
432 Clouds 10 1015 66 10000 1 40 10:57 21.01.2020
433 Clouds 10 1015 66 10000 1 40 10:57 21.01.2020
434 Clouds 9 1015 70 10000 1 40 10:39 21.01.2020
435 Clouds 9 1015 70 10000 1 40 10:20 21.01.2020
436 Clouds 8 1015 81 10000 3.13 22 09:42 21.01.2020
437 Clouds 7 1014 86 10000 1 30 09:23 21.01.2020
438 Clouds 7 1015 75 10000 2.1 30 08:50 21.01.2020
439 Clouds 7 1014 81 10000 0.5 0 08:32 21.01.2020
440 Clouds 7 1014 75 10000 1.5 60 08:00 21.01.2020
441 Clouds 8 1014 75 10000 1.5 60 07:40 21.01.2020
442 Clouds 8 1014 75 10000 2.6 40 07:22 21.01.2020
443 Clouds 8 1014 81 10000 1 70 06:49 21.01.2020
444 Clouds 8 1014 81 10000 1 70 06:49 21.01.2020
445 Clouds 8 1014 70 10000 2.1 70 06:29 21.01.2020
446 Clouds 8 1014 75 10000 2.6 50 05:43 21.01.2020
447 Clouds 9 1014 66 10000 3.6 50 04:40 21.01.2020
448 Clouds 10 1015 66 10000 4.1 50 02:57 21.01.2020
449 Clouds 10 1016 57 10000 5.1 60 01:56 21.01.2020
450 Clouds 10 1016 57 10000 5.1 60 01:26 21.01.2020
451 Clouds 10 1016 57 10000 6.7 60 00:38 21.01.2020
452 Clouds 10 1015 57 10000 6.2 60 23:59 20.01.2020
453 Clouds 10 1015 57 10000 6.2 60 23:41 20.01.2020
454 Clouds 10 1015 62 10000 5.1 60 23:19 20.01.2020
455 Clouds 10 1015 62 10000 4.1 50 22:58 20.01.2020
456 Clouds 10 1015 62 10000 4.1 50 22:38 20.01.2020
457 Clouds 10 1015 62 10000 3.6 40 22:20 20.01.2020
458 Clouds 10 1015 62 10000 3.6 40 22:20 20.01.2020
459 Clouds 10 1015 57 10000 3.6 40 21:58 20.01.2020
460 Clouds 10 1015 57 10000 3.6 40 21:37 20.01.2020
461 Clouds 10 1015 61 10000 3.6 40 21:19 20.01.2020
462 Clouds 10 1015 57 10000 4.1 40 20:56 20.01.2020
463 Clouds 11 1015 57 10000 4.1 40 20:38 20.01.2020
464 Clouds 11 1015 53 10000 5.1 50 20:18 20.01.2020
465 Clouds 11 1015 57 10000 3.6 50 19:56 20.01.2020
466 Clouds 11 1015 57 10000 3.6 50 19:38 20.01.2020
467 Clouds 12 1015 50 10000 5.7 70 19:18 20.01.2020
468 Clouds 12 1014 47 10000 7.2 70 18:44 20.01.2020
469 Clouds 12 1014 47 10000 6.2 70 18:23 20.01.2020
470 Clouds 12 1014 47 10000 7.2 70 17:58 20.01.2020
471 Clouds 13 1014 44 10000 9.8 70 17:36 20.01.2020
472 Clouds 13 1014 44 10000 9.8 70 17:18 20.01.2020
473 Clouds 12 1014 43 10000 9.3 70 16:43 20.01.2020
474 Clouds 12 1014 43 10000 9.3 70 16:25 20.01.2020
475 Clouds 12 1014 46 10000 9.3 70 15:58 20.01.2020
476 Clouds 12 1014 46 10000 9.3 70 15:39 20.01.2020
477 Clouds 12 1014 50 10000 6.7 60 15:21 20.01.2020
478 Clouds 12 1015 52 10000 10.8 70 14:42 20.01.2020
479 Clouds 11 1015 52 10000 10.8 50 14:24 20.01.2020
480 Clouds 11 1016 45 10000 9.8 60 13:59 20.01.2020
481 Clouds 11 1016 45 10000 9.8 60 13:40 20.01.2020
482 Clouds 11 1016 45 10000 10.3 60 13:22 20.01.2020
483 Clouds 10 1017 46 10000 10.3 70 12:47 20.01.2020
484 Clouds 10 1017 46 10000 11.3 50 12:28 20.01.2020
485 Clouds 9 1017 46 10000 8.2 50 11:59 20.01.2020
486 Clouds 9 1017 46 10000 8.2 50 11:40 20.01.2020
487 Clouds 9 1017 49 10000 7.2 50 11:21 20.01.2020
488 Clouds 8 1017 57 10000 6.2 60 10:57 20.01.2020
489 Clouds 8 1017 57 10000 6.2 60 10:39 20.01.2020
490 Clouds 8 1017 49 10000 6.2 50 10:19 20.01.2020
491 Clouds 8 1017 49 10000 6.2 50 10:19 20.01.2020
492 Clouds 7 1017 49 10000 4.6 60 09:40 20.01.2020
493 Clouds 7 1017 56 10000 6.2 40 09:21 20.01.2020
494 Clouds 7 1017 56 10000 4.1 50 08:49 20.01.2020
495 Clouds 7 1017 56 10000 5.1 50 08:30 20.01.2020
496 Clouds 7 1017 44 10000 3.1 60 07:53 20.01.2020
497 Clouds 7 1017 44 10000 5.1 60 07:30 20.01.2020
498 Clouds 7 1017 44 10000 4.6 50 06:59 20.01.2020
499 Clouds 7 1017 44 10000 4.6 60 06:30 20.01.2020
500 Clouds 8 1017 44 10000 5.1 50 05:44 20.01.2020
501 Clouds 8 1018 44 10000 5.1 60 05:25 20.01.2020
502 Clouds 8 1018 46 10000 5.1 60 04:49 20.01.2020
503 Clouds 8 1018 57 10000 7.2 60 03:30 20.01.2020
504 Clouds 9 1019 53 10000 7.2 50 01:58 20.01.2020
505 Clouds 10 1019 53 10000 7.2 50 01:38 20.01.2020
506 Clouds 9 1019 53 10000 7.2 50 00:46 20.01.2020
507 Clouds 9 1019 50 10000 6.7 60 00:26 20.01.2020
508 Clouds 9 1019 50 10000 8.2 50 23:54 19.01.2020
509 Clouds 9 1019 53 10000 8.7 50 23:36 19.01.2020
510 Clouds 10 1019 53 10000 8.7 50 23:18 19.01.2020
511 Clouds 11 1019 57 10000 7.2 50 22:54 19.01.2020
512 Clouds 11 1019 57 10000 7.2 50 22:36 19.01.2020
513 Clouds 11 1019 57 10000 6.2 50 22:18 19.01.2020
514 Clouds 11 1019 57 10000 7.2 60 21:54 19.01.2020
515 Clouds 11 1019 57 10000 7.2 60 21:36 19.01.2020
516 Clouds 12 1018 54 10000 9.8 50 21:18 19.01.2020
517 Clouds 12 1018 43 10000 12.3 40 20:54 19.01.2020
518 Clouds 12 1018 43 10000 12.3 40 20:36 19.01.2020
519 Clouds 13 1018 47 10000 6.2 20 20:18 19.01.2020
520 Clouds 13 1018 50 10000 5.1 20 19:54 19.01.2020
521 Clouds 13 1018 50 10000 5.1 20 19:36 19.01.2020
522 Clouds 13 1018 50 10000 5.1 30 19:18 19.01.2020
523 Clouds 14 1018 47 10000 6.7 30 18:54 19.01.2020
524 Clouds 14 1018 47 10000 6.7 30 18:36 19.01.2020
525 Clouds 14 1018 47 10000 7.7 40 18:18 19.01.2020
526 Clouds 15 1018 44 10000 5.7 30 17:55 19.01.2020
527 Clouds 15 1018 48 10000 6.7 40 17:37 19.01.2020
528 Clouds 15 1018 48 10000 6.7 40 17:18 19.01.2020
529 Clouds 15 1018 48 10000 8.7 20 16:41 19.01.2020
530 Clouds 16 1018 51 10000 7.7 10 16:22 19.01.2020
531 Clouds 16 1018 48 10000 5.7 10 16:00 19.01.2020
532 Clouds 16 1018 48 10000 5.7 10 15:40 19.01.2020
533 Clouds 16 1018 48 10000 9.8 30 15:22 19.01.2020
534 Clouds 16 1018 48 10000 7.7 20 14:59 19.01.2020
535 Clouds 16 1018 48 10000 7.7 20 14:59 19.01.2020
536 Clouds 16 1018 48 10000 7.7 20 14:40 19.01.2020
537 Clear 16 1019 55 10000 4.1 360 14:19 19.01.2020
538 Clouds 15 1020 58 10000 4.6 10 13:58 19.01.2020
539 Clouds 15 1020 58 10000 4.6 10 13:39 19.01.2020
540 Clear 15 1020 58 10000 4.1 350 13:21 19.01.2020
541 Clear 14 1021 62 10000 5.7 360 12:58 19.01.2020
542 Clear 14 1021 62 10000 5.7 360 12:58 19.01.2020
543 Clear 14 1021 62 10000 5.7 360 12:58 19.01.2020
544 Clear 14 1021 62 10000 5.7 360 12:40 19.01.2020
545 Clear 14 1021 62 10000 5.7 360 12:40 19.01.2020
546 Clear 14 1021 67 10000 4.6 350 12:21 19.01.2020
547 Clear 13 1022 76 10000 4.1 310 11:57 19.01.2020
548 Clear 13 1022 76 10000 4.1 310 11:37 19.01.2020
549 Clouds 12 1022 81 10000 3.6 310 11:18 19.01.2020
550 Clouds 11 1022 81 10000 1 0 10:39 19.01.2020
551 Clouds 10 1022 87 10000 2.4 331 10:20 19.01.2020
552 Clouds 10 1021 93 10000 0.5 0 09:57 19.01.2020
553 Clouds 9 1021 93 10000 0.5 0 09:38 19.01.2020
554 Clouds 9 1021 87 10000 0.5 0 09:20 19.01.2020
555 Clouds 9 1021 87 10000 3.1 290 08:55 19.01.2020
556 Clear 9 1021 81 10000 2.6 290 08:33 19.01.2020
557 Clear 9 1021 81 10000 2.6 280 07:55 19.01.2020
558 Rain 9 1021 81 10000 2.6 270 07:29 19.01.2020
559 Rain 9 1021 87 10000 2.1 290 06:55 19.01.2020
560 Clear 9 1022 87 10000 3.1 290 06:23 19.01.2020
561 Clouds 10 1023 93 10000 2.6 240 04:18 19.01.2020
562 Clear 11 1023 82 10000 4.1 240 02:34 19.01.2020
563 Clouds 12 1024 87 10000 2.1 290 01:45 19.01.2020
564 Clouds 13 1025 87 10000 3.6 280 01:21 19.01.2020
565 Clouds 13 1025 82 10000 4.6 270 00:45 19.01.2020
566 Clouds 13 1025 87 10000 5.7 270 00:25 19.01.2020
567 Clouds 14 1025 87 10000 6.2 270 23:55 18.01.2020
568 Clouds 14 1025 93 10000 6.2 280 23:36 18.01.2020
569 Clouds 14 1025 93 10000 6.2 280 23:18 18.01.2020
570 Clouds 15 1024 93 10000 3.1 220 22:54 18.01.2020
571 Clouds 15 1024 93 10000 3.1 220 22:36 18.01.2020
572 Clouds 15 1024 93 10000 3.1 220 22:36 18.01.2020
573 Mist 15 1025 100 2000 6.7 230 22:18 18.01.2020
574 Rain 15 1025 93 10000 5.7 230 21:55 18.01.2020
575 Rain 15 1025 93 10000 5.7 230 21:36 18.01.2020
576 Rain 15 1025 93 10000 5.1 220 21:18 18.01.2020
577 Rain 16 1025 100 8000 3.6 250 20:41 18.01.2020
578 Rain 16 1026 93 4000 4.6 230 20:19 18.01.2020
579 Rain 16 1026 100 7000 5.1 230 19:54 18.01.2020
580 Rain 16 1026 100 7000 5.1 230 19:36 18.01.2020
581 Rain 16 1026 100 6000 4.6 230 19:18 18.01.2020
582 Rain 16 1026 100 9000 5.1 230 18:40 18.01.2020
583 Clouds 16 1026 93 8000 5.1 230 18:21 18.01.2020
584 Clouds 16 1026 93 10000 6.7 230 17:41 18.01.2020
585 Clouds 16 1027 93 9000 5.7 230 17:21 18.01.2020
586 Drizzle 16 1027 100 6000 5.7 220 16:57 18.01.2020
587 Drizzle 16 1027 100 6000 5.7 220 16:39 18.01.2020
588 Drizzle 15 1027 93 3000 4.6 240 16:21 18.01.2020
589 Drizzle 15 1028 93 3000 6.2 210 15:57 18.01.2020
590 Drizzle 15 1028 93 3000 6.2 210 15:39 18.01.2020
591 Rain 14 1028 93 2000 1.5 10 15:20 18.01.2020
592 Rain 14 1028 100 2000 2.6 350 14:42 18.01.2020
593 Rain 14 1029 93 2000 2.6 310 14:21 18.01.2020
594 Rain 14 1029 93 2000 5.1 320 13:59 18.01.2020
595 Rain 13 1029 93 2000 5.1 320 13:41 18.01.2020
596 Rain 13 1030 93 5000 3.6 180 13:20 18.01.2020
597 Rain 12 1031 93 3000 3.6 170 12:55 18.01.2020
598 Rain 12 1031 93 3000 3.6 170 12:36 18.01.2020
599 Rain 12 1031 93 5000 3.6 160 12:18 18.01.2020
600 Rain 11 1031 93 6000 3.6 180 11:43 18.01.2020
601 Rain 11 1031 87 8000 3.1 160 11:21 18.01.2020
602 Rain 10 1032 100 5000 2.1 180 10:54 18.01.2020
603 Rain 10 1032 93 6000 0.5 0 10:36 18.01.2020
604 Rain 10 1032 93 6000 0.5 0 10:18 18.01.2020
605 Rain 10 1032 93 6000 0.5 0 09:42 18.01.2020
606 Mist 10 1031 100 5000 1.5 140 09:20 18.01.2020
607 Rain 10 1031 93 6000 1 80 08:55 18.01.2020
608 Rain 10 1031 93 6000 1 80 08:36 18.01.2020
609 Clouds 10 1031 93 9000 0.7 52 08:18 18.01.2020
610 Clouds 10 1031 93 8000 1 0 07:40 18.01.2020
611 Clouds 10 1030 93 8000 0.5 0 07:20 18.01.2020
612 Clouds 10 1030 93 7000 1.5 280 06:45 18.01.2020
613 Clouds 10 1030 93 7000 1.81 91 05:52 18.01.2020
614 Clouds 10 1031 93 7000 0.5 150 04:28 18.01.2020
615 Clouds 10 1031 100 6000 0.93 33 02:49 18.01.2020
616 Mist 11 1032 93 5000 1.01 32 01:47 18.01.2020
617 Clouds 11 1032 93 10000 1.5 310 00:40 18.01.2020
618 Clouds 11 1032 93 10000 1.34 27 00:21 18.01.2020
619 Clouds 11 1032 87 10000 1.5 60 23:59 17.01.2020
620 Clouds 12 1032 87 10000 1.5 60 23:40 17.01.2020
621 Clouds 12 1032 87 10000 1.5 60 23:40 17.01.2020
622 Clouds 12 1032 93 10000 1 0 23:18 17.01.2020
623 Clouds 12 1032 93 10000 1 80 22:42 17.01.2020
624 Clouds 13 1032 93 10000 1.63 18 22:21 17.01.2020
625 Clouds 13 1032 87 10000 0.5 20 21:57 17.01.2020
626 Clouds 13 1032 87 10000 0.5 20 21:39 17.01.2020
627 Clouds 13 1032 87 10000 1 40 21:20 17.01.2020
628 Clouds 13 1032 87 10000 0.5 0 20:55 17.01.2020
629 Clouds 13 1032 87 10000 0.5 0 20:36 17.01.2020
630 Clouds 14 1032 82 10000 2.1 50 20:18 17.01.2020
631 Clouds 14 1031 82 10000 2.6 50 19:54 17.01.2020
632 Clouds 14 1031 82 10000 2.6 50 19:54 17.01.2020
633 Clouds 14 1031 82 10000 2.6 50 19:36 17.01.2020
634 Clouds 15 1031 82 10000 1.5 20 19:18 17.01.2020
635 Clouds 15 1031 82 10000 1.5 20 19:18 17.01.2020
636 Clouds 16 1031 77 10000 1.5 360 18:45 17.01.2020
637 Clouds 17 1031 68 10000 0.59 147 18:27 17.01.2020
638 Clouds 17 1031 63 10000 0.59 147 17:56 17.01.2020
639 Clouds 17 1031 63 10000 0.59 147 17:38 17.01.2020
640 Clouds 17 1031 68 10000 1 0 17:20 17.01.2020
641 Clouds 17 1031 68 10000 1.67 122 16:42 17.01.2020
642 Clouds 17 1031 68 10000 1.67 122 16:42 17.01.2020
643 Clouds 17 1031 72 10000 1.67 122 16:20 17.01.2020
644 Clouds 17 1031 72 10000 0.5 50 15:49 17.01.2020
645 Clouds 16 1031 77 10000 2.1 40 15:28 17.01.2020
646 Clouds 16 1032 77 10000 1.5 110 14:59 17.01.2020
647 Clouds 15 1032 77 10000 1.5 110 14:40 17.01.2020
648 Clouds 15 1032 82 10000 2.1 60 14:22 17.01.2020
649 Clouds 14 1033 82 10000 1.5 70 13:42 17.01.2020
650 Clouds 14 1033 87 10000 2.6 10 13:22 17.01.2020
651 Clouds 14 1033 87 10000 2.1 100 12:46 17.01.2020
652 Clouds 13 1033 82 10000 2.6 20 12:23 17.01.2020
653 Clouds 13 1034 87 10000 2.6 20 11:41 17.01.2020
654 Clouds 13 1034 87 10000 2.6 20 11:41 17.01.2020
655 Clouds 13 1033 87 10000 3.1 30 11:20 17.01.2020
656 Clouds 12 1033 93 10000 1 40 10:56 17.01.2020
657 Clouds 11 1033 93 10000 1 40 10:38 17.01.2020
658 Clouds 11 1033 93 10000 1 10 10:20 17.01.2020
659 Clouds 11 1032 93 10000 2.1 360 09:44 17.01.2020
660 Clouds 11 1032 93 10000 2.1 360 09:21 17.01.2020
661 Clouds 11 1031 87 10000 0.5 0 08:58 17.01.2020
662 Clouds 11 1032 87 10000 0.5 0 08:40 17.01.2020
663 Rain 11 1031 87 10000 0.5 0 08:21 17.01.2020
664 Rain 11 1030 93 10000 0.5 0 07:48 17.01.2020
665 Rain 11 1030 93 10000 0.5 0 07:29 17.01.2020
666 Clouds 11 1030 87 10000 1 0 06:56 17.01.2020
667 Clouds 11 1030 87 10000 1 0 06:36 17.01.2020
668 Rain 11 1030 87 10000 1 0 05:19 17.01.2020
669 Rain 11 1029 89 0 0.94 40 03:38 17.01.2020
670 Rain 11 1030 87 10000 0.94 40 02:42 17.01.2020
671 Clouds 11 1028 81 0 0.89 223 01:45 17.01.2020
672 Clouds 11 1029 86 0 0.67 179 01:27 17.01.2020
673 Clouds 11 1030 85 0 0.32 228 00:43 17.01.2020
674 Clouds 11 1029 87 10000 2.1 190 00:19 17.01.2020
675 Clouds 11 1029 87 10000 2.1 190 23:41 16.01.2020
676 Clouds 11 1029 87 10000 2.1 190 23:41 16.01.2020
677 Clouds 11 1029 87 10000 2.1 190 23:23 16.01.2020
678 Clouds 11 1029 87 10000 0.5 190 22:43 16.01.2020
679 Clouds 12 1029 87 10000 2.1 180 22:22 16.01.2020
680 Clouds 12 1029 82 10000 1.5 190 21:57 16.01.2020
681 Clouds 12 1029 82 10000 1.5 190 21:39 16.01.2020
682 Clouds 12 1029 76 10000 2.6 210 21:19 16.01.2020
683 Clouds 13 1028 72 10000 3.1 230 20:59 16.01.2020
684 Clouds 13 1028 72 10000 3.1 230 20:39 16.01.2020
685 Clear 14 1028 67 10000 3.6 230 20:20 16.01.2020
686 Clouds 14 1028 55 10000 3.1 230 19:57 16.01.2020
687 Clouds 14 1028 55 10000 3.1 230 19:39 16.01.2020
688 Clouds 15 1027 51 10000 2.1 230 19:20 16.01.2020
689 Clouds 16 1027 51 10000 1.5 220 18:56 16.01.2020
690 Clouds 16 1027 51 10000 1.5 220 18:37 16.01.2020
691 Clouds 17 1027 45 10000 2.6 220 18:18 16.01.2020
692 Clouds 17 1027 45 10000 2.6 220 18:18 16.01.2020
693 Clouds 18 1027 45 10000 3.1 220 17:56 16.01.2020
694 Clouds 18 1027 45 10000 3.1 220 17:38 16.01.2020
695 Clear 18 1027 39 10000 4.1 230 17:19 16.01.2020
696 Clear 19 1027 34 10000 3.6 230 16:40 16.01.2020
697 Clear 19 1027 37 10000 2.6 230 16:21 16.01.2020
698 Clear 18 1027 39 10000 1.5 230 15:56 16.01.2020
699 Clear 18 1027 39 10000 1.5 230 15:38 16.01.2020
700 Clear 18 1027 42 10000 1 0 15:19 16.01.2020
701 Clear 17 1027 39 10000 2.1 240 14:42 16.01.2020
702 Clear 17 1028 51 10000 1.5 40 14:23 16.01.2020
703 Clouds 15 1028 51 10000 1.89 99 13:47 16.01.2020
704 Clouds 15 1029 62 10000 2.1 20 13:29 16.01.2020
705 Clouds 14 1029 62 10000 1 0 12:59 16.01.2020
706 Clouds 13 1029 62 10000 1 0 12:40 16.01.2020
707 Clouds 13 1029 66 10000 2.6 30 12:21 16.01.2020
708 Clouds 11 1029 66 10000 1.5 60 11:43 16.01.2020
709 Clouds 10 1029 76 10000 3.1 20 11:24 16.01.2020
710 Clouds 10 1029 76 10000 3.1 40 10:57 16.01.2020
711 Clouds 9 1029 76 10000 3.1 50 10:37 16.01.2020
712 Clouds 9 1029 76 10000 3.1 50 10:19 16.01.2020
713 Clouds 8 1028 81 10000 3.1 80 09:44 16.01.2020
714 Clouds 7 1028 100 9000 1.5 40 09:24 16.01.2020
715 Clouds 8 1028 87 10000 3.1 50 08:59 16.01.2020
716 Clouds 8 1028 87 10000 3.1 50 08:41 16.01.2020
717 Clouds 8 1028 93 8000 2.1 20 08:20 16.01.2020
718 Clouds 8 1027 81 10000 2.1 60 07:43 16.01.2020
719 Clouds 8 1027 93 6000 1 0 07:25 16.01.2020
720 Clouds 8 1027 93 9000 2.6 60 06:55 16.01.2020
721 Clouds 8 1027 87 9000 2.1 40 06:35 16.01.2020
722 Rain 9 1027 87 9000 1.5 60 05:56 16.01.2020
723 Rain 9 1027 93 9000 1.5 10 05:30 16.01.2020
724 Clouds 9 1027 93 10000 0.5 30 04:37 16.01.2020
725 Mist 9 1027 87 5000 2.1 130 03:27 16.01.2020
726 Clouds 10 1028 93 6000 1 110 02:29 16.01.2020
727 Clouds 11 1028 87 10000 0.5 0 00:45 16.01.2020
728 Clouds 11 1028 93 10000 2.1 50 00:24 16.01.2020
729 Clear 11 1028 87 10000 0.5 0 23:48 15.01.2020
730 Clear 11 1027 87 10000 1.5 190 23:22 15.01.2020
731 Clear 11 1027 93 10000 2.1 170 22:57 15.01.2020
732 Clear 12 1027 93 10000 2.1 170 22:39 15.01.2020
733 Clear 12 1027 81 10000 2.1 150 22:19 15.01.2020
734 Clear 11 1027 87 10000 2.6 140 21:57 15.01.2020
735 Clear 11 1027 87 10000 2.6 140 21:37 15.01.2020
736 Clear 12 1027 87 10000 1.5 130 21:19 15.01.2020
737 Clear 12 1027 82 10000 0.5 0 20:57 15.01.2020
738 Clear 13 1027 82 10000 0.5 0 20:39 15.01.2020
739 Clear 13 1027 82 10000 0.5 0 20:39 15.01.2020
740 Clouds 14 1027 82 10000 1.5 180 20:20 15.01.2020
741 Clouds 14 1027 77 10000 1.5 180 19:55 15.01.2020
742 Clouds 15 1027 77 10000 1.5 180 19:37 15.01.2020
743 Clouds 15 1027 72 10000 1.5 210 19:19 15.01.2020
744 Clouds 16 1026 67 10000 2.1 200 18:56 15.01.2020
745 Clouds 16 1026 67 10000 2.1 200 18:56 15.01.2020
746 Clouds 17 1026 67 10000 2.1 200 18:38 15.01.2020
747 Clouds 17 1026 63 10000 3.1 220 18:19 15.01.2020
748 Clouds 17 1026 59 10000 4.1 220 17:58 15.01.2020
749 Clouds 18 1026 63 10000 4.1 220 17:38 15.01.2020
750 Clouds 18 1026 63 10000 4.1 220 17:20 15.01.2020
751 Clouds 18 1026 59 10000 4.1 220 16:42 15.01.2020
752 Clouds 18 1025 63 10000 1.5 170 16:23 15.01.2020
753 Clouds 18 1026 63 10000 0.5 250 15:59 15.01.2020
754 Clouds 17 1026 63 10000 0.5 250 15:41 15.01.2020
755 Clouds 17 1026 63 10000 0.5 250 15:41 15.01.2020
756 Clouds 17 1025 68 10000 3.6 200 15:20 15.01.2020
757 Clouds 17 1025 68 10000 3.6 200 15:20 15.01.2020
758 Clouds 16 1026 59 10000 1 0 14:44 15.01.2020
759 Clouds 16 1026 63 10000 2.1 320 14:21 15.01.2020
760 Clouds 15 1026 63 10000 1 50 13:56 15.01.2020
761 Clouds 15 1026 63 10000 1 50 13:38 15.01.2020
762 Clouds 15 1027 67 10000 1.5 40 13:19 15.01.2020
763 Clouds 14 1027 71 10000 0.5 0 12:54 15.01.2020
764 Clouds 13 1027 71 10000 0.5 0 12:36 15.01.2020
765 Clouds 12 1027 76 10000 1.5 0 12:18 15.01.2020
766 Clouds 10 1027 81 10000 2.1 40 11:38 15.01.2020
767 Clouds 10 1027 81 10000 2.1 40 11:20 15.01.2020
768 Clouds 8 1027 81 10000 0.5 0 10:47 15.01.2020
769 Clouds 7 1026 87 10000 2.1 50 10:28 15.01.2020
770 Clouds 7 1026 87 9000 1 80 09:58 15.01.2020
771 Clouds 6 1026 87 9000 1 80 09:39 15.01.2020
772 Clouds 6 1026 93 10000 1.5 30 09:19 15.01.2020
773 Clouds 6 1026 87 10000 2.6 50 08:44 15.01.2020
774 Clouds 6 1025 93 10000 2.6 10 08:24 15.01.2020
775 Rain 6 1025 93 10000 2.1 20 07:54 15.01.2020
776 Rain 6 1025 93 10000 2.6 20 07:33 15.01.2020
777 Clouds 7 1024 93 8000 1 0 06:52 15.01.2020
778 Clouds 7 1024 93 8000 0.5 0 06:28 15.01.2020
779 Clouds 7 1024 93 8000 1 0 04:57 15.01.2020
780 Clouds 8 1025 93 7000 1.99 53 03:20 15.01.2020
781 Clouds 8 1025 87 8000 1.5 50 01:48 15.01.2020
782 Clouds 8 1025 87 10000 0.5 40 01:21 15.01.2020
783 Clouds 9 1025 81 10000 1.37 81 00:37 15.01.2020
784 Clouds 9 1025 81 10000 2.6 150 00:19 15.01.2020
785 Clouds 9 1025 81 10000 2.1 140 23:46 14.01.2020
786 Clouds 9 1025 81 10000 2.1 140 23:27 14.01.2020
787 Clouds 9 1025 81 10000 2.1 120 22:57 14.01.2020
788 Clouds 9 1025 81 10000 2.1 120 22:39 14.01.2020
789 Clouds 9 1025 87 10000 2.1 120 22:18 14.01.2020
790 Clouds 9 1025 87 10000 2.1 130 21:57 14.01.2020
791 Clouds 10 1025 81 10000 0.5 0 21:38 14.01.2020
792 Clouds 10 1025 81 10000 0.5 0 21:19 14.01.2020
793 Clouds 10 1025 76 10000 1 120 20:42 14.01.2020
794 Clouds 11 1024 71 10000 1.5 150 20:23 14.01.2020
795 Clouds 12 1024 71 10000 1.5 150 19:57 14.01.2020
796 Clouds 12 1024 71 10000 1.5 150 19:39 14.01.2020
797 Clouds 12 1024 66 10000 1 170 19:21 14.01.2020
798 Clouds 13 1024 54 10000 1.5 220 18:59 14.01.2020
799 Clouds 14 1024 54 10000 1.5 220 18:40 14.01.2020
800 Clouds 15 1024 51 10000 1.5 230 18:20 14.01.2020
801 Clouds 15 1024 51 10000 1.5 230 17:55 14.01.2020
802 Clouds 15 1023 54 10000 0.5 0 17:36 14.01.2020
803 Clouds 15 1023 54 10000 0.5 0 17:18 14.01.2020
804 Clouds 15 1023 54 10000 1.5 260 16:42 14.01.2020
805 Clouds 15 1023 54 10000 2.1 220 16:22 14.01.2020
806 Clouds 15 1023 54 10000 2.1 210 15:56 14.01.2020
807 Clouds 15 1023 54 10000 2.1 210 15:38 14.01.2020
808 Clouds 15 1023 58 10000 2.1 0 15:19 14.01.2020
809 Clouds 14 1024 62 10000 1.5 260 14:43 14.01.2020
810 Clouds 13 1024 66 10000 1 0 14:20 14.01.2020
811 Clouds 13 1025 62 10000 0.74 107 13:57 14.01.2020
812 Clouds 12 1025 62 10000 0.74 107 13:38 14.01.2020
813 Clouds 12 1025 66 10000 1.5 10 13:18 14.01.2020
814 Clouds 11 1026 66 10000 1.12 114 12:41 14.01.2020
815 Clouds 10 1026 71 10000 1.5 60 12:21 14.01.2020
816 Clouds 9 1026 76 10000 1.5 50 11:55 14.01.2020
817 Clouds 8 1026 76 10000 1.5 50 11:36 14.01.2020
818 Clouds 8 1026 87 10000 2.6 30 11:18 14.01.2020
819 Clouds 7 1025 87 10000 2.6 40 10:40 14.01.2020
820 Clouds 6 1025 81 10000 3.6 30 10:20 14.01.2020
821 Clouds 6 1025 87 10000 3.1 30 09:58 14.01.2020
822 Clouds 6 1025 87 10000 3.1 30 09:40 14.01.2020
823 Clouds 6 1025 93 10000 2.6 360 09:21 14.01.2020
824 Clouds 5 1024 93 10000 2.1 30 08:56 14.01.2020
825 Clouds 5 1024 93 10000 2.1 30 08:38 14.01.2020
826 Clouds 5 1024 93 10000 2.1 20 08:19 14.01.2020
827 Clouds 6 1024 93 10000 2.1 30 07:37 14.01.2020
828 Clouds 6 1024 93 10000 2.1 30 06:59 14.01.2020
829 Clouds 6 1024 93 10000 2.1 30 06:40 14.01.2020
830 Clouds 6 1024 93 10000 1.5 360 05:33 14.01.2020
831 Clouds 7 1024 87 10000 1.5 70 04:22 14.01.2020
832 Clouds 6 1024 93 10000 1 0 03:35 14.01.2020
833 Clouds 7 1025 93 8000 1 0 02:26 14.01.2020
834 Clouds 8 1025 87 10000 1.45 351 01:18 14.01.2020
835 Clouds 7 1025 93 10000 1.45 351 00:39 14.01.2020
836 Clouds 8 1025 87 10000 1.5 130 00:21 14.01.2020
837 Clouds 8 1025 87 10000 1.45 351 23:38 13.01.2020
838 Clouds 9 1025 81 10000 0.5 10 23:18 13.01.2020
839 Clouds 9 1025 81 10000 1 140 22:54 13.01.2020
840 Clouds 9 1025 81 10000 1 140 22:36 13.01.2020
841 Clouds 9 1025 87 10000 0.93 320 22:18 13.01.2020
842 Clouds 9 1025 87 10000 1 140 21:54 13.01.2020
843 Clouds 9 1025 87 10000 1 140 21:54 13.01.2020
844 Clouds 9 1025 87 10000 1 140 21:36 13.01.2020
845 Clouds 9 1025 81 10000 0.93 320 21:18 13.01.2020
846 Clouds 10 1025 76 10000 2.6 170 20:41 13.01.2020
847 Clouds 11 1025 76 10000 2.6 160 20:22 13.01.2020
848 Clouds 12 1025 71 10000 2.1 170 19:59 13.01.2020
849 Clouds 11 1025 71 10000 2.1 170 19:40 13.01.2020
850 Clouds 12 1025 66 10000 1 210 19:20 13.01.2020
851 Clouds 12 1025 66 10000 1 210 19:20 13.01.2020
852 Clouds 13 1025 58 10000 1 0 18:58 13.01.2020
853 Clouds 14 1025 58 10000 1 0 18:38 13.01.2020
854 Clouds 14 1025 58 10000 2.1 330 18:19 13.01.2020
855 Clouds 15 1025 48 10000 0.5 0 17:57 13.01.2020
856 Clouds 15 1025 48 10000 0.5 0 17:38 13.01.2020
857 Clouds 15 1025 51 10000 1 0 17:20 13.01.2020
858 Clouds 15 1025 51 10000 1 0 16:40 13.01.2020
859 Clouds 15 1025 56 0 0.53 271 16:22 13.01.2020
860 Clouds 15 1025 59 0 0.53 271 15:56 13.01.2020
861 Clouds 15 1025 56 0 0.53 271 15:38 13.01.2020
862 Clouds 14 1025 58 0 0.53 271 15:19 13.01.2020
863 Clouds 14 1026 63 0 0.53 271 14:43 13.01.2020
864 Clouds 13 1025 62 0 0.45 96 14:24 13.01.2020
865 Clouds 13 1027 64 0 2.06 62 13:59 13.01.2020
866 Clouds 12 1026 63 0 2.06 62 13:40 13.01.2020
867 Clouds 12 1027 69 0 0.89 23 13:21 13.01.2020
868 Clouds 10 1029 76 10000 3.1 40 12:56 13.01.2020
869 Clouds 10 1029 76 10000 3.1 40 12:38 13.01.2020
870 Clouds 9 1029 76 10000 3.1 40 12:20 13.01.2020
871 Clouds 9 1029 76 10000 3.1 40 12:19 13.01.2020
872 Clouds 9 1029 76 10000 3.1 40 12:19 13.01.2020
873 Clouds 8 1029 76 10000 3.1 40 11:39 13.01.2020
874 Clouds 7 1028 81 10000 3.6 30 11:20 13.01.2020
875 Clouds 7 1028 81 10000 3.1 40 10:57 13.01.2020
876 Clouds 6 1028 81 10000 3.1 40 10:39 13.01.2020
877 Clouds 5 1028 81 10000 3.6 40 10:20 13.01.2020
878 Clouds 5 1028 81 10000 3.6 40 10:20 13.01.2020
879 Clouds 5 1028 93 10000 2.6 30 09:58 13.01.2020
880 Clouds 5 1028 93 10000 2.6 30 09:40 13.01.2020
881 Clouds 4 1028 93 10000 2.6 30 09:21 13.01.2020
882 Clouds 4 1028 86 10000 1.5 10 08:41 13.01.2020
883 Clear 4 1027 93 10000 1.5 20 08:20 13.01.2020
884 Clear 4 1027 86 10000 2.6 40 07:52 13.01.2020
885 Clear 4 1027 93 10000 2.6 20 07:33 13.01.2020
886 Clear 5 1027 93 10000 3.1 20 06:44 13.01.2020
887 Clear 5 1027 93 10000 2.6 30 06:22 13.01.2020
888 Clear 5 1027 86 10000 1.5 30 05:36 13.01.2020
889 Clear 6 1028 81 10000 2.1 40 03:57 13.01.2020
890 Clear 7 1028 81 10000 3.1 60 03:26 13.01.2020
891 Clear 7 1028 87 10000 1.5 330 02:47 13.01.2020
892 Clear 7 1028 87 10000 1.5 330 02:29 13.01.2020
893 Clear 7 1029 81 10000 1 0 01:22 13.01.2020
894 Clear 7 1029 81 10000 1 0 01:22 13.01.2020
895 Clear 8 1029 81 10000 1.5 90 00:42 13.01.2020
896 Clear 8 1029 76 10000 3.1 70 00:24 13.01.2020
897 Clear 9 1029 76 10000 2.6 60 23:55 12.01.2020
898 Clear 9 1029 76 10000 1.5 60 23:36 12.01.2020
899 Clear 9 1029 76 10000 1.5 60 23:18 12.01.2020
900 Clear 9 1029 76 10000 1.5 60 23:18 12.01.2020
901 Clear 9 1029 81 10000 1.5 40 22:42 12.01.2020
902 Clear 9 1029 81 10000 1.5 50 22:24 12.01.2020
903 Clear 10 1029 76 10000 0.5 0 21:57 12.01.2020
904 Clear 9 1029 76 10000 0.5 0 21:38 12.01.2020
905 Clear 11 1029 76 10000 0.5 40 21:19 12.01.2020
906 Clear 10 1029 71 10000 1 90 20:57 12.01.2020
907 Clear 11 1029 71 10000 1 90 20:38 12.01.2020
908 Clear 11 1029 71 10000 0.42 125 20:20 12.01.2020
909 Clear 11 1029 66 10000 0.5 0 19:56 12.01.2020
910 Clear 12 1029 66 10000 0.5 0 19:38 12.01.2020
911 Clear 12 1029 62 10000 1 100 19:19 12.01.2020
912 Clear 13 1028 54 10000 1 110 18:57 12.01.2020
913 Clear 13 1028 54 10000 1 110 18:39 12.01.2020
914 Clear 14 1028 38 10000 1 0 18:21 12.01.2020
915 Clear 16 1028 38 10000 1.5 100 17:55 12.01.2020
916 Clear 16 1028 38 10000 1.5 100 17:37 12.01.2020
917 Clear 16 1029 38 10000 1 0 17:18 12.01.2020
918 Clear 16 1028 41 10000 1 0 16:54 12.01.2020
919 Clear 16 1028 41 10000 1 0 16:36 12.01.2020
920 Clear 16 1029 44 10000 1 0 16:18 12.01.2020
921 Clear 16 1029 51 10000 1 0 15:42 12.01.2020
922 Clear 15 1029 54 10000 1.5 30 15:23 12.01.2020
923 Clear 15 1030 58 10000 1 0 14:55 12.01.2020
924 Clear 15 1030 58 10000 1 0 14:36 12.01.2020
925 Clear 14 1030 58 10000 1.5 60 14:18 12.01.2020
926 Clear 13 1031 62 10000 2.1 60 13:42 12.01.2020
927 Clear 12 1031 66 10000 2.6 50 13:23 12.01.2020
928 Clear 12 1032 66 10000 3.1 40 12:58 12.01.2020
929 Clear 11 1032 66 10000 3.1 40 12:38 12.01.2020
930 Clear 10 1033 76 10000 3.1 30 12:19 12.01.2020
931 Clear 9 1032 76 10000 3.1 40 11:55 12.01.2020
932 Clear 8 1032 75 10000 3.1 40 11:36 12.01.2020
933 Clear 8 1032 75 10000 3.1 40 11:18 12.01.2020
934 Clear 6 1032 87 10000 3.1 30 10:41 12.01.2020
935 Clear 6 1032 87 10000 3.1 30 10:21 12.01.2020
936 Clear 5 1032 86 10000 2.6 40 09:56 12.01.2020
937 Clear 5 1032 86 10000 2.6 40 09:38 12.01.2020
938 Clear 5 1031 93 10000 1.5 50 09:18 12.01.2020
939 Clear 4 1031 93 10000 2.6 40 08:42 12.01.2020
940 Clear 5 1031 86 10000 3.1 30 08:19 12.01.2020
941 Clear 5 1031 86 10000 3.1 30 07:40 12.01.2020
942 Clear 5 1031 93 10000 2.6 40 07:21 12.01.2020
943 Clear 5 1031 86 10000 2.1 60 06:43 12.01.2020
944 Clear 6 1031 86 10000 1.5 30 06:24 12.01.2020
945 Clear 6 1031 86 10000 2.1 40 05:24 12.01.2020
946 Clear 6 1031 86 10000 2.1 50 03:55 12.01.2020
947 Clear 6 1031 86 10000 1.5 350 03:22 12.01.2020
948 Mist 6 1031 87 5000 0.5 0 02:33 12.01.2020
949 Clear 7 1031 87 10000 0.5 0 01:43 12.01.2020
950 Clear 8 1031 81 10000 1 50 01:22 12.01.2020
951 Clear 8 1031 81 10000 1.79 12 00:41 12.01.2020
952 Clear 8 1031 81 10000 1 0 00:20 12.01.2020
953 Clear 8 1031 81 10000 1 0 00:20 12.01.2020
954 Clear 9 1031 75 10000 2.1 90 23:42 11.01.2020
955 Clear 9 1031 75 10000 1 0 23:20 11.01.2020
956 Clear 9 1031 81 10000 1.91 17 22:58 11.01.2020
957 Clear 9 1031 81 10000 1.91 17 22:58 11.01.2020
958 Clear 9 1031 81 10000 1.91 17 22:40 11.01.2020
959 Clear 10 1030 76 10000 1 0 22:20 11.01.2020
960 Clear 10 1030 76 10000 1 0 21:58 11.01.2020
961 Clear 10 1030 76 10000 1 0 21:40 11.01.2020
962 Clear 11 1030 76 10000 0.5 0 21:18 11.01.2020
963 Clear 10 1030 66 10000 0.5 110 20:42 11.01.2020
964 Clear 11 1030 71 10000 1.5 120 20:22 11.01.2020
965 Clear 12 1030 62 10000 1 0 19:59 11.01.2020
966 Clear 12 1030 62 10000 1 0 19:40 11.01.2020
967 Clear 12 1030 62 10000 1 0 19:40 11.01.2020
968 Clear 12 1029 54 10000 1 40 19:22 11.01.2020
969 Clear 14 1029 47 10000 1.5 30 18:59 11.01.2020
970 Clear 14 1029 47 10000 1.5 30 18:39 11.01.2020
971 Clear 15 1029 44 10000 1.5 50 18:20 11.01.2020
972 Clear 16 1029 41 10000 1.5 70 17:58 11.01.2020
973 Clear 16 1029 41 10000 1.5 70 17:40 11.01.2020
974 Clear 16 1029 38 10000 1.5 60 17:20 11.01.2020
975 Clear 16 1029 38 10000 1.5 70 16:55 11.01.2020
976 Clear 16 1029 38 10000 1.5 70 16:55 11.01.2020
977 Clear 16 1029 38 10000 1.5 70 16:36 11.01.2020
978 Clear 16 1029 38 10000 1.5 70 16:36 11.01.2020
979 Clear 16 1029 41 10000 2.6 30 16:18 11.01.2020
980 Clear 15 1029 41 10000 2.6 50 15:41 11.01.2020
981 Clear 15 1029 41 10000 3.6 40 15:23 11.01.2020
982 Clear 15 1029 44 10000 3.1 70 14:58 11.01.2020
983 Clear 15 1030 41 10000 4.1 80 14:40 11.01.2020
984 Clear 14 1030 41 10000 4.1 80 14:21 11.01.2020
985 Clear 14 1030 47 10000 4.6 60 13:55 11.01.2020
986 Clear 14 1030 44 10000 5.1 70 13:36 11.01.2020
987 Clear 13 1030 44 10000 5.1 70 13:18 11.01.2020
988 Clear 12 1031 50 10000 5.7 60 12:42 11.01.2020
989 Clear 12 1031 50 10000 5.7 60 12:24 11.01.2020
990 Clear 11 1031 54 10000 4.1 60 11:54 11.01.2020
991 Clear 10 1031 54 10000 4.1 60 11:36 11.01.2020
992 Clear 10 1031 61 10000 3.6 60 11:18 11.01.2020
993 Clear 8 1030 66 10000 3.1 50 10:42 11.01.2020
994 Clear 8 1030 70 10000 2.1 30 10:23 11.01.2020
995 Clear 7 1030 75 10000 2.1 40 09:39 11.01.2020
996 Clear 6 1030 75 10000 3.1 50 09:21 11.01.2020
997 Clear 6 1030 75 10000 3.1 50 09:21 11.01.2020
998 Clear 6 1029 70 10000 3.6 60 08:43 11.01.2020
999 Clear 7 1029 70 10000 3.1 70 08:23 11.01.2020
1000 Clear 7 1029 70 10000 2.1 60 07:45 11.01.2020
1001 Clear 7 1029 70 10000 2.6 60 07:26 11.01.2020
1002 Clear 7 1028 65 10000 3.1 30 06:55 11.01.2020
1003 Clear 7 1028 65 10000 3.1 30 06:22 11.01.2020
1004 Clear 8 1028 70 10000 2.1 50 04:48 11.01.2020
1005 Clear 8 1029 65 10000 2.6 30 04:30 11.01.2020
1006 Clear 8 1029 70 10000 2.1 30 03:58 11.01.2020
1007 Clear 8 1028 75 10000 0.5 0 02:43 11.01.2020
1008 Clear 9 1028 75 10000 1 0 01:44 11.01.2020
1009 Clear 9 1028 70 10000 1.5 80 01:21 11.01.2020
1010 Clear 9 1028 75 10000 2.1 60 00:47 11.01.2020
1011 Clear 9 1028 75 10000 1.5 50 00:20 11.01.2020
1012 Clear 9 1028 70 10000 2.1 40 23:41 10.01.2020
1013 Clear 9 1028 70 10000 1.5 30 23:23 10.01.2020
1014 Clear 10 1028 62 10000 2.6 50 22:59 10.01.2020
1015 Clear 10 1028 62 10000 2.6 50 22:41 10.01.2020
1016 Clear 11 1028 66 10000 4.1 50 22:21 10.01.2020
1017 Clear 10 1028 76 10000 3.1 30 21:58 10.01.2020
1018 Clear 10 1028 76 10000 3.1 30 21:39 10.01.2020
1019 Clear 12 1027 71 10000 1 0 21:20 10.01.2020
1020 Clear 11 1027 81 10000 1.5 40 20:56 10.01.2020
1021 Clear 11 1027 81 10000 1.5 40 20:38 10.01.2020
1022 Clouds 12 1027 76 10000 1.5 80 20:19 10.01.2020
1023 Clouds 13 1026 67 10000 1 20 19:40 10.01.2020
1024 Clouds 13 1026 71 10000 0.5 50 19:20 10.01.2020
1025 Clouds 14 1026 58 10000 1 10 18:55 10.01.2020
1026 Clouds 14 1026 58 10000 1 10 18:36 10.01.2020
1027 Clouds 15 1026 55 10000 1 80 18:18 10.01.2020
1028 Clouds 15 1026 55 10000 1.5 50 17:56 10.01.2020
1029 Clouds 15 1026 55 10000 1.5 50 17:37 10.01.2020
1030 Clouds 15 1025 51 10000 1.5 50 17:19 10.01.2020
1031 Clouds 15 1025 55 10000 3.1 50 16:41 10.01.2020
1032 Clouds 15 1025 55 10000 2.6 60 16:21 10.01.2020
1033 Clouds 15 1025 55 10000 2.6 50 15:56 10.01.2020
1034 Clouds 15 1025 55 10000 2.6 50 15:38 10.01.2020
1035 Clouds 15 1026 51 10000 5.1 20 15:19 10.01.2020
1036 Clouds 15 1026 47 10000 3.6 20 14:58 10.01.2020
1037 Clouds 14 1026 47 10000 3.6 20 14:40 10.01.2020
1038 Clouds 14 1026 50 10000 3.1 20 14:19 10.01.2020
1039 Clouds 14 1027 58 10000 3.6 20 13:56 10.01.2020
1040 Clouds 13 1027 58 10000 3.6 20 13:37 10.01.2020
1041 Clouds 13 1027 58 10000 3.6 40 13:18 10.01.2020
1042 Clouds 12 1027 62 10000 3.6 360 12:56 10.01.2020
1043 Clouds 12 1027 62 10000 3.6 360 12:38 10.01.2020
1044 Clouds 11 1028 76 10000 3.1 50 12:18 10.01.2020
1045 Clouds 10 1028 93 7000 2.1 30 11:42 10.01.2020
1046 Clouds 9 1028 87 8000 2.6 20 11:22 10.01.2020
1047 Mist 8 1028 100 3000 0.5 0 10:59 10.01.2020
1048 Mist 7 1028 100 3000 0.5 0 10:38 10.01.2020
1049 Fog 7 1027 93 200 0.5 70 10:20 10.01.2020
1050 Fog 6 1027 100 800 0.5 0 09:55 10.01.2020
1051 Fog 6 1027 100 800 0.5 0 09:37 10.01.2020
1052 Fog 6 1027 100 150 1 270 09:18 10.01.2020
1053 Fog 6 1027 93 7000 0.5 0 08:40 10.01.2020
1054 Fog 6 1027 100 200 1 180 08:22 10.01.2020
1055 Clouds 7 1027 93 7000 0.5 0 07:44 10.01.2020
1056 Clouds 7 1026 93 7000 0.5 0 07:23 10.01.2020
1057 Clouds 7 1026 93 7000 1.82 13 06:45 10.01.2020
1058 Clouds 7 1026 93 6000 1.82 13 06:25 10.01.2020
1059 Mist 7 1026 93 4500 1 0 05:46 10.01.2020
1060 Mist 7 1027 93 5000 2.1 280 03:37 10.01.2020
1061 Mist 8 1027 93 1800 1 0 03:18 10.01.2020
1062 Mist 8 1027 93 3500 0.51 10 02:39 10.01.2020
1063 Mist 8 1027 93 3300 1 0 01:38 10.01.2020
1064 Clouds 8 1027 93 8000 0.62 33 01:19 10.01.2020
1065 Clouds 9 1027 93 8000 2.1 160 00:39 10.01.2020
1066 Clouds 9 1028 93 9000 1.5 140 23:58 09.01.2020
1067 Clouds 9 1028 87 10000 0.5 0 23:38 09.01.2020
1068 Clouds 10 1028 87 10000 0.5 0 23:20 09.01.2020
1069 Clouds 10 1028 87 10000 1 10 22:57 09.01.2020
1070 Clouds 10 1028 87 10000 1 10 22:38 09.01.2020
1071 Clouds 11 1027 87 10000 1 0 22:19 09.01.2020
1072 Clouds 11 1027 81 10000 1 0 21:57 09.01.2020
1073 Clouds 11 1027 81 10000 1 0 21:37 09.01.2020
1074 Clouds 11 1027 81 10000 1 0 21:37 09.01.2020
1075 Clouds 11 1027 87 10000 1 0 21:19 09.01.2020
1076 Clouds 11 1027 81 10000 1 0 20:57 09.01.2020
1077 Clouds 11 1027 81 10000 1 0 20:39 09.01.2020
1078 Clouds 12 1027 71 10000 2.1 210 20:19 09.01.2020
1079 Clouds 12 1027 67 10000 1.5 210 19:57 09.01.2020
1080 Clouds 12 1027 67 10000 1 210 19:37 09.01.2020
1081 Clouds 12 1027 67 10000 1 210 19:19 09.01.2020
1082 Clouds 14 1027 67 10000 1.5 240 18:55 09.01.2020
1083 Clouds 15 1026 62 10000 2.1 220 18:36 09.01.2020
1084 Clouds 14 1026 62 10000 2.1 220 18:18 09.01.2020
1085 Clouds 15 1026 59 10000 2.6 230 17:41 09.01.2020
1086 Clear 16 1026 55 10000 2.1 250 17:18 09.01.2020
1087 Clear 16 1026 55 10000 2.1 250 16:55 09.01.2020
1088 Clear 16 1027 55 10000 2.1 220 16:36 09.01.2020
1089 Clear 16 1027 55 10000 2.1 220 16:18 09.01.2020
1090 Clear 15 1027 58 10000 1 0 15:41 09.01.2020
1091 Clear 15 1027 58 10000 1 0 15:19 09.01.2020
1092 Clear 14 1027 62 10000 1.5 310 14:55 09.01.2020
1093 Clear 14 1028 62 10000 1 0 14:36 09.01.2020
1094 Clear 14 1028 62 10000 1 0 14:18 09.01.2020
1095 Clear 13 1028 62 10000 0.5 50 13:54 09.01.2020
1096 Clear 13 1028 71 10000 2.1 60 13:36 09.01.2020
1097 Clear 13 1028 71 10000 2.1 60 13:18 09.01.2020
1098 Clear 12 1030 71 10000 3.1 30 12:41 09.01.2020
1099 Clear 11 1030 71 10000 3.1 30 12:22 09.01.2020
1100 Clear 10 1030 81 10000 1 0 11:58 09.01.2020
1101 Clear 10 1029 81 10000 2.1 60 11:40 09.01.2020
1102 Clear 9 1029 81 10000 2.1 60 11:22 09.01.2020
1103 Clear 7 1029 87 10000 1.5 20 10:44 09.01.2020
1104 Clear 7 1029 87 10000 1.5 20 10:23 09.01.2020
1105 Clear 6 1028 93 10000 0.5 310 09:59 09.01.2020
1106 Clear 6 1028 93 10000 1.5 20 09:40 09.01.2020
1107 Clear 6 1028 93 10000 1.5 20 09:21 09.01.2020
1108 Rain 6 1028 87 10000 1.5 60 08:55 09.01.2020
1109 Rain 6 1028 93 10000 2.6 10 08:37 09.01.2020
1110 Clear 6 1028 93 10000 2.6 10 08:19 09.01.2020
1111 Clear 6 1028 93 10000 1.5 360 07:42 09.01.2020
1112 Clear 6 1028 93 10000 1.5 360 07:24 09.01.2020
1113 Clear 6 1027 93 9000 1.5 40 06:39 09.01.2020
1114 Clear 6 1027 93 9000 1.5 40 06:20 09.01.2020
1115 Clear 6 1028 93 9000 1 0 05:50 09.01.2020
1116 Clear 6 1028 93 9000 1 0 05:50 09.01.2020
1117 Clear 6 1028 93 7000 0.5 10 04:44 09.01.2020
1118 Clear 7 1028 93 8000 0.5 0 03:54 09.01.2020
1119 Clear 7 1028 87 6000 1 140 02:55 09.01.2020
1120 Clear 8 1028 93 7000 1 170 02:30 09.01.2020
1121 Clear 8 1028 87 10000 2.6 140 01:40 09.01.2020
1122 Clear 9 1028 87 10000 0.5 0 00:44 09.01.2020
1123 Clear 9 1028 87 10000 0.5 0 00:22 09.01.2020
1124 Clear 9 1028 81 10000 1.19 12 23:56 08.01.2020
1125 Clear 9 1028 87 10000 1 0 23:37 08.01.2020
1126 Clear 9 1028 87 10000 1 0 23:19 08.01.2020
1127 Clear 10 1028 81 10000 2.1 150 22:40 08.01.2020
1128 Clear 10 1028 81 10000 2.1 150 22:21 08.01.2020
1129 Clear 11 1027 81 10000 1.5 140 21:58 08.01.2020
1130 Clear 11 1027 81 10000 1.5 150 21:40 08.01.2020
1131 Clear 11 1027 81 10000 1.5 150 21:20 08.01.2020
1132 Clear 11 1027 81 10000 1.5 130 20:59 08.01.2020
1133 Clear 11 1027 76 10000 2.1 120 20:40 08.01.2020
1134 Clouds 12 1027 76 10000 0.5 0 20:20 08.01.2020
1135 Clouds 11 1027 76 10000 2.1 120 20:20 08.01.2020
1136 Clouds 12 1027 76 10000 0.5 0 19:57 08.01.2020
1137 Clouds 13 1027 67 10000 0.37 303 19:38 08.01.2020
1138 Clouds 15 1027 55 10000 1 330 19:19 08.01.2020
1139 Clouds 15 1027 55 10000 1 330 18:57 08.01.2020
1140 Clouds 16 1027 48 10000 1 0 18:38 08.01.2020
1141 Clouds 17 1027 48 10000 1 0 18:18 08.01.2020
1142 Clouds 17 1027 48 10000 1.5 20 17:56 08.01.2020
1143 Clouds 17 1027 42 10000 1 0 17:37 08.01.2020
1144 Clouds 18 1027 42 10000 1 0 17:18 08.01.2020
1145 Clouds 18 1027 42 10000 1 0 17:18 08.01.2020
1146 Clouds 18 1027 42 10000 1 0 16:55 08.01.2020
1147 Clouds 18 1027 42 10000 2.1 40 16:37 08.01.2020
1148 Clouds 18 1027 42 10000 2.1 40 16:18 08.01.2020
1149 Clouds 17 1027 51 10000 2.6 50 15:44 08.01.2020
1150 Clouds 17 1027 51 10000 2.6 50 15:21 08.01.2020
1151 Clouds 16 1027 48 10000 2.6 60 14:58 08.01.2020
1152 Clouds 16 1028 55 10000 2.6 40 14:39 08.01.2020
1153 Clouds 16 1028 55 10000 2.6 40 14:20 08.01.2020
1154 Clouds 16 1028 55 10000 2.6 40 14:20 08.01.2020
1155 Clouds 14 1028 58 10000 3.6 50 13:41 08.01.2020
1156 Clouds 14 1028 58 10000 3.6 50 13:20 08.01.2020
1157 Clouds 13 1029 62 10000 3.6 60 12:54 08.01.2020
1158 Clouds 12 1029 71 10000 4.6 20 12:36 08.01.2020
1159 Clouds 10 1030 71 10000 3.1 30 12:18 08.01.2020
1160 Clouds 9 1030 76 10000 3.6 30 11:47 08.01.2020
1161 Clouds 9 1030 76 10000 3.6 30 11:19 08.01.2020
1162 Clouds 8 1030 76 10000 4.1 40 10:58 08.01.2020
1163 Clouds 8 1029 81 10000 4.1 30 10:40 08.01.2020
1164 Clouds 7 1029 81 10000 4.1 30 10:20 08.01.2020
1165 Clouds 6 1029 93 10000 3.1 360 09:43 08.01.2020
1166 Clouds 6 1029 93 10000 3.1 360 09:20 08.01.2020
1167 Rain 6 1029 93 10000 1.5 30 08:58 08.01.2020
1168 Rain 5 1029 93 10000 2.1 360 08:39 08.01.2020
1169 Rain 6 1029 93 10000 2.1 360 08:20 08.01.2020
1170 Clear 6 1029 93 10000 1 0 07:52 08.01.2020
1171 Clear 6 1028 93 10000 1 30 07:33 08.01.2020
1172 Clear 6 1028 87 10000 2.1 50 06:58 08.01.2020
1173 Clear 6 1029 87 10000 1.5 40 06:40 08.01.2020
1174 Clear 6 1029 93 10000 0.5 0 05:55 08.01.2020
1175 Clear 6 1029 93 10000 1.5 20 05:25 08.01.2020
1176 Clear 7 1029 87 10000 0.5 0 04:36 08.01.2020
1177 Clear 8 1029 93 8000 1.4 31 02:46 08.01.2020
1178 Clear 8 1029 93 9000 0.5 10 02:28 08.01.2020
1179 Clear 8 1029 87 9000 0.5 10 01:56 08.01.2020
1180 Clear 9 1029 87 10000 1.58 16 01:30 08.01.2020
1181 Clear 9 1029 87 10000 1.58 16 00:51 08.01.2020
1182 Clear 9 1030 93 10000 1.58 16 00:22 08.01.2020
1183 Clear 10 1030 87 10000 1.58 16 23:46 07.01.2020
1184 Clear 10 1030 87 10000 1.62 9 23:21 07.01.2020
1185 Clear 10 1030 87 10000 0.5 30 22:55 07.01.2020
1186 Clear 10 1030 87 10000 0.5 360 22:36 07.01.2020
1187 Clear 10 1030 87 10000 0.5 360 22:18 07.01.2020
1188 Clear 10 1029 81 10000 1 130 21:42 07.01.2020
1189 Clear 11 1029 76 10000 0.5 60 21:21 07.01.2020
1190 Clear 11 1029 76 10000 0.5 60 20:58 07.01.2020
1191 Clear 11 1029 81 10000 0.5 40 20:40 07.01.2020
1192 Clear 12 1029 81 10000 0.5 40 20:21 07.01.2020
1193 Clear 12 1029 71 10000 0.5 30 19:57 07.01.2020
1194 Clear 12 1029 67 10000 0.5 0 19:37 07.01.2020
1195 Clear 13 1029 67 10000 0.5 0 19:19 07.01.2020
1196 Clear 15 1029 55 10000 1.06 45 18:56 07.01.2020
1197 Clear 15 1029 42 10000 0.5 0 18:38 07.01.2020
1198 Clear 17 1029 42 10000 0.5 0 18:18 07.01.2020
1199 Clear 17 1029 39 10000 1.06 45 18:18 07.01.2020
1200 Clear 18 1029 39 10000 1.06 45 17:55 07.01.2020
1201 Clear 18 1029 45 10000 0.5 0 17:36 07.01.2020
1202 Clear 18 1029 45 10000 0.5 0 17:18 07.01.2020
1203 Clear 18 1029 45 10000 0.5 0 16:55 07.01.2020
1204 Clear 17 1029 48 10000 1.5 50 16:36 07.01.2020
1205 Clear 17 1029 48 10000 1.5 50 16:18 07.01.2020
1206 Clear 17 1029 55 10000 2.1 70 15:42 07.01.2020
1207 Clear 16 1029 55 10000 2.1 70 15:24 07.01.2020
1208 -273 0 0 0 0 0 14:58 07.01.2020
1209 Clear 15 1030 58 10000 2.6 50 14:40 07.01.2020
1210 Clear 15 1030 58 10000 2.6 50 14:21 07.01.2020
1211 Clear 14 1031 62 10000 3.1 50 13:46 07.01.2020
1212 Clear 14 1031 62 10000 3.1 50 13:21 07.01.2020
1213 Clear 13 1031 66 10000 5.7 60 12:56 07.01.2020
1214 Clear 12 1031 71 10000 4.1 50 12:38 07.01.2020
1215 Clear 11 1031 71 10000 4.1 50 12:19 07.01.2020
1216 Clear 10 1031 76 10000 4.6 50 11:41 07.01.2020
1217 Clear 9 1031 76 10000 4.6 50 11:23 07.01.2020
1218 Clear 8 1031 87 10000 3.6 40 10:57 07.01.2020
1219 Clear 7 1031 81 10000 5.1 40 10:39 07.01.2020
1220 Clear 7 1031 81 10000 5.1 40 10:39 07.01.2020
1221 Clear 7 1031 81 10000 5.1 40 10:39 07.01.2020
1222 Clear 7 1031 81 10000 5.1 40 10:39 07.01.2020
1223 Clear 7 1031 81 10000 5.1 40 10:39 07.01.2020
1224 Clear 7 1031 81 10000 5.1 40 10:21 07.01.2020
1225 Clear 6 1031 93 8000 2.6 50 09:55 07.01.2020
1226 Clear 6 1031 93 10000 4.1 30 09:37 07.01.2020
1227 Clear 6 1031 93 10000 4.1 30 09:19 07.01.2020
1228 Clear 6 1030 93 10000 2.1 10 08:41 07.01.2020
1229 Clear 6 1030 93 10000 2.1 10 08:20 07.01.2020
1230 Clear 6 1031 93 9000 2.6 30 07:49 07.01.2020
1231 Clear 6 1031 93 9000 2.6 30 07:49 07.01.2020
1232 Clear 6 1030 93 10000 2.1 360 07:25 07.01.2020
1233 Clear 6 1030 93 8000 2.6 50 06:52 07.01.2020
1234 Clear 6 1030 93 6000 2.6 50 06:32 07.01.2020
1235 Clear 6 1030 93 6000 3.1 30 05:42 07.01.2020
1236 Clear 8 1030 87 8000 0.5 0 03:52 07.01.2020
1237 Mist 8 1030 93 4000 1.5 110 03:25 07.01.2020
1238 Clear 8 1030 93 8000 1 0 02:21 07.01.2020
1239 Clear 8 1030 87 10000 1 0 01:45 07.01.2020
1240 Clear 9 1030 87 10000 1 0 01:21 07.01.2020
1241 Clear 9 1030 87 10000 1.5 50 00:22 07.01.2020
1242 Clear 9 1030 87 9000 1 0 23:58 06.01.2020
1243 Clear 9 1030 87 9000 2.03 3 23:39 06.01.2020
1244 Clear 10 1030 87 9000 1.68 355 23:21 06.01.2020
1245 Clear 10 1030 87 10000 1 0 22:56 06.01.2020
1246 Clear 10 1030 87 10000 0.5 0 22:37 06.01.2020
1247 Clear 10 1029 87 10000 0.5 0 22:19 06.01.2020
1248 Clear 11 1029 87 10000 0.5 0 21:55 06.01.2020
1249 Clear 11 1029 87 10000 1.5 90 21:37 06.01.2020
1250 Clear 11 1029 87 10000 1.5 90 21:18 06.01.2020
1251 Clear 11 1029 87 10000 0.5 30 20:55 06.01.2020
1252 Clear 12 1029 81 10000 1 350 20:37 06.01.2020
1253 Clear 12 1029 81 10000 1 350 20:19 06.01.2020
1254 Clear 12 1028 76 10000 0.74 117 19:55 06.01.2020
1255 Clear 12 1028 76 10000 0.5 100 19:36 06.01.2020
1256 Clear 12 1028 76 10000 0.5 100 19:36 06.01.2020
1257 Clear 12 1028 76 10000 0.5 100 19:18 06.01.2020
1258 Clear 14 1028 59 10000 0.5 0 18:44 06.01.2020
1259 Clear 14 1028 62 10000 1 310 18:20 06.01.2020
1260 Clear 16 1028 51 10000 1 0 17:40 06.01.2020
1261 Clear 16 1028 58 10000 0.5 0 17:20 06.01.2020
1262 Clear 16 1028 58 10000 0.5 0 17:20 06.01.2020
1263 Clear 16 1027 51 10000 1.76 93 16:57 06.01.2020
1264 Clear 16 1027 55 10000 0.5 120 16:39 06.01.2020
1265 Clear 16 1027 55 10000 0.5 120 16:21 06.01.2020
1266 Clear 16 1027 55 10000 0.5 0 15:59 06.01.2020
1267 Clear 15 1028 55 10000 0.5 100 15:36 06.01.2020
1268 Clear 15 1028 55 10000 0.5 100 15:18 06.01.2020
1269 Clear 14 1029 67 10000 2.1 60 14:41 06.01.2020
1270 Clear 14 1029 67 10000 2.1 60 14:41 06.01.2020
1271 Clear 14 1029 67 10000 2.1 60 14:22 06.01.2020
1272 Clear 13 1029 71 10000 2.6 50 13:59 06.01.2020
1273 Clear 13 1030 76 10000 2.6 60 13:39 06.01.2020
1274 Clear 13 1030 76 10000 2.6 60 13:21 06.01.2020
1275 Clear 12 1030 76 10000 2.6 50 12:55 06.01.2020
1276 Clear 12 1031 76 10000 2.6 50 12:37 06.01.2020
1277 Clear 11 1031 76 10000 2.6 50 12:18 06.01.2020
1278 Clear 9 1030 81 10000 2.6 10 11:42 06.01.2020
1279 Clear 9 1030 81 10000 2.6 10 11:24 06.01.2020
1280 Clear 8 1030 87 8000 3.1 30 10:59 06.01.2020
1281 Clear 8 1030 93 7000 1.5 30 10:40 06.01.2020
1282 Clear 7 1030 93 7000 1.5 30 10:21 06.01.2020
1283 Rain 7 1029 93 6000 2.1 50 09:42 06.01.2020
1284 Rain 6 1029 93 6000 2.1 50 09:23 06.01.2020
1285 Clear 6 1029 93 6000 2.1 40 08:55 06.01.2020
1286 Clear 6 1029 93 7000 1 50 08:37 06.01.2020
1287 Rain 6 1028 93 7000 1 50 07:57 06.01.2020
1288 Rain 6 1028 93 8000 2.1 20 07:38 06.01.2020
1289 Clear 6 1028 93 7000 1.5 40 06:51 06.01.2020
1290 Clear 6 1028 93 7000 2.1 40 06:32 06.01.2020
1291 Clear 7 1027 93 7000 1.5 50 05:48 06.01.2020
1292 Clear 7 1027 93 7000 2.6 50 05:23 06.01.2020
1293 Clear 7 1027 87 8000 1.5 40 04:23 06.01.2020
1294 Clear 7 1027 93 7000 2.1 60 03:30 06.01.2020
1295 Clear 8 1027 87 9000 2.1 20 02:27 06.01.2020
1296 Clear 8 1027 87 8000 0.5 20 01:53 06.01.2020
1297 Clear 9 1027 87 10000 1.5 10 01:30 06.01.2020
1298 Clear 9 1027 87 10000 1 40 00:46 06.01.2020
1299 Clear 9 1027 87 10000 1 0 00:27 06.01.2020
1300 Clear 10 1027 87 10000 0.5 10 23:57 05.01.2020
1301 Clear 10 1027 87 10000 0.5 10 23:57 05.01.2020
1302 Clear 10 1027 87 10000 0.5 0 23:38 05.01.2020
1303 Clear 10 1027 87 10000 0.5 0 23:20 05.01.2020
1304 Clear 10 1027 81 10000 1.93 14 22:40 05.01.2020
1305 Clear 11 1027 81 10000 1.93 14 22:21 05.01.2020
1306 Clear 10 1027 81 10000 1.93 14 21:58 05.01.2020
1307 Clear 10 1027 87 10000 0.5 0 21:40 05.01.2020
1308 Clear 10 1027 87 10000 0.5 0 21:20 05.01.2020
1309 Clear 11 1027 87 10000 1 30 20:58 05.01.2020
1310 Clear 11 1027 76 10000 0.5 30 20:39 05.01.2020
1311 Clear 11 1027 76 10000 0.5 30 20:39 05.01.2020
1312 Clear 12 1027 76 10000 0.5 30 20:19 05.01.2020
1313 Clear 12 1027 76 10000 1 0 19:58 05.01.2020
1314 Clear 12 1027 71 10000 1 40 19:39 05.01.2020
1315 Clear 12 1027 71 10000 1 40 19:20 05.01.2020
1316 Clear 13 1026 67 10000 2.1 50 18:56 05.01.2020
1317 Clear 14 1026 58 10000 2.6 60 18:37 05.01.2020
1318 Clear 14 1026 58 10000 2.6 60 18:19 05.01.2020
1319 Clear 15 1026 55 10000 3.6 60 17:58 05.01.2020
1320 Clear 15 1026 55 10000 4.1 70 17:39 05.01.2020
1321 Clear 16 1026 55 10000 4.1 70 17:20 05.01.2020
1322 Clear 16 1026 55 10000 4.6 70 16:57 05.01.2020
1323 Clear 16 1026 55 10000 5.1 70 16:38 05.01.2020
1324 Clear 16 1026 55 10000 5.1 70 16:19 05.01.2020
1325 Clear 16 1026 55 10000 5.1 70 16:19 05.01.2020
1326 Clear 16 1027 55 10000 4.6 80 15:39 05.01.2020
1327 Clear 16 1027 55 10000 4.6 80 15:20 05.01.2020
1328 Clear 16 1027 55 10000 5.1 80 14:56 05.01.2020
1329 Clear 15 1028 58 10000 4.6 70 14:38 05.01.2020
1330 Clear 15 1028 58 10000 4.6 70 14:20 05.01.2020
1331 Clear 14 1028 58 10000 5.1 60 13:56 05.01.2020
1332 Clear 14 1029 62 10000 4.6 60 13:38 05.01.2020
1333 Clear 14 1029 62 10000 4.6 60 13:19 05.01.2020
1334 Clear 14 1029 62 10000 4.6 60 13:19 05.01.2020
1335 Clear 13 1029 66 10000 5.1 50 12:56 05.01.2020
1336 Clear 13 1030 71 10000 5.1 50 12:37 05.01.2020
1337 Clear 12 1030 71 10000 5.1 50 12:19 05.01.2020
1338 Clear 11 1030 71 10000 5.1 60 11:44 05.01.2020
1339 Clear 11 1030 71 10000 5.1 60 11:20 05.01.2020
1340 Clear 10 1030 76 10000 6.2 60 10:59 05.01.2020
1341 Clear 10 1030 76 10000 6.2 60 10:40 05.01.2020
1342 Clear 9 1030 76 10000 6.2 60 10:19 05.01.2020
1343 Clear 8 1029 81 10000 5.7 60 09:42 05.01.2020
1344 Clear 8 1029 81 10000 5.7 60 09:22 05.01.2020
1345 Clear 7 1029 87 10000 4.6 60 08:54 05.01.2020
1346 Clear 8 1029 87 10000 3.6 60 08:35 05.01.2020
1347 Clear 8 1029 87 10000 4.1 50 07:59 05.01.2020
1348 Clear 8 1029 81 10000 4.1 50 07:39 05.01.2020
1349 Clear 8 1029 81 10000 4.1 50 07:20 05.01.2020
1350 Clouds 8 1029 87 10000 3.6 50 06:47 05.01.2020
1351 Clouds 9 1029 76 10000 5.1 60 05:39 05.01.2020
1352 Clouds 9 1029 81 10000 4.6 60 04:56 05.01.2020
1353 Clouds 9 1029 81 10000 5.7 60 04:18 05.01.2020
1354 Clear 9 1029 81 10000 4.6 50 03:31 05.01.2020
1355 Clouds 9 1030 87 9000 2.6 40 02:33 05.01.2020
1356 Clouds 9 1030 87 9000 2.1 40 01:49 05.01.2020
1357 Clouds 10 1030 81 10000 1.5 30 01:20 05.01.2020
1358 Clouds 10 1030 81 10000 2.6 40 00:57 05.01.2020
1359 Clouds 10 1031 81 10000 3.1 40 00:39 05.01.2020
1360 Clouds 10 1031 81 10000 3.1 40 00:19 05.01.2020
1361 Clear 11 1031 81 10000 2.6 20 23:41 04.01.2020
1362 Clear 11 1031 81 10000 2.6 20 23:21 04.01.2020
1363 Clear 11 1031 81 10000 1.5 20 22:59 04.01.2020
1364 Clear 11 1031 87 10000 2.04 14 22:38 04.01.2020
1365 Clear 10 1031 87 10000 2.04 14 22:20 04.01.2020
1366 Clouds 11 1030 81 10000 1 30 21:56 04.01.2020
1367 Clouds 11 1031 87 10000 2.1 340 21:37 04.01.2020
1368 Clouds 11 1031 87 10000 2.1 340 21:19 04.01.2020
1369 Clouds 11 1030 81 10000 0.5 0 20:55 04.01.2020
1370 Clouds 11 1030 87 10000 1.5 140 20:36 04.01.2020
1371 Clouds 11 1030 87 10000 1.5 140 20:36 04.01.2020
1372 Clouds 11 1030 87 10000 1.5 140 20:18 04.01.2020
1373 Clear 12 1030 76 10000 1 60 19:41 04.01.2020
1374 Clear 12 1030 76 10000 1 60 19:41 04.01.2020
1375 Clear 12 1030 76 10000 1 60 19:23 04.01.2020
1376 Clear 12 1030 71 10000 2.6 70 18:57 04.01.2020
1377 Clear 13 1030 62 10000 2.6 60 18:38 04.01.2020
1378 Clouds 13 1030 66 8000 3.6 40 18:20 04.01.2020
1379 Clear 13 1030 62 10000 2.1 80 17:56 04.01.2020
1380 Clear 13 1030 62 10000 3.6 80 17:38 04.01.2020
1381 Clear 14 1030 62 10000 3.6 80 17:20 04.01.2020
1382 Clear 14 1030 62 10000 4.6 60 16:42 04.01.2020
1383 Clear 14 1030 62 10000 4.6 60 16:24 04.01.2020
1384 Clouds 14 1030 62 10000 4.6 50 15:57 04.01.2020
1385 Clouds 13 1030 62 10000 4.6 60 15:38 04.01.2020
1386 Clouds 13 1030 62 10000 4.6 60 15:19 04.01.2020
1387 Clouds 13 1030 62 10000 4.6 70 14:56 04.01.2020
1388 Clouds 13 1031 62 10000 5.1 70 14:38 04.01.2020
1389 Clouds 13 1031 62 10000 5.1 70 14:19 04.01.2020
1390 Clouds 13 1031 62 10000 5.1 70 14:19 04.01.2020
1391 Clouds 13 1031 62 10000 5.1 70 14:19 04.01.2020
1392 Clouds 12 1032 62 10000 4.6 70 13:55 04.01.2020
1393 Clouds 12 1032 66 10000 5.1 70 13:36 04.01.2020
1394 Clouds 11 1032 66 10000 5.1 70 13:18 04.01.2020
1395 Clear 12 1033 66 10000 5.7 50 12:41 04.01.2020
1396 Clear 11 1033 66 10000 5.7 50 12:20 04.01.2020
1397 Clear 10 1033 76 10000 4.1 40 11:58 04.01.2020
1398 Clear 10 1033 81 10000 3.6 40 11:39 04.01.2020
1399 Clear 10 1033 81 10000 3.6 40 11:39 04.01.2020
1400 Clear 10 1033 81 10000 3.6 40 11:19 04.01.2020
1401 Clouds 9 1033 81 10000 3.1 40 10:55 04.01.2020
1402 Clouds 9 1032 87 10000 3.1 40 10:36 04.01.2020
1403 Clouds 8 1032 87 10000 3.1 40 10:18 04.01.2020
1404 Clouds 7 1032 93 10000 1.65 32 09:41 04.01.2020
1405 Clouds 7 1032 93 10000 1.65 32 09:22 04.01.2020
1406 Clouds 7 1032 93 9000 0.5 360 08:42 04.01.2020
1407 Clouds 7 1032 93 9000 0.5 360 08:21 04.01.2020
1408 Clouds 7 1031 93 9000 1 300 07:44 04.01.2020
1409 Clouds 7 1031 93 9000 1 300 07:26 04.01.2020
1410 Clouds 7 1031 93 9000 2.01 17 06:36 04.01.2020
1411 Clear 7 1031 93 9000 2.01 17 05:45 04.01.2020
1412 Clear 7 1032 93 10000 2.11 20 04:47 04.01.2020
1413 Clear 7 1032 93 10000 2.11 20 04:27 04.01.2020
1414 Mist 7 1032 100 5000 2.11 20 03:19 04.01.2020
1415 Clear 8 1032 93 9000 2.11 20 02:36 04.01.2020
1416 Clouds 8 1032 93 8000 0.5 0 01:58 04.01.2020
1417 Clouds 8 1032 87 10000 1 10 01:32 04.01.2020
1418 Clouds 9 1032 93 10000 1 40 00:58 04.01.2020
1419 Clouds 9 1033 87 10000 0.5 0 00:29 04.01.2020
1420 Clouds 9 1033 87 10000 1 0 23:53 03.01.2020
1421 Clouds 8 1033 93 10000 0.5 80 23:28 03.01.2020
1422 Clouds 9 1033 87 10000 3.03 360 22:55 03.01.2020
1423 Clouds 10 1033 93 10000 3.03 360 22:37 03.01.2020
1424 Clouds 10 1033 93 10000 3.03 360 22:18 03.01.2020
1425 Clouds 10 1033 93 10000 0.5 0 21:57 03.01.2020
1426 Clouds 10 1033 87 10000 3.03 360 21:37 03.01.2020
1427 Clouds 10 1033 87 10000 3.03 360 21:18 03.01.2020
1428 Clouds 10 1032 93 10000 3.03 360 20:54 03.01.2020
1429 Clouds 11 1032 87 10000 3.03 360 20:36 03.01.2020
1430 Clouds 11 1032 87 10000 2.63 352 20:18 03.01.2020
1431 Clouds 12 1032 81 10000 0.5 0 19:42 03.01.2020
1432 Clouds 12 1032 81 10000 0.5 0 19:23 03.01.2020
1433 Clouds 13 1032 76 10000 1 0 18:57 03.01.2020
1434 Clouds 13 1032 71 10000 1.5 340 18:38 03.01.2020
1435 Clouds 13 1032 71 10000 1.5 340 18:20 03.01.2020
1436 Clouds 14 1032 67 10000 2.6 350 17:42 03.01.2020
1437 Clouds 14 1032 67 10000 2.6 350 17:21 03.01.2020
1438 Clouds 14 1032 62 10000 2.6 360 16:58 03.01.2020
1439 Clouds 14 1032 67 10000 1.13 39 16:39 03.01.2020
1440 Clouds 14 1032 62 10000 2.6 360 16:20 03.01.2020
1441 Clouds 14 1032 71 10000 2.1 30 15:42 03.01.2020
1442 Clouds 14 1032 71 10000 2.1 30 15:19 03.01.2020
1443 Clouds 13 1032 76 10000 2.6 20 14:40 03.01.2020
1444 Clouds 13 1032 76 10000 2.6 20 14:40 03.01.2020
1445 Clouds 13 1032 76 10000 2.6 20 14:21 03.01.2020
1446 Clouds 13 1033 81 10000 2.6 20 13:59 03.01.2020
1447 Clouds 12 1033 76 10000 3.6 30 13:40 03.01.2020
1448 Clouds 12 1033 76 10000 3.6 30 13:22 03.01.2020
1449 Clouds 12 1034 76 10000 2.6 20 12:41 03.01.2020
1450 Clouds 11 1034 76 10000 2.6 20 12:22 03.01.2020
1451 Clouds 11 1034 87 9000 2.1 30 11:57 03.01.2020
1452 Clouds 11 1034 87 9000 2.1 30 11:57 03.01.2020
1453 Clouds 11 1034 81 10000 2.1 40 11:39 03.01.2020
1454 Clouds 10 1034 81 10000 2.1 40 11:18 03.01.2020
1455 Clouds 9 1033 87 8000 2.1 10 10:43 03.01.2020
1456 Clouds 9 1033 87 8000 2.1 10 10:24 03.01.2020
1457 Mist 8 1033 93 5000 1 60 09:57 03.01.2020
1458 Clouds 8 1033 93 7000 1.5 340 09:38 03.01.2020
1459 Clouds 8 1033 93 7000 1.5 340 09:20 03.01.2020
1460 Mist 8 1033 93 5000 0.5 0 08:54 03.01.2020
1461 Clouds 8 1033 93 6000 1.5 360 08:36 03.01.2020
1462 Clouds 8 1033 93 6000 1.5 360 08:18 03.01.2020
1463 Mist 8 1032 93 5000 1.5 330 07:39 03.01.2020
1464 Mist 8 1032 93 5000 1.5 330 07:18 03.01.2020
1465 Mist 8 1032 93 5000 1.5 330 07:18 03.01.2020
1466 Mist 8 1032 93 5000 1 20 06:42 03.01.2020
1467 Mist 8 1032 93 5000 1 20 06:24 03.01.2020
1468 Mist 9 1032 93 5000 1 30 05:20 03.01.2020
1469 Mist 8 1032 93 5000 0.5 0 03:55 03.01.2020
1470 Clouds 9 1032 93 6000 1.16 343 02:55 03.01.2020
1471 Mist 9 1032 93 4000 1.3 328 01:57 03.01.2020
1472 Clouds 9 1032 87 6000 0.5 30 01:38 03.01.2020
1473 Clouds 10 1032 87 6000 1.16 333 00:49 03.01.2020
1474 Clouds 9 1032 93 6000 1.5 140 00:29 03.01.2020
1475 Clouds 10 1032 87 7000 1.5 130 23:55 02.01.2020
1476 Clouds 10 1032 93 8000 1.5 120 23:37 02.01.2020
1477 Clouds 10 1032 93 8000 1.5 120 23:18 02.01.2020
1478 Clouds 10 1031 87 10000 0.5 0 22:44 02.01.2020
1479 Clouds 11 1031 87 10000 0.5 0 22:21 02.01.2020
1480 Clouds 10 1031 87 10000 1 150 21:57 02.01.2020
1481 Clouds 11 1031 87 10000 1 110 21:39 02.01.2020
1482 Clouds 11 1031 87 10000 1 110 21:21 02.01.2020
1483 Clouds 12 1031 87 10000 1.52 325 20:57 02.01.2020
1484 Clouds 12 1031 87 10000 1.5 120 20:39 02.01.2020
1485 Clear 12 1031 87 10000 1.5 120 20:20 02.01.2020
1486 Clouds 12 1030 76 10000 1 130 19:55 02.01.2020
1487 Clouds 12 1030 76 10000 0.5 0 19:37 02.01.2020
1488 Clouds 12 1030 76 10000 0.5 0 19:37 02.01.2020
1489 Clouds 13 1030 76 10000 0.5 0 19:19 02.01.2020
1490 Clouds 13 1030 76 10000 0.96 244 18:56 02.01.2020
1491 Clouds 14 1030 63 10000 0.96 244 18:38 02.01.2020
1492 Clouds 15 1030 63 10000 0.96 244 18:20 02.01.2020
1493 Clouds 15 1030 62 10000 2.1 350 17:56 02.01.2020
1494 Clouds 15 1030 63 10000 1 360 17:36 02.01.2020
1495 Clear 16 1030 63 10000 1 360 17:18 02.01.2020
1496 Clear 16 1030 63 10000 1 0 16:56 02.01.2020
1497 Clear 16 1030 63 10000 1.5 350 16:38 02.01.2020
1498 Clear 16 1030 63 10000 1.5 350 16:19 02.01.2020
1499 Clear 15 1030 67 10000 1 0 15:44 02.01.2020
1500 Clear 15 1030 59 10000 0.5 0 15:24 02.01.2020
1501 Clear 15 1030 59 10000 0.5 0 14:58 02.01.2020
1502 Clear 14 1031 71 10000 2.1 60 14:38 02.01.2020
1503 Clouds 14 1031 71 10000 2.1 60 14:20 02.01.2020
1504 Clouds 13 1031 62 10000 0.5 0 13:58 02.01.2020
1505 Clouds 13 1032 76 10000 2.6 10 13:39 02.01.2020
1506 Clouds 12 1032 76 10000 2.6 10 13:19 02.01.2020
1507 Clouds 12 1033 76 10000 2.6 20 12:42 02.01.2020
1508 Clouds 11 1033 76 10000 2.6 20 12:21 02.01.2020
1509 Clouds 10 1032 87 10000 2.6 30 11:42 02.01.2020
1510 Clouds 9 1032 87 10000 2.6 30 11:22 02.01.2020
1511 Clouds 8 1032 93 8000 2.1 50 10:46 02.01.2020
1512 Clouds 8 1032 87 10000 2.6 40 10:28 02.01.2020
1513 Clouds 7 1031 93 9000 1.5 40 09:58 02.01.2020
1514 Clouds 6 1031 100 9000 2.1 20 09:36 02.01.2020
1515 Clouds 6 1031 93 9000 0.5 0 08:59 02.01.2020
1516 Clouds 6 1031 93 10000 1.5 10 08:40 02.01.2020
1517 Clear 7 1031 93 10000 1.5 10 08:21 02.01.2020
1518 Clear 7 1031 100 10000 1.5 30 07:47 02.01.2020
1519 Clear 7 1030 93 9000 1.5 10 07:27 02.01.2020
1520 Rain 7 1030 100 10000 1 0 06:43 02.01.2020
1521 Clear 7 1030 100 9000 1 40 05:42 02.01.2020
1522 Rain 7 1030 93 8000 0.5 10 04:36 02.01.2020
1523 Clear 8 1030 93 6000 1 10 03:54 02.01.2020
1524 Clouds 8 1030 100 6000 0.5 30 02:21 02.01.2020
1525 Clouds 8 1030 93 6000 0.5 100 01:57 02.01.2020
1526 Clouds 9 1030 87 9000 0.5 130 01:30 02.01.2020
1527 Clear 9 1031 93 10000 1.03 15 00:52 02.01.2020
1528 Clear 9 1031 93 10000 1.03 15 00:26 02.01.2020
1529 Clear 10 1031 87 10000 1.03 15 23:44 01.01.2020
1530 Clear 10 1031 87 10000 1.03 15 23:23 01.01.2020
1531 Clouds 10 1031 87 10000 0.5 70 22:39 01.01.2020
1532 Clouds 11 1031 87 10000 0.5 70 22:21 01.01.2020
1533 Clouds 10 1030 93 10000 2.1 130 21:59 01.01.2020
1534 Clouds 10 1030 87 10000 1.5 150 21:40 01.01.2020
1535 Clouds 11 1030 87 10000 1.5 150 21:21 01.01.2020
1536 Clouds 11 1030 87 10000 1 0 20:58 01.01.2020
1537 Clouds 11 1030 87 10000 1.13 346 20:39 01.01.2020
1538 Clear 12 1030 87 10000 0.73 183 20:20 01.01.2020
1539 Clear 12 1030 81 10000 0.73 183 19:57 01.01.2020
1540 Clear 12 1030 76 10000 0.73 183 19:39 01.01.2020
1541 Clear 13 1030 76 10000 0.73 183 19:20 01.01.2020
1542 Clear 14 1030 59 10000 0.5 0 18:57 01.01.2020
1543 Clear 14 1030 59 10000 1 10 18:38 01.01.2020
1544 Clear 15 1030 59 10000 1 10 18:20 01.01.2020
1545 Clear 16 1030 55 10000 1 270 17:58 01.01.2020
1546 Clear 16 1030 55 10000 1 0 17:40 01.01.2020
1547 Clear 17 1030 59 10000 1.62 102 17:20 01.01.2020
1548 Clear 17 1030 59 10000 1.62 102 16:58 01.01.2020
1549 Clear 16 1030 59 10000 1 30 16:38 01.01.2020
1550 Clear 16 1030 59 10000 1 30 16:38 01.01.2020
1551 Clear 16 1030 59 10000 1 30 16:19 01.01.2020
1552 Clear 16 1030 59 10000 1 60 15:57 01.01.2020
1553 Clear 16 1030 59 10000 1 60 15:57 01.01.2020
1554 Clear 16 1030 59 10000 1.5 40 15:37 01.01.2020
1555 Clear 16 1030 59 10000 1.5 40 15:19 01.01.2020
1556 Clear 16 1030 63 10000 2.1 50 14:56 01.01.2020
1557 Clear 15 1031 62 10000 1.5 50 14:37 01.01.2020
1558 Clear 15 1031 62 10000 1.5 50 14:19 01.01.2020
1559 Clear 14 1031 62 10000 1 0 13:55 01.01.2020
1560 Clear 14 1031 62 10000 1 0 13:55 01.01.2020
1561 Clear 14 1032 67 10000 1.5 50 13:36 01.01.2020
1562 Clear 13 1032 67 10000 1.5 50 13:18 01.01.2020
1563 Clear 12 1033 76 10000 2.6 50 12:40 01.01.2020
1564 Clear 12 1033 76 10000 2.6 50 12:19 01.01.2020
1565 Clear 11 1033 76 10000 2.6 50 11:57 01.01.2020
1566 Clear 11 1033 76 10000 2.6 50 11:57 01.01.2020
1567 Clear 10 1033 81 10000 3.1 50 11:39 01.01.2020
1568 Clear 10 1033 81 10000 3.1 50 11:20 01.01.2020
1569 Clear 9 1032 87 10000 3.6 40 10:55 01.01.2020
1570 Clear 8 1032 87 9000 1 0 10:37 01.01.2020
1571 Clear 8 1032 87 7000 1.5 20 10:18 01.01.2020
1572 Clear 7 1032 93 7000 2.1 40 09:40 01.01.2020
1573 Clear 7 1032 93 7000 2.1 40 09:22 01.01.2020
1574 Clear 7 1031 93 10000 3.6 50 08:57 01.01.2020
1575 Clear 7 1031 93 10000 3.1 50 08:38 01.01.2020
1576 Clouds 7 1031 93 10000 3.1 50 08:20 01.01.2020
1577 Clouds 7 1031 87 10000 2.6 50 07:58 01.01.2020
1578 Clouds 7 1030 93 10000 2.6 50 07:39 01.01.2020
1579 Clouds 7 1030 93 10000 2.6 50 07:19 01.01.2020
1580 Clouds 7 1030 93 10000 3.1 50 06:36 01.01.2020
1581 Clouds 8 1030 93 10000 1 0 05:51 01.01.2020
1582 Clear 8 1030 93 10000 1.5 60 04:36 01.01.2020
1583 Clear 8 1030 87 10000 2.6 70 03:40 01.01.2020
1584 Clear 8 1030 87 10000 2.6 70 03:21 01.01.2020
1585 Clear 8 1031 87 10000 0.5 0 02:43 01.01.2020
1586 Clear 9 1031 87 10000 0.5 0 02:24 01.01.2020
1587 Clear 9 1031 87 10000 2.1 60 01:45 01.01.2020
1588 Clear 9 1031 87 10000 2.1 60 01:23 01.01.2020
1589 Clear 10 1031 87 10000 2.6 40 00:54 01.01.2020
1590 Clear 10 1031 93 10000 2.6 30 00:36 01.01.2020
1591 Clear 11 1031 87 10000 2.1 40 00:18 01.01.2020
1592 Clear 11 1031 87 10000 1.5 30 23:38 31.12.2019
1593 Clear 11 1031 87 10000 1.5 30 23:19 31.12.2019
1594 Clear 11 1031 87 10000 0.5 0 22:56 31.12.2019
1595 Clear 11 1031 81 10000 3.1 30 22:37 31.12.2019
1596 Clear 12 1031 81 10000 3.1 30 22:18 31.12.2019
1597 Clear 11 1031 87 10000 2.6 30 21:54 31.12.2019
1598 Clear 11 1030 81 10000 1.5 40 21:36 31.12.2019
1599 Clear 11 1030 81 10000 1.5 40 21:18 31.12.2019
1600 Clear 11 1030 81 10000 1.5 40 21:18 31.12.2019
1601 Clear 12 1030 81 10000 1 0 20:40 31.12.2019
1602 Clear 13 1030 81 10000 1 0 20:21 31.12.2019
1603 Clear 13 1030 76 10000 1.5 40 19:59 31.12.2019
1604 Clear 13 1030 71 10000 1 10 19:40 31.12.2019
1605 Clear 14 1030 71 10000 1 10 19:22 31.12.2019
1606 Clear 15 1030 67 10000 1 30 18:57 31.12.2019
1607 Clear 15 1030 63 10000 2.1 30 18:39 31.12.2019
1608 Clear 15 1030 63 10000 2.1 30 18:19 31.12.2019
1609 Clear 17 1029 59 10000 2.6 60 17:56 31.12.2019
1610 Clear 17 1029 59 10000 3.1 50 17:37 31.12.2019
1611 Clear 17 1029 59 10000 3.1 50 17:19 31.12.2019
1612 Clear 17 1029 59 10000 3.1 50 17:19 31.12.2019
1613 Clear 17 1029 59 10000 3.6 40 16:56 31.12.2019
1614 Clear 17 1029 59 10000 3.1 50 16:37 31.12.2019
1615 Clear 17 1029 59 10000 3.1 60 16:19 31.12.2019
1616 Clear 17 1029 59 10000 3.1 60 15:56 31.12.2019
1617 Clear 16 1029 63 10000 3.1 60 15:38 31.12.2019
1618 Clear 16 1029 63 10000 3.1 60 15:20 31.12.2019
1619 Clear 15 1029 63 10000 2.6 60 14:57 31.12.2019
1620 Clear 16 1030 62 10000 3.1 60 14:38 31.12.2019
1621 Clear 15 1030 62 10000 3.1 60 14:19 31.12.2019
1622 Clear 15 1030 62 10000 4.1 60 13:57 31.12.2019
1623 Clear 15 1031 62 10000 4.1 60 13:39 31.12.2019
1624 Clear 14 1031 62 10000 4.1 60 13:20 31.12.2019
1625 Clear 13 1032 67 10000 3.6 60 12:56 31.12.2019
1626 Clear 13 1032 67 10000 3.6 60 12:56 31.12.2019
1627 Clear 13 1032 71 10000 4.6 50 12:38 31.12.2019
1628 Clear 12 1032 71 10000 4.6 50 12:19 31.12.2019
1629 Clear 12 1032 71 10000 4.6 50 12:19 31.12.2019
1630 Clear 12 1032 71 10000 4.6 50 12:19 31.12.2019
1631 Clear 12 1032 71 10000 4.1 70 11:56 31.12.2019
1632 Clear 12 1032 71 10000 4.1 70 11:56 31.12.2019
1633 Clear 11 1032 76 10000 4.1 70 11:38 31.12.2019
1634 Clear 10 1032 76 10000 4.1 70 11:19 31.12.2019
1635 Clear 10 1032 76 10000 6.2 60 10:57 31.12.2019
1636 Clear 10 1032 76 10000 6.2 60 10:57 31.12.2019
1637 Clear 9 1031 81 10000 6.2 60 10:38 31.12.2019
1638 Clear 9 1031 81 10000 6.2 60 10:20 31.12.2019
1639 Clear 8 1031 87 10000 5.1 40 09:58 31.12.2019
1640 Clear 8 1030 87 10000 4.6 40 09:39 31.12.2019
1641 Clear 7 1030 87 10000 4.6 40 09:20 31.12.2019
1642 Clear 7 1030 87 10000 3.6 50 08:57 31.12.2019
1643 Clear 7 1030 81 10000 4.6 50 08:37 31.12.2019
1644 Clear 7 1030 81 10000 4.6 50 08:18 31.12.2019
1645 Clear 7 1030 81 10000 4.1 60 07:41 31.12.2019
1646 Clear 8 1030 81 10000 4.1 60 07:19 31.12.2019
1647 Clear 8 1030 87 10000 4.1 60 06:49 31.12.2019
1648 Clear 8 1030 87 10000 3.6 40 05:57 31.12.2019
1649 Clear 8 1030 93 10000 1.5 70 04:28 31.12.2019
1650 Clear 9 1030 87 10000 1.5 50 03:27 31.12.2019
1651 Clear 9 1030 93 10000 0.5 0 02:54 31.12.2019
1652 Clear 9 1030 93 10000 0.5 0 02:54 31.12.2019
1653 Clear 9 1030 87 10000 2.1 60 01:58 31.12.2019
1654 Clear 9 1031 87 10000 2.1 40 01:40 31.12.2019
1655 Clear 9 1031 87 10000 2.1 40 01:22 31.12.2019
1656 Clear 10 1031 81 10000 3.1 70 00:45 31.12.2019
1657 Clear 10 1031 81 10000 3.1 70 00:22 31.12.2019
1658 Clear 10 1031 81 10000 1.5 50 23:56 30.12.2019
1659 Clear 10 1031 81 10000 1 0 23:38 30.12.2019
1660 Clear 10 1031 81 10000 1 0 23:19 30.12.2019
1661 Clear 11 1031 81 10000 1 0 22:57 30.12.2019
1662 Clear 11 1031 81 10000 1 0 22:57 30.12.2019
1663 Clear 11 1030 87 10000 2.6 40 22:38 30.12.2019
1664 Clear 11 1030 87 10000 2.6 40 22:19 30.12.2019
1665 Clear 11 1030 81 10000 3.1 40 21:56 30.12.2019
1666 Clear 12 1030 81 10000 3.1 40 21:38 30.12.2019
1667 Clear 12 1030 81 10000 3.6 40 21:18 30.12.2019
1668 Clear 11 1030 81 10000 3.6 40 20:56 30.12.2019
1669 Clear 12 1030 76 10000 2.6 40 20:38 30.12.2019
1670 Clear 13 1030 76 10000 2.6 40 20:20 30.12.2019
1671 Clear 13 1030 71 10000 3.1 50 19:57 30.12.2019
1672 Clear 13 1030 71 10000 3.6 40 19:37 30.12.2019
1673 Clear 13 1030 71 10000 3.6 40 19:19 30.12.2019
1674 Clear 15 1030 67 10000 3.6 30 18:56 30.12.2019
1675 Clear 16 1030 63 10000 2.6 10 18:38 30.12.2019
1676 Clear 15 1030 63 10000 2.6 10 18:20 30.12.2019
1677 Clear 17 1030 59 10000 3.1 30 17:55 30.12.2019
1678 Clear 17 1030 59 10000 3.1 50 17:36 30.12.2019
1679 Clear 17 1030 59 10000 3.1 50 17:36 30.12.2019
1680 Clear 16 1030 59 10000 3.1 50 17:18 30.12.2019
1681 Clear 17 1029 59 10000 3.1 40 16:55 30.12.2019
1682 Clear 17 1029 59 10000 3.1 40 16:55 30.12.2019
1683 Clear 17 1030 59 10000 1.5 30 16:36 30.12.2019
1684 Clear 16 1029 59 10000 2.1 70 16:18 30.12.2019
1685 Clear 16 1029 59 10000 2.1 70 15:54 30.12.2019
1686 Clear 16 1029 59 10000 2.1 360 15:36 30.12.2019
1687 Clear 16 1029 59 10000 2.1 360 15:18 30.12.2019
1688 Clear 16 1029 59 10000 2.1 360 15:18 30.12.2019
1689 Clear 15 1030 62 10000 2.6 20 14:42 30.12.2019
1690 Clear 15 1030 62 10000 2.6 20 14:19 30.12.2019
1691 Clear 14 1031 62 10000 2.1 50 13:56 30.12.2019
1692 Clear 14 1031 67 10000 2.6 30 13:37 30.12.2019
1693 Clear 14 1031 67 10000 2.6 30 13:19 30.12.2019
1694 Clear 13 1032 76 10000 3.6 40 12:43 30.12.2019
1695 Clear 12 1032 76 10000 3.6 40 12:20 30.12.2019
1696 Clear 12 1032 71 10000 4.1 60 11:59 30.12.2019
1697 Clear 11 1031 81 10000 3.6 40 11:40 30.12.2019
1698 Clear 11 1031 81 10000 3.6 40 11:19 30.12.2019
1699 Clear 9 1030 81 10000 3.1 30 10:45 30.12.2019
1700 Clear 9 1030 81 10000 3.1 30 10:22 30.12.2019
1701 Clear 8 1030 87 10000 3.1 50 09:59 30.12.2019
1702 Clear 8 1030 87 10000 3.1 30 09:41 30.12.2019
1703 Clear 7 1030 87 10000 3.1 30 09:20 30.12.2019
1704 Clear 7 1030 87 10000 4.1 50 08:54 30.12.2019
1705 Clear 7 1029 87 10000 3.1 30 08:36 30.12.2019
1706 Clear 7 1029 87 10000 3.1 30 08:18 30.12.2019
1707 Clear 7 1029 93 10000 2.6 20 08:18 30.12.2019
1708 Clear 7 1029 93 10000 1 10 07:40 30.12.2019
1709 Clear 8 1029 87 10000 2.1 40 06:55 30.12.2019
1710 Clear 8 1029 87 10000 2.6 40 06:23 30.12.2019
1711 Clear 8 1029 93 10000 2.6 50 03:58 30.12.2019
1712 Clear 8 1029 93 10000 1.5 50 03:32 30.12.2019
1713 Clear 9 1029 87 10000 2.6 40 02:40 30.12.2019
1714 Clear 9 1029 87 10000 2.6 40 02:20 30.12.2019
1715 Clear 9 1029 87 10000 2.6 50 01:25 30.12.2019
1716 Clear 10 1029 87 10000 2.6 50 00:46 30.12.2019
1717 Clear 10 1029 81 10000 3.1 30 00:23 30.12.2019
1718 Clear 10 1029 87 10000 2.6 60 23:40 29.12.2019
1719 Clear 11 1029 87 10000 2.6 60 23:22 29.12.2019
1720 Clear 11 1028 87 10000 3.1 40 22:56 29.12.2019
1721 Clear 11 1028 87 10000 2.1 40 22:38 29.12.2019
1722 Clear 11 1028 87 10000 2.1 40 22:19 29.12.2019
1723 Clear 12 1028 76 10000 2.1 40 21:45 29.12.2019
1724 Clear 13 1028 76 10000 2.1 40 21:21 29.12.2019
1725 Clear 12 1028 76 10000 4.1 40 20:59 29.12.2019
1726 Clear 13 1028 67 10000 2.6 60 20:39 29.12.2019
1727 Clear 13 1028 67 10000 2.6 60 20:39 29.12.2019
1728 Clear 14 1028 67 10000 2.6 60 20:21 29.12.2019
1729 Clear 14 1027 71 10000 2.6 30 19:59 29.12.2019
1730 Clear 14 1027 76 10000 2.6 40 19:40 29.12.2019
1731 Clear 14 1027 76 10000 2.6 40 19:22 29.12.2019
1732 Clear 15 1027 67 10000 2.6 50 18:59 29.12.2019
1733 Clear 16 1027 55 10000 3.6 60 18:40 29.12.2019
1734 Clear 16 1027 55 10000 3.6 60 18:21 29.12.2019
1735 Clear 18 1027 52 10000 4.1 60 17:58 29.12.2019
1736 Clear 18 1027 48 10000 4.6 50 17:39 29.12.2019
1737 Clear 18 1027 48 10000 4.6 50 17:20 29.12.2019
1738 Clear 18 1027 45 10000 1.5 280 16:57 29.12.2019
1739 Clear 18 1026 48 10000 5.7 60 16:39 29.12.2019
1740 Clear 18 1026 48 10000 5.7 60 16:39 29.12.2019
1741 Clear 18 1026 48 10000 5.7 60 16:21 29.12.2019
1742 Clear 18 1026 48 10000 4.6 70 15:59 29.12.2019
1743 Clear 18 1027 52 10000 4.6 40 15:40 29.12.2019
1744 Clear 18 1027 52 10000 4.6 40 15:20 29.12.2019
1745 Clear 17 1027 45 10000 4 71 14:58 29.12.2019
1746 Clear 17 1027 59 10000 4.1 50 14:39 29.12.2019
1747 Clear 17 1027 45 10000 5 79 14:19 29.12.2019
1748 Clear 17 1028 63 10000 4.1 50 13:59 29.12.2019
1749 Clear 16 1028 67 10000 3.1 60 13:40 29.12.2019
1750 Clear 16 1028 67 10000 3.1 60 13:22 29.12.2019
1751 Clear 15 1029 63 10000 3.1 60 12:56 29.12.2019
1752 Clear 15 1029 67 10000 3.6 60 12:38 29.12.2019
1753 Clear 15 1029 67 10000 3.6 60 12:20 29.12.2019
1754 Clear 14 1029 76 10000 3.6 50 11:41 29.12.2019
1755 Clear 13 1029 76 10000 3.6 50 11:21 29.12.2019
1756 Clear 13 1029 76 10000 4.1 60 10:57 29.12.2019
1757 Clear 12 1029 81 10000 5.7 60 10:38 29.12.2019
1758 Clear 10 1029 81 10000 5.7 60 10:18 29.12.2019
1759 Clear 10 1028 87 10000 4.1 50 09:45 29.12.2019
1760 Clear 10 1028 87 10000 4.1 50 09:27 29.12.2019
1761 Clear 9 1028 87 10000 4.1 50 08:55 29.12.2019
1762 Clear 9 1028 87 10000 3.1 60 08:37 29.12.2019
1763 Clear 9 1027 87 10000 4.1 50 08:18 29.12.2019
1764 Clear 9 1027 93 10000 3.1 40 07:43 29.12.2019
1765 Clear 9 1027 93 10000 3.1 40 07:25 29.12.2019
1766 Clear 10 1027 87 10000 3.1 50 06:28 29.12.2019
1767 Clear 10 1027 87 10000 3.1 50 05:55 29.12.2019
1768 Clear 10 1027 87 10000 3.1 50 04:59 29.12.2019
1769 Clear 10 1027 87 10000 3.1 60 04:30 29.12.2019
1770 Clear 10 1027 87 10000 2.6 50 03:32 29.12.2019
1771 Clear 10 1027 87 10000 3.1 50 02:27 29.12.2019
1772 Clear 11 1027 81 10000 3.1 40 01:52 29.12.2019
1773 Clear 11 1027 81 10000 3.6 50 01:29 29.12.2019
1774 Clear 12 1027 76 10000 4.1 50 00:45 29.12.2019
1775 Clear 12 1027 76 10000 4.1 50 00:24 29.12.2019
1776 Clear 13 1027 76 10000 2.6 50 23:55 28.12.2019
1777 Clear 13 1027 76 10000 3.6 50 23:37 28.12.2019
1778 Clear 13 1027 76 10000 3.6 50 23:18 28.12.2019
1779 Clear 14 1027 62 10000 3.6 60 22:37 28.12.2019
1780 Clear 14 1027 62 10000 3.6 60 22:18 28.12.2019
1781 Clear 14 1026 66 10000 2.1 90 21:56 28.12.2019
1782 Clear 14 1026 66 10000 2.1 90 21:56 28.12.2019
1783 Clear 14 1026 58 10000 4.6 60 21:37 28.12.2019
1784 Clear 14 1026 58 10000 4.6 60 21:19 28.12.2019
1785 Clear 15 1026 71 10000 2.1 40 20:54 28.12.2019
1786 Clear 15 1026 76 10000 2.1 60 20:36 28.12.2019
1787 Clear 15 1026 76 10000 2.1 60 20:18 28.12.2019
1788 Clear 16 1025 72 10000 2.6 30 19:41 28.12.2019
1789 Clear 16 1025 72 10000 2.6 30 19:23 28.12.2019
1790 Clear 17 1025 72 10000 3.1 40 18:59 28.12.2019
1791 Clear 18 1025 63 10000 3.1 20 18:40 28.12.2019
1792 Clear 18 1025 52 10000 1 250 18:20 28.12.2019
1793 Clear 19 1025 56 10000 2.6 50 17:58 28.12.2019
1794 Clear 20 1025 43 10000 3.6 70 17:39 28.12.2019
1795 Clear 20 1025 46 10000 2.6 60 17:20 28.12.2019
1796 Clear 20 1025 46 10000 2.6 60 16:49 28.12.2019
1797 Clear 20 1025 56 10000 3.1 60 16:27 28.12.2019
1798 Clear 20 1025 60 10000 3.1 40 15:57 28.12.2019
1799 Clear 20 1025 59 10000 3.6 40 15:39 28.12.2019
1800 Clear 19 1025 59 10000 3.6 40 15:21 28.12.2019
1801 Clear 19 1026 59 10000 4.6 30 14:46 28.12.2019
1802 Clear 19 1026 55 10000 3.6 40 14:24 28.12.2019
1803 Clear 19 1026 55 10000 2.6 60 13:58 28.12.2019
1804 Clear 19 1026 55 10000 2.6 60 13:58 28.12.2019
1805 Clear 18 1027 59 10000 3.6 50 13:39 28.12.2019
1806 Clear 18 1027 59 10000 3.6 50 13:19 28.12.2019
1807 Clear 17 1027 63 10000 4.6 60 12:55 28.12.2019
1808 Clear 16 1027 63 10000 4.1 60 12:36 28.12.2019
1809 Clear 16 1027 63 10000 4.1 60 12:18 28.12.2019
1810 Clear 15 1028 71 10000 5.1 60 11:39 28.12.2019
1811 Clear 14 1028 71 10000 5.1 60 11:21 28.12.2019
1812 Clear 13 1027 67 10000 5.1 60 10:47 28.12.2019
1813 Clear 12 1027 76 10000 4.6 60 10:23 28.12.2019
1814 Clear 12 1026 81 10000 4.1 60 09:59 28.12.2019
1815 Clear 12 1026 81 10000 4.1 60 09:59 28.12.2019
1816 Clear 11 1026 81 10000 4.6 60 09:41 28.12.2019
1817 Clear 11 1026 81 10000 4.6 60 09:23 28.12.2019
1818 Clear 11 1026 87 10000 4.6 50 08:57 28.12.2019
1819 Clear 10 1026 87 10000 4.1 50 08:38 28.12.2019
1820 Clear 10 1026 87 10000 4.1 50 08:19 28.12.2019
1821 Clear 10 1025 93 10000 3.1 40 07:41 28.12.2019
1822 Clear 11 1025 87 10000 2.6 50 06:55 28.12.2019
1823 Clear 11 1026 81 10000 3.1 50 05:40 28.12.2019
1824 Clear 11 1026 81 10000 3.6 50 03:48 28.12.2019
1825 Clear 12 1026 81 10000 2.6 40 02:50 28.12.2019
1826 Clear 12 1026 81 10000 2.6 40 02:20 28.12.2019
1827 Clear 13 1026 76 10000 2.1 50 01:53 28.12.2019
1828 Clear 13 1026 76 10000 2.6 30 01:22 28.12.2019
1829 Clear 14 1026 67 10000 3.1 70 00:42 28.12.2019
1830 Clear 14 1026 67 10000 3.1 70 00:23 28.12.2019
1831 Clear 14 1026 67 10000 3.6 60 23:56 27.12.2019
1832 Clear 14 1026 67 10000 4.1 60 23:36 27.12.2019
1833 Clear 15 1026 67 10000 4.1 60 23:18 27.12.2019
1834 Clear 15 1026 63 10000 5.7 70 22:55 27.12.2019
1835 Clear 15 1025 63 10000 5.1 70 22:37 27.12.2019
1836 Clear 15 1025 63 10000 5.1 70 22:19 27.12.2019
1837 Clear 15 1025 59 10000 4.6 70 21:41 27.12.2019
1838 Clear 16 1025 59 10000 4.6 70 21:23 27.12.2019
1839 Clear 16 1025 63 10000 5.7 70 20:44 27.12.2019
1840 Clouds 16 1025 63 10000 5.7 70 20:26 27.12.2019
1841 Clouds 17 1025 63 10000 5.1 70 19:58 27.12.2019
1842 Clouds 17 1025 63 10000 4.1 70 19:40 27.12.2019
1843 Clouds 18 1025 63 10000 4.1 70 19:19 27.12.2019
1844 Clouds 18 1025 63 10000 3.1 60 18:55 27.12.2019
1845 Clouds 19 1024 59 10000 3.6 60 18:36 27.12.2019
1846 Clouds 19 1024 59 10000 3.6 60 18:18 27.12.2019
1847 Clouds 20 1024 56 10000 4.1 50 17:55 27.12.2019
1848 Clouds 21 1024 56 10000 5.7 60 17:37 27.12.2019
1849 Clouds 21 1024 52 10000 5.1 60 17:18 27.12.2019
1850 Clouds 22 1024 49 10000 5.7 60 16:41 27.12.2019
1851 Clouds 22 1024 49 10000 5.7 60 16:23 27.12.2019
1852 Clouds 22 1024 49 10000 5.1 70 15:58 27.12.2019
1853 Clouds 22 1024 49 10000 3.1 20 15:37 27.12.2019
1854 Clouds 22 1024 49 10000 3.1 20 15:37 27.12.2019
1855 Clouds 22 1024 49 10000 3.1 20 15:37 27.12.2019
1856 Clouds 22 1024 49 10000 3.1 20 15:19 27.12.2019
1857 Clouds 21 1024 46 10000 4.1 60 14:56 27.12.2019
1858 Clouds 21 1025 52 10000 1.5 10 14:38 27.12.2019
1859 Clouds 21 1025 52 10000 1.5 10 14:19 27.12.2019
1860 Clouds 20 1025 52 10000 3.6 60 13:47 27.12.2019
1861 Clouds 19 1026 55 10000 2.1 10 13:24 27.12.2019
1862 Clouds 18 1026 55 10000 3.6 70 12:56 27.12.2019
1863 Clouds 18 1026 59 10000 2.1 20 12:38 27.12.2019
1864 Clouds 18 1026 59 10000 2.1 20 12:20 27.12.2019
1865 Clouds 16 1026 62 10000 3.1 30 11:42 27.12.2019
1866 Clouds 15 1026 62 10000 3.1 30 11:22 27.12.2019
1867 Clouds 14 1026 67 10000 4.1 60 10:55 27.12.2019
1868 Clouds 14 1026 71 10000 3.6 30 10:36 27.12.2019
1869 Clouds 13 1026 71 10000 3.6 30 10:18 27.12.2019
1870 Clouds 12 1025 76 10000 2.6 20 09:42 27.12.2019
1871 Clouds 12 1025 76 10000 2.6 20 09:21 27.12.2019
1872 Clouds 12 1025 76 10000 4.6 50 08:55 27.12.2019
1873 Clouds 12 1024 81 10000 3.1 30 08:35 27.12.2019
1874 Clouds 12 1024 76 10000 4.6 50 07:51 27.12.2019
1875 Clouds 12 1024 76 10000 3.1 20 07:31 27.12.2019
1876 Clouds 12 1024 76 10000 3.1 50 06:37 27.12.2019
1877 Clouds 13 1025 76 10000 3.1 50 05:28 27.12.2019
1878 Clouds 13 1025 82 10000 1.5 10 03:40 27.12.2019
1879 Clouds 14 1025 87 10000 1 0 02:20 27.12.2019
1880 Clouds 14 1025 76 10000 2.1 30 01:38 27.12.2019
1881 Clouds 14 1025 76 10000 2.1 20 01:19 27.12.2019
1882 Clouds 14 1025 76 10000 3.1 40 00:43 27.12.2019
1883 Clouds 14 1025 76 10000 3.1 40 00:24 27.12.2019
1884 Clouds 14 1025 87 10000 2.1 40 23:42 26.12.2019
1885 Clouds 15 1025 87 10000 2.1 40 23:22 26.12.2019
1886 Clouds 15 1025 82 10000 2.6 40 22:48 26.12.2019
1887 Clouds 15 1025 82 10000 2.6 40 22:23 26.12.2019
1888 Clouds 15 1025 82 10000 2.1 50 21:59 26.12.2019
1889 Clouds 15 1025 82 10000 2.6 60 21:39 26.12.2019
1890 Clouds 15 1025 82 10000 2.1 40 21:21 26.12.2019
1891 Clouds 15 1025 82 10000 2.1 40 21:21 26.12.2019
1892 Clouds 16 1025 82 10000 2.1 40 20:47 26.12.2019
1893 Clouds 16 1025 87 10000 2.1 30 20:24 26.12.2019
1894 Clouds 17 1024 77 10000 2.6 40 19:59 26.12.2019
1895 Clouds 17 1024 82 10000 2.1 50 19:40 26.12.2019
1896 Clouds 17 1024 82 10000 2.1 50 19:22 26.12.2019
1897 Clouds 18 1024 72 10000 2.1 40 18:59 26.12.2019
1898 Clouds 18 1024 68 10000 2.1 50 18:40 26.12.2019
1899 Clouds 18 1024 68 10000 2.1 50 18:20 26.12.2019
1900 Clouds 19 1024 64 10000 2.6 60 17:58 26.12.2019
1901 Clouds 19 1024 64 10000 2.6 50 17:40 26.12.2019
1902 Clouds 20 1024 64 10000 2.6 50 17:19 26.12.2019
1903 Clouds 20 1023 60 10000 3.1 50 16:46 26.12.2019
1904 Clouds 20 1023 56 10000 2.6 90 16:26 26.12.2019
1905 Clouds 20 1024 56 10000 2.6 80 15:57 26.12.2019
1906 Clouds 20 1024 60 10000 4.1 40 15:38 26.12.2019
1907 Clouds 20 1024 60 10000 3.1 80 15:19 26.12.2019
1908 Clouds 19 1024 56 10000 4.1 50 14:41 26.12.2019
1909 Clouds 19 1024 56 10000 4.1 50 14:23 26.12.2019
1910 Clouds 19 1024 56 10000 4.1 50 14:23 26.12.2019
1911 Clouds 19 1024 56 10000 4.1 50 14:23 26.12.2019
1912 Clouds 18 1025 59 10000 3.1 50 13:55 26.12.2019
1913 Clouds 18 1025 59 10000 5.1 30 13:36 26.12.2019
1914 Clouds 17 1026 67 10000 3.1 50 13:18 26.12.2019
1915 Clouds 16 1026 67 10000 4.6 40 12:44 26.12.2019
1916 Clouds 16 1026 67 10000 4.6 40 12:24 26.12.2019
1917 Clouds 14 1026 72 10000 3.6 60 11:59 26.12.2019
1918 Clouds 14 1026 71 10000 5.1 40 11:40 26.12.2019
1919 Clouds 14 1026 71 10000 5.1 40 11:21 26.12.2019
1920 Clouds 12 1026 81 10000 3.6 50 10:50 26.12.2019
1921 Clouds 12 1026 81 10000 3.6 20 10:26 26.12.2019
1922 Clouds 11 1026 87 10000 3.6 10 09:55 26.12.2019
1923 Clouds 10 1025 93 10000 2.1 30 09:33 26.12.2019
1924 Clouds 10 1025 93 10000 3.1 40 08:59 26.12.2019
1925 Clouds 10 1025 93 10000 2.6 360 08:39 26.12.2019
1926 Clouds 10 1025 93 10000 2.6 360 08:20 26.12.2019
1927 Clouds 11 1024 93 10000 1.5 10 07:41 26.12.2019
1928 Clouds 11 1025 93 10000 2.6 40 07:19 26.12.2019
1929 Clouds 11 1025 87 10000 3.1 70 06:38 26.12.2019
1930 Clouds 11 1025 82 10000 4.1 60 06:20 26.12.2019
1931 Clouds 11 1025 87 10000 3.6 30 05:42 26.12.2019
1932 Clouds 12 1025 93 10000 0.5 0 04:33 26.12.2019
1933 Clouds 12 1025 93 10000 1 0 03:31 26.12.2019
1934 Clouds 12 1025 93 10000 1 50 02:46 26.12.2019
1935 Clouds 12 1025 93 10000 1 0 02:27 26.12.2019
1936 Clouds 13 1026 87 10000 1.49 25 01:44 26.12.2019
1937 Clouds 13 1026 87 10000 1.54 15 01:25 26.12.2019
1938 Clouds 13 1026 93 10000 2.1 330 00:44 26.12.2019
1939 Clouds 13 1026 93 10000 2.1 330 00:23 26.12.2019
1940 Clouds 14 1026 93 10000 1 320 23:57 25.12.2019
1941 Clouds 14 1025 87 10000 1.5 30 23:37 25.12.2019
1942 Clouds 14 1025 87 10000 1.23 31 23:19 25.12.2019
1943 Clouds 14 1025 87 10000 1.23 31 22:57 25.12.2019
1944 Clouds 14 1025 93 10000 0.5 0 22:37 25.12.2019
1945 Clouds 14 1025 93 10000 0.5 0 22:19 25.12.2019
1946 Clouds 15 1025 87 10000 1 0 21:57 25.12.2019
1947 Clouds 15 1025 87 10000 1 100 21:39 25.12.2019
1948 Clouds 15 1025 87 10000 1 100 21:19 25.12.2019
1949 Clouds 15 1025 82 10000 0.5 90 20:41 25.12.2019
1950 Clouds 16 1025 82 10000 0.5 90 20:21 25.12.2019
1951 Clouds 16 1024 87 10000 1 120 19:59 25.12.2019
1952 Clouds 16 1024 87 10000 0.2 20 19:41 25.12.2019
1953 Clouds 15 1024 87 10000 0.2 20 19:22 25.12.2019
1954 Clouds 17 1024 77 10000 0.2 20 18:54 25.12.2019
1955 Clouds 17 1024 63 10000 0.5 230 18:36 25.12.2019
1956 Clouds 19 1024 59 10000 1 130 18:18 25.12.2019
1957 Clouds 20 1024 52 10000 1 0 17:40 25.12.2019
1958 Clouds 20 1024 52 10000 1 0 17:18 25.12.2019
1959 Clouds 20 1024 52 10000 1.5 110 16:55 25.12.2019
1960 Clouds 20 1024 49 10000 1 0 16:36 25.12.2019
1961 Clouds 20 1024 49 10000 1 0 16:18 25.12.2019
1962 Clouds 20 1024 49 10000 1 0 15:56 25.12.2019
1963 Clouds 19 1024 52 10000 1 0 15:37 25.12.2019
1964 Clouds 19 1024 52 10000 1 0 15:18 25.12.2019
1965 Clouds 19 1024 55 10000 2.1 60 14:55 25.12.2019
1966 Clouds 19 1024 59 10000 2.1 40 14:37 25.12.2019
1967 Clouds 18 1025 55 10000 2.6 60 14:18 25.12.2019
1968 Clouds 17 1025 63 10000 2.6 60 13:42 25.12.2019
1969 Clouds 16 1025 63 10000 3.1 50 13:21 25.12.2019
1970 Clouds 16 1026 72 10000 3.6 50 12:44 25.12.2019
1971 Clouds 15 1026 72 10000 3.6 50 12:23 25.12.2019
1972 Clouds 15 1026 67 10000 4.1 30 11:58 25.12.2019
1973 Clouds 14 1026 71 10000 3.1 50 11:40 25.12.2019
1974 Clear 14 1026 71 10000 3.1 50 11:21 25.12.2019
1975 Clear 12 1025 81 10000 2.6 60 10:41 25.12.2019
1976 Clear 11 1025 81 10000 2.6 60 10:21 25.12.2019
1977 Clear 11 1025 93 10000 2.1 30 09:59 25.12.2019
1978 Clear 10 1025 87 10000 2.1 10 09:41 25.12.2019
1979 Clear 10 1025 87 10000 2.1 10 09:23 25.12.2019
1980 Clear 10 1024 87 10000 2.6 20 08:44 25.12.2019
1981 Clear 10 1024 87 10000 2.6 20 08:25 25.12.2019
1982 Rain 10 1024 87 10000 2.1 30 07:45 25.12.2019
1983 Rain 11 1024 87 10000 2.1 30 07:23 25.12.2019
1984 Clouds 11 1023 87 10000 4.1 60 06:41 25.12.2019
1985 Clouds 11 1023 87 10000 4.1 60 06:21 25.12.2019
1986 Rain 12 1024 81 10000 2.6 50 04:49 25.12.2019
1987 Rain 12 1024 87 10000 1 0 04:25 25.12.2019
1988 Rain 12 1024 87 10000 3.1 40 03:57 25.12.2019
1989 Rain 12 1024 87 10000 4.1 40 03:39 25.12.2019
1990 Rain 12 1024 87 10000 2.6 40 02:32 25.12.2019
1991 Clear 12 1024 81 10000 2.1 50 01:58 25.12.2019
1992 Clear 13 1024 81 10000 2.6 30 01:25 25.12.2019
1993 Clear 13 1024 87 10000 2.6 60 00:48 25.12.2019
1994 Clear 13 1025 81 10000 2.6 40 00:28 25.12.2019
1995 Clear 13 1025 87 10000 2.1 40 23:55 24.12.2019
1996 Clear 13 1024 82 10000 3.1 70 23:37 24.12.2019
1997 Rain 14 1024 82 10000 3.1 70 23:19 24.12.2019
1998 Clear 14 1024 87 10000 1.5 50 22:39 24.12.2019
1999 Clear 15 1024 87 10000 1.5 50 22:21 24.12.2019
2000 Clear 15 1024 82 10000 1.5 40 21:43 24.12.2019
2001 Clear 15 1024 82 10000 1.5 40 21:22 24.12.2019
2002 Clear 14 1024 87 10000 1.5 20 20:54 24.12.2019
2003 Clear 15 1024 77 10000 1.5 10 20:36 24.12.2019
2004 Clear 16 1024 77 10000 1.5 10 20:18 24.12.2019
2005 Clear 16 1024 72 10000 2.1 20 19:43 24.12.2019
2006 Clear 18 1024 68 10000 1 0 19:19 24.12.2019
2007 Clear 18 1024 63 10000 2.6 40 18:43 24.12.2019
2008 Clear 18 1024 63 10000 2.6 40 18:23 24.12.2019
2009 Clear 21 1024 60 10000 2.6 30 17:58 24.12.2019
2010 Clear 22 1024 56 10000 3.1 40 17:37 24.12.2019
2011 Clouds 21 1024 56 10000 3.1 40 17:19 24.12.2019
2012 Clouds 21 1024 60 10000 3.1 50 16:55 24.12.2019
2013 Clouds 22 1024 56 10000 3.1 50 16:36 24.12.2019
2014 Clouds 21 1024 56 10000 3.1 50 16:18 24.12.2019
2015 Clouds 21 1024 52 10000 4.1 50 15:54 24.12.2019
2016 Clouds 21 1024 56 10000 4.1 50 15:36 24.12.2019
2017 Clouds 21 1024 56 10000 4.1 50 15:18 24.12.2019
2018 Clouds 20 1025 60 10000 3.1 40 14:54 24.12.2019
2019 Clouds 20 1025 56 10000 4.6 50 14:36 24.12.2019
2020 Clear 20 1025 56 10000 4.6 50 14:18 24.12.2019
2021 Clear 19 1025 59 10000 4.1 50 13:54 24.12.2019
2022 Rain 18 1026 59 10000 4.1 70 13:36 24.12.2019
2023 Rain 18 1026 59 10000 5.1 70 13:18 24.12.2019
2024 Rain 17 1026 59 10000 5.1 70 12:54 24.12.2019
2025 Rain 17 1027 59 10000 6.2 70 12:36 24.12.2019
2026 Rain 17 1027 59 10000 6.2 70 12:18 24.12.2019
2027 Rain 16 1027 63 10000 5.7 70 11:54 24.12.2019
2028 Rain 16 1027 62 10000 7.7 70 11:36 24.12.2019
2029 Rain 15 1027 62 10000 7.7 70 11:18 24.12.2019
2030 Rain 15 1027 62 10000 8.2 70 10:54 24.12.2019
2031 Rain 14 1026 67 10000 8.2 70 10:36 24.12.2019
2032 Clear 13 1026 67 10000 8.2 70 10:18 24.12.2019
2033 Rain 13 1026 71 10000 7.2 60 09:54 24.12.2019
2034 Rain 12 1026 71 10000 7.2 60 09:36 24.12.2019
2035 Rain 11 1026 71 10000 7.2 60 09:18 24.12.2019
2036 Clear 11 1026 71 10000 7.2 60 08:42 24.12.2019
2037 Clouds 11 1026 71 10000 7.2 60 08:19 24.12.2019
2038 Rain 11 1025 76 10000 7.7 60 07:44 24.12.2019
2039 Rain 11 1025 76 10000 7.7 60 07:22 24.12.2019
2040 Rain 11 1025 76 10000 7.2 60 06:41 24.12.2019
2041 Rain 11 1025 76 10000 7.2 60 06:22 24.12.2019
2042 Rain 11 1025 82 10000 8.2 50 05:56 24.12.2019
2043 Rain 11 1025 82 10000 8.2 50 05:56 24.12.2019
2044 Rain 12 1025 76 10000 6.7 60 05:20 24.12.2019
2045 Rain 12 1026 71 10000 6.7 60 04:33 24.12.2019
2046 Rain 12 1026 71 10000 6.7 70 03:50 24.12.2019
2047 Rain 12 1026 76 10000 4.6 60 02:59 24.12.2019
2048 Clear 12 1026 87 10000 5.1 50 02:18 24.12.2019
2049 Clear 12 1027 93 10000 3.1 40 01:42 24.12.2019
2050 Clear 12 1027 93 10000 3.1 40 01:19 24.12.2019
2051 Clear 13 1027 87 10000 3.1 30 00:41 24.12.2019
2052 Clear 13 1027 87 10000 3.1 30 00:22 24.12.2019
2053 Rain 13 1027 87 10000 3.1 30 23:55 23.12.2019
2054 Rain 13 1027 87 10000 2.6 30 23:37 23.12.2019
2055 Rain 13 1027 87 10000 2.6 30 23:19 23.12.2019
2056 Rain 13 1028 87 10000 2.1 30 22:54 23.12.2019
2057 Rain 14 1027 87 10000 2.6 50 22:36 23.12.2019
2058 Rain 14 1027 87 10000 2.6 50 22:18 23.12.2019
2059 Clear 14 1028 93 10000 1.5 60 21:54 23.12.2019
2060 Rain 14 1028 87 10000 1.5 70 21:36 23.12.2019
2061 Rain 14 1028 87 10000 1.5 70 21:18 23.12.2019
2062 Rain 14 1028 87 10000 2.1 90 20:55 23.12.2019
2063 Rain 14 1027 87 10000 2.1 70 20:37 23.12.2019
2064 Rain 15 1027 87 10000 2.1 70 20:18 23.12.2019
2065 Rain 15 1027 87 10000 2.1 70 20:18 23.12.2019
2066 Rain 15 1027 82 10000 2.1 80 19:54 23.12.2019
2067 Clouds 15 1027 77 10000 2.1 80 19:36 23.12.2019
2068 Clouds 16 1027 77 10000 2.1 80 19:18 23.12.2019
2069 Rain 16 1027 82 10000 2.6 50 18:54 23.12.2019
2070 Rain 16 1027 72 10000 3.1 50 18:36 23.12.2019
2071 Rain 17 1027 68 10000 3.6 50 18:18 23.12.2019
2072 Clouds 17 1027 68 10000 3.6 50 17:55 23.12.2019
2073 Clouds 17 1027 68 10000 3.6 50 17:37 23.12.2019
2074 Clouds 17 1027 68 10000 3.6 50 17:37 23.12.2019
2075 Clouds 18 1027 63 10000 4.1 60 17:18 23.12.2019
2076 Clouds 18 1027 63 10000 3.6 60 16:42 23.12.2019
2077 Clouds 18 1027 63 10000 3.6 60 16:19 23.12.2019
2078 Clouds 18 1027 63 10000 3.6 60 16:19 23.12.2019
2079 Clouds 18 1027 63 10000 3.6 60 16:19 23.12.2019
2080 Clouds 17 1027 67 10000 3.6 70 15:58 23.12.2019
2081 Clouds 17 1027 72 10000 4.6 50 15:38 23.12.2019
2082 Clouds 17 1027 72 10000 4.6 50 15:19 23.12.2019
2083 Rain 17 1027 82 10000 4.1 70 14:58 23.12.2019
2084 Clouds 16 1027 77 10000 5.1 40 14:39 23.12.2019
2085 Clouds 16 1027 77 10000 5.1 40 14:21 23.12.2019
2086 Clouds 16 1028 82 10000 5.1 70 13:58 23.12.2019
2087 Clear 16 1028 77 10000 5.7 40 13:40 23.12.2019
2088 Clear 16 1028 77 10000 5.7 40 13:22 23.12.2019
2089 Clouds 16 1029 82 10000 4.6 60 12:56 23.12.2019
2090 Clear 15 1029 82 10000 4.1 20 12:37 23.12.2019
2091 Clear 15 1029 82 10000 4.1 20 12:19 23.12.2019
2092 Clear 14 1030 82 10000 4.1 40 11:44 23.12.2019
2093 Rain 14 1030 82 10000 4.1 40 11:26 23.12.2019
2094 Rain 14 1030 87 10000 2.6 40 10:57 23.12.2019
2095 Rain 14 1030 87 10000 2.6 40 10:57 23.12.2019
2096 Rain 13 1030 87 10000 4.1 40 10:39 23.12.2019
2097 Clouds 13 1030 87 10000 4.1 40 10:20 23.12.2019
2098 Clouds 13 1030 87 10000 2.6 20 09:59 23.12.2019
2099 Clouds 13 1029 93 10000 3.6 50 09:40 23.12.2019
2100 Clouds 13 1029 93 10000 3.6 50 09:21 23.12.2019
2101 Clouds 13 1029 87 10000 2.6 50 08:56 23.12.2019
2102 Clouds 13 1029 93 9000 3.6 50 08:38 23.12.2019
2103 Clouds 13 1029 93 9000 3.6 50 08:20 23.12.2019
2104 Mist 13 1028 93 5000 3.1 60 07:43 23.12.2019
2105 Mist 13 1028 93 5000 3.1 60 07:20 23.12.2019
2106 Clouds 12 1028 100 9000 2.6 80 06:53 23.12.2019
2107 Clouds 12 1028 100 9000 2.6 80 06:53 23.12.2019
2108 Clouds 12 1028 100 6000 2.6 60 06:26 23.12.2019
2109 Mist 13 1028 100 3700 2.1 80 05:53 23.12.2019
2110 Mist 12 1028 100 2500 1.5 60 05:28 23.12.2019
2111 Fog 12 1028 100 500 1.5 20 04:31 23.12.2019
2112 Mist 13 1028 100 1500 1.5 330 03:24 23.12.2019
2113 Mist 13 1028 93 2200 2.1 270 02:41 23.12.2019
2114 Mist 13 1028 93 2200 2.1 270 02:19 23.12.2019
2115 Mist 13 1028 100 5000 1.5 240 01:43 23.12.2019
2116 Mist 13 1028 100 5000 1.5 240 01:25 23.12.2019
2117 Clouds 13 1028 100 6000 2.6 220 00:44 23.12.2019
2118 Clouds 13 1028 100 6000 2.6 220 00:23 23.12.2019
2119 Clouds 14 1028 100 6000 2.1 240 23:40 22.12.2019
2120 Clouds 14 1028 100 6000 2.1 240 23:22 22.12.2019
2121 Clouds 14 1028 100 6000 2.1 240 23:22 22.12.2019
2122 Clouds 14 1027 100 6000 2.6 240 22:58 22.12.2019
2123 Clouds 14 1027 93 6000 5.7 220 22:40 22.12.2019
2124 Clouds 14 1027 93 6000 5.7 220 22:22 22.12.2019
2125 Clouds 14 1027 93 7000 4.6 220 21:59 22.12.2019
2126 Clouds 14 1027 93 8000 3.6 230 21:40 22.12.2019
2127 Clouds 14 1027 93 8000 3.6 230 21:21 22.12.2019
2128 Clouds 14 1027 93 8000 3.6 230 21:21 22.12.2019
2129 Clouds 14 1026 87 9000 3.1 230 20:59 22.12.2019
2130 Clouds 14 1026 93 5000 4.1 220 20:39 22.12.2019
2131 Clear 15 1026 82 10000 2.6 230 20:19 22.12.2019
2132 Clear 15 1026 82 10000 4.1 230 19:57 22.12.2019
2133 Clear 15 1025 87 10000 4.6 220 19:39 22.12.2019
2134 Clear 15 1025 87 10000 4.6 220 19:20 22.12.2019
2135 Clouds 16 1024 77 10000 3.1 210 18:42 22.12.2019
2136 Clouds 16 1024 77 10000 3.1 210 18:24 22.12.2019
2137 Clouds 17 1024 72 10000 4.6 220 17:57 22.12.2019
2138 Clouds 17 1024 68 10000 5.7 240 17:39 22.12.2019
2139 Clouds 17 1024 68 10000 5.7 240 17:19 22.12.2019
2140 Rain 18 1024 72 10000 4.6 220 16:58 22.12.2019
2141 Rain 17 1024 77 10000 4.6 230 16:40 22.12.2019
2142 Rain 17 1024 77 10000 4.6 230 16:40 22.12.2019
2143 Rain 17 1024 77 10000 4.6 230 16:22 22.12.2019
2144 Rain 18 1024 72 10000 4.6 230 15:57 22.12.2019
2145 Clouds 17 1024 77 10000 4.1 220 15:38 22.12.2019
2146 Clouds 17 1024 77 10000 4.1 220 15:20 22.12.2019
2147 Clouds 17 1024 77 10000 3.6 220 14:55 22.12.2019
2148 Rain 17 1024 77 10000 3.6 230 14:37 22.12.2019
2149 Rain 16 1024 77 10000 3.6 230 14:18 22.12.2019
2150 Rain 16 1024 82 10000 4.1 220 13:55 22.12.2019
2151 Rain 15 1025 77 10000 3.1 220 13:37 22.12.2019
2152 Rain 15 1025 77 10000 3.1 220 13:19 22.12.2019
2153 Rain 15 1025 87 10000 4.1 220 12:56 22.12.2019
2154 Clouds 15 1025 93 10000 2.6 200 12:37 22.12.2019
2155 Clouds 14 1025 93 10000 2.6 200 12:19 22.12.2019
2156 Fog 14 1026 93 9000 2.6 210 11:56 22.12.2019
2157 Fog 14 1025 100 700 3.1 220 11:38 22.12.2019
2158 Fog 13 1025 100 700 3.1 220 11:19 22.12.2019
2159 Fog 12 1025 93 800 4.1 220 10:55 22.12.2019
2160 Fog 11 1024 93 500 4.1 220 10:37 22.12.2019
2161 Fog 12 1024 93 500 4.1 220 10:18 22.12.2019
2162 Fog 11 1024 100 350 3.6 210 09:57 22.12.2019
2163 Fog 11 1023 93 300 3.6 210 09:39 22.12.2019
2164 Fog 11 1023 93 300 3.6 210 09:20 22.12.2019
2165 Rain 11 1023 93 500 4.1 200 08:42 22.12.2019
2166 Rain 11 1023 93 500 4.1 200 08:22 22.12.2019
2167 Mist 11 1022 100 2500 2.6 220 07:43 22.12.2019
2168 Clear 11 1022 87 8000 2.1 220 07:21 22.12.2019
2169 Clear 12 1022 87 8000 2.1 220 06:52 22.12.2019
2170 Clear 12 1021 87 9000 1.5 230 06:25 22.12.2019
2171 Clear 12 1021 82 8000 3.1 250 05:32 22.12.2019
2172 Clear 13 1022 87 8000 3.1 250 04:46 22.12.2019
2173 Clear 13 1022 87 8000 3.1 250 04:25 22.12.2019
2174 Rain 14 1021 87 8000 2.6 240 02:45 22.12.2019
2175 Clear 14 1021 87 8000 2.6 240 02:20 22.12.2019
2176 Rain 14 1021 87 8000 3.6 240 01:31 22.12.2019
2177 Rain 15 1021 87 8000 4.1 240 00:56 22.12.2019
2178 Rain 15 1021 87 10000 4.6 240 00:36 22.12.2019
2179 Clear 15 1021 87 10000 4.6 240 00:18 22.12.2019
2180 Mist 15 1021 93 5000 5.7 240 23:40 21.12.2019
2181 Clouds 16 1021 82 10000 5.1 240 23:21 21.12.2019
2182 Clouds 16 1020 88 10000 5.1 240 22:56 21.12.2019
2183 Clouds 16 1020 88 10000 3.1 220 22:37 21.12.2019
2184 Mist 16 1020 93 5000 6.2 230 22:18 21.12.2019
2185 Clouds 16 1019 88 10000 5.1 240 21:54 21.12.2019
2186 Clouds 16 1020 88 6000 7.7 250 21:36 21.12.2019
2187 Clouds 16 1020 88 6000 7.7 250 21:18 21.12.2019
2188 Clouds 17 1018 93 10000 5.7 240 20:55 21.12.2019
2189 Clouds 17 1019 93 6000 9.8 250 20:37 21.12.2019
2190 Clouds 17 1018 88 10000 7.2 240 20:18 21.12.2019
2191 Clouds 17 1017 88 10000 8.2 240 19:54 21.12.2019
2192 Clouds 17 1017 88 10000 6.7 240 19:36 21.12.2019
2193 Clouds 17 1017 88 10000 6.7 240 19:18 21.12.2019
2194 Clouds 17 1017 93 8000 9.8 250 18:40 21.12.2019
2195 Clouds 18 1017 93 8000 9.8 250 18:22 21.12.2019
2196 Rain 18 1016 88 10000 6.7 240 17:55 21.12.2019
2197 Rain 18 1015 88 10000 8.2 240 17:37 21.12.2019
2198 Rain 18 1015 88 10000 8.2 240 17:18 21.12.2019
2199 Rain 18 1014 88 10000 9.3 230 16:54 21.12.2019
2200 Drizzle 18 1015 93 2000 11.8 230 16:36 21.12.2019
2201 Drizzle 18 1015 93 2000 11.8 230 16:18 21.12.2019
2202 Rain 18 1014 88 9000 9.3 230 15:55 21.12.2019
2203 Drizzle 18 1014 93 5000 10.3 230 15:37 21.12.2019
2204 Drizzle 18 1014 93 5000 10.3 230 15:18 21.12.2019
2205 Drizzle 18 1014 93 3500 9.8 230 14:41 21.12.2019
2206 Drizzle 18 1014 93 3500 9.8 230 14:23 21.12.2019
2207 Drizzle 18 1014 93 2500 9.3 230 13:58 21.12.2019
2208 Drizzle 18 1014 93 2500 9.3 230 13:58 21.12.2019
2209 Drizzle 18 1014 93 3000 10.3 230 13:39 21.12.2019
2210 Drizzle 18 1014 93 3000 10.3 230 13:19 21.12.2019
2211 Drizzle 18 1015 93 4200 9.3 230 12:56 21.12.2019
2212 Drizzle 18 1015 93 3200 10.3 230 12:38 21.12.2019
2213 Drizzle 18 1015 93 3200 10.3 230 12:20 21.12.2019
2214 Drizzle 18 1015 88 4200 8.2 230 11:46 21.12.2019
2215 Drizzle 18 1015 88 4200 8.2 230 11:27 21.12.2019
2216 Rain 18 1014 88 8000 8.2 230 10:59 21.12.2019
2217 Rain 18 1014 88 9000 7.7 240 10:40 21.12.2019
2218 Rain 18 1014 88 9000 7.7 240 10:21 21.12.2019
2219 Rain 18 1014 88 9000 7.7 240 10:21 21.12.2019
2220 Rain 18 1013 88 6000 8.2 230 09:58 21.12.2019
2221 Rain 18 1013 88 3000 6.7 230 09:39 21.12.2019
2222 Rain 18 1013 88 8000 8.2 240 09:19 21.12.2019
2223 Rain 17 1013 88 8000 8.2 240 08:47 21.12.2019
2224 Rain 18 1013 88 10000 7.2 240 08:27 21.12.2019
2225 Rain 18 1012 88 10000 7.2 240 07:58 21.12.2019
2226 Rain 18 1012 88 10000 7.2 240 07:58 21.12.2019
2227 Rain 18 1012 88 10000 9.3 240 07:39 21.12.2019
2228 Rain 18 1012 88 10000 9.3 240 07:20 21.12.2019
2229 Rain 18 1011 82 9000 10.8 240 06:40 21.12.2019
2230 Rain 18 1011 82 9000 10.8 240 06:22 21.12.2019
2231 Rain 18 1011 88 8000 10.3 250 05:25 21.12.2019
2232 Rain 18 1011 88 6000 9.3 240 04:55 21.12.2019
2233 Rain 18 1011 88 6000 8.7 240 03:56 21.12.2019
2234 Rain 18 1010 88 10000 10.3 240 02:25 21.12.2019
2235 Rain 18 1010 88 10000 9.3 240 01:50 21.12.2019
2236 Rain 18 1011 88 10000 10.8 250 01:25 21.12.2019
2237 Clouds 17 1010 88 10000 8.7 240 00:49 21.12.2019
2238 Clouds 18 1011 88 9000 9.8 240 00:28 21.12.2019
2239 Clouds 18 1010 88 8000 8.7 240 23:40 20.12.2019
2240 Rain 18 1010 88 8000 8.7 240 23:21 20.12.2019
2241 Rain 17 1010 88 10000 8.7 240 22:59 20.12.2019
2242 Clouds 17 1010 88 10000 7.7 240 22:39 20.12.2019
2243 Clouds 18 1010 88 10000 7.7 240 22:19 20.12.2019
2244 Clouds 18 1010 82 10000 8.2 230 21:56 20.12.2019
2245 Drizzle 18 1009 93 6000 8.7 230 21:38 20.12.2019
2246 Drizzle 18 1009 93 6000 8.7 230 21:18 20.12.2019
2247 Drizzle 18 1009 93 6000 9.3 230 20:39 20.12.2019
2248 Drizzle 18 1009 93 6000 9.3 230 20:19 20.12.2019
2249 Drizzle 18 1009 93 4000 8.2 230 19:57 20.12.2019
2250 Drizzle 18 1009 93 4000 8.2 240 19:39 20.12.2019
2251 Drizzle 18 1009 93 5000 9.3 230 19:19 20.12.2019
2252 Drizzle 18 1009 93 3000 9.8 230 18:42 20.12.2019
2253 Drizzle 18 1009 93 3000 9.8 230 18:42 20.12.2019
2254 Drizzle 18 1009 93 3000 9.8 230 18:23 20.12.2019
2255 Drizzle 18 1008 93 2000 9.3 230 17:58 20.12.2019
2256 Rain 17 1009 93 6000 6.7 230 17:40 20.12.2019
2257 Rain 18 1009 93 6000 6.7 230 17:21 20.12.2019
2258 Rain 18 1009 93 6000 6.7 230 17:21 20.12.2019
2259 Rain 18 1008 82 9000 8.2 230 16:59 20.12.2019
2260 Rain 18 1008 82 9000 8.2 230 16:39 20.12.2019
2261 Rain 18 1008 93 6000 7.7 230 16:20 20.12.2019
2262 Drizzle 18 1008 93 7000 6.7 230 15:56 20.12.2019
2263 Drizzle 18 1008 93 7000 6.7 230 15:38 20.12.2019
2264 Rain 18 1008 93 10000 7.7 240 15:19 20.12.2019
2265 Rain 18 1008 82 10000 8.7 230 14:54 20.12.2019
2266 Rain 18 1008 82 10000 8.7 230 14:36 20.12.2019
2267 Rain 18 1008 93 9000 8.7 240 14:18 20.12.2019
2268 Rain 18 1008 93 3000 10.3 240 13:41 20.12.2019
2269 Rain 18 1009 93 2500 8.7 240 13:20 20.12.2019
2270 Rain 18 1009 93 3500 9.3 240 12:57 20.12.2019
2271 Rain 18 1009 93 3500 9.3 240 12:38 20.12.2019
2272 Rain 18 1009 93 7000 7.7 240 12:19 20.12.2019
2273 Rain 18 1010 93 4000 6.7 240 11:58 20.12.2019
2274 Rain 18 1010 93 4000 6.7 240 11:39 20.12.2019
2275 Rain 18 1009 93 10000 8.2 240 11:19 20.12.2019
2276 Rain 18 1009 93 8000 8.7 240 10:57 20.12.2019
2277 Rain 18 1009 93 8000 8.7 240 10:39 20.12.2019
2278 Rain 18 1009 100 5000 7.7 240 10:20 20.12.2019
2279 Rain 17 1008 93 5000 9.3 230 09:54 20.12.2019
2280 Rain 17 1008 100 4000 8.7 230 09:36 20.12.2019
2281 Rain 17 1008 100 4000 8.7 230 09:18 20.12.2019
2282 Rain 17 1008 93 7000 9.8 230 08:42 20.12.2019
2283 Rain 17 1008 100 5000 7.7 230 08:22 20.12.2019
2284 Rain 17 1008 100 9000 9.3 230 07:58 20.12.2019
2285 Rain 17 1008 100 9000 9.3 230 07:40 20.12.2019
2286 Rain 17 1007 100 5000 6.7 230 07:19 20.12.2019
2287 Rain 17 1007 93 4000 9.3 230 06:50 20.12.2019
2288 Rain 17 1007 93 2000 8.7 240 06:31 20.12.2019
2289 Rain 17 1007 93 3000 10.8 230 05:52 20.12.2019
2290 Rain 17 1007 93 3000 11.8 230 05:34 20.12.2019
2291 Rain 17 1007 82 6000 17 230 04:30 20.12.2019
2292 Rain 17 1007 93 3100 17 220 03:30 20.12.2019
2293 Rain 17 1008 93 2400 14.9 220 02:42 20.12.2019
2294 Rain 17 1009 88 9000 13.9 220 01:47 20.12.2019
2295 Rain 17 1009 93 4000 13.4 220 01:29 20.12.2019
2296 Rain 17 1009 93 4000 9.8 240 00:42 20.12.2019
2297 Rain 17 1010 88 10000 12.3 210 00:23 20.12.2019
2298 Clouds 17 1010 88 10000 12.9 220 23:44 19.12.2019
2299 Clouds 17 1010 88 10000 12.3 220 23:25 19.12.2019
2300 Clouds 17 1011 88 10000 12.9 220 22:59 19.12.2019
2301 Clouds 17 1011 88 10000 12.9 220 22:59 19.12.2019
2302 Rain 17 1011 88 10000 12.9 220 22:37 19.12.2019
2303 Rain 17 1011 88 10000 12.9 220 22:18 19.12.2019
2304 Rain 17 1011 88 10000 11.8 220 21:55 19.12.2019
2305 Rain 17 1011 88 10000 11.8 220 21:37 19.12.2019
2306 Rain 17 1011 93 10000 9.3 240 21:18 19.12.2019
2307 Rain 17 1011 93 2000 10.3 210 20:55 19.12.2019
2308 Rain 16 1011 93 2500 8.7 210 20:36 19.12.2019
2309 Rain 16 1011 93 2500 8.7 210 20:18 19.12.2019
2310 Rain 16 1011 93 4000 9.3 210 19:54 19.12.2019
2311 Rain 16 1011 93 8000 9.3 210 19:36 19.12.2019
2312 Rain 16 1011 93 8000 9.3 210 19:18 19.12.2019
2313 Rain 16 1011 93 7000 8.7 210 18:41 19.12.2019
2314 Rain 16 1012 93 4000 8.2 210 18:22 19.12.2019
2315 Rain 16 1012 93 3000 8.7 220 17:57 19.12.2019
2316 Rain 16 1012 93 3000 8.7 220 17:39 19.12.2019
2317 Rain 16 1012 93 9000 7.7 210 17:19 19.12.2019
2318 Rain 16 1012 88 3000 7.7 200 16:58 19.12.2019
2319 Rain 16 1012 88 3000 7.7 200 16:40 19.12.2019
2320 Rain 16 1013 88 10000 7.7 210 16:22 19.12.2019
2321 Rain 16 1013 88 10000 8.7 200 15:59 19.12.2019
2322 Rain 16 1013 88 10000 8.7 200 15:59 19.12.2019
2323 Rain 16 1013 88 10000 8.7 200 15:39 19.12.2019
2324 Rain 16 1013 93 7000 8.7 200 15:20 19.12.2019
2325 Rain 16 1013 88 4000 8.7 200 14:59 19.12.2019
2326 Rain 16 1013 88 4000 8.7 200 14:41 19.12.2019
2327 Drizzle 16 1013 93 5000 7.7 200 14:19 19.12.2019
2328 Rain 16 1013 88 6000 8.2 210 13:57 19.12.2019
2329 Rain 16 1013 88 6000 8.2 210 13:37 19.12.2019
2330 Rain 16 1014 100 10000 8.7 200 13:18 19.12.2019
2331 Rain 16 1014 93 10000 7.7 190 12:55 19.12.2019
2332 Rain 16 1014 93 10000 7.7 190 12:55 19.12.2019
2333 Rain 16 1014 93 10000 7.7 190 12:37 19.12.2019
2334 Rain 16 1014 93 10000 9.8 200 12:18 19.12.2019
2335 Rain 16 1014 93 7000 9.3 200 11:57 19.12.2019
2336 Rain 16 1014 93 7000 9.3 200 11:39 19.12.2019
2337 Rain 16 1014 100 4000 9.8 200 11:18 19.12.2019
2338 Rain 16 1014 100 4000 9.8 200 11:18 19.12.2019
2339 Rain 16 1014 93 2500 8.7 200 10:55 19.12.2019
2340 Rain 16 1014 93 4000 9.3 200 10:37 19.12.2019
2341 Rain 16 1014 93 4000 9.3 200 10:18 19.12.2019
2342 Rain 16 1014 100 8000 5.7 180 09:40 19.12.2019
2343 Rain 15 1014 100 8000 5.7 180 09:21 19.12.2019
2344 Drizzle 15 1014 87 5000 10.8 180 08:58 19.12.2019
2345 Drizzle 15 1014 87 5000 10.8 180 08:40 19.12.2019
2346 Rain 15 1014 87 10000 7.7 180 08:19 19.12.2019
2347 Rain 14 1014 87 10000 7.7 170 07:57 19.12.2019
2348 Rain 14 1014 87 10000 7.7 170 07:38 19.12.2019
2349 Rain 14 1015 93 4000 7.7 180 07:19 19.12.2019
2350 Drizzle 14 1015 93 10000 7.7 180 06:50 19.12.2019
2351 Rain 14 1016 93 10000 5.1 170 06:29 19.12.2019
2352 Rain 14 1017 93 6000 5.1 190 05:55 19.12.2019
2353 Rain 14 1018 87 4000 3.6 280 05:36 19.12.2019
2354 Drizzle 13 1017 87 9000 4.1 220 04:52 19.12.2019
2355 Rain 14 1017 72 10000 6.7 180 03:21 19.12.2019
2356 Clouds 14 1018 72 10000 5.1 180 02:23 19.12.2019
2357 Clouds 14 1018 67 10000 3.1 200 01:23 19.12.2019
2358 Clouds 14 1018 72 10000 3.6 190 00:44 19.12.2019
2359 Clouds 14 1018 72 10000 3.1 180 00:24 19.12.2019
2360 Clouds 14 1018 72 10000 1.5 210 23:58 18.12.2019
2361 Clouds 14 1018 67 10000 3.6 170 23:38 18.12.2019
2362 Clouds 14 1018 67 10000 3.6 170 23:19 18.12.2019
2363 Clouds 14 1019 76 10000 3.6 170 22:56 18.12.2019
2364 Clouds 14 1019 76 10000 4.1 180 22:37 18.12.2019
2365 Clouds 14 1019 76 10000 4.1 180 22:19 18.12.2019
2366 Clouds 14 1020 72 10000 5.7 170 21:57 18.12.2019
2367 Clouds 14 1020 72 10000 5.7 170 21:39 18.12.2019
2368 Clouds 14 1020 72 10000 5.1 180 21:19 18.12.2019
2369 Clouds 14 1020 77 10000 4.1 180 20:55 18.12.2019
2370 Clouds 14 1020 76 10000 4.1 190 20:37 18.12.2019
2371 Clouds 14 1020 77 10000 4.1 180 20:37 18.12.2019
2372 Clouds 15 1020 72 10000 4.1 180 20:19 18.12.2019
2373 Clouds 15 1020 77 10000 3.6 180 19:55 18.12.2019
2374 Clouds 15 1020 77 10000 3.6 190 19:37 18.12.2019
2375 Clouds 15 1020 77 10000 3.6 190 19:18 18.12.2019
2376 Clouds 15 1020 77 10000 3.1 210 18:44 18.12.2019
2377 Clouds 15 1019 77 10000 2.1 180 18:25 18.12.2019
2378 Clouds 15 1019 82 10000 2.1 150 17:57 18.12.2019
2379 Clouds 15 1019 82 10000 2.1 150 17:39 18.12.2019
2380 Clouds 16 1018 82 10000 2.6 140 17:20 18.12.2019
2381 Clouds 16 1018 82 10000 2.6 140 16:57 18.12.2019
2382 Clouds 16 1019 82 10000 2.6 130 16:39 18.12.2019
2383 Clouds 15 1019 87 9000 2.1 150 16:20 18.12.2019
2384 Clouds 15 1019 87 9000 2.1 150 15:56 18.12.2019
2385 Drizzle 15 1019 82 7000 2.6 150 15:37 18.12.2019
2386 Drizzle 15 1019 82 7000 2.6 150 15:19 18.12.2019
2387 Clouds 14 1019 72 10000 2.1 30 14:42 18.12.2019
2388 Clouds 14 1019 72 10000 2.1 30 14:22 18.12.2019
2389 Clouds 14 1020 77 10000 5.7 190 13:57 18.12.2019
2390 Clouds 14 1020 76 10000 2.6 90 13:39 18.12.2019
2391 Clouds 14 1020 76 10000 2.6 90 13:20 18.12.2019
2392 Clouds 13 1021 71 10000 2.6 110 12:59 18.12.2019
2393 Clouds 13 1021 71 10000 2.6 110 12:59 18.12.2019
2394 Clouds 13 1021 71 10000 3.1 50 12:39 18.12.2019
2395 Clouds 12 1021 71 10000 3.1 50 12:20 18.12.2019
2396 Clouds 11 1021 71 10000 2.6 40 11:56 18.12.2019
2397 Clouds 10 1021 76 10000 3.1 30 11:38 18.12.2019
2398 Clouds 10 1021 76 10000 3.1 30 11:38 18.12.2019
2399 Clouds 10 1021 76 10000 3.1 30 11:19 18.12.2019
2400 Clouds 9 1021 76 10000 2.6 60 10:57 18.12.2019
2401 Clouds 9 1020 87 10000 2.1 360 10:39 18.12.2019
2402 Clouds 9 1020 87 10000 2.1 360 10:20 18.12.2019
2403 Clouds 8 1020 81 10000 2.1 20 09:52 18.12.2019
2404 Clouds 8 1020 81 10000 1.5 60 09:19 18.12.2019
2405 Clouds 8 1019 87 10000 2.1 20 08:42 18.12.2019
2406 Clouds 8 1019 87 10000 2.1 20 08:24 18.12.2019
2407 Clouds 8 1019 87 10000 1.88 46 07:56 18.12.2019
2408 Clouds 8 1018 93 10000 1 30 07:38 18.12.2019
2409 Clouds 7 1018 93 10000 1 30 07:19 18.12.2019
2410 Clouds 7 1018 93 10000 1 0 06:50 18.12.2019
2411 Clouds 7 1018 93 10000 1 0 06:22 18.12.2019
2412 Clouds 7 1019 93 10000 1.5 40 05:30 18.12.2019
2413 Clouds 8 1019 87 10000 1.16 56 03:46 18.12.2019
2414 Clouds 9 1018 87 10000 1 0 02:44 18.12.2019
2415 Clouds 9 1018 87 10000 1 0 02:26 18.12.2019
2416 Clouds 9 1018 81 10000 1.23 25 01:43 18.12.2019
2417 Clouds 9 1018 81 10000 1.17 26 01:25 18.12.2019
2418 Clouds 9 1018 81 10000 1.5 140 00:42 18.12.2019
2419 Clouds 9 1018 81 10000 1.5 140 00:24 18.12.2019
2420 Clouds 8 1018 76 10000 2.1 110 23:58 17.12.2019
2421 Clouds 8 1018 76 10000 2.1 110 23:58 17.12.2019
2422 Clouds 8 1017 76 10000 1.5 100 23:39 17.12.2019
2423 Clouds 9 1017 71 10000 1.3 305 23:21 17.12.2019
2424 Clouds 9 1017 71 10000 1.3 305 22:57 17.12.2019
2425 Clouds 9 1017 66 10000 0.5 0 22:39 17.12.2019
2426 Clouds 9 1017 66 10000 0.5 0 22:19 17.12.2019
2427 Clouds 9 1017 66 10000 2.6 280 21:57 17.12.2019
2428 Clouds 10 1016 62 10000 3.1 280 21:39 17.12.2019
2429 Clouds 10 1016 54 10000 3.6 290 21:20 17.12.2019
2430 Clouds 10 1016 54 10000 3.6 290 20:59 17.12.2019
2431 Clouds 10 1015 62 10000 3.6 280 20:40 17.12.2019
2432 Clear 11 1015 50 10000 4.6 290 20:19 17.12.2019
2433 Clear 11 1015 50 10000 4.6 290 19:57 17.12.2019
2434 Clear 12 1014 50 10000 5.1 290 19:39 17.12.2019
2435 Clear 12 1014 50 10000 5.1 290 19:20 17.12.2019
2436 Clear 13 1013 44 10000 3.1 300 18:57 17.12.2019
2437 Clouds 13 1013 47 10000 2.1 300 18:38 17.12.2019
2438 Clouds 13 1013 47 10000 2.1 300 18:20 17.12.2019
2439 Clouds 14 1012 54 10000 3.1 230 17:55 17.12.2019
2440 Clouds 14 1012 48 10000 3.1 280 17:37 17.12.2019
2441 Clouds 15 1011 51 10000 3.1 260 17:18 17.12.2019
2442 Clouds 15 1011 51 10000 3.1 260 16:55 17.12.2019
2443 Clouds 15 1010 51 10000 3.6 260 16:36 17.12.2019
2444 Clouds 15 1010 51 10000 3.6 260 16:18 17.12.2019
2445 Clouds 15 1010 51 10000 3.6 260 16:18 17.12.2019
2446 Clouds 15 1009 54 10000 2.6 260 15:38 17.12.2019
2447 Clouds 15 1009 54 10000 2.6 260 15:20 17.12.2019
2448 Clouds 14 1009 54 10000 3.6 320 14:57 17.12.2019
2449 Clouds 14 1009 62 10000 2.6 270 14:38 17.12.2019
2450 Clouds 14 1009 62 10000 2.6 270 14:19 17.12.2019
2451 Clouds 14 1009 58 10000 3.1 310 13:59 17.12.2019
2452 Clouds 13 1008 58 10000 2.1 260 13:41 17.12.2019
2453 Clouds 13 1008 66 10000 3.6 310 13:19 17.12.2019
2454 Clouds 13 1008 66 10000 3.6 310 12:59 17.12.2019
2455 Clouds 13 1008 62 10000 3.1 350 12:39 17.12.2019
2456 Clouds 13 1008 66 10000 4.6 300 12:18 17.12.2019
2457 Clouds 12 1008 66 10000 4.6 300 11:58 17.12.2019
2458 Clear 12 1007 71 10000 4.1 290 11:37 17.12.2019
2459 Clouds 11 1007 71 10000 5.7 290 11:18 17.12.2019
2460 Clouds 11 1007 71 10000 5.7 290 10:58 17.12.2019
2461 Clouds 11 1006 76 10000 2.6 270 10:39 17.12.2019
2462 Clouds 11 1005 76 10000 4.1 290 10:20 17.12.2019
2463 Clouds 10 1005 76 10000 4.1 290 09:58 17.12.2019
2464 Clouds 10 1004 87 10000 1.5 280 09:40 17.12.2019
2465 Clouds 10 1004 81 10000 3.1 270 09:19 17.12.2019
2466 Clouds 10 1004 81 10000 3.1 270 08:55 17.12.2019
2467 Clouds 10 1003 93 10000 1.5 240 08:37 17.12.2019
2468 Clouds 10 1003 93 10000 1.5 240 08:19 17.12.2019
2469 Clouds 10 1002 87 10000 2.1 260 07:45 17.12.2019
2470 Clouds 10 1002 87 10000 2.1 260 07:24 17.12.2019
2471 Clouds 10 1002 87 10000 2.6 230 06:56 17.12.2019
2472 Clouds 10 1001 87 10000 2.6 240 06:34 17.12.2019
2473 Clouds 10 1001 87 10000 3.6 220 05:52 17.12.2019
2474 Clouds 10 1001 87 10000 3.1 240 05:34 17.12.2019
2475 Clouds 11 1000 81 10000 3.6 230 04:25 17.12.2019
2476 Rain 11 1000 93 8000 8.2 190 02:33 17.12.2019
2477 Rain 12 998 87 10000 3.1 210 01:54 17.12.2019
2478 Clouds 12 999 82 10000 4.6 190 00:58 17.12.2019
2479 Rain 13 998 82 10000 5.7 210 00:37 17.12.2019
2480 Rain 13 998 82 10000 5.7 210 00:18 17.12.2019
2481 Rain 13 999 71 10000 11.3 180 23:41 16.12.2019
2482 Rain 14 998 77 10000 6.2 190 23:19 16.12.2019
2483 Clouds 14 998 72 10000 6.2 190 22:56 16.12.2019
2484 Clouds 14 998 77 10000 6.2 180 22:37 16.12.2019
2485 Clouds 14 998 77 10000 6.2 180 22:19 16.12.2019
2486 Rain 14 998 77 10000 5.7 210 21:55 16.12.2019
2487 Rain 14 998 82 10000 8.7 230 21:37 16.12.2019
2488 Rain 14 998 82 10000 8.7 230 21:37 16.12.2019
2489 Rain 14 998 82 10000 8.7 230 21:37 16.12.2019
2490 Rain 14 998 67 10000 12.3 230 21:18 16.12.2019
2491 Rain 15 998 67 10000 12.3 230 20:56 16.12.2019
2492 Rain 15 998 67 10000 12.3 230 20:56 16.12.2019
2493 Rain 16 997 63 10000 9.3 180 20:37 16.12.2019
2494 Clouds 17 997 63 10000 9.3 180 20:19 16.12.2019
2495 Clouds 16 997 63 10000 8.7 180 19:55 16.12.2019
2496 Clouds 17 998 59 10000 9.3 180 19:37 16.12.2019
2497 Rain 16 998 59 10000 9.3 180 19:18 16.12.2019
2498 Rain 16 998 59 10000 9.3 180 19:18 16.12.2019
2499 Clouds 17 998 59 10000 8.7 180 18:56 16.12.2019
2500 Clouds 18 998 63 10000 8.2 180 18:37 16.12.2019
2501 Clouds 18 998 63 10000 8.2 180 18:19 16.12.2019
2502 Clouds 18 998 63 10000 8.2 180 18:19 16.12.2019
2503 Clouds 18 997 55 10000 8.7 180 17:57 16.12.2019
2504 Clouds 18 998 59 10000 5.7 190 17:37 16.12.2019
2505 Clouds 17 998 48 10000 10.8 180 17:19 16.12.2019
2506 Clouds 17 998 48 10000 10.8 180 16:55 16.12.2019
2507 Thunderstorm 17 997 63 10000 5.1 210 16:37 16.12.2019
2508 Thunderstorm 17 998 40 10000 9.3 190 16:18 16.12.2019
2509 Thunderstorm 18 998 40 10000 9.3 190 15:57 16.12.2019
2510 Rain 19 997 45 10000 6.7 170 15:37 16.12.2019
2511 Clouds 20 997 45 10000 6.7 170 15:19 16.12.2019
2512 Clouds 20 999 32 10000 8.2 190 14:54 16.12.2019
2513 Clouds 20 998 40 10000 8.2 200 14:36 16.12.2019
2514 Clouds 21 998 40 10000 8.2 200 14:18 16.12.2019
2515 Clouds 20 1000 37 10000 7.7 190 13:55 16.12.2019
2516 Clouds 20 1000 40 10000 8.2 200 13:37 16.12.2019
2517 Clouds 20 1000 40 10000 8.2 200 13:19 16.12.2019
2518 Clouds 20 1002 37 10000 9.3 200 12:56 16.12.2019
2519 Clouds 19 1002 42 10000 7.2 190 12:38 16.12.2019
2520 Rain 18 1003 55 10000 2.1 180 12:18 16.12.2019
2521 Rain 18 1003 55 10000 2.1 180 11:57 16.12.2019
2522 Rain 17 1003 67 10000 1 0 11:38 16.12.2019
2523 Clouds 15 1003 76 10000 1.5 20 11:19 16.12.2019
2524 Clouds 15 1003 76 10000 1.5 20 10:54 16.12.2019
2525 Clouds 14 1003 81 10000 0.5 290 10:36 16.12.2019
2526 Clouds 12 1003 81 10000 1 0 10:18 16.12.2019
2527 Clouds 12 1003 81 10000 0.5 0 09:43 16.12.2019
2528 Clouds 12 1003 81 10000 0.5 0 09:24 16.12.2019
2529 Clouds 11 1004 87 10000 0.5 0 08:40 16.12.2019
2530 Clouds 11 1004 87 10000 0.5 0 08:40 16.12.2019
2531 Clouds 12 1004 87 10000 0.5 0 08:20 16.12.2019
2532 Clouds 12 1004 87 10000 0.5 0 08:20 16.12.2019
2533 Clouds 13 1004 76 10000 2.6 150 07:53 16.12.2019
2534 Clouds 14 1004 71 10000 3.1 140 07:31 16.12.2019
2535 Clouds 14 1004 71 10000 3.1 140 07:31 16.12.2019
2536 Clouds 13 1005 71 10000 4.6 160 06:58 16.12.2019
2537 Clouds 13 1005 71 10000 3.6 150 06:40 16.12.2019
2538 Clouds 13 1005 71 10000 3.6 150 06:20 16.12.2019
2539 Clouds 13 1006 76 10000 2.1 150 05:41 16.12.2019
2540 Clouds 13 1006 76 10000 2.1 150 05:22 16.12.2019
2541 Clouds 12 1008 81 10000 0.5 0 03:28 16.12.2019
2542 Clouds 12 1009 81 10000 1.5 130 01:51 16.12.2019
2543 Clouds 12 1009 81 10000 3.1 120 01:33 16.12.2019
2544 Clouds 12 1010 76 10000 1.5 150 00:39 16.12.2019
2545 Clouds 12 1011 76 10000 2.1 160 00:20 16.12.2019
2546 Clouds 13 1011 76 10000 2.1 160 23:57 15.12.2019
2547 Clouds 13 1011 76 10000 2.6 140 23:37 15.12.2019
2548 Clouds 13 1011 76 10000 1.5 150 23:19 15.12.2019
2549 Clouds 13 1011 76 10000 1.5 150 22:54 15.12.2019
2550 Clouds 14 1011 72 10000 1.5 150 22:36 15.12.2019
2551 Clouds 14 1011 72 10000 1.5 150 22:18 15.12.2019
2552 Clouds 14 1011 77 10000 1.5 170 21:54 15.12.2019
2553 Clouds 14 1012 67 10000 2.1 240 21:36 15.12.2019
2554 Clouds 14 1012 67 10000 2.1 240 21:18 15.12.2019
2555 Clouds 14 1012 67 10000 1.5 240 20:54 15.12.2019
2556 Clouds 14 1012 67 10000 1.5 230 20:36 15.12.2019
2557 Clouds 14 1012 67 10000 1.5 230 20:18 15.12.2019
2558 Clouds 14 1012 72 10000 2.1 160 19:54 15.12.2019
2559 Clouds 15 1012 67 10000 1 0 19:36 15.12.2019
2560 Clouds 15 1012 67 10000 1 0 19:18 15.12.2019
2561 Clouds 15 1013 67 10000 2.6 220 18:54 15.12.2019
2562 Clouds 15 1013 58 10000 2.1 260 18:36 15.12.2019
2563 Clouds 16 1013 59 10000 2.1 200 18:18 15.12.2019
2564 Clouds 16 1013 59 10000 2.1 200 17:54 15.12.2019
2565 Clouds 16 1013 55 10000 2.1 200 17:36 15.12.2019
2566 Clouds 16 1013 59 10000 2.1 150 17:18 15.12.2019
2567 Clouds 16 1014 55 10000 2.6 230 16:42 15.12.2019
2568 Clouds 17 1014 52 10000 1 0 16:22 15.12.2019
2569 Clouds 17 1014 52 10000 1 0 15:57 15.12.2019
2570 Clouds 17 1014 52 10000 1 0 15:38 15.12.2019
2571 Clouds 17 1014 52 10000 1 0 15:19 15.12.2019
2572 Clouds 17 1015 52 10000 1.5 160 14:56 15.12.2019
2573 Clouds 17 1016 55 10000 1.5 160 14:37 15.12.2019
2574 Clouds 17 1016 55 10000 1.5 160 14:19 15.12.2019
2575 Clouds 17 1016 55 10000 2.1 120 13:58 15.12.2019
2576 Clouds 16 1017 59 10000 1.5 140 13:38 15.12.2019
2577 Clouds 16 1017 59 10000 1.5 140 13:19 15.12.2019
2578 Clouds 15 1017 72 10000 1 0 12:57 15.12.2019
2579 Clouds 15 1018 67 10000 0.5 0 12:39 15.12.2019
2580 Clouds 15 1018 67 10000 0.5 0 12:20 15.12.2019
2581 Clouds 14 1018 72 10000 2.82 106 11:58 15.12.2019
2582 Clouds 14 1019 72 10000 1 0 11:37 15.12.2019
2583 Clouds 13 1018 76 10000 1.35 73 11:19 15.12.2019
2584 Clouds 12 1018 76 10000 1.35 73 10:55 15.12.2019
2585 Clouds 12 1018 76 10000 1.35 73 10:37 15.12.2019
2586 Clouds 11 1018 76 10000 1.5 160 10:19 15.12.2019
2587 Clouds 12 1018 87 10000 1.5 170 09:41 15.12.2019
2588 Clouds 11 1018 87 10000 1.5 170 09:20 15.12.2019
2589 Clouds 11 1018 87 10000 1 0 08:59 15.12.2019
2590 Clouds 11 1018 87 10000 0.5 0 08:41 15.12.2019
2591 Clouds 11 1018 87 10000 0.5 0 08:22 15.12.2019
2592 Clouds 11 1018 87 10000 0.5 0 08:22 15.12.2019
2593 Clouds 11 1018 93 10000 1 0 07:56 15.12.2019
2594 Clouds 11 1018 93 10000 0.5 0 07:36 15.12.2019
2595 Clouds 10 1018 87 10000 1 0 06:57 15.12.2019
2596 Clouds 10 1018 87 10000 0.5 0 06:23 15.12.2019
2597 Clouds 10 1018 87 10000 2.1 180 05:39 15.12.2019
2598 Clouds 12 1018 87 10000 0.5 0 05:19 15.12.2019
2599 Clouds 11 1019 87 10000 1 170 03:56 15.12.2019
2600 Clouds 11 1019 87 10000 1.5 150 02:35 15.12.2019
2601 Clouds 12 1020 76 10000 1.5 150 01:57 15.12.2019
2602 Clouds 12 1020 82 10000 0.5 0 01:39 15.12.2019
2603 Clouds 12 1020 82 10000 0.5 0 01:18 15.12.2019
2604 Clouds 13 1020 77 10000 1 0 00:44 15.12.2019
2605 Clouds 13 1020 77 10000 1 0 00:25 15.12.2019
2606 Clouds 12 1021 72 10000 0.5 0 23:41 14.12.2019
2607 Clouds 13 1021 71 10000 2.1 160 23:22 14.12.2019
2608 Clouds 13 1021 71 10000 2.1 160 22:59 14.12.2019
2609 Clouds 13 1021 67 10000 1 0 22:41 14.12.2019
2610 Clouds 13 1021 67 10000 1 0 22:22 14.12.2019
2611 Clouds 13 1021 67 10000 2.1 150 21:56 14.12.2019
2612 Clouds 13 1021 62 10000 2.1 190 21:38 14.12.2019
2613 Clouds 14 1021 62 10000 2.1 190 21:19 14.12.2019
2614 Clouds 14 1021 67 10000 1.5 190 20:58 14.12.2019
2615 Clouds 14 1021 67 10000 1.5 170 20:39 14.12.2019
2616 Clouds 15 1021 67 10000 1.5 170 20:20 14.12.2019
2617 Clouds 15 1021 67 10000 1.5 170 20:20 14.12.2019
2618 Clouds 14 1021 67 10000 1.5 150 19:57 14.12.2019
2619 Clouds 15 1021 59 10000 1 0 19:38 14.12.2019
2620 Clouds 15 1021 59 10000 1 0 19:20 14.12.2019
2621 Clouds 15 1021 58 10000 0.91 333 18:56 14.12.2019
2622 Clouds 15 1021 51 10000 1 0 18:38 14.12.2019
2623 Clouds 15 1021 51 10000 1 0 18:38 14.12.2019
2624 Clouds 16 1021 51 10000 1 0 18:19 14.12.2019
2625 Clouds 16 1021 51 10000 3.1 330 17:44 14.12.2019
2626 Clouds 16 1021 51 10000 3.1 330 17:24 14.12.2019
2627 Clouds 16 1021 51 10000 4.1 310 16:58 14.12.2019
2628 Clouds 16 1021 51 10000 3.1 320 16:39 14.12.2019
2629 Clouds 16 1021 51 10000 3.1 320 16:19 14.12.2019
2630 Clouds 16 1021 51 10000 3.1 320 16:19 14.12.2019
2631 Clouds 16 1021 51 10000 1.5 310 15:43 14.12.2019
2632 Clouds 16 1021 51 10000 1.5 310 15:24 14.12.2019
2633 Clouds 16 1021 51 10000 1.5 340 14:59 14.12.2019
2634 Clouds 16 1022 51 10000 3.1 10 14:39 14.12.2019
2635 Clouds 16 1022 51 10000 3.1 10 14:20 14.12.2019
2636 Clouds 16 1022 51 10000 2.1 290 13:58 14.12.2019
2637 Clouds 16 1022 51 10000 2.1 350 13:39 14.12.2019
2638 Clouds 16 1022 51 10000 2.1 350 13:19 14.12.2019
2639 Clouds 16 1023 55 10000 3.1 360 12:56 14.12.2019
2640 Clouds 16 1023 59 10000 3.6 340 12:37 14.12.2019
2641 Clouds 16 1023 59 10000 3.1 320 12:19 14.12.2019
2642 Clouds 16 1023 59 10000 3.1 320 11:56 14.12.2019
2643 Clouds 15 1023 63 10000 3.1 300 11:37 14.12.2019
2644 Clouds 15 1023 67 10000 2.6 290 11:18 14.12.2019
2645 Clouds 15 1023 67 10000 2.6 290 10:55 14.12.2019
2646 Clouds 15 1023 67 10000 2.6 290 10:55 14.12.2019
2647 Clouds 14 1023 72 10000 1 270 10:37 14.12.2019
2648 Clouds 13 1023 72 10000 1 270 10:19 14.12.2019
2649 Clouds 14 1023 76 10000 0.5 0 09:42 14.12.2019
2650 Clouds 13 1023 76 10000 0.5 0 09:21 14.12.2019
2651 Clouds 13 1023 76 10000 1.5 310 08:56 14.12.2019
2652 Clouds 13 1022 82 10000 2.6 310 08:38 14.12.2019
2653 Clouds 13 1022 82 10000 2.6 310 08:19 14.12.2019
2654 Clouds 13 1022 82 10000 2.6 300 07:40 14.12.2019
2655 Clouds 13 1022 82 10000 2.6 300 07:21 14.12.2019
2656 Clouds 13 1022 82 10000 2.1 310 06:45 14.12.2019
2657 Clouds 13 1022 82 10000 2.1 310 06:22 14.12.2019
2658 Clouds 13 1022 87 10000 2.1 280 05:43 14.12.2019
2659 Clouds 13 1023 87 10000 2.1 300 03:44 14.12.2019
2660 Clouds 14 1023 82 10000 2.6 290 02:23 14.12.2019
2661 Clouds 14 1023 82 10000 2.6 290 01:44 14.12.2019
2662 Clouds 14 1023 82 10000 2.6 290 01:20 14.12.2019
2663 Clouds 14 1023 77 10000 4.1 280 00:41 14.12.2019
2664 Clouds 14 1023 77 10000 3.6 270 00:20 14.12.2019
2665 Clouds 14 1023 77 10000 3.6 270 23:41 13.12.2019
2666 Clouds 15 1023 77 10000 3.6 270 23:20 13.12.2019
2667 Clouds 15 1023 77 10000 3.1 230 22:59 13.12.2019
2668 Clouds 14 1023 82 10000 2.6 240 22:40 13.12.2019
2669 Clouds 14 1023 82 10000 2.6 240 22:18 13.12.2019
2670 Clouds 15 1023 77 10000 2.6 260 21:46 13.12.2019
2671 Clouds 15 1023 77 10000 2.6 260 21:22 13.12.2019
2672 Clouds 15 1023 77 10000 3.6 270 20:59 13.12.2019
2673 Clouds 15 1023 77 10000 3.1 270 20:40 13.12.2019
2674 Clouds 15 1023 77 10000 3.1 270 20:40 13.12.2019
2675 Clouds 15 1023 77 10000 3.1 270 20:21 13.12.2019
2676 Clouds 15 1023 82 10000 3.1 230 19:57 13.12.2019
2677 Clouds 16 1023 72 10000 3.6 260 19:39 13.12.2019
2678 Clouds 16 1023 72 10000 3.1 250 19:20 13.12.2019
2679 Clouds 16 1023 72 10000 4.6 260 18:57 13.12.2019
2680 Clouds 16 1023 72 10000 4.6 260 18:39 13.12.2019
2681 Clouds 16 1023 72 10000 3.6 270 18:18 13.12.2019
2682 Clouds 17 1023 68 10000 5.1 270 17:41 13.12.2019
2683 Clouds 17 1023 68 10000 5.1 270 17:19 13.12.2019
2684 Clouds 17 1023 68 10000 5.1 260 16:59 13.12.2019
2685 Clouds 17 1023 68 10000 5.1 260 16:39 13.12.2019
2686 Clouds 17 1023 67 10000 6.2 250 16:20 13.12.2019
2687 Clouds 17 1023 67 10000 4.6 270 15:43 13.12.2019
2688 Clouds 17 1023 67 10000 4.6 270 15:23 13.12.2019
2689 Clouds 17 1024 67 10000 4.6 280 14:58 13.12.2019
2690 Clouds 17 1023 68 10000 6.7 270 14:40 13.12.2019
2691 Clouds 17 1024 67 10000 4.6 280 14:20 13.12.2019
2692 Clouds 17 1024 67 10000 4.6 280 14:20 13.12.2019
2693 Clouds 17 1024 72 10000 3.6 260 13:56 13.12.2019
2694 Clouds 17 1024 72 10000 3.6 260 13:37 13.12.2019
2695 Clouds 17 1024 72 10000 3.6 260 13:19 13.12.2019
2696 Clouds 17 1025 67 10000 4.1 270 12:42 13.12.2019
2697 Clouds 17 1025 67 10000 4.1 270 12:20 13.12.2019
2698 Clouds 16 1025 77 10000 6.2 250 11:57 13.12.2019
2699 Clouds 16 1025 72 10000 4.1 260 11:39 13.12.2019
2700 Clouds 16 1025 72 10000 4.1 260 11:19 13.12.2019
2701 Clouds 15 1024 82 10000 5.7 230 10:41 13.12.2019
2702 Clouds 15 1024 82 10000 4.1 230 10:22 13.12.2019
2703 Clouds 14 1023 87 10000 4.6 210 09:54 13.12.2019
2704 Clouds 14 1023 87 10000 3.6 200 09:36 13.12.2019
2705 Clouds 13 1023 93 10000 2.1 210 09:18 13.12.2019
2706 Clouds 13 1023 87 10000 4.6 230 08:40 13.12.2019
2707 Clouds 13 1023 93 10000 2.6 210 08:22 13.12.2019
2708 Clouds 13 1023 87 10000 3.1 200 07:44 13.12.2019
2709 Clouds 14 1023 87 10000 3.6 220 07:20 13.12.2019
2710 Clouds 14 1022 87 10000 4.6 210 06:50 13.12.2019
2711 Clouds 14 1022 87 10000 4.6 220 06:28 13.12.2019
2712 Clouds 14 1023 87 10000 3.6 200 05:44 13.12.2019
2713 Clouds 13 1023 87 10000 4.1 240 05:24 13.12.2019
2714 Clouds 14 1022 87 10000 5.1 230 04:35 13.12.2019
2715 Clouds 13 1023 87 10000 3.6 240 03:31 13.12.2019
2716 Clouds 13 1023 82 10000 4.1 230 02:32 13.12.2019
2717 Clouds 13 1023 82 10000 3.6 240 01:42 13.12.2019
2718 Rain 13 1023 76 10000 4.1 220 00:53 13.12.2019
2719 Rain 13 1023 76 10000 3.6 230 00:34 13.12.2019
2720 Clouds 13 1023 76 10000 4.6 240 23:57 12.12.2019
2721 Clouds 13 1023 76 10000 5.7 240 23:37 12.12.2019
2722 Clouds 13 1023 76 10000 5.7 240 23:19 12.12.2019
2723 Clouds 13 1024 76 10000 5.1 250 22:54 12.12.2019
2724 Clouds 13 1024 71 10000 4.6 240 22:36 12.12.2019
2725 Clouds 13 1024 71 10000 4.6 240 22:18 12.12.2019
2726 Clouds 13 1024 71 10000 4.1 230 21:54 12.12.2019
2727 Clouds 13 1024 76 10000 4.1 220 21:36 12.12.2019
2728 Clouds 13 1024 76 10000 4.1 220 21:18 12.12.2019
2729 Clouds 13 1024 76 10000 4.6 220 20:55 12.12.2019
2730 Clouds 13 1024 76 10000 4.6 220 20:37 12.12.2019
2731 Clouds 13 1024 76 10000 4.6 220 20:19 12.12.2019
2732 Clouds 13 1025 71 10000 4.1 230 19:42 12.12.2019
2733 Clouds 14 1024 67 10000 3.6 240 19:22 12.12.2019
2734 Clouds 14 1024 67 10000 4.6 240 18:58 12.12.2019
2735 Clouds 14 1024 62 10000 5.1 230 18:39 12.12.2019
2736 Clouds 14 1024 62 10000 5.1 230 18:20 12.12.2019
2737 Clouds 15 1024 54 10000 5.1 260 17:57 12.12.2019
2738 Clouds 15 1024 59 10000 6.7 240 17:39 12.12.2019
2739 Clouds 15 1024 54 10000 5.1 260 17:20 12.12.2019
2740 Clouds 16 1024 51 10000 5.7 280 16:57 12.12.2019
2741 Clouds 16 1024 48 10000 6.2 280 16:39 12.12.2019
2742 Clouds 16 1024 48 10000 6.2 280 16:20 12.12.2019
2743 Clouds 16 1025 48 10000 8.2 290 15:56 12.12.2019
2744 Clouds 16 1025 48 10000 8.2 290 15:56 12.12.2019
2745 Clouds 16 1025 45 10000 5.1 290 15:38 12.12.2019
2746 Clouds 16 1025 45 10000 5.1 290 15:18 12.12.2019
2747 Clouds 16 1025 67 10000 3.6 210 14:38 12.12.2019
2748 Clouds 16 1025 67 10000 3.6 210 14:20 12.12.2019
2749 Clouds 15 1026 62 10000 3.6 210 13:58 12.12.2019
2750 Clouds 15 1026 62 10000 3.6 210 13:40 12.12.2019
2751 Clouds 14 1027 67 10000 3.1 220 13:21 12.12.2019
2752 Clouds 14 1027 62 10000 4.1 230 12:59 12.12.2019
2753 Clouds 14 1027 62 10000 4.1 230 12:40 12.12.2019
2754 Clouds 13 1028 71 10000 2.6 190 12:22 12.12.2019
2755 Clouds 12 1029 66 10000 2.1 220 11:57 12.12.2019
2756 Clouds 11 1029 66 10000 2.1 220 11:38 12.12.2019
2757 Clouds 11 1028 81 10000 2.1 190 11:20 12.12.2019
2758 Clouds 10 1027 76 10000 2.6 200 10:57 12.12.2019
2759 Clouds 9 1027 76 10000 2.6 200 10:39 12.12.2019
2760 Clouds 8 1027 87 10000 2.1 190 10:21 12.12.2019
2761 Clouds 7 1028 75 10000 2.1 220 09:55 12.12.2019
2762 Clouds 7 1028 75 10000 2.1 220 09:37 12.12.2019
2763 Clouds 7 1028 93 10000 1 230 09:19 12.12.2019
2764 Clouds 6 1028 81 10000 2.6 190 08:46 12.12.2019
2765 Clouds 6 1027 93 10000 1.5 180 08:27 12.12.2019
2766 Clouds 6 1028 87 10000 2.1 170 07:50 12.12.2019
2767 Clouds 5 1027 93 10000 1.5 200 07:27 12.12.2019
2768 Clouds 7 1027 86 10000 1.5 160 06:56 12.12.2019
2769 Clouds 6 1027 93 10000 0.5 140 06:35 12.12.2019
2770 Clouds 6 1028 93 10000 1.09 304 05:49 12.12.2019
2771 Clouds 7 1028 87 10000 0.5 0 05:25 12.12.2019
2772 Clear 8 1028 87 10000 1.36 347 04:28 12.12.2019
2773 Clear 8 1028 81 10000 1 0 02:41 12.12.2019
2774 Clear 8 1028 87 10000 2.11 314 02:22 12.12.2019
2775 Clear 8 1028 81 10000 1.5 280 01:54 12.12.2019
2776 Clear 7 1028 93 10000 0.5 0 01:35 12.12.2019
2777 Clear 8 1028 87 10000 1.5 260 00:48 12.12.2019
2778 Clear 8 1028 93 10000 0.5 0 00:21 12.12.2019
2779 Clear 8 1028 81 10000 0.5 280 23:58 11.12.2019
2780 Clear 9 1028 81 10000 1 300 23:36 11.12.2019
2781 Clear 9 1028 81 10000 1 300 23:18 11.12.2019
2782 Clear 8 1028 87 10000 0.5 0 22:55 11.12.2019
2783 Clear 10 1028 81 10000 1 310 22:37 11.12.2019
2784 Clear 10 1028 81 10000 1 310 22:18 11.12.2019
2785 Clear 10 1028 81 10000 0.5 0 21:54 11.12.2019
2786 Clear 11 1028 66 10000 1 0 21:36 11.12.2019
2787 Clear 11 1028 66 10000 1 0 21:18 11.12.2019
2788 Clear 12 1028 62 10000 1 0 20:54 11.12.2019
2789 Clear 12 1027 66 10000 1 0 20:36 11.12.2019
2790 Clouds 12 1027 66 10000 1 0 20:18 11.12.2019
2791 Clouds 13 1027 71 10000 1.5 60 19:41 11.12.2019
2792 Clouds 13 1027 71 10000 1.5 60 19:23 11.12.2019
2793 Clouds 14 1026 62 10000 4.1 30 18:59 11.12.2019
2794 Clouds 14 1026 62 10000 4.1 30 18:40 11.12.2019
2795 Clouds 15 1026 62 10000 4.1 50 18:19 11.12.2019
2796 Clouds 15 1026 67 10000 2.1 60 17:56 11.12.2019
2797 Clouds 16 1026 67 10000 2.1 60 17:38 11.12.2019
2798 Clouds 16 1026 67 10000 2.1 60 17:38 11.12.2019
2799 Clouds 16 1025 63 10000 0.5 0 17:18 11.12.2019
2800 Clouds 16 1025 67 10000 1.5 220 16:55 11.12.2019
2801 Clouds 16 1025 67 10000 3.1 230 16:37 11.12.2019
2802 Clouds 16 1025 67 10000 3.1 230 16:18 11.12.2019
2803 Clouds 15 1025 67 10000 3.1 210 15:56 11.12.2019
2804 Clouds 15 1025 67 10000 3.1 210 15:37 11.12.2019
2805 Clouds 15 1025 72 10000 2.1 210 15:19 11.12.2019
2806 Clouds 14 1025 67 10000 3.6 210 14:55 11.12.2019
2807 Clouds 14 1025 82 10000 2.6 180 14:36 11.12.2019
2808 Clouds 14 1025 82 10000 2.6 180 14:18 11.12.2019
2809 Clouds 13 1026 82 10000 2.1 190 13:43 11.12.2019
2810 Clouds 12 1026 93 8000 2.1 170 13:23 11.12.2019
2811 Clouds 12 1027 93 10000 1 0 12:58 11.12.2019
2812 Clouds 11 1027 93 10000 1 0 12:39 11.12.2019
2813 Clouds 11 1027 93 8000 1.5 150 12:21 11.12.2019
2814 Fog 10 1027 100 6000 0.5 140 11:58 11.12.2019
2815 Fog 10 1027 100 6000 0.5 140 11:39 11.12.2019
2816 Mist 9 1027 93 1100 0.5 0 11:19 11.12.2019
2817 Fog 9 1027 93 300 1.5 320 10:59 11.12.2019
2818 Fog 8 1026 100 300 1 0 10:40 11.12.2019
2819 Fog 8 1026 100 300 1 0 10:21 11.12.2019
2820 Fog 7 1026 100 300 1 0 10:21 11.12.2019
2821 Fog 7 1026 100 300 1 0 09:56 11.12.2019
2822 Mist 7 1026 100 1000 1.5 350 09:38 11.12.2019
2823 Mist 7 1026 100 1000 1.5 350 09:19 11.12.2019
2824 Fog 7 1026 93 250 0.5 0 08:55 11.12.2019
2825 Fog 7 1025 100 300 0.5 0 08:36 11.12.2019
2826 Fog 7 1025 100 300 0.5 0 08:18 11.12.2019
2827 Fog 8 1025 100 200 1.5 130 07:43 11.12.2019
2828 Fog 8 1025 100 100 1 0 07:24 11.12.2019
2829 Fog 8 1025 93 300 0.5 0 06:46 11.12.2019
2830 Fog 8 1025 87 200 0.5 160 06:25 11.12.2019
2831 Clouds 8 1025 93 8000 0.5 0 05:56 11.12.2019
2832 Clear 8 1025 93 10000 1.16 324 05:36 11.12.2019
2833 Clear 8 1025 93 10000 0.76 28 04:53 11.12.2019
2834 Clear 9 1025 87 10000 0.76 28 03:37 11.12.2019
2835 Clear 9 1025 87 10000 0.76 28 02:38 11.12.2019
2836 Clouds 10 1026 87 10000 1 90 01:22 11.12.2019
2837 Clouds 10 1026 87 10000 1 100 00:43 11.12.2019
2838 Clouds 11 1026 87 10000 0.5 70 00:19 11.12.2019
2839 Clouds 11 1026 81 10000 0.5 140 23:46 10.12.2019
2840 Clouds 11 1026 81 10000 1.18 357 23:26 10.12.2019
2841 Clouds 12 1026 87 10000 0.28 356 22:57 10.12.2019
2842 Clouds 12 1026 87 10000 0.28 356 22:39 10.12.2019
2843 Clouds 12 1026 81 10000 0.5 280 22:21 10.12.2019
2844 Clouds 11 1026 76 10000 2.1 150 21:54 10.12.2019
2845 Clouds 11 1026 76 10000 2.1 150 21:54 10.12.2019
2846 Clouds 12 1026 76 10000 2.1 140 21:36 10.12.2019
2847 Clouds 12 1026 76 10000 2.1 140 21:18 10.12.2019
2848 Clouds 12 1026 81 10000 2.1 140 20:56 10.12.2019
2849 Clouds 12 1026 81 10000 2.1 140 20:37 10.12.2019
2850 Clouds 14 1026 76 10000 1.5 150 20:18 10.12.2019
2851 Clouds 14 1026 71 10000 1.5 140 19:54 10.12.2019
2852 Clouds 14 1026 67 10000 1.22 178 19:36 10.12.2019
2853 Clouds 14 1026 67 10000 1.22 178 19:36 10.12.2019
2854 Clouds 14 1026 67 10000 1.22 178 19:18 10.12.2019
2855 Clouds 16 1026 48 10000 0.5 300 18:39 10.12.2019
2856 Clouds 16 1026 48 10000 0.5 300 18:39 10.12.2019
2857 Clouds 17 1026 39 10000 1.22 178 18:20 10.12.2019
2858 Clouds 18 1026 37 10000 1.22 178 17:57 10.12.2019
2859 Clouds 18 1026 37 10000 1.22 178 17:39 10.12.2019
2860 Clear 18 1026 34 10000 0.5 0 17:20 10.12.2019
2861 Clear 19 1026 34 10000 2.1 80 16:43 10.12.2019
2862 Clear 18 1026 39 10000 1.5 100 16:21 10.12.2019
2863 Clear 18 1026 37 10000 2.6 80 15:59 10.12.2019
2864 Clear 18 1026 37 10000 2.6 80 15:38 10.12.2019
2865 Clear 18 1026 48 10000 2.1 50 15:18 10.12.2019
2866 Clear 18 1026 48 10000 2.1 50 15:18 10.12.2019
2867 Clear 17 1027 42 10000 2.6 60 14:56 10.12.2019
2868 Clear 17 1027 42 10000 2.6 60 14:37 10.12.2019
2869 Clear 17 1027 42 10000 2.6 60 14:37 10.12.2019
2870 Clear 17 1027 45 10000 3.6 60 14:19 10.12.2019
2871 Clear 16 1027 55 10000 3.6 50 13:56 10.12.2019
2872 Clear 16 1027 55 10000 3.6 50 13:56 10.12.2019
2873 Clear 16 1027 55 10000 3.6 50 13:38 10.12.2019
2874 Clouds 15 1027 55 10000 4.6 50 13:19 10.12.2019
2875 Clouds 15 1028 58 10000 3.6 50 12:47 10.12.2019
2876 Clouds 14 1028 67 10000 6.7 50 12:26 10.12.2019
2877 Clouds 13 1029 71 10000 4.1 40 11:55 10.12.2019
2878 Clouds 12 1028 76 10000 5.7 20 11:36 10.12.2019
2879 Clouds 12 1028 76 10000 5.7 20 11:18 10.12.2019
2880 Clouds 11 1029 81 10000 4.6 40 10:42 10.12.2019
2881 Clouds 10 1028 81 10000 5.7 30 10:23 10.12.2019
2882 Clouds 9 1028 93 10000 3.1 40 09:56 10.12.2019
2883 Clouds 9 1028 93 10000 3.1 40 09:56 10.12.2019
2884 Clouds 9 1028 93 10000 2.6 10 09:38 10.12.2019
2885 Clouds 9 1028 93 10000 3.1 40 09:38 10.12.2019
2886 Clouds 9 1028 93 10000 2.6 10 09:20 10.12.2019
2887 Clouds 8 1028 93 10000 3.6 40 08:57 10.12.2019
2888 Clouds 8 1028 93 10000 3.6 40 08:38 10.12.2019
2889 Clouds 8 1028 93 10000 3.6 40 08:19 10.12.2019
2890 Clouds 9 1028 93 10000 2.6 80 07:44 10.12.2019
2891 Clouds 9 1028 93 10000 3.1 30 07:26 10.12.2019
2892 Clouds 9 1028 93 10000 3.1 70 06:50 10.12.2019
2893 Clouds 9 1028 93 10000 3.1 60 06:25 10.12.2019
2894 Clouds 9 1028 93 10000 2.6 40 05:56 10.12.2019
2895 Clouds 9 1028 93 10000 2.1 50 05:33 10.12.2019
2896 Clouds 10 1029 93 10000 2.6 50 03:55 10.12.2019
2897 Clouds 11 1028 93 10000 2.1 60 02:57 10.12.2019
2898 Clouds 11 1028 93 10000 2.1 60 02:57 10.12.2019
2899 Clouds 11 1029 93 7000 2.06 26 01:55 10.12.2019
2900 Clouds 11 1029 93 10000 2.11 12 01:27 10.12.2019
2901 Clouds 11 1029 93 10000 2.11 12 00:58 10.12.2019
2902 Clouds 12 1029 93 10000 0.5 80 00:25 10.12.2019
2903 Clouds 12 1029 93 10000 0.5 0 23:57 09.12.2019
2904 Clouds 12 1029 93 10000 0.5 0 23:37 09.12.2019
2905 Clouds 12 1029 93 10000 2.02 4 23:18 09.12.2019
2906 Clouds 12 1029 93 10000 0.5 110 22:55 09.12.2019
2907 Clouds 12 1029 93 10000 0.5 110 22:37 09.12.2019
2908 Clouds 13 1029 93 10000 0.5 50 22:18 09.12.2019
2909 Clouds 13 1029 87 10000 1 0 21:55 09.12.2019
2910 Clouds 13 1029 87 10000 1 0 21:37 09.12.2019
2911 Clouds 13 1029 93 10000 2.02 4 21:18 09.12.2019
2912 Clouds 14 1029 87 10000 2.02 4 20:55 09.12.2019
2913 Clouds 14 1029 87 10000 1 110 20:37 09.12.2019
2914 Clouds 14 1029 87 10000 2.02 4 20:37 09.12.2019
2915 Clouds 14 1029 87 10000 1 110 20:18 09.12.2019
2916 Clouds 14 1028 87 10000 1.5 140 19:55 09.12.2019
2917 Clouds 14 1028 87 10000 1.5 140 19:37 09.12.2019
2918 Clouds 15 1028 82 10000 1 120 19:18 09.12.2019
2919 Clouds 15 1028 77 10000 1 110 18:54 09.12.2019
2920 Clouds 16 1028 67 10000 1 90 18:36 09.12.2019
2921 Clouds 16 1028 67 10000 1 90 18:18 09.12.2019
2922 Clouds 17 1028 67 10000 1 80 17:55 09.12.2019
2923 Clouds 17 1028 67 10000 1 80 17:37 09.12.2019
2924 Clouds 17 1028 63 10000 1.5 80 17:18 09.12.2019
2925 Clouds 17 1028 63 10000 2.1 70 16:54 09.12.2019
2926 Clouds 18 1029 63 10000 2.1 50 16:36 09.12.2019
2927 Clouds 18 1029 63 10000 2.1 50 16:18 09.12.2019
2928 Clouds 17 1028 68 10000 1.5 30 15:54 09.12.2019
2929 Clouds 17 1029 72 10000 1.5 50 15:36 09.12.2019
2930 Clouds 17 1029 72 10000 1.5 50 15:18 09.12.2019
2931 Clouds 17 1029 72 10000 1.5 20 14:41 09.12.2019
2932 Clouds 16 1029 72 10000 1 60 14:18 09.12.2019
2933 Clouds 16 1029 72 10000 1 0 13:56 09.12.2019
2934 Clouds 16 1029 72 10000 1 0 13:38 09.12.2019
2935 Clouds 16 1030 72 10000 1 0 13:19 09.12.2019
2936 Clouds 16 1030 72 10000 0.5 0 12:56 09.12.2019
2937 Clouds 16 1030 72 10000 0.5 0 12:37 09.12.2019
2938 Clouds 16 1030 72 10000 0.5 0 12:18 09.12.2019
2939 Clouds 16 1030 77 10000 0.5 0 11:55 09.12.2019
2940 Clouds 15 1030 87 10000 0.5 0 11:36 09.12.2019
2941 Clouds 15 1030 87 10000 0.5 0 11:18 09.12.2019
2942 Clouds 15 1030 87 10000 0.5 0 11:18 09.12.2019
2943 Clouds 14 1030 87 10000 1 0 10:39 09.12.2019
2944 Clouds 13 1030 87 10000 0.3 69 10:20 09.12.2019
2945 Clouds 13 1029 87 9000 0.5 0 09:56 09.12.2019
2946 Clouds 13 1029 87 9000 0.5 0 09:38 09.12.2019
2947 Clouds 13 1029 93 9000 1 0 09:20 09.12.2019
2948 Clouds 13 1029 93 9000 0.5 0 08:42 09.12.2019
2949 Clouds 13 1029 93 9000 0.5 0 08:24 09.12.2019
2950 Clouds 13 1028 87 10000 0.5 50 07:56 09.12.2019
2951 Clouds 13 1028 87 10000 0.5 50 07:37 09.12.2019
2952 Clouds 12 1028 87 10000 0.5 0 07:19 09.12.2019
2953 Clouds 13 1028 87 10000 1 0 06:39 09.12.2019
2954 Clouds 12 1028 87 10000 0.5 0 06:21 09.12.2019
2955 Clouds 13 1028 87 10000 0.5 0 05:26 09.12.2019
2956 Clouds 13 1028 87 10000 1 0 04:31 09.12.2019
2957 Clouds 12 1028 87 8000 1 0 03:19 09.12.2019
2958 Clouds 12 1028 87 8000 1 0 03:19 09.12.2019
2959 Clouds 12 1028 93 8000 1 140 02:19 09.12.2019
2960 Clouds 12 1028 87 9000 1.5 160 01:41 09.12.2019
2961 Clouds 12 1028 87 9000 1.5 160 00:45 09.12.2019
2962 Clouds 12 1028 93 10000 1.5 150 00:25 09.12.2019
2963 Clouds 12 1027 87 10000 1.5 140 23:40 08.12.2019
2964 Clouds 13 1027 87 10000 1 110 23:22 08.12.2019
2965 Clouds 13 1027 82 10000 0.5 0 22:57 08.12.2019
2966 Clouds 14 1027 82 10000 0.5 0 22:38 08.12.2019
2967 Clouds 14 1028 77 10000 1.5 260 22:19 08.12.2019
2968 Clouds 14 1028 77 10000 1.5 260 22:19 08.12.2019
2969 Clouds 14 1027 72 10000 2.1 210 21:58 08.12.2019
2970 Clouds 14 1027 72 10000 2.1 210 21:58 08.12.2019
2971 Clouds 14 1027 72 10000 2.1 210 21:40 08.12.2019
2972 Clouds 14 1027 72 10000 2.6 190 21:20 08.12.2019
2973 Clouds 13 1027 82 10000 2.1 180 20:57 08.12.2019
2974 Clouds 14 1027 82 10000 2.1 180 20:38 08.12.2019
2975 Clouds 14 1027 76 10000 1 0 20:20 08.12.2019
2976 Clouds 15 1027 77 10000 0.5 0 19:59 08.12.2019
2977 Clouds 15 1027 77 10000 0.5 0 19:41 08.12.2019
2978 Clouds 15 1026 72 10000 0.5 160 19:22 08.12.2019
2979 Clouds 16 1026 67 10000 0.5 190 18:55 08.12.2019
2980 Clouds 16 1026 67 10000 0.5 190 18:37 08.12.2019
2981 Clouds 16 1026 59 10000 1.5 230 18:19 08.12.2019
2982 Clouds 17 1026 55 10000 2.6 300 17:56 08.12.2019
2983 Clouds 17 1026 55 10000 1 0 17:38 08.12.2019
2984 Clouds 17 1026 55 10000 1 0 17:38 08.12.2019
2985 Clouds 18 1026 55 10000 1.5 230 17:19 08.12.2019
2986 Clouds 18 1026 55 10000 2.1 270 16:57 08.12.2019
2987 Clouds 18 1026 55 10000 2.1 270 16:39 08.12.2019
2988 Clouds 18 1026 55 10000 1.5 240 16:20 08.12.2019
2989 Clouds 18 1025 55 10000 1 0 15:55 08.12.2019
2990 Clouds 18 1026 55 10000 0.5 0 15:36 08.12.2019
2991 Clouds 18 1026 55 10000 0.5 0 15:18 08.12.2019
2992 Clouds 17 1026 55 10000 1 0 14:43 08.12.2019
2993 Clouds 17 1026 59 10000 0.5 0 14:24 08.12.2019
2994 Clouds 17 1026 59 10000 0.5 0 14:24 08.12.2019
2995 Clear 17 1026 59 10000 0.5 40 13:59 08.12.2019
2996 Clear 16 1026 59 10000 0.5 40 13:40 08.12.2019
2997 Clear 16 1027 63 10000 1 0 13:21 08.12.2019
2998 Clear 16 1027 63 10000 1 0 13:21 08.12.2019
2999 Clear 15 1027 67 10000 1 0 12:57 08.12.2019
3000 Clear 14 1027 67 10000 1 0 12:38 08.12.2019
3001 Clear 14 1028 71 10000 2.6 70 12:18 08.12.2019
3002 Clear 13 1028 76 10000 2.1 60 11:57 08.12.2019
3003 Clear 12 1028 76 10000 2.1 60 11:37 08.12.2019
3004 Clear 11 1028 76 10000 3.1 60 11:19 08.12.2019
3005 Clear 10 1027 87 10000 2.1 40 10:40 08.12.2019
3006 Clear 9 1028 93 10000 2.6 30 10:22 08.12.2019
3007 Clear 9 1027 93 10000 1.5 20 09:58 08.12.2019
3008 Clear 9 1027 93 10000 1.5 20 09:39 08.12.2019
3009 Clear 9 1027 87 10000 1.5 50 09:20 08.12.2019
3010 Clear 8 1026 93 10000 2.1 30 08:59 08.12.2019
3011 Clear 8 1026 93 10000 2.1 30 08:41 08.12.2019
3012 Clear 8 1026 93 10000 1.5 30 08:22 08.12.2019
3013 Clear 8 1026 87 10000 2.1 50 07:49 08.12.2019
3014 Clear 8 1026 93 10000 0.5 20 07:21 08.12.2019
3015 Clear 8 1025 93 10000 1 360 06:58 08.12.2019
3016 Clear 8 1025 93 10000 1 360 06:38 08.12.2019
3017 Clear 9 1025 93 10000 2.6 30 06:18 08.12.2019
3018 Clear 9 1025 87 10000 1.5 50 05:23 08.12.2019
3019 Clear 10 1025 93 10000 1 50 04:23 08.12.2019
3020 Clear 10 1025 87 10000 1.52 27 03:38 08.12.2019
3021 Clear 10 1025 87 9000 1.52 27 02:42 08.12.2019
3022 Mist 10 1025 87 5000 1.5 110 02:20 08.12.2019
3023 Clear 11 1026 87 10000 1 0 01:35 08.12.2019
3024 Clear 11 1025 87 10000 1.5 100 00:53 08.12.2019
3025 Clear 11 1025 87 10000 1.5 70 00:24 08.12.2019
3026 Clear 11 1025 87 10000 1.57 12 23:59 07.12.2019
3027 Clear 11 1025 81 10000 1.57 12 23:38 07.12.2019
3028 Clear 12 1025 81 10000 1.67 344 23:20 07.12.2019
3029 Clear 12 1025 87 10000 1.67 344 22:55 07.12.2019
3030 Clear 12 1025 87 10000 1 120 22:37 07.12.2019
3031 Clear 12 1025 87 10000 1 120 22:19 07.12.2019
3032 Clear 13 1025 87 10000 0.5 130 21:55 07.12.2019
3033 Clear 13 1025 87 10000 0.5 130 21:37 07.12.2019
3034 Clear 13 1024 81 10000 1.67 344 21:18 07.12.2019
3035 Clear 13 1024 87 10000 2.1 100 20:38 07.12.2019
3036 Clear 14 1024 82 10000 0.5 0 20:20 07.12.2019
3037 Clear 14 1024 71 10000 0.5 100 19:58 07.12.2019
3038 Clear 14 1024 71 10000 0.5 100 19:58 07.12.2019
3039 Clear 15 1024 71 10000 0.5 100 19:39 07.12.2019
3040 Clear 15 1023 76 10000 0.5 170 19:21 07.12.2019
3041 Clear 16 1023 63 10000 1 190 18:58 07.12.2019
3042 Clear 16 1023 63 10000 1 190 18:40 07.12.2019
3043 Clear 16 1023 63 10000 1 190 18:40 07.12.2019
3044 Clear 17 1023 59 10000 1 180 18:18 07.12.2019
3045 Clear 19 1023 48 10000 0.5 0 17:56 07.12.2019
3046 Clear 19 1023 48 10000 0.5 0 17:37 07.12.2019
3047 Clear 19 1023 45 10000 1.04 109 17:19 07.12.2019
3048 Clear 19 1022 48 10000 0.5 0 16:56 07.12.2019
3049 Clear 19 1022 48 10000 1 0 16:36 07.12.2019
3050 Clear 19 1022 48 10000 1 0 16:18 07.12.2019
3051 Clear 19 1022 52 10000 1 0 15:41 07.12.2019
3052 Clear 18 1022 52 10000 1 0 15:23 07.12.2019
3053 Clear 18 1022 55 10000 1.5 90 14:56 07.12.2019
3054 Clear 18 1022 55 10000 1.5 90 14:38 07.12.2019
3055 Clear 17 1023 55 10000 2.1 60 14:18 07.12.2019
3056 Clear 17 1023 59 10000 2.1 70 13:40 07.12.2019
3057 Clear 16 1024 59 10000 3.1 80 13:20 07.12.2019
3058 Clear 15 1024 63 10000 3.6 70 12:56 07.12.2019
3059 Clear 15 1024 63 10000 3.6 70 12:37 07.12.2019
3060 Clear 15 1024 67 10000 3.6 60 12:19 07.12.2019
3061 Clear 14 1024 67 10000 3.6 40 11:55 07.12.2019
3062 Clear 14 1024 67 10000 3.6 40 11:37 07.12.2019
3063 Clear 13 1024 76 10000 3.1 70 11:19 07.12.2019
3064 Clear 11 1024 81 10000 3.1 50 10:37 07.12.2019
3065 Clear 11 1024 81 10000 3.1 50 10:19 07.12.2019
3066 Clear 10 1023 93 10000 2.1 10 09:41 07.12.2019
3067 Clear 9 1023 93 10000 1.5 30 09:22 07.12.2019
3068 Clear 9 1023 93 10000 2.1 70 08:47 07.12.2019
3069 Clear 9 1022 87 10000 2.6 40 08:26 07.12.2019
3070 Clear 9 1022 87 10000 3.1 10 07:58 07.12.2019
3071 Clear 9 1022 87 10000 3.1 10 07:39 07.12.2019
3072 Clear 9 1022 87 10000 3.1 20 07:21 07.12.2019
3073 Clear 10 1022 87 10000 2.6 10 06:45 07.12.2019
3074 Clear 9 1021 93 10000 1 0 06:24 07.12.2019
3075 Clear 10 1022 93 10000 1 70 04:52 07.12.2019
3076 Clear 10 1021 93 10000 1 310 03:54 07.12.2019
3077 Clear 11 1021 87 10000 1.5 50 02:56 07.12.2019
3078 Clear 11 1021 87 10000 0.5 0 02:21 07.12.2019
3079 Clear 12 1021 81 10000 0.5 0 01:34 07.12.2019
3080 Clear 12 1021 76 10000 1.5 30 00:52 07.12.2019
3081 Clear 12 1021 76 10000 2.6 40 00:19 07.12.2019
3082 Clear 12 1021 81 10000 1.5 80 23:48 06.12.2019
3083 Clear 13 1021 81 10000 1 0 23:25 06.12.2019
3084 Clear 13 1020 81 10000 1 0 22:59 06.12.2019
3085 Clear 13 1020 81 10000 2.1 50 22:37 06.12.2019
3086 Clear 13 1020 81 10000 2.1 50 22:19 06.12.2019
3087 Clear 14 1020 76 10000 1.5 60 21:57 06.12.2019
3088 Clear 14 1020 76 10000 1.5 60 21:38 06.12.2019
3089 Clear 14 1020 76 10000 1.5 70 21:19 06.12.2019
3090 Clear 14 1020 76 10000 3.1 40 20:42 06.12.2019
3091 Clear 14 1020 76 10000 3.1 40 20:42 06.12.2019
3092 Clear 15 1020 71 10000 2.1 20 20:23 06.12.2019
3093 Clear 15 1019 67 10000 1.5 50 19:59 06.12.2019
3094 Clear 15 1019 67 10000 1.5 50 19:40 06.12.2019
3095 Clear 16 1019 67 10000 1.5 30 19:21 06.12.2019
3096 Clear 16 1019 67 10000 1.5 30 19:21 06.12.2019
3097 Clear 16 1019 59 10000 2.1 40 18:56 06.12.2019
3098 Clear 16 1019 59 10000 2.1 40 18:38 06.12.2019
3099 Clear 17 1018 55 10000 2.6 50 18:19 06.12.2019
3100 Clear 18 1018 48 10000 3.1 50 17:55 06.12.2019
3101 Clear 18 1018 48 10000 3.1 50 17:37 06.12.2019
3102 Clear 19 1018 45 10000 3.6 70 17:19 06.12.2019
3103 Clear 19 1018 42 10000 4.6 80 16:43 06.12.2019
3104 Clear 19 1018 42 10000 4.6 70 16:24 06.12.2019
3105 Clear 19 1018 48 10000 4.6 60 15:59 06.12.2019
3106 Clear 19 1018 48 10000 4.6 60 15:40 06.12.2019
3107 Clear 19 1018 48 10000 3.6 70 15:18 06.12.2019
3108 Clear 18 1019 48 10000 3.6 70 14:56 06.12.2019
3109 Clear 18 1019 48 10000 3.6 80 14:38 06.12.2019
3110 Clear 18 1019 48 10000 3.6 80 14:18 06.12.2019
3111 Clear 17 1019 48 10000 5.1 60 13:43 06.12.2019
3112 Clear 17 1019 51 10000 5.7 60 13:25 06.12.2019
3113 Clear 15 1020 51 10000 6.7 70 12:42 06.12.2019
3114 Clear 15 1020 55 10000 6.2 70 12:22 06.12.2019
3115 Clear 14 1020 55 10000 6.2 70 11:58 06.12.2019
3116 Clear 14 1020 55 10000 6.2 70 11:39 06.12.2019
3117 Clear 13 1020 62 10000 3.6 60 11:20 06.12.2019
3118 Clear 12 1020 66 10000 3.6 40 10:43 06.12.2019
3119 Clear 12 1020 71 10000 3.1 50 10:21 06.12.2019
3120 Clear 11 1020 81 10000 3.1 50 09:58 06.12.2019
3121 Clear 11 1020 81 10000 3.1 50 09:37 06.12.2019
3122 Clear 10 1019 87 10000 3.6 40 09:19 06.12.2019
3123 Clear 10 1019 87 10000 3.1 40 08:55 06.12.2019
3124 Clear 10 1018 87 10000 2.1 20 08:36 06.12.2019
3125 Clear 10 1018 87 10000 2.1 20 08:18 06.12.2019
3126 Clear 10 1018 81 10000 2.6 50 07:36 06.12.2019
3127 Clear 10 1018 81 10000 2.6 50 07:18 06.12.2019
3128 Clear 10 1017 76 10000 3.1 70 06:30 06.12.2019
3129 Clear 10 1017 76 10000 3.6 60 05:54 06.12.2019
3130 Clear 10 1017 76 10000 4.6 70 05:34 06.12.2019
3131 Clouds 11 1017 87 10000 2.6 40 02:19 06.12.2019
3132 Clouds 11 1017 87 10000 2.6 40 02:19 06.12.2019
3133 Clouds 11 1017 76 10000 2.6 40 01:34 06.12.2019
3134 Clouds 11 1017 81 10000 2.6 40 00:46 06.12.2019
3135 Clouds 12 1017 71 10000 3.1 40 00:21 06.12.2019
3136 Clouds 12 1017 76 10000 3.1 40 23:49 05.12.2019
3137 Clear 13 1017 71 10000 3.1 60 23:19 05.12.2019
3138 Clear 13 1017 71 10000 3.1 70 22:58 05.12.2019
3139 Clouds 12 1016 76 10000 2.6 40 22:38 05.12.2019
3140 Clouds 12 1016 76 10000 2.6 40 22:18 05.12.2019
3141 Clouds 12 1016 76 10000 2.6 40 22:18 05.12.2019
3142 Clouds 12 1016 76 10000 2.6 40 22:18 05.12.2019
3143 Clouds 13 1016 71 10000 2.6 80 21:55 05.12.2019
3144 Clouds 13 1016 76 10000 2.6 90 21:36 05.12.2019
3145 Clouds 13 1016 76 10000 2.6 90 21:18 05.12.2019
3146 Clouds 13 1016 71 10000 3.1 70 20:40 05.12.2019
3147 Clouds 13 1016 71 10000 3.1 70 20:40 05.12.2019
3148 Clouds 14 1015 71 10000 2.6 80 20:21 05.12.2019
3149 Clear 14 1015 67 10000 3.6 60 19:59 05.12.2019
3150 Clouds 14 1015 62 10000 3.6 50 19:40 05.12.2019
3151 Clouds 14 1015 62 10000 3.6 50 19:21 05.12.2019
3152 Clouds 15 1014 59 10000 3.6 50 18:57 05.12.2019
3153 Clouds 15 1014 59 10000 4.6 50 18:38 05.12.2019
3154 Clouds 15 1014 59 10000 4.6 50 18:20 05.12.2019
3155 Clouds 17 1013 51 10000 4.6 80 17:40 05.12.2019
3156 Clouds 17 1013 51 10000 4.6 80 17:20 05.12.2019
3157 Clouds 17 1013 51 10000 6.2 50 16:58 05.12.2019
3158 Clouds 17 1013 51 10000 6.7 80 16:39 05.12.2019
3159 Clouds 17 1013 51 10000 6.7 80 16:39 05.12.2019
3160 Clouds 17 1013 51 10000 6.7 80 16:21 05.12.2019
3161 Clouds 17 1013 55 10000 6.2 70 15:58 05.12.2019
3162 Clouds 17 1013 55 10000 6.2 70 15:39 05.12.2019
3163 Clouds 17 1013 55 10000 6.2 70 15:20 05.12.2019
3164 Clouds 16 1013 59 10000 6.2 70 14:56 05.12.2019
3165 Clouds 16 1013 59 10000 7.7 60 14:38 05.12.2019
3166 Clouds 16 1013 59 10000 7.7 60 14:19 05.12.2019
3167 Clouds 16 1014 63 10000 6.2 60 13:57 05.12.2019
3168 Clear 16 1014 63 10000 6.7 40 13:39 05.12.2019
3169 Clear 15 1014 63 10000 6.7 40 13:19 05.12.2019
3170 Clear 15 1014 67 10000 4.1 50 12:57 05.12.2019
3171 Clear 14 1014 67 10000 5.1 40 12:38 05.12.2019
3172 Clear 14 1014 67 10000 5.1 40 12:20 05.12.2019
3173 Clear 12 1015 76 10000 3.6 40 11:40 05.12.2019
3174 Clear 11 1015 76 10000 3.6 40 11:22 05.12.2019
3175 Clear 10 1015 81 10000 2.6 30 10:58 05.12.2019
3176 Clear 10 1014 81 10000 3.6 360 10:40 05.12.2019
3177 Clear 9 1014 81 10000 3.6 360 10:19 05.12.2019
3178 Clear 7 1014 87 10000 3.1 30 09:56 05.12.2019
3179 Clear 6 1013 93 10000 1 0 09:38 05.12.2019
3180 Clear 6 1013 93 10000 1 0 09:19 05.12.2019
3181 Clear 6 1013 87 10000 2.1 50 08:54 05.12.2019
3182 Clear 6 1013 93 10000 2.1 360 08:36 05.12.2019
3183 Clouds 7 1013 93 10000 2.1 360 08:18 05.12.2019
3184 Clouds 7 1012 93 10000 1.5 10 07:41 05.12.2019
3185 Clouds 7 1012 93 10000 1.5 10 07:21 05.12.2019
3186 Clouds 7 1012 87 10000 0.5 0 06:47 05.12.2019
3187 Clouds 7 1012 93 10000 2.6 40 06:23 05.12.2019
3188 Clouds 7 1012 93 10000 1 40 05:53 05.12.2019
3189 Clouds 8 1012 93 10000 2.57 36 05:24 05.12.2019
3190 Clear 8 1012 87 10000 1.5 30 04:37 05.12.2019
3191 Clear 8 1011 87 10000 1.79 25 03:35 05.12.2019
3192 Clear 8 1012 87 10000 0.5 0 02:41 05.12.2019
3193 Clear 8 1012 87 10000 0.5 0 02:21 05.12.2019
3194 Clear 8 1011 87 10000 0.5 0 01:50 05.12.2019
3195 Clear 8 1011 87 10000 0.5 0 01:50 05.12.2019
3196 Clear 8 1011 93 10000 0.81 21 01:23 05.12.2019
3197 Clouds 8 1011 87 10000 1 0 00:43 05.12.2019
3198 Clouds 9 1011 87 10000 1 0 00:20 05.12.2019
3199 Clouds 9 1011 81 10000 0.5 0 23:47 04.12.2019
3200 Clouds 9 1011 81 10000 0.5 0 23:23 04.12.2019
3201 Clouds 10 1011 81 10000 3.1 180 22:59 04.12.2019
3202 Clouds 10 1011 76 10000 2.1 190 22:38 04.12.2019
3203 Clouds 10 1011 76 10000 2.1 190 22:20 04.12.2019
3204 Clouds 10 1011 81 10000 2.6 170 21:58 04.12.2019
3205 Clouds 10 1010 81 10000 3.1 170 21:38 04.12.2019
3206 Clouds 10 1010 81 10000 3.1 170 21:19 04.12.2019
3207 Clear 11 1010 81 10000 1.5 190 20:57 04.12.2019
3208 Clouds 11 1010 71 10000 2.6 210 20:39 04.12.2019
3209 Clouds 11 1010 71 10000 2.6 210 20:21 04.12.2019
3210 Clouds 12 1009 71 10000 2.6 190 19:55 04.12.2019
3211 Clouds 12 1009 71 10000 2.6 190 19:55 04.12.2019
3212 Clouds 12 1009 66 10000 2.6 200 19:37 04.12.2019
3213 Clouds 12 1009 66 10000 2.6 200 19:19 04.12.2019
3214 Clouds 12 1009 58 10000 4.1 220 18:42 04.12.2019
3215 Clouds 13 1009 58 10000 4.1 220 18:24 04.12.2019
3216 Clouds 13 1008 58 10000 3.6 220 17:59 04.12.2019
3217 Clouds 14 1008 59 10000 2.6 220 17:39 04.12.2019
3218 Clouds 14 1008 59 10000 2.6 220 17:39 04.12.2019
3219 Clouds 14 1008 59 10000 2.6 220 17:39 04.12.2019
3220 Clouds 14 1009 54 10000 6.7 240 17:20 04.12.2019
3221 Clouds 15 1008 67 10000 3.1 280 16:56 04.12.2019
3222 Clouds 15 1008 55 10000 3.1 240 16:38 04.12.2019
3223 Clouds 15 1008 55 10000 3.1 240 16:19 04.12.2019
3224 Clouds 15 1008 55 10000 3.1 220 15:55 04.12.2019
3225 Clouds 15 1008 55 10000 3.1 220 15:55 04.12.2019
3226 Clouds 16 1008 62 10000 2.6 210 15:37 04.12.2019
3227 Clouds 16 1008 62 10000 2.6 210 15:19 04.12.2019
3228 Clouds 16 1008 62 10000 2.6 210 15:19 04.12.2019
3229 Clouds 15 1008 67 10000 3.6 220 14:44 04.12.2019
3230 Clouds 15 1008 67 10000 3.6 220 14:23 04.12.2019
3231 Clouds 15 1009 67 10000 2.6 230 13:58 04.12.2019
3232 Clouds 15 1009 67 10000 3.1 180 13:38 04.12.2019
3233 Clouds 15 1009 67 10000 3.1 180 13:19 04.12.2019
3234 Clouds 15 1010 62 10000 2.1 140 12:45 04.12.2019
3235 Clouds 14 1010 62 10000 2.1 140 12:25 04.12.2019
3236 Clouds 14 1010 62 10000 2.6 130 11:56 04.12.2019
3237 Clouds 14 1010 71 10000 2.1 80 11:38 04.12.2019
3238 Clouds 14 1010 71 10000 2.1 80 11:38 04.12.2019
3239 Clouds 13 1010 71 10000 2.1 80 11:20 04.12.2019
3240 Clouds 13 1010 81 10000 2.1 70 10:44 04.12.2019
3241 Clouds 12 1010 81 10000 2.1 70 10:23 04.12.2019
3242 Clouds 11 1010 87 10000 1 0 09:57 04.12.2019
3243 Clouds 11 1010 93 10000 0.5 350 09:38 04.12.2019
3244 Clouds 11 1010 93 10000 0.5 350 09:19 04.12.2019
3245 Clouds 11 1009 93 10000 0.5 320 08:40 04.12.2019
3246 Clouds 10 1009 93 10000 0.5 320 08:22 04.12.2019
3247 Clouds 10 1010 87 10000 1.5 360 07:48 04.12.2019
3248 Clouds 10 1009 93 10000 1.05 352 07:30 04.12.2019
3249 Clouds 11 1009 87 10000 0.5 0 06:47 04.12.2019
3250 Clouds 11 1009 87 10000 1.5 20 06:25 04.12.2019
3251 Clouds 11 1010 81 10000 2.1 360 05:42 04.12.2019
3252 Rain 12 1010 87 10000 1.39 23 04:31 04.12.2019
3253 Rain 11 1010 93 10000 1.39 23 03:20 04.12.2019
3254 Clouds 12 1012 82 10000 2.23 23 01:21 04.12.2019
3255 Clouds 13 1012 82 10000 1 30 00:40 04.12.2019
3256 Clouds 13 1012 82 10000 1 30 00:18 04.12.2019
3257 Clouds 13 1011 87 10000 1.5 90 23:41 03.12.2019
3258 Clouds 12 1011 87 10000 1.5 90 23:19 03.12.2019
3259 Clouds 12 1011 87 10000 1 0 22:54 03.12.2019
3260 Clouds 13 1011 76 10000 1 0 22:36 03.12.2019
3261 Clouds 13 1011 76 10000 1 0 22:18 03.12.2019
3262 Clouds 13 1011 82 10000 2.1 20 21:54 03.12.2019
3263 Clouds 13 1011 76 10000 1.5 70 21:36 03.12.2019
3264 Clouds 13 1010 76 10000 1.5 50 21:18 03.12.2019
3265 Clouds 14 1010 72 10000 1 0 20:41 03.12.2019
3266 Clouds 14 1010 72 10000 1 0 20:19 03.12.2019
3267 Clouds 14 1010 72 10000 1.5 160 19:56 03.12.2019
3268 Clouds 14 1010 77 10000 2.1 140 19:38 03.12.2019
3269 Clouds 15 1010 67 10000 1.5 150 19:20 03.12.2019
3270 Clouds 16 1010 67 10000 1.5 150 18:57 03.12.2019
3271 Clouds 16 1010 63 10000 2.1 110 18:39 03.12.2019
3272 Clouds 16 1010 63 10000 2.1 110 18:21 03.12.2019
3273 Clouds 16 1010 63 10000 2.1 110 18:21 03.12.2019
3274 Clouds 17 1009 55 10000 2.6 80 17:57 03.12.2019
3275 Clouds 17 1009 55 10000 2.6 80 17:57 03.12.2019
3276 Clouds 18 1009 52 10000 3.1 80 17:38 03.12.2019
3277 Clouds 18 1009 52 10000 3.1 80 17:38 03.12.2019
3278 Clouds 18 1009 52 10000 3.1 80 17:38 03.12.2019
3279 Clear 17 1009 48 10000 3.6 60 17:18 03.12.2019
3280 Clear 17 1009 48 10000 3.6 60 16:57 03.12.2019
3281 Clear 17 1009 48 10000 2.1 80 16:38 03.12.2019
3282 Clear 17 1009 48 10000 2.1 80 16:20 03.12.2019
3283 -273 0 0 0 0 0 15:56 03.12.2019
3284 Clear 18 1009 52 10000 4.6 50 15:38 03.12.2019
3285 Clear 18 1009 52 10000 4.6 50 15:19 03.12.2019
3286 Clear 17 1009 52 10000 5.7 70 14:42 03.12.2019
3287 Clear 17 1009 52 10000 5.7 70 14:20 03.12.2019
3288 Clear 17 1010 55 10000 4.6 60 13:56 03.12.2019
3289 Clear 16 1010 55 10000 6.7 50 13:37 03.12.2019
3290 Clear 16 1010 55 10000 6.7 50 13:19 03.12.2019
3291 Clear 16 1011 62 10000 4.6 30 12:41 03.12.2019
3292 Clear 16 1011 62 10000 4.6 30 12:19 03.12.2019
3293 Clear 15 1011 62 10000 3.6 50 11:59 03.12.2019
3294 Clear 15 1011 67 10000 3.6 20 11:39 03.12.2019
3295 Clear 13 1011 67 10000 3.6 20 11:21 03.12.2019
3296 Clear 12 1012 71 10000 3.6 30 10:59 03.12.2019
3297 Clear 12 1011 76 10000 3.6 20 10:41 03.12.2019
3298 Clear 12 1011 76 10000 3.6 20 10:21 03.12.2019
3299 Clear 11 1011 81 10000 2.1 30 09:56 03.12.2019
3300 Clear 11 1011 87 10000 3.1 30 09:38 03.12.2019
3301 Clear 11 1011 87 10000 3.1 30 09:19 03.12.2019
3302 Clear 10 1010 87 10000 2.6 30 08:41 03.12.2019
3303 Clear 10 1010 87 10000 2.6 30 08:22 03.12.2019
3304 Clear 10 1011 87 10000 3.6 30 07:57 03.12.2019
3305 Clear 10 1010 87 10000 2.1 20 07:39 03.12.2019
3306 Clear 10 1010 87 10000 2.1 20 07:20 03.12.2019
3307 Clear 10 1011 87 10000 2.1 40 06:23 03.12.2019
3308 Clear 9 1011 93 10000 2.1 40 05:58 03.12.2019
3309 Clear 11 1011 93 10000 1.5 40 04:49 03.12.2019
3310 Clear 11 1012 93 10000 2.1 30 03:39 03.12.2019
3311 Clear 11 1012 93 10000 2.1 30 03:19 03.12.2019
3312 Clear 11 1012 93 10000 2.1 30 03:19 03.12.2019
3313 Clouds 11 1012 93 10000 4.1 60 02:47 03.12.2019
3314 Clear 11 1012 87 10000 2.1 30 02:26 03.12.2019
3315 Clouds 11 1012 76 10000 3.6 70 01:42 03.12.2019
3316 Clouds 12 1012 76 10000 3.6 70 01:24 03.12.2019
3317 Clouds 11 1012 76 10000 4.6 60 00:56 03.12.2019
3318 Clouds 11 1012 87 10000 3.6 50 00:37 03.12.2019
3319 Clouds 11 1012 87 10000 3.6 50 00:19 03.12.2019
3320 Clouds 11 1012 93 10000 1.5 100 23:42 02.12.2019
3321 Clouds 12 1012 93 10000 1.5 100 23:20 02.12.2019
3322 Clouds 13 1012 87 10000 2.6 30 22:42 02.12.2019
3323 Clouds 13 1012 87 10000 2.6 30 22:23 02.12.2019
3324 Clouds 13 1012 87 10000 1.5 30 21:59 02.12.2019
3325 Clouds 13 1011 93 10000 2.1 50 21:37 02.12.2019
3326 Clouds 13 1011 93 10000 2.1 50 21:19 02.12.2019
3327 Clouds 13 1011 93 10000 2.1 50 21:19 02.12.2019
3328 Clouds 13 1011 87 10000 2.6 50 20:56 02.12.2019
3329 Clouds 13 1011 87 10000 2.6 110 20:38 02.12.2019
3330 Clouds 13 1011 87 10000 2.6 110 20:20 02.12.2019
3331 Rain 13 1010 82 10000 2.6 90 19:55 02.12.2019
3332 Clouds 13 1010 87 10000 2.6 80 19:37 02.12.2019
3333 Clouds 14 1010 76 10000 2.6 120 19:19 02.12.2019
3334 Rain 14 1010 76 10000 3.1 90 18:43 02.12.2019
3335 Rain 14 1010 76 10000 3.1 90 18:20 02.12.2019
3336 Rain 15 1009 67 10000 3.1 90 17:58 02.12.2019
3337 -273 0 0 0 0 0 17:40 02.12.2019
3338 Clouds 15 1009 72 10000 3.1 80 17:40 02.12.2019
3339 Clouds 16 1009 72 10000 3.1 80 17:20 02.12.2019
3340 Clouds 16 1009 63 10000 5.1 60 16:54 02.12.2019
3341 Clouds 16 1009 67 10000 3.1 80 16:36 02.12.2019
3342 Clouds 16 1009 67 10000 3.6 90 16:18 02.12.2019
3343 Clouds 16 1009 67 10000 3.6 90 15:55 02.12.2019
3344 Clouds 15 1008 67 10000 4.6 70 15:36 02.12.2019
3345 Clouds 15 1009 67 10000 6.7 70 15:18 02.12.2019
3346 Clouds 15 1008 72 10000 5.1 50 14:39 02.12.2019
3347 Clouds 15 1008 72 10000 5.1 50 14:20 02.12.2019
3348 Clouds 15 1008 72 10000 5.1 50 14:20 02.12.2019
3349 Clouds 15 1009 72 10000 6.2 70 13:58 02.12.2019
3350 Clouds 15 1009 72 10000 1.5 80 13:39 02.12.2019
3351 Clouds 15 1010 77 10000 6.7 70 13:20 02.12.2019
3352 Clouds 14 1010 77 10000 6.7 70 12:57 02.12.2019
3353 Clouds 14 1009 76 10000 1.5 60 12:38 02.12.2019
3354 Rain 14 1009 76 10000 1.5 60 12:20 02.12.2019
3355 Rain 13 1010 82 10000 6.2 70 11:56 02.12.2019
3356 Clouds 13 1009 87 10000 1.5 50 11:37 02.12.2019
3357 Clouds 13 1009 87 10000 1.5 50 11:18 02.12.2019
3358 Clouds 12 1009 82 10000 6.2 60 10:55 02.12.2019
3359 Clouds 12 1009 87 10000 1.5 50 10:36 02.12.2019
3360 Clouds 12 1009 87 10000 1.5 50 10:36 02.12.2019
3361 Clouds 12 1009 87 10000 1.5 50 10:18 02.12.2019
3362 Rain 11 1008 93 7000 4.1 30 09:40 02.12.2019
3363 Rain 11 1008 93 7000 4.1 30 09:19 02.12.2019
3364 Clouds 11 1008 93 10000 4.1 60 08:57 02.12.2019
3365 Clouds 11 1008 87 10000 3.6 30 08:38 02.12.2019
3366 Clouds 11 1008 87 10000 3.6 30 08:20 02.12.2019
3367 Clouds 11 1007 93 10000 2.6 40 07:42 02.12.2019
3368 Clouds 11 1007 93 10000 2.6 40 07:21 02.12.2019
3369 Clouds 11 1008 93 10000 4.6 60 06:56 02.12.2019
3370 Clouds 11 1008 93 10000 5.1 60 06:37 02.12.2019
3371 Clouds 11 1008 93 10000 4.6 50 05:25 02.12.2019
3372 Clouds 11 1008 93 10000 2.1 50 04:21 02.12.2019
3373 Rain 12 1008 93 10000 1 0 02:53 02.12.2019
3374 Rain 12 1008 93 10000 1 0 02:27 02.12.2019
3375 Clouds 12 1009 87 10000 1 220 01:26 02.12.2019
3376 Clouds 12 1009 82 10000 2.1 230 00:57 02.12.2019
3377 Clouds 12 1009 87 10000 2.1 270 00:25 02.12.2019
3378 Clouds 12 1009 87 10000 1 0 23:55 01.12.2019
3379 Rain 12 1009 87 10000 3.1 260 23:37 01.12.2019
3380 Rain 12 1009 87 10000 3.1 250 23:19 01.12.2019
3381 Rain 12 1009 87 10000 3.1 250 22:55 01.12.2019
3382 Rain 12 1010 87 10000 4.1 220 22:36 01.12.2019
3383 Clouds 13 1009 82 10000 4.1 230 22:18 01.12.2019
3384 Clouds 13 1009 82 10000 4.1 230 22:18 01.12.2019
3385 Clouds 13 1009 87 10000 3.1 210 21:54 01.12.2019
3386 Clouds 12 1009 87 10000 3.1 210 21:54 01.12.2019
3387 Clouds 13 1009 87 10000 3.1 210 21:36 01.12.2019
3388 Clouds 13 1009 87 10000 3.1 210 21:18 01.12.2019
3389 Rain 13 1010 87 10000 4.1 220 20:54 01.12.2019
3390 Rain 13 1010 87 10000 4.1 220 20:36 01.12.2019
3391 Rain 13 1010 87 10000 4.1 220 20:36 01.12.2019
3392 Rain 13 1010 87 10000 4.1 220 20:18 01.12.2019
3393 Rain 13 1010 82 10000 3.1 220 19:54 01.12.2019
3394 Rain 13 1010 87 10000 3.1 210 19:36 01.12.2019
3395 Rain 14 1010 87 10000 3.1 210 19:18 01.12.2019
3396 Rain 14 1010 87 8000 3.6 220 18:54 01.12.2019
3397 Clouds 14 1010 82 10000 2.6 190 18:36 01.12.2019
3398 Clouds 14 1010 82 10000 2.6 190 18:18 01.12.2019
3399 Clouds 14 1010 82 10000 4.1 230 17:42 01.12.2019
3400 Clouds 15 1010 82 10000 4.1 230 17:23 01.12.2019
3401 Rain 15 1010 77 10000 4.1 240 16:59 01.12.2019
3402 Rain 15 1011 82 10000 3.1 240 16:41 01.12.2019
3403 Rain 15 1011 82 10000 3.1 240 16:22 01.12.2019
3404 Rain 15 1011 82 10000 3.1 210 15:51 01.12.2019
3405 Rain 15 1011 93 10000 4.6 230 15:32 01.12.2019
3406 Rain 15 1011 93 10000 4.6 230 15:32 01.12.2019
3407 Rain 14 1011 82 9000 6.7 250 14:54 01.12.2019
3408 Rain 14 1012 72 10000 5.7 230 14:36 01.12.2019
3409 Clouds 15 1012 72 10000 5.7 230 14:18 01.12.2019
3410 Clouds 15 1013 77 10000 5.7 220 13:40 01.12.2019
3411 Clouds 15 1013 77 10000 5.7 220 13:40 01.12.2019
3412 Clouds 15 1013 77 10000 5.7 220 13:20 01.12.2019
3413 Clouds 14 1014 87 9000 4.6 220 12:46 01.12.2019
3414 Clouds 14 1014 87 9000 4.6 220 12:18 01.12.2019
3415 Clouds 14 1014 87 9000 4.6 220 12:18 01.12.2019
3416 Clouds 14 1014 87 9000 4.6 220 12:18 01.12.2019
3417 Clouds 14 1014 87 9000 4.6 220 12:18 01.12.2019
3418 Clouds 14 1014 87 9000 4.6 220 12:18 01.12.2019
3419 Clouds 13 1015 93 10000 2.6 220 11:43 01.12.2019
3420 Clouds 13 1015 93 10000 2.6 220 11:43 01.12.2019
3421 Clouds 12 1015 93 10000 2.6 220 11:24 01.12.2019
3422 Clouds 12 1015 93 9000 3.1 180 10:44 01.12.2019
3423 Clouds 12 1015 93 9000 3.1 180 10:22 01.12.2019
3424 Clouds 12 1015 93 10000 3.1 180 09:59 01.12.2019
3425 Clouds 11 1015 93 10000 2.1 180 09:40 01.12.2019
3426 Clouds 11 1015 93 10000 2.1 180 09:21 01.12.2019
3427 Rain 11 1015 93 10000 1 0 08:48 01.12.2019
3428 Clouds 11 1015 87 10000 1.5 270 08:21 01.12.2019
3429 Clouds 11 1015 93 10000 1 0 07:52 01.12.2019
3430 Clouds 11 1015 93 10000 1.5 240 07:32 01.12.2019
3431 Clouds 12 1015 93 10000 2.1 280 06:58 01.12.2019
3432 Clouds 12 1016 93 10000 1 0 06:36 01.12.2019
3433 Clouds 12 1016 93 10000 1.5 250 05:50 01.12.2019
3434 Clouds 13 1016 87 10000 1.5 240 04:53 01.12.2019
3435 Clouds 13 1016 87 10000 1.5 240 04:21 01.12.2019
3436 Clouds 14 1017 93 10000 2.6 250 02:38 01.12.2019
3437 Clouds 15 1017 93 10000 2.6 250 02:20 01.12.2019
3438 Clouds 15 1018 93 7000 4.1 230 01:52 01.12.2019
3439 Clouds 15 1018 93 10000 4.1 230 01:26 01.12.2019
3440 Clouds 15 1018 87 10000 3.6 210 00:44 01.12.2019
3441 Drizzle 15 1018 87 3000 4.6 220 00:24 01.12.2019
3442 Clouds 15 1018 87 10000 5.7 230 23:44 30.11.2019
3443 Clouds 15 1018 87 10000 5.7 230 23:25 30.11.2019
3444 Clouds 16 1019 87 10000 5.7 230 22:58 30.11.2019
3445 Clouds 15 1019 82 10000 4.6 220 22:39 30.11.2019
3446 Clouds 15 1019 82 10000 4.6 220 22:20 30.11.2019
3447 Clouds 16 1019 72 10000 4.1 250 21:47 30.11.2019
3448 Clouds 16 1019 72 10000 5.1 220 21:28 30.11.2019
3449 Clouds 16 1019 67 10000 4.1 240 20:58 30.11.2019
3450 Clouds 16 1020 72 10000 4.6 240 20:40 30.11.2019
3451 Clouds 17 1019 63 10000 3.6 220 20:19 30.11.2019
3452 Clouds 17 1019 63 10000 2.6 240 19:57 30.11.2019
3453 Clouds 17 1019 63 10000 3.1 270 19:39 30.11.2019
3454 Clouds 17 1019 63 10000 3.1 270 19:39 30.11.2019
3455 Clouds 17 1019 63 10000 3.1 270 19:20 30.11.2019
3456 Clouds 18 1019 59 10000 4.1 270 18:59 30.11.2019
3457 Clouds 18 1019 63 10000 4.1 290 18:39 30.11.2019
3458 Clouds 18 1019 63 10000 4.1 290 18:20 30.11.2019
3459 Clouds 18 1019 59 10000 5.1 270 17:58 30.11.2019
3460 Clouds 19 1019 63 10000 4.6 260 17:40 30.11.2019
3461 Clouds 19 1019 63 10000 4.6 260 17:22 30.11.2019
3462 Clouds 19 1019 56 10000 4.1 270 16:58 30.11.2019
3463 Clouds 19 1019 56 10000 1.5 270 16:40 30.11.2019
3464 Clouds 19 1019 56 10000 1.5 270 16:21 30.11.2019
3465 Clouds 19 1019 56 10000 1.5 270 16:21 30.11.2019
3466 Clouds 19 1020 59 10000 2.1 280 15:43 30.11.2019
3467 Clouds 19 1020 59 10000 2.1 280 15:20 30.11.2019
3468 Clouds 19 1020 59 10000 2.1 300 14:58 30.11.2019
3469 Clear 19 1021 63 10000 1.5 290 14:39 30.11.2019
3470 Clear 19 1021 63 10000 0.5 0 14:20 30.11.2019
3471 Clear 19 1021 63 10000 0.5 0 13:59 30.11.2019
3472 Clear 18 1022 72 10000 1 0 13:40 30.11.2019
3473 Clear 18 1022 72 10000 1 0 13:22 30.11.2019
3474 Clear 17 1022 77 10000 2.1 360 12:47 30.11.2019
3475 Clear 16 1023 72 10000 1 0 12:29 30.11.2019
3476 Clear 16 1023 77 10000 1 0 11:59 30.11.2019
3477 Clear 15 1023 82 10000 1.5 10 11:41 30.11.2019
3478 Clear 14 1023 82 10000 1.5 10 11:19 30.11.2019
3479 Clear 14 1023 87 10000 1.5 360 10:54 30.11.2019
3480 Clear 13 1022 93 10000 0.5 0 10:36 30.11.2019
3481 Clear 12 1022 93 10000 1.09 17 10:18 30.11.2019
3482 Rain 11 1022 93 10000 1 350 09:42 30.11.2019
3483 Rain 11 1022 93 10000 1 350 09:20 30.11.2019
3484 Clear 11 1022 100 10000 0.5 330 08:42 30.11.2019
3485 Clouds 11 1022 100 10000 0.5 330 08:20 30.11.2019
3486 Clouds 11 1022 93 10000 1.5 350 07:54 30.11.2019
3487 Clouds 11 1022 100 10000 0.5 0 07:36 30.11.2019
3488 Clouds 11 1022 93 10000 1.25 4 06:49 30.11.2019
3489 Clouds 11 1022 93 10000 1.25 4 06:28 30.11.2019
3490 Clouds 11 1022 100 10000 1.25 4 05:40 30.11.2019
3491 Mist 12 1022 93 5000 1.6 12 03:44 30.11.2019
3492 Clouds 13 1022 93 8000 1 310 02:39 30.11.2019
3493 Clouds 13 1022 93 8000 1 310 02:20 30.11.2019
3494 Clouds 13 1022 87 10000 2.1 20 01:25 30.11.2019
3495 Clouds 13 1022 93 10000 3.1 40 00:49 30.11.2019
3496 Clouds 13 1022 93 10000 2.6 40 00:30 30.11.2019
3497 Clouds 14 1022 93 10000 2.1 30 23:58 29.11.2019
3498 Clouds 14 1022 87 10000 1 0 23:40 29.11.2019
3499 Clouds 15 1022 87 10000 1 0 23:20 29.11.2019
3500 Clouds 15 1022 87 10000 0.5 30 22:42 29.11.2019
3501 Clouds 15 1022 87 10000 0.5 30 22:23 29.11.2019
3502 Clouds 15 1022 87 10000 1.37 29 21:44 29.11.2019
3503 Clouds 15 1022 87 10000 1.37 29 21:24 29.11.2019
3504 Clouds 15 1022 82 10000 1.37 29 20:57 29.11.2019
3505 Clouds 16 1022 77 10000 0.5 40 20:38 29.11.2019
3506 Clouds 16 1022 77 10000 0.5 40 20:19 29.11.2019
3507 Clouds 16 1022 87 10000 1.5 90 19:57 29.11.2019
3508 Clouds 16 1022 82 10000 2.1 110 19:38 29.11.2019
3509 Clouds 17 1022 82 10000 2.1 110 19:19 29.11.2019
3510 Clouds 17 1022 72 10000 1.5 110 18:55 29.11.2019
3511 Clouds 17 1021 68 10000 1.5 90 18:37 29.11.2019
3512 Clouds 18 1021 68 10000 1.5 90 18:19 29.11.2019
3513 Clouds 19 1021 55 10000 3.6 30 17:43 29.11.2019
3514 Clouds 19 1021 56 10000 1.5 90 17:24 29.11.2019
3515 Clouds 19 1021 56 10000 1.5 90 16:56 29.11.2019
3516 Clouds 19 1021 56 10000 2.1 60 16:38 29.11.2019
3517 Clouds 19 1021 56 10000 2.1 60 16:18 29.11.2019
3518 Clouds 19 1021 59 10000 2.6 20 15:40 29.11.2019
3519 Clouds 19 1021 59 10000 2.6 20 15:22 29.11.2019
3520 Clouds 19 1022 63 10000 2.6 50 14:56 29.11.2019
3521 Clouds 19 1012 68 10000 1.5 0 14:38 29.11.2019
3522 Clouds 19 1012 68 10000 1.5 0 14:19 29.11.2019
3523 Clouds 18 1023 72 10000 2.1 30 13:41 29.11.2019
3524 Clouds 18 1023 72 10000 2.1 30 13:21 29.11.2019
3525 Clouds 17 1023 77 10000 1.5 50 12:57 29.11.2019
3526 Clouds 16 1023 77 10000 2.6 30 12:39 29.11.2019
3527 Clouds 16 1023 77 10000 2.6 30 12:20 29.11.2019
3528 Clouds 15 1023 82 10000 2.1 20 11:54 29.11.2019
3529 Clouds 14 1023 87 10000 2.1 20 11:36 29.11.2019
3530 Clouds 13 1023 87 10000 1.5 50 11:18 29.11.2019
3531 Clouds 13 1023 87 10000 1.5 50 10:55 29.11.2019
3532 Clouds 12 1023 93 9000 2.1 30 10:36 29.11.2019
3533 Clouds 12 1023 93 9000 2.1 30 10:18 29.11.2019
3534 Clouds 12 1023 93 10000 2.1 40 09:54 29.11.2019
3535 Clouds 11 1022 100 8000 2.1 20 09:36 29.11.2019
3536 Clouds 11 1022 93 8000 3.1 30 09:18 29.11.2019
3537 Rain 11 1022 100 8000 0.5 0 08:39 29.11.2019
3538 Rain 11 1022 100 8000 0.5 0 08:20 29.11.2019
3539 Rain 11 1022 100 8000 2.1 20 07:56 29.11.2019
3540 -273 0 0 0 0 0 07:38 29.11.2019
3541 Clear 11 1021 93 7000 1.5 360 07:19 29.11.2019
3542 Clear 11 1021 93 8000 2.6 50 06:42 29.11.2019
3543 Clear 11 1021 100 7000 1.5 50 05:48 29.11.2019
3544 Clear 11 1021 93 7000 2.1 20 05:24 29.11.2019
3545 Rain 11 1021 93 6000 1.21 6 04:31 29.11.2019
3546 Clear 12 1021 93 6000 1.5 20 03:21 29.11.2019
3547 Mist 12 1021 100 3700 1.21 6 02:30 29.11.2019
3548 Clouds 12 1021 93 6000 1.05 320 01:52 29.11.2019
3549 Clouds 12 1021 93 8000 1.24 337 01:26 29.11.2019
3550 Clouds 13 1021 87 10000 1 50 00:44 29.11.2019
3551 Clouds 13 1021 87 10000 1 50 00:21 29.11.2019
3552 Clouds 13 1021 93 10000 1 0 23:56 28.11.2019
3553 Clouds 13 1021 87 10000 1.5 180 23:38 28.11.2019
3554 Clouds 13 1021 87 10000 1.5 180 23:19 28.11.2019
3555 Clouds 14 1020 87 10000 2.1 150 22:38 28.11.2019
3556 Clouds 14 1020 87 10000 2.1 150 22:20 28.11.2019
3557 Clouds 14 1020 93 10000 1.5 140 21:59 28.11.2019
3558 Clouds 14 1020 93 10000 1.5 140 21:40 28.11.2019
3559 Clouds 14 1020 93 10000 1.5 140 21:20 28.11.2019
3560 Clouds 14 1020 87 10000 1 140 20:57 28.11.2019
3561 Clouds 14 1019 93 10000 1.5 110 20:38 28.11.2019
3562 Clouds 15 1019 82 10000 1 0 20:18 28.11.2019
3563 Clouds 15 1019 82 10000 1 0 19:56 28.11.2019
3564 Clouds 16 1019 72 10000 0.86 175 19:36 28.11.2019
3565 Clouds 16 1019 72 10000 0.86 175 19:18 28.11.2019
3566 Clouds 16 1019 72 10000 0.5 0 18:56 28.11.2019
3567 Clouds 17 1019 72 10000 0.5 0 18:38 28.11.2019
3568 Clouds 17 1019 63 10000 1 180 18:18 28.11.2019
3569 Clouds 18 1019 59 10000 1 0 17:42 28.11.2019
3570 Clouds 18 1019 59 10000 1 0 17:24 28.11.2019
3571 Clouds 19 1019 55 10000 1 0 16:59 28.11.2019
3572 Clouds 19 1019 55 10000 1 0 16:59 28.11.2019
3573 Clouds 18 1019 63 10000 1 0 16:40 28.11.2019
3574 Clouds 19 1019 63 10000 1 0 16:19 28.11.2019
3575 Clouds 19 1019 59 10000 0.5 230 15:57 28.11.2019
3576 Clouds 19 1019 63 10000 1 0 15:38 28.11.2019
3577 Clouds 18 1019 63 10000 1 0 15:19 28.11.2019
3578 Clouds 18 1019 68 10000 1 310 14:57 28.11.2019
3579 Clouds 18 1020 77 9000 1 60 14:38 28.11.2019
3580 Clouds 18 1020 77 9000 1 60 14:19 28.11.2019
3581 Clouds 17 1020 87 7000 1 0 13:41 28.11.2019
3582 Clouds 16 1020 87 7000 1 0 13:23 28.11.2019
3583 Clouds 16 1020 82 10000 1.5 290 12:55 28.11.2019
3584 Clouds 16 1020 82 10000 1.5 290 12:55 28.11.2019
3585 Mist 15 1021 93 5000 0.5 0 12:36 28.11.2019
3586 Mist 15 1021 93 5000 0.5 0 12:18 28.11.2019
3587 Mist 14 1021 100 5000 0.79 145 11:54 28.11.2019
3588 Mist 14 1021 100 5000 0.79 145 11:36 28.11.2019
3589 Mist 14 1021 100 4000 1 0 11:18 28.11.2019
3590 Mist 13 1020 100 4500 0.5 0 10:41 28.11.2019
3591 Mist 13 1020 100 4500 0.5 0 10:20 28.11.2019
3592 Mist 13 1020 100 4000 1.5 20 09:55 28.11.2019
3593 Mist 13 1020 100 3000 0.5 0 09:37 28.11.2019
3594 Mist 12 1020 100 3000 0.5 0 09:18 28.11.2019
3595 Fog 12 1019 93 800 0.5 0 08:40 28.11.2019
3596 Fog 12 1019 93 800 0.5 0 08:21 28.11.2019
3597 Mist 12 1019 100 1500 1.35 3 07:43 28.11.2019
3598 Mist 12 1019 100 1500 1.35 3 07:25 28.11.2019
3599 Fog 12 1019 100 600 0.5 80 06:58 28.11.2019
3600 Fog 12 1019 100 450 1.5 120 06:37 28.11.2019
3601 Fog 12 1018 100 450 1 120 05:53 28.11.2019
3602 Fog 12 1018 100 400 1 160 05:33 28.11.2019
3603 Fog 13 1018 100 200 2.1 130 03:43 28.11.2019
3604 Mist 12 1018 93 4600 0.81 39 02:30 28.11.2019
3605 Clouds 13 1018 93 10000 1.41 332 01:21 28.11.2019
3606 Clouds 13 1018 93 10000 0.5 0 00:37 28.11.2019
3607 Clouds 13 1018 93 10000 0.5 0 00:18 28.11.2019
3608 Clouds 14 1018 87 10000 0.5 0 23:38 27.11.2019
3609 Clouds 14 1018 87 10000 0.5 0 23:20 27.11.2019
3610 Clouds 14 1018 82 10000 1.5 260 22:56 27.11.2019
3611 Clouds 14 1018 82 10000 2.1 250 22:37 27.11.2019
3612 Clouds 15 1018 77 10000 3.1 240 22:18 27.11.2019
3613 Clouds 15 1018 77 10000 3.1 240 21:55 27.11.2019
3614 Clouds 15 1017 77 10000 2.6 260 21:36 27.11.2019
3615 Rain 15 1017 87 10000 2.6 220 21:18 27.11.2019
3616 Clouds 15 1017 72 10000 3.1 240 20:56 27.11.2019
3617 Clouds 16 1017 72 10000 2.6 250 20:36 27.11.2019
3618 Clouds 16 1017 72 10000 2.6 250 20:18 27.11.2019
3619 Clouds 16 1017 72 10000 2.6 250 20:18 27.11.2019
3620 Clouds 16 1016 72 10000 2.6 240 19:55 27.11.2019
3621 Clouds 16 1016 77 10000 2.6 270 19:37 27.11.2019
3622 Clouds 17 1016 77 10000 2.6 270 19:18 27.11.2019
3623 Clouds 17 1016 77 10000 2.6 270 18:54 27.11.2019
3624 Clouds 17 1016 77 10000 3.1 270 18:36 27.11.2019
3625 Clouds 17 1016 77 10000 3.1 270 18:18 27.11.2019
3626 Clouds 17 1016 77 10000 3.1 270 18:18 27.11.2019
3627 Clouds 17 1016 72 10000 2.6 260 17:41 27.11.2019
3628 Clouds 17 1016 72 10000 2.6 260 17:23 27.11.2019
3629 Clouds 17 1016 72 10000 2.6 260 17:23 27.11.2019
3630 Clouds 17 1016 72 10000 2.6 260 17:23 27.11.2019
3631 -273 0 0 0 0 0 17:23 27.11.2019
3632 Clouds 18 1016 72 10000 2.6 260 17:23 27.11.2019
3633 Clouds 18 1016 72 10000 2.6 250 16:58 27.11.2019
3634 Clouds 18 1016 68 10000 4.1 290 16:40 27.11.2019
3635 Clouds 18 1016 68 10000 4.1 290 16:21 27.11.2019
3636 Clouds 18 1016 68 10000 2.1 270 15:59 27.11.2019
3637 Clouds 18 1016 72 10000 2.1 270 15:41 27.11.2019
3638 Clouds 18 1016 72 10000 2.1 270 15:40 27.11.2019
3639 Rain 18 1016 72 10000 2.1 270 15:21 27.11.2019
3640 Rain 18 1016 72 10000 2.1 280 14:59 27.11.2019
3641 Rain 18 1016 72 10000 1 0 14:41 27.11.2019
3642 Rain 18 1016 72 10000 1 0 14:41 27.11.2019
3643 Clouds 18 1016 72 10000 1 0 14:23 27.11.2019
3644 Clouds 17 1017 82 10000 2.1 280 13:58 27.11.2019
3645 Clouds 17 1017 87 10000 1 0 13:40 27.11.2019
3646 Clouds 17 1017 87 10000 1 0 13:19 27.11.2019
3647 Clouds 16 1017 87 10000 0.5 0 12:59 27.11.2019
3648 Clouds 16 1018 93 8000 0.5 0 12:40 27.11.2019
3649 Clouds 16 1018 93 8000 0.5 0 12:40 27.11.2019
3650 Clouds 16 1018 93 8000 0.5 0 12:20 27.11.2019
3651 Clouds 15 1018 93 8000 0.5 0 11:54 27.11.2019
3652 Clouds 15 1017 93 8000 0.5 0 11:36 27.11.2019
3653 Rain 14 1017 93 7000 1 0 11:18 27.11.2019
3654 Rain 14 1017 100 4000 1.5 0 10:42 27.11.2019
3655 Rain 14 1017 100 4000 1.5 0 10:23 27.11.2019
3656 Mist 14 1017 93 3000 2.1 240 09:49 27.11.2019
3657 Mist 14 1016 100 1200 2.1 230 09:26 27.11.2019
3658 Mist 14 1016 93 5000 3.6 240 08:59 27.11.2019
3659 Mist 14 1016 100 3000 2.6 220 08:41 27.11.2019
3660 Mist 14 1016 100 3000 2.6 220 08:41 27.11.2019
3661 Rain 14 1016 100 3000 2.6 220 08:22 27.11.2019
3662 Rain 14 1015 100 700 1 200 07:47 27.11.2019
3663 Fog 14 1015 100 700 1 200 07:28 27.11.2019
3664 Clouds 14 1015 100 10000 3.6 210 06:54 27.11.2019
3665 Clouds 14 1015 93 7000 3.1 220 06:35 27.11.2019
3666 Rain 14 1014 93 4700 3.6 220 05:46 27.11.2019
3667 Clouds 14 1015 93 10000 3.1 230 05:21 27.11.2019
3668 Clouds 14 1015 93 9000 3.1 210 04:48 27.11.2019
3669 Clouds 14 1015 93 9000 3.1 210 04:29 27.11.2019
3670 Clouds 15 1015 93 8000 3.6 210 03:40 27.11.2019
3671 Rain 15 1015 93 8000 3.6 210 03:19 27.11.2019
3672 Rain 15 1015 100 10000 5.1 220 02:21 27.11.2019
3673 Drizzle 16 1015 93 6000 6.7 220 00:50 27.11.2019
3674 Rain 16 1015 93 7000 7.2 230 00:30 27.11.2019
3675 Drizzle 16 1016 93 4500 6.7 220 23:55 26.11.2019
3676 Rain 16 1015 93 4000 8.2 220 23:37 26.11.2019
3677 Rain 16 1016 93 10000 5.7 210 23:18 26.11.2019
3678 Rain 16 1015 93 4500 5.1 220 22:40 26.11.2019
3679 Rain 16 1015 93 4500 5.1 220 22:20 26.11.2019
3680 Clouds 16 1015 93 10000 4.1 210 21:59 26.11.2019
3681 Clouds 16 1015 93 10000 4.6 220 21:39 26.11.2019
3682 Clouds 16 1015 93 10000 4.6 220 21:21 26.11.2019
3683 Clouds 16 1015 93 10000 5.1 220 20:57 26.11.2019
3684 Clouds 16 1016 93 10000 4.1 210 20:37 26.11.2019
3685 Clouds 16 1016 93 10000 4.1 210 20:37 26.11.2019
3686 Clouds 17 1015 82 10000 5.1 210 20:19 26.11.2019
3687 Clouds 17 1015 82 10000 5.1 210 19:56 26.11.2019
3688 Clouds 17 1015 82 10000 5.1 210 19:38 26.11.2019
3689 Clouds 17 1015 82 10000 5.1 230 19:19 26.11.2019
3690 Clouds 18 1015 82 10000 6.2 230 18:57 26.11.2019
3691 Clouds 18 1014 77 10000 6.2 230 18:39 26.11.2019
3692 Clouds 18 1014 77 10000 6.2 230 18:21 26.11.2019
3693 Clouds 18 1015 77 10000 4.6 230 17:58 26.11.2019
3694 Clouds 18 1014 77 10000 5.1 230 17:40 26.11.2019
3695 Clouds 18 1015 82 10000 2.6 240 17:21 26.11.2019
3696 Clouds 19 1015 82 10000 2.6 240 16:57 26.11.2019
3697 Clouds 18 1015 93 10000 2.1 320 16:37 26.11.2019
3698 Clouds 18 1015 93 10000 2.1 320 16:19 26.11.2019
3699 Clouds 18 1015 93 10000 2.1 320 16:19 26.11.2019
3700 Clouds 18 1015 88 10000 1.5 320 15:59 26.11.2019
3701 Clouds 18 1015 88 10000 1.5 320 15:59 26.11.2019
3702 Clouds 18 1015 88 10000 2.1 230 15:38 26.11.2019
3703 Clouds 18 1015 88 10000 2.1 230 15:20 26.11.2019
3704 Rain 17 1015 100 8000 1.5 230 14:51 26.11.2019
3705 Rain 17 1016 93 5000 2.1 230 14:26 26.11.2019
3706 Drizzle 17 1016 93 3000 2.1 260 13:57 26.11.2019
3707 Drizzle 17 1016 93 6000 2.1 250 13:38 26.11.2019
3708 Drizzle 17 1016 93 6000 2.1 250 13:19 26.11.2019
3709 Drizzle 17 1016 93 6000 2.1 250 13:19 26.11.2019
3710 Clouds 16 1017 93 6000 3.1 220 12:39 26.11.2019
3711 Drizzle 16 1018 100 2000 1.5 0 12:21 26.11.2019
3712 Drizzle 16 1018 100 2000 1.5 0 11:58 26.11.2019
3713 Rain 15 1017 100 4000 1 0 11:39 26.11.2019
3714 Rain 15 1017 100 3000 1.5 170 11:20 26.11.2019
3715 Rain 15 1017 100 3000 1.5 170 10:58 26.11.2019
3716 Rain 15 1018 100 3000 0.5 0 10:40 26.11.2019
3717 Rain 15 1018 100 3000 0.5 0 10:21 26.11.2019
3718 Mist 14 1017 100 1500 1 0 09:57 26.11.2019
3719 Fog 14 1017 100 500 1.31 91 09:38 26.11.2019
3720 Fog 14 1017 100 500 1.31 91 09:19 26.11.2019
3721 Mist 14 1017 100 1500 0.5 0 08:44 26.11.2019
3722 Mist 14 1017 100 1500 0.5 0 08:24 26.11.2019
3723 Fog 14 1017 93 800 0.64 336 07:47 26.11.2019
3724 Fog 14 1017 93 800 0.64 336 07:27 26.11.2019
3725 Fog 14 1017 93 600 1.5 230 06:56 26.11.2019
3726 Fog 14 1017 93 600 2.1 230 06:35 26.11.2019
3727 Mist 14 1017 100 4000 1.5 220 05:53 26.11.2019
3728 Rain 14 1018 93 300 1 0 04:47 26.11.2019
3729 Fog 15 1018 100 150 1 0 02:53 26.11.2019
3730 Mist 15 1019 93 4000 3.1 250 01:34 26.11.2019
3731 Clouds 16 1019 93 7000 3.1 240 00:53 26.11.2019
3732 Clouds 16 1019 93 7000 3.1 240 00:31 26.11.2019
3733 Clouds 16 1019 93 6000 1.5 220 23:56 25.11.2019
3734 Mist 16 1018 93 5000 1 240 23:37 25.11.2019
3735 Mist 16 1019 100 4000 3.1 230 23:18 25.11.2019
3736 Mist 16 1018 100 4000 3.1 220 22:39 25.11.2019
3737 Mist 16 1018 100 4000 3.1 220 22:19 25.11.2019
3738 Mist 16 1018 100 4000 2.6 210 21:59 25.11.2019
3739 Mist 16 1018 100 4000 2.6 210 21:59 25.11.2019
3740 Clouds 16 1018 93 10000 3.6 220 21:40 25.11.2019
3741 Clouds 16 1018 93 10000 3.6 220 21:40 25.11.2019
3742 Clouds 16 1018 93 10000 3.6 220 21:22 25.11.2019
3743 Clouds 16 1018 93 10000 4.1 220 20:58 25.11.2019
3744 Clouds 17 1018 93 10000 3.6 220 20:40 25.11.2019
3745 Drizzle 16 1018 100 4000 3.6 220 20:20 25.11.2019
3746 Clouds 17 1018 93 6000 4.6 210 19:56 25.11.2019
3747 Clouds 17 1018 93 6000 4.6 210 19:38 25.11.2019
3748 Clouds 17 1018 93 6000 4.6 210 19:20 25.11.2019
3749 Drizzle 17 1018 93 8000 5.1 220 18:57 25.11.2019
3750 Clouds 17 1017 93 10000 4.6 230 18:39 25.11.2019
3751 Drizzle 17 1018 93 8000 5.1 220 18:21 25.11.2019
3752 Drizzle 17 1018 93 8000 5.1 220 17:58 25.11.2019
3753 Rain 17 1017 93 10000 4.6 240 17:39 25.11.2019
3754 Drizzle 17 1018 88 5000 6.7 230 17:21 25.11.2019
3755 Drizzle 17 1018 88 5000 6.7 230 16:59 25.11.2019
3756 Clouds 17 1017 93 10000 4.6 240 16:40 25.11.2019
3757 Clouds 17 1017 93 10000 4.6 240 16:22 25.11.2019
3758 Clouds 17 1017 93 10000 5.1 240 15:56 25.11.2019
3759 Drizzle 17 1017 93 4000 4.6 220 15:37 25.11.2019
3760 Drizzle 17 1017 93 4000 4.6 220 15:19 25.11.2019
3761 Drizzle 17 1017 93 2500 5.1 230 14:43 25.11.2019
3762 Drizzle 17 1017 93 2500 5.1 230 14:25 25.11.2019
3763 Drizzle 17 1018 93 2700 5.7 230 13:58 25.11.2019
3764 Drizzle 17 1018 100 4000 3.1 210 13:38 25.11.2019
3765 Drizzle 17 1018 100 4000 3.1 210 13:38 25.11.2019
3766 Drizzle 17 1018 100 4000 3.1 210 13:20 25.11.2019
3767 Drizzle 17 1018 100 4000 3.1 210 13:20 25.11.2019
3768 Drizzle 17 1018 93 4500 5.7 230 12:59 25.11.2019
3769 Drizzle 16 1019 93 3000 3.1 210 12:39 25.11.2019
3770 Drizzle 16 1019 93 4500 5.7 230 12:19 25.11.2019
3771 Drizzle 15 1019 93 4500 5.1 230 11:40 25.11.2019
3772 Drizzle 15 1019 93 4500 5.1 230 11:21 25.11.2019
3773 Clouds 15 1020 87 10000 4.6 190 10:59 25.11.2019
3774 Drizzle 15 1019 87 4500 3.1 200 10:41 25.11.2019
3775 Clouds 14 1019 93 9000 2.6 210 10:20 25.11.2019
3776 Clouds 14 1019 93 8000 1 0 09:44 25.11.2019
3777 Clouds 14 1019 93 8000 1 0 09:26 25.11.2019
3778 Clouds 13 1018 93 10000 0.5 0 08:59 25.11.2019
3779 Clouds 13 1018 93 10000 0.5 0 08:39 25.11.2019
3780 Clouds 13 1018 93 10000 0.5 0 08:20 25.11.2019
3781 Clouds 13 1018 93 10000 1 150 07:41 25.11.2019
3782 Clouds 13 1019 87 10000 4.1 170 07:20 25.11.2019
3783 Clouds 12 1018 93 10000 2.1 180 06:45 25.11.2019
3784 Drizzle 12 1018 93 3500 3.1 190 06:21 25.11.2019
3785 Clouds 12 1018 93 10000 3.1 170 05:38 25.11.2019
3786 Clouds 12 1019 87 10000 3.1 190 04:51 25.11.2019
3787 Clouds 12 1019 87 10000 0.5 0 02:51 25.11.2019
3788 Clouds 12 1019 87 10000 0.5 0 02:19 25.11.2019
3789 Clouds 12 1019 87 10000 2.1 220 01:39 25.11.2019
3790 Clouds 12 1019 87 10000 2.1 220 01:20 25.11.2019
3791 Clouds 12 1019 87 10000 2.6 180 00:22 25.11.2019
3792 Clouds 12 1020 87 10000 3.1 190 23:58 24.11.2019
3793 Clouds 12 1020 87 10000 1.5 220 23:38 24.11.2019
3794 Clouds 12 1020 81 10000 2.1 190 23:19 24.11.2019
3795 Clouds 12 1020 81 10000 2.1 190 22:54 24.11.2019
3796 Clouds 12 1019 82 10000 2.1 190 22:36 24.11.2019
3797 Clouds 12 1019 82 10000 2.1 190 22:18 24.11.2019
3798 Clouds 13 1019 76 10000 2.6 240 21:42 24.11.2019
3799 Clouds 13 1019 76 10000 2.6 240 21:21 24.11.2019
3800 Clouds 13 1019 72 10000 3.1 220 20:59 24.11.2019
3801 Clouds 13 1019 72 10000 3.1 220 20:59 24.11.2019
3802 Clouds 13 1019 72 10000 3.6 240 20:39 24.11.2019
3803 Clouds 14 1019 72 10000 3.6 240 20:19 24.11.2019
3804 Clouds 14 1018 67 10000 4.1 240 19:57 24.11.2019
3805 Clouds 14 1018 67 10000 3.6 260 19:39 24.11.2019
3806 Clouds 14 1018 67 10000 3.6 260 19:21 24.11.2019
3807 Clouds 15 1019 82 10000 3.1 220 18:59 24.11.2019
3808 Clouds 15 1018 59 10000 4.1 270 18:38 24.11.2019
3809 Clouds 15 1018 71 10000 2.6 220 18:20 24.11.2019
3810 Clouds 16 1018 71 10000 2.6 220 17:58 24.11.2019
3811 Clouds 16 1018 59 10000 3.6 220 17:40 24.11.2019
3812 Clouds 16 1018 59 10000 3.6 220 17:21 24.11.2019
3813 Clouds 17 1018 59 10000 3.1 240 16:58 24.11.2019
3814 Clouds 17 1017 55 10000 3.1 210 16:39 24.11.2019
3815 Clouds 17 1017 55 10000 3.1 210 16:21 24.11.2019
3816 Clouds 16 1018 59 10000 2.6 230 15:46 24.11.2019
3817 Clouds 16 1018 59 10000 2.6 230 15:27 24.11.2019
3818 Clouds 16 1018 55 10000 3.1 230 14:59 24.11.2019
3819 Clouds 16 1018 59 10000 2.1 210 14:39 24.11.2019
3820 Clouds 16 1018 59 10000 2.1 210 14:19 24.11.2019
3821 Clouds 15 1019 58 10000 1 0 13:58 24.11.2019
3822 Clouds 15 1019 67 10000 1 250 13:37 24.11.2019
3823 Clouds 15 1019 67 10000 1 250 13:19 24.11.2019
3824 Clouds 14 1019 67 10000 2.1 270 12:55 24.11.2019
3825 Clouds 14 1020 67 10000 1.67 253 12:37 24.11.2019
3826 Clouds 14 1020 66 10000 2.1 250 12:18 24.11.2019
3827 Clouds 13 1020 81 10000 2.6 200 11:38 24.11.2019
3828 Clear 12 1019 76 10000 0.5 210 11:19 24.11.2019
3829 Clear 12 1019 76 10000 0.5 210 10:55 24.11.2019
3830 Clear 11 1019 76 10000 0.5 0 10:37 24.11.2019
3831 Clear 10 1019 76 10000 0.5 0 10:19 24.11.2019
3832 Clear 8 1019 93 10000 0.95 310 09:38 24.11.2019
3833 Clear 8 1019 93 10000 0.95 310 09:20 24.11.2019
3834 Clear 7 1019 93 10000 0.95 310 08:57 24.11.2019
3835 Clear 8 1018 93 10000 0.95 310 08:39 24.11.2019
3836 Clear 8 1018 93 10000 1.39 284 08:20 24.11.2019
3837 Clear 8 1018 93 10000 0.5 0 07:47 24.11.2019
3838 Clear 8 1017 87 10000 0.5 290 07:22 24.11.2019
3839 Clear 8 1017 87 10000 1.39 284 06:51 24.11.2019
3840 Clear 8 1016 93 10000 1.39 284 05:39 24.11.2019
3841 Clear 8 1016 87 10000 1.5 150 04:41 24.11.2019
3842 Clear 9 1016 76 10000 1.5 230 02:43 24.11.2019
3843 Clouds 9 1016 81 10000 0.5 0 01:56 24.11.2019
3844 Clouds 10 1016 81 10000 0.5 0 01:34 24.11.2019
3845 Clouds 10 1016 76 10000 2.6 270 00:57 24.11.2019
3846 Clouds 11 1016 76 10000 2.1 290 00:38 24.11.2019
3847 Clouds 11 1016 87 10000 2.1 240 00:19 24.11.2019
3848 Clouds 11 1016 71 10000 3.1 260 23:43 23.11.2019
3849 Clouds 11 1016 71 10000 3.1 260 23:20 23.11.2019
3850 Clouds 11 1016 93 10000 2.1 240 22:57 23.11.2019
3851 Clouds 11 1015 71 10000 2.6 270 22:37 23.11.2019
3852 Clouds 11 1015 71 10000 2.6 270 22:19 23.11.2019
3853 Clouds 11 1015 71 10000 3.1 290 21:57 23.11.2019
3854 Clouds 12 1015 71 10000 3.6 290 21:39 23.11.2019
3855 Clouds 12 1014 62 10000 4.1 290 21:20 23.11.2019
3856 Clouds 12 1014 71 10000 3.1 280 20:38 23.11.2019
3857 Clouds 12 1014 71 10000 3.1 280 20:20 23.11.2019
3858 Clouds 13 1014 71 10000 3.6 280 19:58 23.11.2019
3859 Clouds 13 1013 67 10000 4.1 280 19:39 23.11.2019
3860 Clouds 13 1013 67 10000 4.1 280 19:19 23.11.2019
3861 Clouds 14 1013 58 10000 4.6 290 19:19 23.11.2019
3862 Clouds 14 1013 58 10000 4.6 290 18:58 23.11.2019
3863 Clouds 14 1012 51 10000 4.1 290 18:39 23.11.2019
3864 Clouds 15 1012 62 10000 3.1 280 18:19 23.11.2019
3865 Clouds 16 1011 48 10000 5.7 300 17:45 23.11.2019
3866 Clouds 16 1011 48 10000 5.7 300 17:23 23.11.2019
3867 Clouds 17 1011 51 10000 4.6 310 17:23 23.11.2019
3868 Clouds 17 1011 51 10000 4.6 310 16:57 23.11.2019
3869 Clouds 17 1011 48 10000 7.2 290 16:39 23.11.2019
3870 Clouds 17 1011 48 10000 7.2 290 16:39 23.11.2019
3871 Clouds 17 1011 48 10000 7.2 290 16:21 23.11.2019
3872 Clouds 17 1010 51 10000 8.2 290 15:59 23.11.2019
3873 Clouds 17 1010 51 10000 7.2 290 15:39 23.11.2019
3874 Clouds 17 1010 51 10000 7.2 290 15:19 23.11.2019
3875 Clouds 17 1010 51 10000 8.2 280 14:57 23.11.2019
3876 Clouds 16 1010 51 10000 6.7 310 14:39 23.11.2019
3877 Clouds 16 1010 51 10000 6.7 310 14:21 23.11.2019
3878 Clouds 16 1010 51 10000 6.7 290 13:54 23.11.2019
3879 -273 0 0 0 0 0 13:54 23.11.2019
3880 Clouds 16 1011 59 10000 6.2 290 13:36 23.11.2019
3881 Clouds 16 1011 59 10000 6.2 290 13:18 23.11.2019
3882 Clouds 16 1011 59 10000 6.2 290 13:18 23.11.2019
3883 Clouds 15 1011 67 10000 5.7 270 12:42 23.11.2019
3884 Clouds 15 1011 67 10000 5.7 270 12:24 23.11.2019
3885 Clouds 15 1010 72 10000 6.7 270 11:45 23.11.2019
3886 Clouds 14 1010 72 10000 6.7 270 11:23 23.11.2019
3887 Clouds 14 1009 82 10000 4.1 260 10:46 23.11.2019
3888 Clouds 13 1009 82 10000 4.1 260 10:23 23.11.2019
3889 Clouds 13 1008 82 10000 4.1 240 09:59 23.11.2019
3890 Clouds 12 1008 82 10000 4.6 240 09:40 23.11.2019
3891 Clouds 12 1008 82 10000 4.6 240 09:18 23.11.2019
3892 Clouds 12 1006 82 10000 4.6 240 08:41 23.11.2019
3893 Clouds 12 1006 82 10000 4.6 240 08:41 23.11.2019
3894 Clouds 12 1006 82 10000 4.6 240 08:19 23.11.2019
3895 Clouds 12 1005 76 10000 4.6 270 07:42 23.11.2019
3896 Clouds 12 1005 82 8000 7.7 250 06:58 23.11.2019
3897 Clouds 13 1005 76 10000 5.7 260 06:38 23.11.2019
3898 Clouds 13 1005 82 8000 7.7 250 06:19 23.11.2019
3899 Clouds 13 1004 82 10000 5.7 240 05:32 23.11.2019
3900 Clouds 13 1005 82 8000 6.2 230 04:58 23.11.2019
3901 Clouds 13 1003 82 10000 5.7 250 04:34 23.11.2019
3902 Clouds 13 1003 82 10000 5.7 240 03:27 23.11.2019
3903 Clouds 14 1003 77 10000 6.2 230 02:39 23.11.2019
3904 Clouds 14 1003 87 10000 6.2 220 01:40 23.11.2019
3905 Clouds 14 1003 82 10000 7.7 230 00:49 23.11.2019
3906 Clouds 14 1004 82 7000 6.2 230 00:21 23.11.2019
3907 Clouds 14 1004 82 7000 6.2 230 23:56 22.11.2019
3908 Clouds 14 1002 82 10000 6.2 230 23:37 22.11.2019
3909 Clouds 14 1002 87 10000 6.2 230 23:18 22.11.2019
3910 Clouds 14 1002 87 10000 6.2 230 22:56 22.11.2019
3911 Clouds 14 1002 87 10000 6.2 230 22:37 22.11.2019
3912 Clouds 14 1002 87 10000 6.2 230 22:18 22.11.2019
3913 Clouds 14 1002 87 8000 4.1 210 21:41 22.11.2019
3914 Clouds 14 1002 87 8000 4.1 210 21:21 22.11.2019
3915 Clear 14 1001 77 10000 5.7 250 20:56 22.11.2019
3916 Clear 15 1000 77 10000 6.7 260 20:38 22.11.2019
3917 Rain 15 1000 77 10000 6.7 260 20:20 22.11.2019
3918 Clouds 16 1000 77 10000 8.2 260 19:54 22.11.2019
3919 Clouds 16 999 77 10000 9.3 270 19:36 22.11.2019
3920 Clouds 16 999 82 10000 8.2 270 19:18 22.11.2019
3921 Rain 17 998 88 10000 8.7 250 18:39 22.11.2019
3922 Rain 17 998 88 10000 8.7 250 18:21 22.11.2019
3923 Rain 18 999 88 4000 12.9 230 17:43 22.11.2019
3924 Rain 18 999 88 4000 12.9 230 17:24 22.11.2019
3925 Clouds 18 997 82 10000 10.3 230 16:58 22.11.2019
3926 Clouds 18 997 88 10000 12.3 230 16:40 22.11.2019
3927 Clouds 18 997 88 10000 12.3 230 16:21 22.11.2019
3928 Rain 18 998 93 10000 11.8 230 15:40 22.11.2019
3929 Rain 18 998 93 10000 11.8 230 15:22 22.11.2019
3930 Rain 17 999 88 10000 10.3 230 14:55 22.11.2019
3931 Rain 17 999 88 10000 10.3 230 14:55 22.11.2019
3932 Rain 17 999 88 10000 9.3 230 14:37 22.11.2019
3933 Rain 17 1010 93 4000 6.7 230 14:19 22.11.2019
3934 Rain 17 1001 93 10000 7.2 210 13:40 22.11.2019
3935 Rain 17 1000 88 7000 10.3 220 13:20 22.11.2019
3936 Rain 17 1000 88 7000 10.3 220 13:20 22.11.2019
3937 Rain 17 1001 93 6000 10.8 220 12:59 22.11.2019
3938 Rain 17 1002 93 7000 9.3 220 12:40 22.11.2019
3939 Rain 17 1002 93 7000 9.3 220 12:40 22.11.2019
3940 Rain 17 1003 93 7000 8.7 200 12:20 22.11.2019
3941 Rain 16 1003 93 7000 8.7 200 11:59 22.11.2019
3942 Rain 16 1003 93 7000 4.1 190 11:38 22.11.2019
3943 Rain 16 1003 93 7000 4.1 190 11:20 22.11.2019
3944 Rain 16 1003 100 10000 3.1 210 10:58 22.11.2019
3945 Rain 16 1004 93 10000 4.6 210 10:39 22.11.2019
3946 Clouds 15 1004 93 10000 4.6 210 10:21 22.11.2019
3947 Clouds 15 1004 100 7000 3.1 180 09:55 22.11.2019
3948 Rain 15 1004 100 3000 2.6 170 09:37 22.11.2019
3949 Clouds 14 1004 93 7000 1.5 150 09:18 22.11.2019
3950 Mist 14 1004 100 4000 2.1 170 08:44 22.11.2019
3951 Mist 14 1004 100 4000 2.1 170 08:24 22.11.2019
3952 Clouds 13 1005 100 7000 0.5 0 07:44 22.11.2019
3953 Rain 13 1005 100 7000 0.5 0 07:22 22.11.2019
3954 Drizzle 13 1005 93 5000 1.29 204 06:49 22.11.2019
3955 Drizzle 13 1006 93 4500 1.29 204 06:29 22.11.2019
3956 Clouds 14 1006 93 9000 1.29 204 05:45 22.11.2019
3957 Clouds 14 1007 93 7000 1.5 310 04:22 22.11.2019
3958 Clouds 14 1007 93 6000 1 250 02:52 22.11.2019
3959 Clouds 14 1007 93 8000 1.5 230 02:30 22.11.2019
3960 Clouds 14 1008 93 7000 2.6 250 01:45 22.11.2019
3961 Clouds 14 1008 93 7000 2.6 250 01:20 22.11.2019
3962 Clouds 14 1008 93 8000 2.1 240 00:50 22.11.2019
3963 Clouds 14 1008 93 8000 3.1 230 00:23 22.11.2019
3964 Clouds 14 1008 93 10000 3.1 250 23:49 21.11.2019
3965 Clouds 14 1008 93 10000 3.1 250 23:30 21.11.2019
3966 Clouds 14 1009 93 10000 3.1 250 22:59 21.11.2019
3967 Clouds 14 1009 93 10000 3.6 240 22:39 21.11.2019
3968 Clouds 14 1009 93 10000 3.6 240 22:21 21.11.2019
3969 Clouds 14 1009 93 10000 2.1 240 21:57 21.11.2019
3970 Clouds 14 1009 93 10000 3.1 240 21:37 21.11.2019
3971 Clouds 14 1009 93 10000 3.6 260 21:19 21.11.2019
3972 Clouds 15 1009 93 10000 3.6 260 20:58 21.11.2019
3973 Clouds 14 1009 93 10000 3.6 200 20:38 21.11.2019
3974 Clouds 14 1009 93 10000 3.6 200 20:19 21.11.2019
3975 Clouds 14 1008 93 10000 4.6 200 19:59 21.11.2019
3976 Clouds 15 1008 93 10000 2.1 170 19:41 21.11.2019
3977 Clouds 15 1008 93 10000 2.1 170 19:22 21.11.2019
3978 Clouds 15 1008 93 10000 1.5 230 18:57 21.11.2019
3979 Clouds 15 1008 93 10000 1 0 18:38 21.11.2019
3980 Clouds 15 1008 93 10000 1 0 18:19 21.11.2019
3981 Rain 15 1008 93 9000 1.5 210 17:57 21.11.2019
3982 Clouds 15 1008 87 10000 0.5 0 17:38 21.11.2019
3983 Rain 15 1008 87 10000 0.5 0 17:19 21.11.2019
3984 Rain 15 1008 87 10000 0.5 0 17:19 21.11.2019
3985 Rain 15 1008 100 9000 1 0 16:42 21.11.2019
3986 Rain 15 1008 100 9000 1 0 16:42 21.11.2019
3987 Rain 15 1008 100 9000 1 0 16:22 21.11.2019
3988 Rain 15 1008 100 9000 0.82 52 15:58 21.11.2019
3989 Rain 15 1008 87 8000 4.6 220 15:40 21.11.2019
3990 Rain 14 1008 87 8000 4.6 220 15:20 21.11.2019
3991 Rain 15 1008 100 5000 4.1 260 14:56 21.11.2019
3992 Rain 15 1008 100 1400 4.1 340 14:37 21.11.2019
3993 Rain 15 1008 100 1400 4.1 340 14:18 21.11.2019
3994 Rain 15 1009 93 4500 1.5 350 13:40 21.11.2019
3995 Rain 15 1009 93 4500 1.5 350 13:21 21.11.2019
3996 Rain 15 1009 93 6000 1 0 12:59 21.11.2019
3997 Rain 15 1010 93 5000 2.6 320 12:39 21.11.2019
3998 Rain 14 1010 93 5000 2.6 320 12:20 21.11.2019
3999 Clouds 14 1010 93 9000 1 0 11:54 21.11.2019
4000 Rain 13 1010 93 8000 7.7 320 11:36 21.11.2019
4001 Rain 14 1010 93 8000 7.7 320 11:18 21.11.2019
4002 Rain 13 1010 100 4000 1.29 76 10:42 21.11.2019
4003 Mist 12 1010 100 4000 1.29 76 10:23 21.11.2019
4004 Mist 12 1010 93 3000 0.5 0 09:57 21.11.2019
4005 Rain 12 1010 100 2500 1.29 76 09:39 21.11.2019
4006 Rain 12 1010 100 2500 1.29 76 09:20 21.11.2019
4007 Rain 11 1010 100 1800 1 30 08:43 21.11.2019
4008 Rain 11 1010 100 1800 1 30 08:22 21.11.2019
4009 Rain 11 1010 100 4000 0.5 0 07:44 21.11.2019
4010 Mist 11 1010 100 3000 1 20 07:19 21.11.2019
4011 Mist 11 1010 100 3000 1 20 06:58 21.11.2019
4012 Mist 11 1010 100 3500 1.49 24 06:34 21.11.2019
4013 Mist 11 1010 93 3500 1.5 160 05:42 21.11.2019
4014 Mist 11 1010 100 2700 1 40 03:36 21.11.2019
4015 Rain 11 1011 93 2400 0.5 0 02:42 21.11.2019
4016 Rain 11 1011 93 2400 0.5 0 02:23 21.11.2019
4017 Mist 11 1011 93 3100 1.09 49 01:47 21.11.2019
4018 Mist 11 1011 93 3500 1.04 37 01:20 21.11.2019
4019 Rain 11 1011 93 3500 1.5 160 00:38 21.11.2019
4020 Rain 11 1011 93 3500 1.5 160 00:20 21.11.2019
4021 Rain 11 1011 93 5000 0.5 0 23:46 20.11.2019
4022 Rain 11 1011 93 5000 0.5 0 23:21 20.11.2019
4023 Rain 11 1011 93 4500 3.1 320 22:58 20.11.2019
4024 Rain 11 1011 93 3500 1.3 103 22:38 20.11.2019
4025 Rain 11 1011 100 3000 1.3 103 22:19 20.11.2019
4026 Rain 11 1011 100 3000 1.3 103 21:58 20.11.2019
4027 Rain 11 1011 93 4000 1 80 21:39 20.11.2019
4028 Rain 11 1011 93 2500 1 0 21:20 20.11.2019
4029 Rain 11 1011 93 2500 1 0 20:57 20.11.2019
4030 Rain 11 1010 93 6000 1 0 20:39 20.11.2019
4031 Clouds 11 1010 93 6000 1 0 20:20 20.11.2019
4032 Clouds 11 1010 93 6000 1 0 19:56 20.11.2019
4033 Clouds 11 1010 93 6000 1 90 19:37 20.11.2019
4034 Clouds 11 1010 93 6000 1 90 19:18 20.11.2019
4035 Clouds 11 1010 93 7000 2.1 20 18:58 20.11.2019
4036 Clouds 11 1010 93 6000 3.1 350 18:39 20.11.2019
4037 Clouds 11 1010 93 6000 3.1 350 18:21 20.11.2019
4038 Drizzle 11 1010 93 5000 3.1 310 17:56 20.11.2019
4039 Drizzle 11 1010 93 5000 3.1 310 17:56 20.11.2019
4040 Clouds 11 1009 93 6000 1.5 20 17:38 20.11.2019
4041 Clouds 11 1009 93 6000 1.5 20 17:38 20.11.2019
4042 Clouds 11 1009 93 6000 1.5 20 17:38 20.11.2019
4043 Clouds 12 1009 93 6000 1.5 20 17:20 20.11.2019
4044 Rain 12 1009 100 5000 2.6 50 16:57 20.11.2019
4045 Rain 11 1009 93 4000 2.6 30 16:38 20.11.2019
4046 Rain 11 1009 93 4000 2.6 30 16:18 20.11.2019
4047 Rain 11 1009 100 4000 2.1 20 15:42 20.11.2019
4048 Rain 11 1009 100 4000 2.1 20 15:22 20.11.2019
4049 Rain 11 1009 100 3000 3.6 60 14:59 20.11.2019
4050 Rain 11 1010 87 6000 3.6 60 14:40 20.11.2019
4051 Rain 10 1010 87 6000 3.6 60 14:22 20.11.2019
4052 Thunderstorm 11 1010 87 9000 5.1 180 13:58 20.11.2019
4053 Rain 10 1011 100 5000 1 0 13:39 20.11.2019
4054 Rain 10 1011 100 5000 1 0 13:20 20.11.2019
4055 Rain 9 1011 93 8000 0.5 0 12:55 20.11.2019
4056 Rain 9 1012 93 4000 2.1 130 12:37 20.11.2019
4057 Rain 10 1012 93 4000 2.1 130 12:19 20.11.2019
4058 Rain 10 1012 87 10000 3.6 20 11:45 20.11.2019
4059 Clouds 9 1012 87 10000 3.6 20 11:22 20.11.2019
4060 Drizzle 9 1013 93 7000 3.1 40 10:56 20.11.2019
4061 Rain 8 1013 93 10000 2.6 20 10:38 20.11.2019
4062 Rain 8 1013 93 10000 2.6 20 10:20 20.11.2019
4063 Clouds 8 1013 93 8000 2.6 80 09:55 20.11.2019
4064 Clouds 8 1013 93 9000 1.5 0 09:37 20.11.2019
4065 Clouds 8 1013 93 9000 1.5 0 09:18 20.11.2019
4066 Rain 8 1013 93 9000 0.5 0 08:39 20.11.2019
4067 Rain 8 1013 93 9000 0.5 0 08:21 20.11.2019
4068 Rain 8 1013 93 9000 1.37 64 07:48 20.11.2019
4069 Clouds 7 1013 93 10000 1.37 64 07:28 20.11.2019
4070 Clouds 7 1013 93 7000 1.37 64 06:50 20.11.2019
4071 Clouds 7 1013 93 7000 1.37 64 06:22 20.11.2019
4072 Clouds 8 1013 93 9000 1.37 64 05:51 20.11.2019
4073 Clouds 8 1014 87 9000 2.1 40 03:52 20.11.2019
4074 Clouds 9 1015 87 9000 0.5 0 02:22 20.11.2019
4075 Clouds 9 1015 87 10000 1 0 01:34 20.11.2019
4076 Clouds 10 1015 87 10000 0.5 0 00:43 20.11.2019
4077 Clouds 10 1015 87 10000 1.5 40 23:59 19.11.2019
4078 Clouds 11 1016 87 10000 1.1 40 23:39 19.11.2019
4079 Clouds 11 1016 87 10000 0.58 287 23:20 19.11.2019
4080 Clouds 12 1015 81 10000 0.58 287 22:42 19.11.2019
4081 Clouds 12 1015 81 10000 0.58 287 22:19 19.11.2019
4082 Clouds 13 1016 76 10000 1 60 21:58 19.11.2019
4083 Clouds 13 1016 71 10000 1 40 21:38 19.11.2019
4084 Clouds 13 1016 71 10000 1 40 21:20 19.11.2019
4085 Clouds 13 1016 82 10000 1 0 20:58 19.11.2019
4086 Clouds 13 1016 71 10000 0.5 0 20:39 19.11.2019
4087 Clouds 13 1016 71 10000 0.5 0 20:21 19.11.2019
4088 Clouds 14 1016 62 10000 1.27 179 19:59 19.11.2019
4089 Clouds 14 1016 62 10000 1 0 19:41 19.11.2019
4090 Clouds 14 1016 62 10000 1 0 19:20 19.11.2019
4091 Clouds 14 1016 58 10000 1 20 18:57 19.11.2019
4092 Clouds 15 1015 55 10000 1.5 10 18:39 19.11.2019
4093 Clouds 15 1015 55 10000 1.5 10 18:18 19.11.2019
4094 Clouds 15 1015 51 10000 1.5 340 17:56 19.11.2019
4095 Clouds 15 1015 51 10000 1.5 340 17:56 19.11.2019
4096 Clouds 15 1016 55 10000 1 0 17:37 19.11.2019
4097 Clouds 16 1016 51 10000 1.5 300 17:19 19.11.2019
4098 Clouds 16 1016 51 10000 1.5 300 16:57 19.11.2019
4099 Clouds 16 1016 55 10000 1 0 16:38 19.11.2019
4100 Clouds 16 1016 55 10000 0.5 300 16:18 19.11.2019
4101 Clouds 16 1016 59 10000 1 0 15:44 19.11.2019
4102 Clouds 16 1016 54 10000 1 0 15:25 19.11.2019
4103 Clouds 15 1017 58 10000 1.5 360 14:57 19.11.2019
4104 Clouds 15 1017 58 10000 1.5 0 14:39 19.11.2019
4105 Clouds 14 1018 62 10000 2.1 360 14:20 19.11.2019
4106 Clouds 14 1018 62 10000 1.5 0 13:42 19.11.2019
4107 Clouds 14 1018 62 10000 1.5 0 13:42 19.11.2019
4108 Clouds 13 1018 62 10000 1.5 0 13:20 19.11.2019
4109 Clouds 13 1019 66 10000 2.1 50 12:42 19.11.2019
4110 Clouds 12 1019 66 10000 2.1 50 12:23 19.11.2019
4111 Clouds 11 1019 76 10000 1.5 60 11:59 19.11.2019
4112 Clouds 11 1019 76 10000 2.1 40 11:39 19.11.2019
4113 Clouds 10 1019 76 10000 2.1 40 11:20 19.11.2019
4114 Clouds 9 1019 81 10000 3.1 50 10:59 19.11.2019
4115 Clouds 9 1019 81 10000 3.6 20 10:40 19.11.2019
4116 Clouds 9 1019 81 10000 3.6 20 10:20 19.11.2019
4117 Clouds 8 1019 87 10000 3.1 20 09:43 19.11.2019
4118 Clouds 7 1019 93 10000 1.5 90 09:21 19.11.2019
4119 Clouds 7 1019 93 10000 1.5 90 08:57 19.11.2019
4120 Clouds 7 1019 93 10000 1 0 08:38 19.11.2019
4121 Clouds 7 1019 93 10000 1 0 08:20 19.11.2019
4122 Clouds 7 1018 93 10000 1 0 07:42 19.11.2019
4123 Clouds 7 1018 93 10000 1 0 07:23 19.11.2019
4124 Clouds 7 1018 93 10000 2.1 50 06:55 19.11.2019
4125 Clouds 7 1018 93 10000 2.1 30 06:36 19.11.2019
4126 Clouds 8 1018 87 10000 1.5 30 05:52 19.11.2019
4127 Clouds 8 1018 87 10000 1.65 43 05:18 19.11.2019
4128 Clouds 9 1018 87 10000 1 0 03:39 19.11.2019
4129 Clouds 9 1018 87 10000 1 0 03:19 19.11.2019
4130 Clouds 9 1018 93 10000 1 120 02:39 19.11.2019
4131 Clouds 9 1018 87 10000 1.5 150 01:48 19.11.2019
4132 Clouds 10 1019 81 10000 1.5 350 00:46 19.11.2019
4133 Clouds 10 1019 81 10000 1.5 350 00:19 19.11.2019
4134 Clouds 10 1019 76 10000 1 0 23:39 18.11.2019
4135 Clear 10 1019 71 10000 1 0 23:19 18.11.2019
4136 Clear 10 1018 76 10000 0.5 0 22:46 18.11.2019
4137 Clear 10 1018 76 10000 0.5 0 22:24 18.11.2019
4138 Clear 10 1018 71 10000 2.1 270 21:58 18.11.2019
4139 Clear 11 1018 71 10000 0.5 290 21:40 18.11.2019
4140 Clear 11 1018 71 10000 0.5 290 21:21 18.11.2019
4141 Clear 12 1018 71 10000 1.5 140 20:59 18.11.2019
4142 Clear 12 1018 71 10000 1.5 140 20:59 18.11.2019
4143 Clear 12 1017 66 10000 1.5 190 20:40 18.11.2019
4144 Clouds 13 1017 54 10000 2.1 220 20:19 18.11.2019
4145 Clear 13 1017 58 10000 2.6 190 19:57 18.11.2019
4146 Clear 13 1017 71 10000 2.1 130 19:38 18.11.2019
4147 Clear 13 1017 71 10000 2.1 130 19:20 18.11.2019
4148 Clear 14 1016 54 10000 1.5 160 18:56 18.11.2019
4149 Clear 15 1016 51 10000 0.5 0 18:38 18.11.2019
4150 Clear 15 1016 51 10000 0.5 0 18:19 18.11.2019
4151 Clear 16 1016 39 10000 1 0 17:56 18.11.2019
4152 Clear 16 1016 45 10000 0.5 310 17:37 18.11.2019
4153 Clear 17 1016 45 10000 1 260 17:19 18.11.2019
4154 Clear 17 1016 42 10000 0.5 110 16:42 18.11.2019
4155 Clear 17 1016 42 10000 0.5 110 16:24 18.11.2019
4156 Clear 17 1016 45 10000 1 0 15:58 18.11.2019
4157 Clouds 16 1016 48 10000 1.5 0 15:40 18.11.2019
4158 Clouds 16 1016 48 10000 1.5 0 15:20 18.11.2019
4159 Clear 16 1016 51 10000 1 130 14:58 18.11.2019
4160 Clouds 16 1016 48 10000 2.6 50 14:38 18.11.2019
4161 Clouds 16 1016 48 10000 2.6 50 14:18 18.11.2019
4162 Clear 15 1016 51 10000 2.6 20 13:42 18.11.2019
4163 Clear 15 1016 51 10000 2.6 20 13:24 18.11.2019
4164 Clear 14 1017 58 10000 2.6 20 12:43 18.11.2019
4165 Clear 14 1017 58 10000 2.6 20 12:20 18.11.2019
4166 Clear 13 1017 66 10000 2.1 330 11:58 18.11.2019
4167 Clear 12 1017 58 10000 2.1 340 11:40 18.11.2019
4168 Clear 12 1017 58 10000 2.1 340 11:22 18.11.2019
4169 Clear 11 1016 76 10000 1 0 10:44 18.11.2019
4170 Clear 11 1016 76 10000 1 0 10:26 18.11.2019
4171 Clear 9 1016 76 10000 3.6 310 09:58 18.11.2019
4172 Clear 9 1016 87 10000 2.1 220 09:38 18.11.2019
4173 Clear 9 1016 87 10000 2.1 220 09:20 18.11.2019
4174 Clear 8 1015 81 10000 4.1 300 08:57 18.11.2019
4175 Clear 8 1015 93 10000 1.5 210 08:39 18.11.2019
4176 Clouds 8 1014 81 10000 3.6 280 08:19 18.11.2019
4177 Clouds 8 1014 81 10000 1 250 07:45 18.11.2019
4178 Clouds 8 1014 81 10000 1 250 07:25 18.11.2019
4179 Clouds 9 1014 81 10000 2.1 270 06:49 18.11.2019
4180 Clouds 9 1013 81 10000 4.6 280 06:28 18.11.2019
4181 Clouds 10 1013 76 10000 6.2 300 05:45 18.11.2019
4182 Rain 12 1012 76 10000 7.2 290 04:28 18.11.2019
4183 Rain 15 1012 93 8000 1 220 01:47 18.11.2019
4184 Rain 15 1013 93 7000 2.1 350 01:25 18.11.2019
4185 Clouds 14 1014 82 10000 5.7 240 00:20 18.11.2019
4186 Clouds 14 1015 87 10000 6.2 230 23:41 17.11.2019
4187 Clouds 14 1015 87 10000 6.2 230 23:23 17.11.2019
4188 Clouds 15 1014 77 10000 5.1 250 22:57 17.11.2019
4189 Clouds 15 1014 82 10000 6.2 250 22:39 17.11.2019
4190 Clouds 15 1014 82 10000 6.2 250 22:21 17.11.2019
4191 Clouds 15 1014 87 10000 3.6 240 21:57 17.11.2019
4192 Clouds 15 1014 87 10000 3.6 240 21:57 17.11.2019
4193 Clouds 15 1015 87 10000 3.6 240 21:39 17.11.2019
4194 Clouds 14 1015 87 10000 3.6 240 21:18 17.11.2019
4195 Clouds 15 1015 87 10000 4.1 230 20:55 17.11.2019
4196 Clouds 15 1016 87 10000 6.7 230 20:37 17.11.2019
4197 Clouds 14 1015 93 8000 1.5 260 20:18 17.11.2019
4198 Clouds 14 1015 87 6000 0.5 230 19:55 17.11.2019
4199 Clouds 14 1015 93 6000 1.5 320 19:37 17.11.2019
4200 Clouds 14 1015 93 6000 1.5 320 19:37 17.11.2019
4201 Clouds 14 1015 93 6000 1.5 320 19:19 17.11.2019
4202 Clouds 14 1016 93 6000 1 0 18:54 17.11.2019
4203 Clouds 14 1016 93 7000 1.5 40 18:36 17.11.2019
4204 Clouds 14 1016 93 7000 1.5 40 18:36 17.11.2019
4205 Clouds 14 1016 93 9000 1.5 360 18:18 17.11.2019
4206 Clouds 14 1016 93 9000 1.5 360 17:57 17.11.2019
4207 Clouds 14 1016 93 8000 1 0 17:38 17.11.2019
4208 Clouds 13 1016 93 8000 1 0 17:19 17.11.2019
4209 Clouds 14 1016 87 8000 1 0 16:55 17.11.2019
4210 Clouds 13 1017 93 6000 2.6 10 16:37 17.11.2019
4211 Clouds 13 1017 93 6000 2.6 10 16:19 17.11.2019
4212 Clouds 13 1017 93 6000 1 0 15:54 17.11.2019
4213 Clouds 13 1017 93 6000 1 0 15:54 17.11.2019
4214 Clouds 13 1017 93 6000 1 0 15:54 17.11.2019
4215 Mist 13 1018 100 5000 1.5 340 15:36 17.11.2019
4216 Mist 12 1018 100 5000 1.5 340 15:18 17.11.2019
4217 Mist 12 1018 100 5000 1.5 340 15:18 17.11.2019
4218 Mist 12 1018 100 5000 0.5 210 14:54 17.11.2019
4219 Drizzle 12 1019 93 4000 0.5 290 14:36 17.11.2019
4220 Drizzle 11 1019 93 4000 0.5 290 14:18 17.11.2019
4221 Mist 10 1020 93 5000 1.5 290 13:41 17.11.2019
4222 Mist 9 1020 93 5000 1.5 290 13:21 17.11.2019
4223 Rain 9 1020 93 5000 1 240 12:59 17.11.2019
4224 Drizzle 9 1020 93 2000 5.1 210 12:38 17.11.2019
4225 Drizzle 9 1020 93 2000 5.1 210 12:19 17.11.2019
4226 Drizzle 8 1021 93 2500 1 0 11:55 17.11.2019
4227 Drizzle 9 1021 93 2500 0.5 190 11:37 17.11.2019
4228 Drizzle 8 1021 93 3000 1.5 170 11:18 17.11.2019
4229 Drizzle 8 1021 93 5000 1.5 140 10:41 17.11.2019
4230 Drizzle 8 1021 93 5000 1.5 140 10:22 17.11.2019
4231 Mist 7 1021 87 5000 2.1 220 09:43 17.11.2019
4232 Rain 7 1021 87 5000 2.1 220 09:24 17.11.2019
4233 Rain 7 1020 81 5000 2.1 220 08:58 17.11.2019
4234 Rain 7 1020 75 10000 1.5 160 08:37 17.11.2019
4235 Rain 7 1020 75 10000 1.5 160 08:19 17.11.2019
4236 Clouds 7 1020 75 10000 1 0 07:45 17.11.2019
4237 Clouds 7 1020 75 10000 1 0 07:22 17.11.2019
4238 Clouds 7 1020 81 10000 1.5 170 06:56 17.11.2019
4239 Clouds 7 1019 87 10000 1 170 06:30 17.11.2019
4240 Clouds 7 1020 81 10000 1 100 05:39 17.11.2019
4241 Clouds 6 1020 75 10000 1 230 04:20 17.11.2019
4242 Clouds 6 1020 68 10000 1 0 03:42 17.11.2019
4243 Clouds 6 1020 68 10000 1 0 03:23 17.11.2019
4244 Clouds 7 1020 75 10000 0.5 0 02:25 17.11.2019
4245 Clear 7 1020 58 10000 0.5 0 01:25 17.11.2019
4246 Clear 8 1020 58 10000 0.5 0 00:49 17.11.2019
4247 Clear 8 1020 70 10000 1 0 00:22 17.11.2019
4248 Clear 8 1020 58 10000 0.5 230 23:43 16.11.2019
4249 Clear 8 1020 52 10000 0.5 230 23:20 16.11.2019
4250 Clear 8 1020 52 10000 1.95 335 22:59 16.11.2019
4251 Clear 9 1020 43 10000 1 350 22:40 16.11.2019
4252 Clear 9 1020 43 10000 1 350 22:18 16.11.2019
4253 Clear 10 1019 52 10000 3.6 300 21:42 16.11.2019
4254 Clear 10 1019 52 10000 3.6 300 21:23 16.11.2019
4255 Clear 10 1019 53 10000 1.5 250 20:59 16.11.2019
4256 Clear 10 1019 54 10000 1 0 20:41 16.11.2019
4257 Clear 11 1019 54 10000 1 0 20:20 16.11.2019
4258 Clear 12 1018 50 10000 1.5 180 19:57 16.11.2019
4259 Clear 12 1018 47 10000 2.6 200 19:38 16.11.2019
4260 Clear 13 1018 47 10000 2.6 200 19:20 16.11.2019
4261 Clear 13 1018 42 10000 2.6 200 18:45 16.11.2019
4262 Clear 14 1018 42 10000 2.6 200 18:27 16.11.2019
4263 Clear 14 1018 42 10000 2.6 200 17:56 16.11.2019
4264 Clear 15 1018 42 10000 2.6 200 17:56 16.11.2019
4265 Clear 15 1017 42 10000 2.6 210 17:38 16.11.2019
4266 Clear 15 1017 25 10000 2.6 210 17:19 16.11.2019
4267 Clear 15 1017 25 10000 2.1 240 16:47 16.11.2019
4268 Clear 16 1017 25 10000 2.1 240 16:29 16.11.2019
4269 Clear 15 1017 25 10000 2.1 190 15:58 16.11.2019
4270 Clear 15 1017 25 10000 1 260 15:39 16.11.2019
4271 Clear 15 1017 25 10000 1 260 15:20 16.11.2019
4272 Clear 15 1017 25 10000 1 260 15:20 16.11.2019
4273 Clear 14 1017 25 10000 1 0 14:57 16.11.2019
4274 Clear 14 1017 43 10000 1 0 14:38 16.11.2019
4275 Clear 14 1017 43 10000 1 0 14:19 16.11.2019
4276 Clear 13 1017 43 10000 1.5 360 13:54 16.11.2019
4277 Clear 13 1017 43 10000 1.5 360 13:54 16.11.2019
4278 Clear 13 1018 46 10000 1.5 270 13:36 16.11.2019
4279 Clear 13 1018 46 10000 1.5 270 13:18 16.11.2019
4280 Clear 12 1018 50 10000 2.1 40 12:42 16.11.2019
4281 Clear 11 1018 50 10000 2.1 40 12:22 16.11.2019
4282 Clear 11 1018 50 10000 2.1 330 11:56 16.11.2019
4283 Clear 10 1018 53 10000 1 320 11:38 16.11.2019
4284 Clear 10 1018 61 10000 1 0 11:19 16.11.2019
4285 Clear 9 1017 61 10000 0.5 0 10:43 16.11.2019
4286 Clear 9 1017 61 10000 0.5 0 10:25 16.11.2019
4287 Clear 8 1017 65 10000 0.5 0 09:58 16.11.2019
4288 Clear 7 1016 75 10000 0.5 0 09:40 16.11.2019
4289 Clear 6 1016 75 10000 0.5 0 09:19 16.11.2019
4290 Clear 5 1015 60 10000 0.5 270 08:41 16.11.2019
4291 Clear 4 1015 74 10000 1 0 08:20 16.11.2019
4292 Clear 4 1014 74 10000 1.93 328 07:46 16.11.2019
4293 Clear 5 1014 74 10000 1.93 328 07:22 16.11.2019
4294 Clear 5 1014 86 10000 1.93 328 06:59 16.11.2019
4295 Clear 5 1014 86 10000 1.93 328 06:59 16.11.2019
4296 Clear 5 1014 86 10000 1.93 328 06:59 16.11.2019
4297 Clear 5 1013 74 10000 1.93 328 06:41 16.11.2019
4298 Clear 5 1013 74 10000 1.93 328 06:20 16.11.2019
4299 Clear 5 1012 70 10000 2.22 331 04:34 16.11.2019
4300 Clear 5 1012 70 10000 0.5 0 03:26 16.11.2019
4301 Clear 6 1012 70 10000 1.5 280 02:36 16.11.2019
4302 Clear 6 1012 70 10000 1.5 280 02:36 16.11.2019
4303 Clear 6 1011 64 10000 2.4 329 01:38 16.11.2019
4304 Clear 7 1011 64 10000 2.6 310 00:51 16.11.2019
4305 Clear 7 1011 64 10000 2.6 310 00:31 16.11.2019
4306 Clear 7 1011 64 10000 3.1 300 23:58 15.11.2019
4307 Clear 7 1011 64 10000 3.6 290 23:38 15.11.2019
4308 Clear 8 1011 51 10000 3.6 290 23:20 15.11.2019
4309 Clear 8 1010 51 10000 3.6 290 22:42 15.11.2019
4310 Clear 9 1010 51 10000 3.6 290 22:20 15.11.2019
4311 Clear 10 1010 51 10000 3.1 300 21:58 15.11.2019
4312 Clear 10 1010 51 10000 3.1 290 21:40 15.11.2019
4313 Clear 10 1010 51 10000 3.1 310 21:20 15.11.2019
4314 Clear 10 1010 51 10000 3.1 310 20:57 15.11.2019
4315 Clear 11 1009 51 10000 3.1 310 20:39 15.11.2019
4316 Clouds 11 1009 38 10000 3.1 310 20:20 15.11.2019
4317 Clouds 11 1009 50 10000 1 0 19:57 15.11.2019
4318 Clouds 11 1009 50 10000 1.5 120 19:39 15.11.2019
4319 Clouds 11 1009 50 10000 1.5 120 19:20 15.11.2019
4320 Clouds 12 1009 41 10000 1.5 80 18:57 15.11.2019
4321 Clouds 13 1008 41 10000 2.6 60 18:39 15.11.2019
4322 Clouds 13 1008 38 10000 2.1 10 18:21 15.11.2019
4323 Clouds 14 1008 38 10000 2.1 10 17:42 15.11.2019
4324 Clouds 14 1008 38 10000 2.1 10 17:24 15.11.2019
4325 Clouds 14 1008 36 10000 2.6 340 16:57 15.11.2019
4326 Clouds 14 1008 36 10000 6.2 350 16:38 15.11.2019
4327 Clouds 14 1008 35 10000 5.1 330 16:19 15.11.2019
4328 Clouds 14 1008 36 10000 1.5 0 15:39 15.11.2019
4329 Clouds 14 1008 36 10000 1.5 0 15:20 15.11.2019
4330 Clouds 14 1008 33 10000 5.7 310 14:57 15.11.2019
4331 Clouds 14 1009 36 10000 1.5 0 14:38 15.11.2019
4332 Clouds 14 1009 31 10000 1.5 0 14:20 15.11.2019
4333 Clouds 13 1009 31 10000 4.1 290 13:58 15.11.2019
4334 Clouds 13 1010 43 10000 1 0 13:40 15.11.2019
4335 Clouds 13 1010 47 10000 1.5 270 13:21 15.11.2019
4336 Clouds 13 1010 47 10000 1.5 270 12:59 15.11.2019
4337 Clouds 12 1011 57 10000 2.1 240 12:40 15.11.2019
4338 Clouds 12 1011 57 10000 2.1 240 12:20 15.11.2019
4339 Clouds 12 1011 58 10000 2.6 240 11:59 15.11.2019
4340 Clouds 11 1011 66 10000 2.6 180 11:39 15.11.2019
4341 Clouds 11 1011 66 10000 2.6 180 11:21 15.11.2019
4342 Clouds 9 1011 71 10000 2.6 200 10:57 15.11.2019
4343 Clouds 9 1011 75 10000 1.5 0 10:39 15.11.2019
4344 Clouds 8 1011 81 10000 3.1 200 10:18 15.11.2019
4345 Clouds 8 1010 81 10000 3.1 200 09:41 15.11.2019
4346 Clouds 7 1010 81 10000 3.6 200 09:20 15.11.2019
4347 Clouds 7 1010 87 10000 1 220 08:45 15.11.2019
4348 Clouds 7 1010 87 10000 1 220 08:25 15.11.2019
4349 Clouds 7 1009 75 10000 3.1 220 07:54 15.11.2019
4350 Clouds 7 1010 86 10000 1.5 220 07:36 15.11.2019
4351 Clouds 7 1010 86 10000 1.5 220 07:18 15.11.2019
4352 Clouds 8 1009 70 10000 4.1 230 06:34 15.11.2019
4353 Clouds 8 1009 70 10000 2.6 250 05:52 15.11.2019
4354 Clouds 8 1009 70 10000 2.6 250 05:52 15.11.2019
4355 Clouds 8 1009 70 10000 2.1 250 05:28 15.11.2019
4356 Clouds 9 1009 66 10000 4.6 260 04:42 15.11.2019
4357 Clouds 9 1010 66 10000 6.2 260 03:37 15.11.2019
4358 Clouds 10 1010 66 10000 5.1 260 02:32 15.11.2019
4359 Clouds 10 1010 66 10000 4.6 260 01:48 15.11.2019
4360 Clouds 10 1010 62 10000 4.6 260 01:24 15.11.2019
4361 Clouds 10 1010 62 10000 4.6 260 01:24 15.11.2019
4362 Clouds 10 1010 71 10000 4.6 270 00:40 15.11.2019
4363 Clouds 11 1011 81 10000 3.6 210 00:20 15.11.2019
4364 Clouds 11 1010 66 10000 4.1 250 23:45 14.11.2019
4365 Clouds 11 1010 66 10000 4.1 250 23:25 14.11.2019
4366 Clouds 11 1010 66 10000 4.1 250 22:41 14.11.2019
4367 Clouds 11 1010 66 10000 4.1 250 22:22 14.11.2019
4368 Clouds 11 1010 62 10000 4.6 230 21:58 14.11.2019
4369 Clouds 11 1010 62 10000 4.6 230 21:58 14.11.2019
4370 Clouds 11 1010 58 10000 4.6 260 21:40 14.11.2019
4371 Clouds 11 1010 58 10000 4.6 260 21:21 14.11.2019
4372 Clouds 12 1010 58 10000 4.6 270 20:55 14.11.2019
4373 Clouds 12 1011 66 10000 4.1 250 20:37 14.11.2019
4374 Clouds 12 1010 58 10000 5.7 270 20:18 14.11.2019
4375 Clouds 13 1010 58 10000 5.7 270 19:54 14.11.2019
4376 Clouds 13 1010 58 10000 6.7 270 19:36 14.11.2019
4377 Clouds 13 1009 54 10000 6.2 270 19:18 14.11.2019
4378 Clouds 13 1009 54 10000 6.2 270 19:18 14.11.2019
4379 Clouds 13 1010 54 10000 5.7 280 18:42 14.11.2019
4380 Clouds 14 1010 54 10000 5.7 280 18:22 14.11.2019
4381 Clouds 14 1010 54 10000 5.7 280 17:57 14.11.2019
4382 Clouds 14 1009 47 10000 8.2 280 17:38 14.11.2019
4383 Clouds 15 1009 47 10000 9.8 280 17:20 14.11.2019
4384 Rain 15 1009 47 10000 9.8 280 16:58 14.11.2019
4385 Rain 14 1009 54 10000 5.7 290 16:37 14.11.2019
4386 Rain 14 1009 54 10000 5.7 290 16:19 14.11.2019
4387 Clouds 14 1010 50 10000 8.7 330 15:58 14.11.2019
4388 Clouds 14 1010 54 10000 2.6 290 15:38 14.11.2019
4389 Clouds 15 1010 54 10000 2.6 290 15:20 14.11.2019
4390 Clouds 15 1010 58 10000 8.2 300 14:55 14.11.2019
4391 Clouds 15 1010 58 10000 8.2 300 14:55 14.11.2019
4392 Clouds 14 1010 58 10000 3.1 300 14:37 14.11.2019
4393 Clouds 14 1010 58 10000 3.1 300 14:18 14.11.2019
4394 Rain 14 1010 67 10000 4.6 270 13:41 14.11.2019
4395 Rain 14 1010 67 10000 4.6 270 13:22 14.11.2019
4396 Rain 14 1011 76 9000 8.7 320 12:57 14.11.2019
4397 Clouds 15 1011 72 10000 4.1 250 12:38 14.11.2019
4398 Clouds 14 1011 72 10000 4.1 250 12:20 14.11.2019
4399 Clouds 14 1011 72 10000 6.2 250 11:55 14.11.2019
4400 Clouds 14 1012 76 10000 5.1 250 11:36 14.11.2019
4401 Clouds 14 1012 76 10000 5.1 250 11:18 14.11.2019
4402 Clouds 14 1012 72 10000 7.2 250 10:56 14.11.2019
4403 Clouds 14 1012 72 10000 7.2 250 10:56 14.11.2019
4404 Clouds 14 1012 82 10000 3.1 220 10:37 14.11.2019
4405 Clouds 14 1012 82 10000 3.1 220 10:37 14.11.2019
4406 Clouds 14 1012 82 10000 3.1 220 10:19 14.11.2019
4407 Clouds 14 1012 82 10000 3.1 220 10:19 14.11.2019
4408 Clouds 13 1012 87 10000 2.6 230 09:42 14.11.2019
4409 Clouds 11 1012 87 10000 2.6 230 09:23 14.11.2019
4410 Clouds 11 1012 87 10000 3.1 230 08:58 14.11.2019
4411 Clouds 11 1012 87 10000 3.1 230 08:39 14.11.2019
4412 Clouds 11 1012 87 10000 3.1 230 08:21 14.11.2019
4413 Clouds 11 1013 93 10000 1.5 0 07:42 14.11.2019
4414 Clouds 11 1013 93 10000 1.5 0 07:23 14.11.2019
4415 Clouds 10 1013 87 10000 4.1 210 06:46 14.11.2019
4416 Clouds 10 1013 87 10000 4.1 210 06:20 14.11.2019
4417 Clouds 11 1013 76 10000 2.1 240 05:38 14.11.2019
4418 Clear 11 1014 76 10000 3.1 270 04:38 14.11.2019
4419 Clear 13 1015 76 10000 4.6 270 03:28 14.11.2019
4420 Clear 13 1015 82 10000 4.6 280 02:38 14.11.2019
4421 Clear 14 1015 77 10000 4.1 280 01:41 14.11.2019
4422 Clear 14 1015 77 10000 3.6 250 00:57 14.11.2019
4423 Clear 14 1015 77 10000 4.1 250 00:38 14.11.2019
4424 Clear 14 1015 77 10000 4.1 250 00:19 14.11.2019
4425 Clear 14 1015 82 10000 3.6 210 23:38 13.11.2019
4426 Clear 14 1015 82 10000 3.6 210 23:20 13.11.2019
4427 Clear 15 1016 77 10000 2.6 220 22:55 13.11.2019
4428 Clouds 15 1016 77 10000 3.1 220 22:37 13.11.2019
4429 Clouds 16 1016 77 10000 3.1 220 22:19 13.11.2019
4430 Clouds 16 1015 72 10000 3.1 220 21:55 13.11.2019
4431 Clouds 16 1015 67 10000 3.6 210 21:36 13.11.2019
4432 Clouds 17 1015 67 10000 3.6 210 21:18 13.11.2019
4433 Clouds 17 1015 59 10000 2.1 260 20:55 13.11.2019
4434 Clouds 18 1015 59 10000 4.1 280 20:37 13.11.2019
4435 Clouds 18 1015 55 10000 4.1 270 20:18 13.11.2019
4436 Clouds 18 1015 49 10000 4.1 280 19:42 13.11.2019
4437 Clouds 19 1015 49 10000 4.1 280 19:19 13.11.2019
4438 Clouds 19 1015 52 10000 4.1 260 18:56 13.11.2019
4439 Clouds 19 1015 52 10000 4.1 260 18:56 13.11.2019
4440 Clouds 19 1015 49 10000 4.6 260 18:38 13.11.2019
4441 Clouds 19 1015 49 10000 4.6 260 18:19 13.11.2019
4442 Clouds 19 1015 49 10000 4.6 260 18:19 13.11.2019
4443 Clouds 20 1014 43 10000 5.1 260 17:57 13.11.2019
4444 Clouds 21 1014 43 10000 5.1 260 17:38 13.11.2019
4445 Clouds 21 1014 43 10000 5.1 260 17:19 13.11.2019
4446 Clouds 21 1014 43 10000 3.6 240 16:58 13.11.2019
4447 Clouds 21 1014 43 10000 4.1 280 16:39 13.11.2019
4448 Clouds 21 1014 43 10000 4.1 280 16:21 13.11.2019
4449 Clouds 21 1014 46 10000 4.6 260 15:57 13.11.2019
4450 Clouds 21 1015 52 10000 3.6 250 15:38 13.11.2019
4451 Clouds 21 1015 52 10000 3.6 250 15:20 13.11.2019
4452 Clouds 20 1015 63 10000 2.1 280 14:42 13.11.2019
4453 Clouds 19 1015 63 10000 2.1 280 14:21 13.11.2019
4454 Clouds 19 1015 63 10000 5.7 280 13:57 13.11.2019
4455 Clouds 19 1016 68 10000 3.1 260 13:36 13.11.2019
4456 Clouds 18 1016 77 10000 4.6 260 13:18 13.11.2019
4457 Clouds 18 1016 77 10000 3.6 250 12:43 13.11.2019
4458 Clouds 17 1016 77 10000 3.6 250 12:25 13.11.2019
4459 Clouds 18 1016 77 10000 3.6 250 12:25 13.11.2019
4460 Clouds 17 1016 68 10000 5.7 260 11:59 13.11.2019
4461 Clouds 17 1016 72 10000 4.1 240 11:39 13.11.2019
4462 Clouds 17 1016 72 10000 4.1 240 11:19 13.11.2019
4463 Clouds 17 1016 72 10000 4.1 240 11:19 13.11.2019
4464 Clouds 17 1016 72 10000 4.1 240 11:19 13.11.2019
4465 Clouds 17 1016 72 10000 3.1 220 10:58 13.11.2019
4466 Clouds 17 1016 77 10000 3.6 240 10:39 13.11.2019
4467 Clouds 16 1016 82 10000 2.1 230 10:19 13.11.2019
4468 Clouds 15 1015 82 10000 3.1 230 09:45 13.11.2019
4469 Clouds 15 1015 82 10000 3.1 230 09:22 13.11.2019
4470 Drizzle 14 1015 82 10000 4.6 230 08:57 13.11.2019
4471 Clouds 14 1015 87 10000 3.1 220 08:36 13.11.2019
4472 Clouds 14 1015 87 10000 3.1 220 08:18 13.11.2019
4473 Clouds 14 1015 87 10000 2.6 210 07:42 13.11.2019
4474 Clouds 14 1015 87 10000 2.6 210 07:20 13.11.2019
4475 Clouds 14 1015 82 10000 5.7 230 06:46 13.11.2019
4476 Clouds 14 1015 82 10000 5.7 230 06:19 13.11.2019
4477 Clouds 14 1015 82 10000 5.7 230 06:19 13.11.2019
4478 Clouds 14 1015 82 10000 5.1 230 05:53 13.11.2019
4479 Clouds 14 1015 77 10000 5.7 230 05:31 13.11.2019
4480 Clouds 14 1015 77 10000 6.2 240 04:43 13.11.2019
4481 Clouds 13 1016 72 10000 4.6 240 02:19 13.11.2019
4482 Clouds 13 1016 63 10000 4.6 260 01:44 13.11.2019
4483 Clouds 13 1017 62 10000 2.6 260 00:44 13.11.2019
4484 Clouds 13 1017 62 10000 2.6 260 00:26 13.11.2019
4485 Clear 13 1017 58 10000 3.1 280 23:42 12.11.2019
4486 Clear 13 1017 58 10000 3.1 280 23:42 12.11.2019
4487 Clear 13 1017 58 10000 3.1 280 23:21 12.11.2019
4488 Clear 13 1017 58 10000 3.1 280 22:55 12.11.2019
4489 Clear 13 1016 54 10000 2.6 280 22:37 12.11.2019
4490 Clear 13 1016 54 10000 2.6 280 22:18 12.11.2019
4491 Clear 14 1016 48 10000 1.5 310 21:43 12.11.2019
4492 Clear 14 1016 48 10000 1.5 310 21:24 12.11.2019
4493 Clear 15 1016 44 10000 3.6 310 20:57 12.11.2019
4494 Clear 15 1016 42 10000 2.1 320 20:37 12.11.2019
4495 Clear 16 1016 42 10000 2.1 320 20:19 12.11.2019
4496 Clear 16 1016 39 10000 3.1 310 19:57 12.11.2019
4497 Clear 17 1016 34 10000 2.1 10 19:39 12.11.2019
4498 Clear 17 1016 34 10000 2.1 10 19:19 12.11.2019
4499 Clear 17 1015 32 10000 2.1 50 18:59 12.11.2019
4500 Clear 18 1015 30 10000 2.6 40 18:40 12.11.2019
4501 Clear 19 1015 30 10000 2.6 40 18:22 12.11.2019
4502 Clear 20 1015 28 10000 2.6 360 17:57 12.11.2019
4503 Clear 20 1015 30 10000 3.1 350 17:39 12.11.2019
4504 Clear 20 1015 30 10000 3.1 350 17:21 12.11.2019
4505 Clear 20 1015 30 10000 3.1 350 17:21 12.11.2019
4506 Clear 20 1015 30 10000 2.6 340 16:57 12.11.2019
4507 Clear 20 1015 30 10000 2.6 280 16:39 12.11.2019
4508 Clear 20 1015 30 10000 2.6 280 16:20 12.11.2019
4509 Clear 20 1016 45 10000 1.5 0 15:41 12.11.2019
4510 Clear 20 1016 45 10000 1.5 0 15:21 12.11.2019
4511 Clear 20 1016 39 10000 1 270 14:56 12.11.2019
4512 Clear 19 1017 42 10000 1 0 14:37 12.11.2019
4513 Clear 19 1017 42 10000 1 0 14:19 12.11.2019
4514 Clear 18 1017 45 10000 2.1 290 13:56 12.11.2019
4515 Clear 18 1017 55 10000 1 0 13:37 12.11.2019
4516 Clear 17 1017 55 10000 1 0 13:18 12.11.2019
4517 Clear 17 1018 63 10000 0.5 0 12:42 12.11.2019
4518 Clear 17 1018 63 10000 0.5 0 12:42 12.11.2019
4519 Clear 16 1018 63 10000 0.5 0 12:20 12.11.2019
4520 Clear 15 1018 62 10000 1.5 360 11:59 12.11.2019
4521 Clear 15 1018 71 10000 1.5 0 11:40 12.11.2019
4522 Clear 14 1018 71 10000 1.5 0 11:21 12.11.2019
4523 Mist 13 1018 100 3000 2.69 2 10:56 12.11.2019
4524 Mist 13 1018 93 5000 0.5 0 10:37 12.11.2019
4525 Mist 12 1018 93 5000 0.5 0 10:19 12.11.2019
4526 Fog 11 1017 93 600 2.69 2 09:42 12.11.2019
4527 Fog 11 1017 93 600 2.97 356 09:21 12.11.2019
4528 Fog 10 1017 100 800 0.5 0 08:54 12.11.2019
4529 Mist 10 1017 93 3000 1.5 220 08:36 12.11.2019
4530 Fog 9 1017 100 1200 1.68 355 08:18 12.11.2019
4531 Clouds 9 1016 100 10000 1.68 355 07:40 12.11.2019
4532 Clouds 9 1016 100 10000 1.68 355 07:40 12.11.2019
4533 Clouds 9 1016 100 10000 1.68 355 07:20 12.11.2019
4534 Fog 10 1016 93 700 1 360 06:42 12.11.2019
4535 Fog 10 1016 93 700 1 360 06:22 12.11.2019
4536 Clouds 10 1016 93 10000 1.68 355 05:46 12.11.2019
4537 Clouds 11 1017 87 10000 2.1 310 04:46 12.11.2019
4538 Clouds 11 1017 87 10000 2.1 40 03:40 12.11.2019
4539 Clouds 13 1017 87 10000 0.5 0 01:47 12.11.2019
4540 Clouds 13 1017 87 10000 0.5 0 01:22 12.11.2019
4541 Clouds 13 1017 87 10000 2.1 340 00:47 12.11.2019
4542 Clouds 14 1017 82 10000 1 360 00:28 12.11.2019
4543 Clouds 14 1017 82 10000 1.5 310 23:44 11.11.2019
4544 Clouds 15 1017 82 10000 1.5 310 23:23 11.11.2019
4545 Clouds 15 1017 77 10000 1.5 320 22:57 11.11.2019
4546 Clouds 14 1017 82 10000 1 0 22:36 11.11.2019
4547 Clouds 15 1017 82 10000 1 0 22:18 11.11.2019
4548 Clouds 15 1017 77 10000 1 290 21:57 11.11.2019
4549 Clouds 16 1016 72 10000 2.1 290 21:38 11.11.2019
4550 Clouds 16 1016 72 10000 2.1 290 21:19 11.11.2019
4551 Clouds 17 1017 72 10000 2.6 310 20:42 11.11.2019
4552 Clouds 17 1017 72 10000 2.6 310 20:20 11.11.2019
4553 Clouds 17 1016 68 10000 3.1 290 19:59 11.11.2019
4554 Clouds 17 1016 68 10000 2.1 300 19:41 11.11.2019
4555 Clouds 18 1016 68 10000 2.1 300 19:19 11.11.2019
4556 Clouds 18 1016 68 10000 1.5 270 18:56 11.11.2019
4557 Clouds 18 1016 68 10000 1.5 280 18:38 11.11.2019
4558 Clouds 18 1016 68 10000 1.5 280 18:19 11.11.2019
4559 Clouds 19 1016 68 10000 3.1 230 17:42 11.11.2019
4560 Clouds 19 1016 68 10000 3.1 230 17:24 11.11.2019
4561 Clouds 18 1016 72 10000 3.6 220 16:44 11.11.2019
4562 Clouds 18 1016 72 10000 3.6 220 16:24 11.11.2019
4563 Clouds 17 1017 77 10000 2.6 230 15:59 11.11.2019
4564 Clouds 17 1017 77 10000 3.1 210 15:41 11.11.2019
4565 Clouds 17 1017 77 10000 3.1 210 15:20 11.11.2019
4566 Clouds 16 1018 77 10000 2.1 210 14:45 11.11.2019
4567 Clouds 16 1018 77 10000 2.1 210 14:45 11.11.2019
4568 Clouds 16 1018 77 10000 2.1 210 14:26 11.11.2019
4569 Clouds 16 1018 72 10000 2.6 210 13:59 11.11.2019
4570 Clouds 16 1019 77 10000 2.1 220 13:38 11.11.2019
4571 Clouds 16 1019 77 10000 2.1 220 13:20 11.11.2019
4572 Clouds 16 1019 72 10000 2.6 250 12:58 11.11.2019
4573 Clouds 16 1019 77 10000 2.6 170 12:40 11.11.2019
4574 Clouds 15 1019 77 10000 2.6 170 12:22 11.11.2019
4575 Clouds 15 1020 67 10000 1.5 230 11:55 11.11.2019
4576 Clouds 15 1020 76 10000 1.5 0 11:37 11.11.2019
4577 Clouds 15 1020 76 10000 1.5 0 11:19 11.11.2019
4578 Clouds 14 1020 82 10000 0.5 0 10:42 11.11.2019
4579 Clouds 13 1020 82 10000 0.5 0 10:18 11.11.2019
4580 Clouds 13 1020 76 10000 2.6 280 09:56 11.11.2019
4581 Clouds 13 1020 87 10000 0.5 0 09:37 11.11.2019
4582 Clouds 13 1020 87 10000 0.5 0 09:18 11.11.2019
4583 Clouds 13 1020 87 10000 1 0 08:40 11.11.2019
4584 Clouds 13 1020 87 10000 1 0 08:40 11.11.2019
4585 Clouds 13 1020 87 10000 1 0 08:21 11.11.2019
4586 Clouds 13 1020 82 10000 2.6 280 07:56 11.11.2019
4587 Clouds 13 1020 82 10000 2.1 270 07:37 11.11.2019
4588 Clouds 13 1020 82 10000 2.1 270 07:18 11.11.2019
4589 Clouds 13 1020 76 10000 3.1 300 06:46 11.11.2019
4590 Clouds 13 1020 76 10000 3.1 300 06:22 11.11.2019
4591 Clouds 13 1020 71 10000 4.1 310 05:51 11.11.2019
4592 Clouds 13 1020 71 10000 5.7 290 04:30 11.11.2019
4593 Clouds 13 1021 71 10000 4.1 280 03:23 11.11.2019
4594 Rain 14 1021 62 10000 4.6 280 02:24 11.11.2019
4595 Rain 14 1021 62 10000 4.6 280 02:24 11.11.2019
4596 Clouds 14 1021 62 10000 5.1 290 01:55 11.11.2019
4597 Clouds 14 1021 62 10000 5.7 290 01:34 11.11.2019
4598 Clouds 14 1021 58 10000 5.7 290 00:48 11.11.2019
4599 Clouds 14 1021 58 10000 6.2 290 00:21 11.11.2019
4600 Clouds 14 1021 54 10000 4.6 290 23:40 10.11.2019
4601 Clouds 14 1021 54 10000 4.6 290 23:40 10.11.2019
4602 Clouds 14 1021 54 10000 4.6 290 23:20 10.11.2019
4603 Clouds 14 1021 54 10000 4.1 300 22:58 10.11.2019
4604 Clouds 15 1021 51 10000 3.6 310 22:39 10.11.2019
4605 Clouds 15 1021 51 10000 3.6 310 22:20 10.11.2019
4606 Clouds 15 1021 51 10000 4.6 310 21:59 10.11.2019
4607 Clouds 15 1021 51 10000 4.6 310 21:40 10.11.2019
4608 Clouds 15 1021 51 10000 4.6 310 21:21 10.11.2019
4609 Clouds 15 1021 48 10000 4.6 320 20:58 10.11.2019
4610 Clouds 15 1021 48 10000 6.2 330 20:39 10.11.2019
4611 Clouds 15 1021 48 10000 6.2 330 20:21 10.11.2019
4612 Clouds 15 1021 42 10000 4.6 310 19:55 10.11.2019
4613 Clouds 15 1021 44 10000 2.6 320 19:37 10.11.2019
4614 Clouds 16 1021 44 10000 2.6 320 19:18 10.11.2019
4615 Clouds 16 1021 44 10000 2.6 320 19:18 10.11.2019
4616 Clouds 16 1021 42 10000 3.6 340 18:55 10.11.2019
4617 Clouds 16 1021 39 10000 4.6 350 18:37 10.11.2019
4618 Clouds 16 1021 39 10000 4.6 350 18:19 10.11.2019
4619 Clouds 16 1021 39 10000 4.6 350 18:19 10.11.2019
4620 Clouds 17 1020 39 10000 4.6 360 17:55 10.11.2019
4621 Clouds 17 1020 39 10000 5.1 360 17:37 10.11.2019
4622 Clouds 17 1020 39 10000 5.1 360 17:19 10.11.2019
4623 Clouds 17 1020 36 10000 9.8 350 16:44 10.11.2019
4624 Clouds 17 1020 36 10000 9.8 350 16:26 10.11.2019
4625 Clouds 18 1020 33 10000 7.2 340 15:57 10.11.2019
4626 Clouds 18 1020 33 10000 8.7 350 15:38 10.11.2019
4627 Clouds 18 1020 33 10000 8.7 350 15:19 10.11.2019
4628 Clouds 18 1020 33 10000 8.7 350 15:19 10.11.2019
4629 Clouds 18 1020 33 10000 7.7 350 14:59 10.11.2019
4630 Clouds 18 1020 33 10000 7.7 340 14:39 10.11.2019
4631 Clouds 18 1020 34 10000 7.7 340 14:21 10.11.2019
4632 Clouds 18 1020 36 10000 6.7 310 13:56 10.11.2019
4633 Clouds 18 1021 34 10000 8.2 340 13:38 10.11.2019
4634 Clouds 18 1021 34 10000 8.2 340 13:19 10.11.2019
4635 Clouds 17 1021 42 10000 4.6 330 12:42 10.11.2019
4636 Clouds 17 1021 42 10000 4.6 330 12:20 10.11.2019
4637 Clouds 17 1021 42 10000 4.6 330 12:20 10.11.2019
4638 Clouds 16 1022 48 10000 5.7 310 11:57 10.11.2019
4639 Clouds 16 1022 51 10000 5.7 300 11:38 10.11.2019
4640 Clouds 16 1022 51 10000 5.7 300 11:20 10.11.2019
4641 Clouds 15 1022 54 10000 5.7 300 10:56 10.11.2019
4642 Clouds 14 1022 58 10000 4.6 310 10:38 10.11.2019
4643 Clouds 14 1022 58 10000 4.6 310 10:38 10.11.2019
4644 Clouds 14 1022 58 10000 4.6 310 10:19 10.11.2019
4645 Clouds 13 1022 71 10000 3.1 310 09:42 10.11.2019
4646 Clouds 13 1022 71 10000 3.1 310 09:22 10.11.2019
4647 Clouds 12 1020 76 10000 3.1 260 08:40 10.11.2019
4648 Clouds 11 1020 76 10000 3.1 260 08:21 10.11.2019
4649 Clouds 12 1020 66 10000 3.6 280 07:58 10.11.2019
4650 Clouds 11 1020 66 10000 2.1 290 07:38 10.11.2019
4651 Clouds 11 1020 66 10000 2.1 290 07:18 10.11.2019
4652 Clouds 12 1020 66 10000 1.5 280 06:25 10.11.2019
4653 Clouds 13 1020 66 10000 3.1 300 04:46 10.11.2019
4654 Clouds 14 1020 82 10000 3.1 270 02:59 10.11.2019
4655 Clouds 15 1020 72 10000 3.1 230 01:44 10.11.2019
4656 Clouds 15 1020 72 10000 3.1 230 01:19 10.11.2019
4657 Clouds 15 1021 72 10000 4.6 250 00:40 10.11.2019
4658 Clouds 15 1021 72 10000 4.6 230 23:43 09.11.2019
4659 Clouds 14 1021 72 10000 4.6 230 23:21 09.11.2019
4660 Clouds 14 1021 67 10000 5.1 230 22:59 09.11.2019
4661 Clouds 15 1021 63 10000 4.6 230 22:40 09.11.2019
4662 Clouds 15 1021 63 10000 4.6 230 22:19 09.11.2019
4663 Clouds 15 1022 59 10000 3.6 230 21:55 09.11.2019
4664 Clouds 15 1022 55 10000 2.6 230 21:37 09.11.2019
4665 Clouds 15 1022 55 10000 2.6 230 21:37 09.11.2019
4666 Clouds 15 1022 55 10000 2.6 230 21:19 09.11.2019
4667 Rain 15 1022 48 10000 2.6 250 20:41 09.11.2019
4668 Clouds 16 1022 48 10000 2.6 250 20:22 09.11.2019
4669 Clouds 16 1022 51 10000 3.1 220 19:57 09.11.2019
4670 Clouds 16 1022 42 10000 2.6 190 19:38 09.11.2019
4671 Clouds 16 1022 42 10000 2.6 190 19:20 09.11.2019
4672 Clouds 17 1021 36 10000 3.1 210 18:41 09.11.2019
4673 Clouds 17 1021 36 10000 3.1 210 18:19 09.11.2019
4674 Clouds 18 1021 36 10000 3.1 210 17:59 09.11.2019
4675 Clouds 18 1022 32 10000 4.1 210 17:40 09.11.2019
4676 Clouds 18 1022 32 10000 4.1 210 17:22 09.11.2019
4677 Clouds 18 1022 32 10000 3.6 270 16:43 09.11.2019
4678 Clouds 18 1022 32 10000 3.6 270 16:22 09.11.2019
4679 Clouds 18 1022 31 10000 3.1 260 15:58 09.11.2019
4680 Clouds 18 1023 34 10000 2.1 240 15:40 09.11.2019
4681 Clouds 18 1023 34 10000 2.1 240 15:21 09.11.2019
4682 Clouds 18 1023 36 10000 1.5 230 14:43 09.11.2019
4683 Clouds 17 1023 36 10000 1.5 230 14:22 09.11.2019
4684 Clouds 17 1024 41 10000 1.5 280 13:57 09.11.2019
4685 Clouds 16 1025 38 10000 1 0 13:39 09.11.2019
4686 Clouds 16 1025 38 10000 1 0 13:19 09.11.2019
4687 Clouds 15 1025 44 10000 0.5 320 12:56 09.11.2019
4688 Clouds 15 1025 44 10000 0.5 40 12:38 09.11.2019
4689 Clouds 15 1025 44 10000 0.5 40 12:19 09.11.2019
4690 Clouds 14 1025 50 10000 0.5 10 11:47 09.11.2019
4691 Clear 14 1025 54 10000 0.5 360 11:21 09.11.2019
4692 Clear 13 1025 62 10000 1.85 358 10:56 09.11.2019
4693 Clear 12 1025 66 10000 1 0 10:38 09.11.2019
4694 Clear 12 1025 66 10000 1 0 10:18 09.11.2019
4695 Clear 11 1025 75 10000 1.85 358 09:43 09.11.2019
4696 Clear 10 1025 75 10000 1.85 358 09:21 09.11.2019
4697 Clear 8 1025 81 10000 0.5 0 08:53 09.11.2019
4698 Clouds 7 1025 86 10000 1 280 08:26 09.11.2019
4699 Clear 7 1024 86 10000 1 160 07:57 09.11.2019
4700 Clear 7 1024 80 10000 1.5 140 07:39 09.11.2019
4701 Clear 7 1024 80 10000 1.5 140 07:20 09.11.2019
4702 Clear 8 1023 75 10000 0.5 0 06:46 09.11.2019
4703 Clear 8 1023 75 10000 0.5 0 06:28 09.11.2019
4704 Clear 8 1023 75 10000 2.05 354 05:40 09.11.2019
4705 Clear 9 1024 70 10000 0.5 0 04:30 09.11.2019
4706 Clear 8 1024 75 10000 1.72 350 02:57 09.11.2019
4707 Clear 8 1024 75 10000 1.72 350 02:38 09.11.2019
4708 Clear 8 1024 70 10000 0.5 0 01:40 09.11.2019
4709 Clear 10 1024 53 10000 1.5 340 00:46 09.11.2019
4710 Clear 10 1024 53 10000 1.5 340 00:27 09.11.2019
4711 Clear 10 1024 57 10000 0.5 0 23:42 08.11.2019
4712 Clear 10 1024 57 10000 0.5 0 23:23 08.11.2019
4713 Clear 10 1023 50 10000 1.5 80 22:59 08.11.2019
4714 Clear 10 1023 53 10000 2.29 306 22:40 08.11.2019
4715 Clear 11 1023 53 10000 2.29 306 22:21 08.11.2019
4716 Clear 12 1023 38 10000 2.1 340 21:43 08.11.2019
4717 Clear 12 1023 38 10000 2.1 340 21:24 08.11.2019
4718 Clear 12 1022 38 10000 2.6 360 20:59 08.11.2019
4719 Clear 12 1022 38 10000 2.1 20 20:41 08.11.2019
4720 Clear 14 1022 38 10000 2.1 20 20:20 08.11.2019
4721 Clear 14 1022 38 10000 1.5 10 19:56 08.11.2019
4722 Clear 15 1021 29 10000 1.5 350 19:37 08.11.2019
4723 Clear 15 1021 29 10000 1.5 350 19:18 08.11.2019
4724 Clear 16 1021 38 10000 2.6 350 18:55 08.11.2019
4725 Clear 17 1020 25 10000 2.6 340 18:37 08.11.2019
4726 Clear 17 1020 25 10000 2.6 340 18:18 08.11.2019
4727 Clear 17 1020 24 10000 4.1 320 17:55 08.11.2019
4728 Clear 18 1020 24 10000 4.1 310 17:36 08.11.2019
4729 Clear 18 1019 22 10000 3.1 340 17:18 08.11.2019
4730 Clear 18 1019 22 10000 3.1 340 16:57 08.11.2019
4731 Clear 18 1019 22 10000 3.1 340 16:57 08.11.2019
4732 Clear 18 1019 24 10000 4.6 330 16:38 08.11.2019
4733 Clear 18 1019 24 10000 4.6 330 16:19 08.11.2019
4734 Clear 18 1019 24 10000 3.6 340 15:56 08.11.2019
4735 Clear 18 1019 27 10000 2.1 320 15:38 08.11.2019
4736 Clear 18 1019 27 10000 2.1 320 15:19 08.11.2019
4737 Clear 18 1019 27 10000 5.1 330 14:55 08.11.2019
4738 Clear 17 1020 24 10000 2.1 320 14:36 08.11.2019
4739 Clear 17 1020 28 10000 2.1 320 14:18 08.11.2019
4740 Clear 17 1020 36 10000 2.6 320 13:42 08.11.2019
4741 Clear 17 1020 36 10000 2.6 320 13:22 08.11.2019
4742 Clouds 16 1021 38 10000 5.7 310 12:57 08.11.2019
4743 Clear 16 1021 51 10000 3.6 280 12:39 08.11.2019
4744 Clear 16 1021 51 10000 3.6 280 12:21 08.11.2019
4745 Clear 15 1021 54 10000 5.1 290 11:55 08.11.2019
4746 Clear 15 1021 62 10000 3.1 280 11:37 08.11.2019
4747 Clear 14 1021 62 10000 3.1 280 11:18 08.11.2019
4748 Clear 13 1021 66 10000 3.6 270 10:42 08.11.2019
4749 Clear 13 1021 66 10000 3.6 270 10:22 08.11.2019
4750 Clear 11 1020 71 10000 5.1 270 09:58 08.11.2019
4751 Clear 11 1020 81 10000 2.1 260 09:39 08.11.2019
4752 Clear 10 1020 81 10000 5.7 280 09:19 08.11.2019
4753 Clear 10 1019 81 10000 2.1 270 08:46 08.11.2019
4754 Clear 10 1019 81 10000 2.1 270 08:23 08.11.2019
4755 Clear 10 1019 71 10000 4.1 290 07:56 08.11.2019
4756 Clear 10 1018 81 10000 2.1 270 07:38 08.11.2019
4757 Clear 10 1018 81 10000 2.1 270 07:19 08.11.2019
4758 Clear 9 1018 81 10000 3.6 270 06:38 08.11.2019
4759 Clear 9 1018 81 10000 3.6 270 06:20 08.11.2019
4760 Clear 8 1018 81 10000 3.6 270 05:39 08.11.2019
4761 Clear 9 1018 71 10000 2.1 250 04:43 08.11.2019
4762 Clear 9 1018 71 10000 3.1 260 03:43 08.11.2019
4763 Clear 9 1018 71 10000 3.1 260 03:20 08.11.2019
4764 Clear 10 1018 71 10000 3.6 270 02:26 08.11.2019
4765 Clear 11 1018 62 10000 2.6 270 01:46 08.11.2019
4766 Clear 11 1018 62 10000 3.1 270 00:59 08.11.2019
4767 Clear 12 1018 62 10000 3.6 270 00:24 08.11.2019
4768 Clear 12 1018 58 10000 3.6 310 23:57 07.11.2019
4769 Clear 12 1018 58 10000 4.1 280 23:39 07.11.2019
4770 Clear 12 1018 58 10000 4.1 280 23:20 07.11.2019
4771 Clear 13 1017 54 10000 3.6 290 22:42 07.11.2019
4772 Clear 13 1017 54 10000 3.6 290 22:21 07.11.2019
4773 Clear 12 1017 54 10000 3.1 290 21:56 07.11.2019
4774 Clear 13 1017 54 10000 2.6 280 21:37 07.11.2019
4775 Clear 13 1017 54 10000 2.6 280 21:19 07.11.2019
4776 Clear 13 1017 47 10000 3.1 330 20:56 07.11.2019
4777 Clear 14 1017 48 10000 3.1 340 20:38 07.11.2019
4778 Clear 16 1017 48 10000 3.1 340 20:20 07.11.2019
4779 Clear 16 1016 42 10000 5.1 330 19:54 07.11.2019
4780 Clear 16 1016 45 10000 4.6 320 19:36 07.11.2019
4781 Clear 17 1015 39 10000 5.1 320 19:18 07.11.2019
4782 Clear 17 1015 39 10000 5.1 320 18:55 07.11.2019
4783 Clear 17 1015 34 10000 5.1 310 18:36 07.11.2019
4784 Clear 18 1015 34 10000 5.1 310 18:18 07.11.2019
4785 Clear 19 1014 32 10000 4.6 340 17:40 07.11.2019
4786 Clear 20 1014 32 10000 4.6 340 17:21 07.11.2019
4787 Clouds 20 1014 48 10000 5.7 360 16:58 07.11.2019
4788 Clear 20 1014 32 10000 4.6 350 16:40 07.11.2019
4789 Clouds 20 1014 30 10000 5.7 350 16:20 07.11.2019
4790 Clouds 20 1014 35 10000 5.7 350 15:57 07.11.2019
4791 Clouds 20 1014 37 10000 2.1 320 15:37 07.11.2019
4792 Clouds 20 1014 37 10000 2.1 320 15:19 07.11.2019
4793 Clouds 20 1014 45 10000 4.6 320 14:45 07.11.2019
4794 Clouds 20 1014 49 10000 2.1 290 14:27 07.11.2019
4795 Clouds 20 1015 52 10000 6.2 340 13:57 07.11.2019
4796 Rain 19 1015 52 10000 6.2 340 13:38 07.11.2019
4797 Rain 19 1015 68 10000 2.1 300 13:20 07.11.2019
4798 Rain 18 1015 88 10000 4.1 290 12:58 07.11.2019
4799 Clouds 18 1015 88 10000 4.1 290 12:40 07.11.2019
4800 Clouds 17 1015 93 10000 1.5 0 12:21 07.11.2019
4801 Clouds 17 1015 93 10000 1.5 0 12:21 07.11.2019
4802 Clouds 17 1015 93 10000 5.11 313 11:58 07.11.2019
4803 Rain 16 1015 93 10000 5.11 313 11:39 07.11.2019
4804 Drizzle 15 1015 93 3500 2.6 200 11:20 07.11.2019
4805 Rain 15 1015 93 4000 3.1 230 10:40 07.11.2019
4806 Drizzle 15 1015 93 3500 1.5 0 10:19 07.11.2019
4807 Rain 14 1015 93 9000 3.1 230 09:43 07.11.2019
4808 Rain 14 1015 93 10000 2.1 180 09:23 07.11.2019
4809 -273 0 0 0 0 0 09:22 07.11.2019
4810 Rain 14 1015 93 10000 3.6 220 08:57 07.11.2019
4811 Rain 14 1015 93 10000 1.5 0 08:38 07.11.2019
4812 Rain 13 1015 93 10000 1.5 0 08:20 07.11.2019
4813 -273 0 0 0 0 0 07:45 07.11.2019
4814 Clouds 13 1015 93 10000 2.6 190 07:45 07.11.2019
4815 Clouds 13 1015 87 10000 1.5 180 07:23 07.11.2019
4816 Clouds 13 1015 87 10000 1.5 180 07:22 07.11.2019
4817 Rain 13 1015 100 10000 2.6 180 06:58 07.11.2019
4818 Rain 13 1016 87 10000 3.1 210 06:40 07.11.2019
4819 Rain 13 1016 87 10000 3.1 210 06:21 07.11.2019
4820 -273 0 0 0 0 0 06:21 07.11.2019
4821 Rain 13 1015 82 10000 2.6 200 05:47 07.11.2019
4822 Rain 14 1015 77 10000 2.6 240 05:28 07.11.2019
4823 Clear 14 1016 77 10000 3.1 220 04:42 07.11.2019
4824 Clear 13 1016 71 10000 1.5 180 03:01 07.11.2019
4825 Clouds 14 1017 67 10000 2.1 260 00:58 07.11.2019
4826 Clouds 14 1017 62 10000 2.1 270 00:22 07.11.2019
4827 Clouds 14 1017 62 10000 2.1 270 00:22 07.11.2019
4828 Clouds 14 1017 62 10000 2.1 270 00:22 07.11.2019
4829 Clouds 15 1018 62 10000 3.1 280 23:48 06.11.2019
4830 Clear 14 1018 59 10000 4.1 300 23:22 06.11.2019
4831 Clear 14 1018 59 10000 3.6 320 22:58 06.11.2019
4832 Clear 14 1018 59 10000 3.6 320 22:39 06.11.2019
4833 Clear 15 1018 59 10000 2.6 320 22:19 06.11.2019
4834 Clear 15 1017 55 10000 3.1 310 21:57 06.11.2019
4835 Clear 15 1017 51 10000 4.1 300 21:38 06.11.2019
4836 Clear 15 1017 51 10000 4.1 300 21:19 06.11.2019
4837 Clear 16 1017 48 10000 3.6 290 20:55 06.11.2019
4838 Clear 17 1017 45 10000 3.6 300 20:36 06.11.2019
4839 Clear 17 1017 45 10000 3.6 300 20:18 06.11.2019
4840 Clear 18 1016 45 10000 4.6 310 19:40 06.11.2019
4841 Clear 18 1016 45 10000 4.6 310 19:21 06.11.2019
4842 Clouds 19 1016 42 10000 5.1 310 18:59 06.11.2019
4843 Clouds 19 1016 40 10000 6.7 290 18:39 06.11.2019
4844 Clouds 19 1016 40 10000 6.7 290 18:19 06.11.2019
4845 Clouds 19 1016 37 10000 5.7 290 17:59 06.11.2019
4846 Clouds 20 1016 40 10000 2.6 190 17:40 06.11.2019
4847 Clouds 20 1016 40 10000 2.6 190 17:21 06.11.2019
4848 Clouds 20 1016 40 10000 3.6 190 16:56 06.11.2019
4849 Clouds 20 1017 40 10000 4.1 210 16:38 06.11.2019
4850 Clouds 20 1017 40 10000 4.1 210 16:38 06.11.2019
4851 Clouds 20 1017 40 10000 4.1 210 16:19 06.11.2019
4852 Clouds 20 1017 42 10000 3.1 220 15:56 06.11.2019
4853 Clouds 20 1017 42 10000 3.1 220 15:56 06.11.2019
4854 Clear 20 1017 42 10000 2.6 230 15:37 06.11.2019
4855 Clear 20 1017 42 10000 2.6 230 15:19 06.11.2019
4856 Clouds 19 1018 40 10000 3.6 240 14:56 06.11.2019
4857 Clouds 19 1018 52 10000 2.6 200 14:38 06.11.2019
4858 Clouds 19 1018 52 10000 2.6 200 14:20 06.11.2019
4859 Clouds 18 1019 48 10000 3.1 270 13:54 06.11.2019
4860 Clear 18 1019 52 10000 1.5 0 13:36 06.11.2019
4861 Clear 18 1019 52 10000 1.5 0 13:18 06.11.2019
4862 Clear 17 1020 59 10000 0.5 0 12:43 06.11.2019
4863 Clear 17 1020 59 10000 0.5 0 12:23 06.11.2019
4864 Clear 16 1020 59 10000 0.5 300 11:59 06.11.2019
4865 Clear 16 1020 67 10000 1 0 11:38 06.11.2019
4866 Clear 15 1020 67 10000 1 0 11:19 06.11.2019
4867 Clear 14 1020 67 10000 1 0 10:57 06.11.2019
4868 Clear 14 1020 81 10000 1 0 10:39 06.11.2019
4869 Clear 14 1020 81 10000 1 0 10:21 06.11.2019
4870 Clear 12 1020 81 10000 0.5 0 09:57 06.11.2019
4871 Clear 12 1020 93 10000 0.5 0 09:38 06.11.2019
4872 Clear 11 1019 87 10000 2.1 160 09:19 06.11.2019
4873 Clear 10 1019 87 10000 2.1 160 08:55 06.11.2019
4874 Clear 9 1019 93 10000 1 170 08:36 06.11.2019
4875 Clear 9 1019 81 10000 0.5 0 08:18 06.11.2019
4876 Clear 9 1019 93 10000 1.04 315 07:41 06.11.2019
4877 Clear 9 1019 93 10000 1.04 315 07:22 06.11.2019
4878 Clear 10 1018 76 10000 1.04 315 06:48 06.11.2019
4879 Clear 10 1018 76 10000 1.04 315 06:28 06.11.2019
4880 Clear 10 1018 81 10000 2.6 280 05:32 06.11.2019
4881 Clear 11 1019 71 10000 2.6 290 02:54 06.11.2019
4882 Clear 13 1019 66 10000 2.6 280 01:41 06.11.2019
4883 Clear 13 1019 62 10000 3.6 290 00:46 06.11.2019
4884 Clear 14 1019 59 10000 3.1 290 23:59 05.11.2019
4885 Clear 14 1019 59 10000 4.1 300 23:40 05.11.2019
4886 Clear 15 1019 59 10000 4.1 300 23:21 05.11.2019
4887 Clear 14 1019 62 10000 2.1 310 22:57 05.11.2019
4888 Clear 15 1018 63 10000 4.1 300 22:38 05.11.2019
4889 Clear 15 1018 63 10000 4.1 300 22:18 05.11.2019
4890 Clear 15 1018 55 10000 5.1 290 21:43 05.11.2019
4891 Clear 16 1018 55 10000 5.1 290 21:22 05.11.2019
4892 Clear 16 1017 55 10000 4.6 280 20:59 05.11.2019
4893 Clear 16 1017 48 10000 5.7 290 20:39 05.11.2019
4894 Clouds 18 1017 48 10000 5.7 290 20:21 05.11.2019
4895 Clouds 18 1017 48 10000 5.1 280 19:59 05.11.2019
4896 Clouds 18 1016 42 10000 4.6 290 19:40 05.11.2019
4897 Clouds 18 1016 42 10000 4.6 290 19:22 05.11.2019
4898 Clouds 18 1016 42 10000 5.1 290 18:58 05.11.2019
4899 Clouds 19 1016 40 10000 7.2 310 18:39 05.11.2019
4900 Clouds 19 1016 40 10000 7.2 310 18:20 05.11.2019
4901 Clouds 20 1016 40 10000 7.2 290 17:59 05.11.2019
4902 Clouds 20 1016 37 10000 5.7 320 17:39 05.11.2019
4903 Clouds 20 1016 37 10000 5.7 320 17:19 05.11.2019
4904 Clouds 21 1016 37 10000 7.2 290 16:56 05.11.2019
4905 Clouds 21 1016 37 10000 5.7 290 16:38 05.11.2019
4906 Clouds 21 1016 37 10000 5.7 290 16:19 05.11.2019
4907 Clouds 21 1016 42 10000 3.6 280 15:39 05.11.2019
4908 Clouds 20 1016 42 10000 3.6 280 15:20 05.11.2019
4909 Clouds 20 1016 45 10000 5.1 280 14:58 05.11.2019
4910 Clouds 20 1017 49 10000 3.1 280 14:40 05.11.2019
4911 Clouds 20 1017 49 10000 3.1 280 14:21 05.11.2019
4912 Clouds 20 1017 45 10000 2.6 240 13:56 05.11.2019
4913 Clouds 19 1017 48 10000 3.1 280 13:38 05.11.2019
4914 Clouds 19 1018 55 10000 3.1 270 13:20 05.11.2019
4915 Clouds 18 1018 55 10000 2.6 280 12:40 05.11.2019
4916 Clouds 18 1018 55 10000 2.6 280 12:21 05.11.2019
4917 Clouds 18 1018 55 10000 2.6 280 12:21 05.11.2019
4918 Clouds 17 1018 55 10000 3.1 280 11:56 05.11.2019
4919 Clear 17 1018 63 10000 3.1 270 11:37 05.11.2019
4920 Clear 16 1018 63 10000 3.1 270 11:19 05.11.2019
4921 Clear 15 1018 76 10000 2.6 250 10:45 05.11.2019
4922 Clear 15 1018 76 10000 2.6 250 10:27 05.11.2019
4923 Clouds 14 1018 72 10000 2.6 270 09:59 05.11.2019
4924 Clear 14 1017 87 10000 2.1 260 09:41 05.11.2019
4925 Clear 13 1017 87 10000 2.1 260 09:20 05.11.2019
4926 Clouds 13 1017 76 10000 3.1 270 08:56 05.11.2019
4927 Clouds 12 1017 93 10000 1 250 08:37 05.11.2019
4928 Clouds 12 1017 93 10000 1 250 08:19 05.11.2019
4929 Clouds 12 1016 87 10000 1 220 07:45 05.11.2019
4930 Clouds 13 1016 87 10000 1 220 07:26 05.11.2019
4931 Clouds 13 1016 76 10000 2.6 280 06:52 05.11.2019
4932 Clouds 13 1016 67 10000 4.1 290 06:30 05.11.2019
4933 Clouds 14 1015 72 10000 3.6 270 05:44 05.11.2019
4934 Clouds 15 1015 72 10000 3.6 270 05:20 05.11.2019
4935 Clouds 15 1015 67 10000 5.1 280 04:22 05.11.2019
4936 Clouds 16 1014 72 10000 5.7 270 03:31 05.11.2019
4937 Clouds 16 1014 82 10000 6.2 280 02:43 05.11.2019
4938 Clouds 16 1014 82 10000 5.7 270 01:55 05.11.2019
4939 Clouds 17 1014 82 10000 6.2 270 00:48 05.11.2019
4940 Clouds 16 1014 82 10000 6.2 270 00:27 05.11.2019
4941 Clouds 16 1015 82 10000 6.2 230 23:43 04.11.2019
4942 Clouds 17 1014 72 10000 5.7 240 23:19 04.11.2019
4943 Clouds 18 1014 72 10000 5.7 240 22:58 04.11.2019
4944 Clouds 18 1014 72 10000 5.7 240 22:40 04.11.2019
4945 Clouds 18 1014 72 10000 5.7 240 22:21 04.11.2019
4946 Clouds 18 1014 68 10000 5.7 240 21:55 04.11.2019
4947 Clouds 18 1014 68 10000 6.7 240 21:37 04.11.2019
4948 Clouds 18 1014 68 10000 6.7 240 21:18 04.11.2019
4949 Clouds 18 1014 64 10000 6.7 240 20:57 04.11.2019
4950 Clouds 19 1014 64 10000 6.2 240 20:38 04.11.2019
4951 Clouds 19 1014 64 10000 6.2 240 20:20 04.11.2019
4952 Clouds 19 1014 64 10000 6.7 230 19:57 04.11.2019
4953 Clouds 19 1014 60 10000 6.7 240 19:39 04.11.2019
4954 Clouds 19 1014 60 10000 6.7 240 19:21 04.11.2019
4955 Clouds 20 1014 56 10000 6.7 230 18:56 04.11.2019
4956 Clouds 20 1014 56 10000 6.7 230 18:56 04.11.2019
4957 Clouds 20 1013 56 10000 7.2 240 18:37 04.11.2019
4958 Clouds 20 1013 56 10000 7.2 240 18:19 04.11.2019
4959 Clouds 21 1014 53 10000 7.7 230 17:39 04.11.2019
4960 Clouds 21 1014 60 10000 8.2 250 17:21 04.11.2019
4961 Clouds 21 1015 56 10000 7.7 240 16:57 04.11.2019
4962 Clouds 21 1014 53 10000 7.2 250 16:39 04.11.2019
4963 Clouds 21 1014 53 10000 7.2 250 16:20 04.11.2019
4964 Clouds 21 1014 53 10000 7.2 250 16:20 04.11.2019
4965 Clouds 21 1015 60 10000 5.1 230 15:55 04.11.2019
4966 Clouds 21 1015 60 10000 5.1 230 15:36 04.11.2019
4967 Clouds 21 1015 60 10000 5.1 230 15:18 04.11.2019
4968 Clouds 21 1015 56 10000 4.6 250 14:41 04.11.2019
4969 Clouds 21 1015 56 10000 4.6 250 14:21 04.11.2019
4970 Clouds 21 1016 56 10000 4.1 240 13:59 04.11.2019
4971 Clouds 21 1016 56 10000 4.1 240 13:41 04.11.2019
4972 Clouds 21 1016 56 10000 4.1 240 13:21 04.11.2019
4973 Clouds 21 1016 56 10000 4.1 240 13:21 04.11.2019
4974 Clouds 21 1017 60 10000 5.1 270 12:58 04.11.2019
4975 Clouds 20 1017 64 10000 3.6 250 12:40 04.11.2019
4976 Clouds 20 1017 64 10000 3.6 250 12:21 04.11.2019
4977 Clouds 20 1017 68 10000 5.7 270 11:56 04.11.2019
4978 Clouds 19 1017 77 10000 3.6 240 11:38 04.11.2019
4979 Clouds 19 1017 77 10000 3.6 240 11:19 04.11.2019
4980 Clouds 19 1018 88 10000 2.6 250 10:42 04.11.2019
4981 Clouds 18 1018 88 10000 2.6 250 10:24 04.11.2019
4982 Clouds 17 1017 88 10000 2.1 250 09:47 04.11.2019
4983 Clouds 17 1017 88 10000 2.1 250 09:28 04.11.2019
4984 Clouds 17 1017 82 10000 3.6 240 08:59 04.11.2019
4985 Clouds 17 1017 93 10000 2.1 230 08:41 04.11.2019
4986 Clouds 17 1017 93 10000 2.1 230 08:21 04.11.2019
4987 Clouds 17 1017 88 10000 4.6 250 07:45 04.11.2019
4988 Clouds 17 1017 88 10000 4.6 250 07:24 04.11.2019
4989 Clouds 17 1017 88 10000 4.6 250 07:24 04.11.2019
4990 Clouds 17 1017 88 10000 3.1 230 06:58 04.11.2019
4991 Clouds 16 1017 93 10000 2.1 210 06:35 04.11.2019
4992 Clouds 17 1017 88 10000 1.5 220 05:59 04.11.2019
4993 Clouds 17 1017 77 10000 4.1 270 04:45 04.11.2019
4994 Clouds 17 1017 77 10000 4.1 270 04:23 04.11.2019
4995 Clouds 17 1017 72 10000 4.1 260 02:59 04.11.2019
4996 Clear 17 1018 77 10000 5.1 270 01:22 04.11.2019
4997 Clear 17 1018 72 10000 5.1 260 00:51 04.11.2019
4998 Clear 17 1018 68 10000 5.7 270 00:21 04.11.2019
4999 Clear 18 1018 72 10000 4.6 260 23:58 03.11.2019
5000 Clouds 18 1018 72 10000 3.1 260 23:36 03.11.2019
5001 Clouds 18 1018 72 10000 3.1 260 23:18 03.11.2019
5002 Clouds 19 1018 68 10000 3.1 240 22:55 03.11.2019
5003 Clouds 19 1018 77 10000 4.1 230 22:37 03.11.2019
5004 Clouds 19 1018 77 10000 4.1 230 22:18 03.11.2019
5005 Clouds 19 1017 68 10000 3.6 220 21:42 03.11.2019
5006 Clouds 19 1017 68 10000 3.6 220 21:21 03.11.2019
5007 Clouds 20 1017 60 10000 4.1 250 20:57 03.11.2019
5008 Clouds 20 1016 56 10000 5.1 260 20:37 03.11.2019
5009 Clouds 20 1016 56 10000 5.1 260 20:19 03.11.2019
5010 Clouds 21 1016 56 10000 5.7 270 19:57 03.11.2019
5011 Clouds 21 1015 53 10000 5.7 260 19:38 03.11.2019
5012 Clouds 21 1015 53 10000 5.7 260 19:20 03.11.2019
5013 Clouds 21 1015 53 10000 5.7 290 18:54 03.11.2019
5014 Clouds 22 1014 47 10000 8.7 280 18:36 03.11.2019
5015 Clouds 22 1014 47 10000 8.7 280 18:18 03.11.2019
5016 Clouds 23 1014 47 10000 8.2 290 17:42 03.11.2019
5017 Clouds 24 1014 47 10000 8.2 290 17:20 03.11.2019
5018 Clouds 24 1014 47 10000 8.7 290 16:56 03.11.2019
5019 Clouds 23 1014 50 10000 8.2 280 16:38 03.11.2019
5020 Clouds 24 1014 50 10000 8.2 280 16:20 03.11.2019
5021 Clouds 23 1014 50 10000 8.7 270 15:57 03.11.2019
5022 Clouds 23 1014 50 10000 6.7 260 15:39 03.11.2019
5023 Clouds 23 1014 50 10000 6.7 260 15:21 03.11.2019
5024 Clouds 23 1014 50 10000 8.7 270 14:42 03.11.2019
5025 Clouds 23 1014 50 10000 8.7 270 14:19 03.11.2019
5026 Clouds 22 1014 53 10000 7.7 270 13:58 03.11.2019
5027 Clouds 22 1014 53 10000 8.2 280 13:40 03.11.2019
5028 Clouds 22 1014 53 10000 8.2 280 13:18 03.11.2019
5029 Clouds 21 1015 64 10000 6.7 250 12:39 03.11.2019
5030 Clouds 21 1015 64 10000 6.7 250 12:20 03.11.2019
5031 Clouds 21 1015 64 10000 6.7 250 12:20 03.11.2019
5032 Clouds 21 1015 60 10000 7.7 250 11:59 03.11.2019
5033 Clouds 20 1014 68 10000 7.7 260 11:41 03.11.2019
5034 Clouds 20 1014 68 10000 7.7 260 11:20 03.11.2019
5035 Clouds 20 1014 68 10000 8.2 260 10:55 03.11.2019
5036 Clouds 19 1014 72 10000 5.7 260 10:37 03.11.2019
5037 Clouds 19 1014 72 10000 6.2 250 10:18 03.11.2019
5038 Clouds 19 1014 72 10000 6.2 250 10:18 03.11.2019
5039 Clouds 18 1014 77 10000 6.2 250 09:43 03.11.2019
5040 Clouds 18 1014 77 10000 6.2 250 09:43 03.11.2019
5041 Clouds 18 1014 77 10000 6.2 250 09:24 03.11.2019
5042 Clouds 17 1013 77 10000 6.2 260 08:56 03.11.2019
5043 Clouds 17 1013 72 10000 6.2 260 08:36 03.11.2019
5044 Clouds 17 1013 72 10000 6.2 260 08:18 03.11.2019
5045 Clouds 17 1012 72 10000 6.7 260 07:44 03.11.2019
5046 Clouds 17 1012 72 10000 6.7 260 07:21 03.11.2019
5047 Clouds 18 1012 72 10000 6.2 270 06:39 03.11.2019
5048 Rain 18 1012 72 10000 6.2 270 05:54 03.11.2019
5049 Rain 18 1012 77 10000 6.2 260 05:34 03.11.2019
5050 Clouds 18 1012 77 10000 5.1 260 04:53 03.11.2019
5051 Rain 18 1012 82 10000 5.1 260 03:59 03.11.2019
5052 Clouds 18 1012 82 10000 4.1 250 03:23 03.11.2019
5053 Rain 18 1012 82 10000 5.1 240 02:23 03.11.2019
5054 Clouds 18 1012 82 10000 5.1 230 01:55 03.11.2019
5055 Clouds 18 1013 88 6000 4.1 240 01:36 03.11.2019
5056 Clouds 18 1013 88 6000 4.1 240 01:18 03.11.2019
5057 Clouds 19 1013 77 10000 5.1 240 00:38 03.11.2019
5058 Clouds 19 1013 77 10000 5.1 240 00:20 03.11.2019
5059 Clouds 18 1014 88 7000 5.7 220 23:55 02.11.2019
5060 Clouds 18 1014 88 7000 5.7 220 23:36 02.11.2019
5061 Rain 19 1013 77 10000 4.6 240 23:18 02.11.2019
5062 Rain 19 1013 72 10000 5.1 250 22:54 02.11.2019
5063 Rain 19 1013 77 10000 4.1 240 22:36 02.11.2019
5064 Rain 19 1013 77 10000 4.1 250 22:18 02.11.2019
5065 Rain 19 1013 77 10000 4.1 250 21:55 02.11.2019
5066 Rain 19 1013 77 10000 3.6 240 21:36 02.11.2019
5067 Rain 19 1013 77 10000 3.6 240 21:18 02.11.2019
5068 Rain 19 1013 77 10000 5.1 220 20:55 02.11.2019
5069 Rain 19 1012 73 10000 5.7 230 20:37 02.11.2019
5070 Clouds 19 1012 73 10000 5.7 230 20:18 02.11.2019
5071 Clouds 20 1012 73 10000 6.2 230 19:39 02.11.2019
5072 Clouds 20 1012 73 10000 6.2 230 19:20 02.11.2019
5073 Clouds 21 1012 68 10000 6.7 230 18:55 02.11.2019
5074 Clouds 21 1012 64 10000 7.2 240 18:37 02.11.2019
5075 Clouds 21 1012 69 10000 8.7 220 18:18 02.11.2019
5076 Clouds 22 1012 69 10000 8.7 220 17:55 02.11.2019
5077 Clouds 22 1013 64 10000 8.7 240 17:37 02.11.2019
5078 Clouds 22 1013 64 10000 8.7 240 17:37 02.11.2019
5079 Clouds 23 1012 57 10000 8.7 230 17:18 02.11.2019
5080 Clouds 23 1013 64 10000 7.7 250 16:40 02.11.2019
5081 Clouds 23 1013 64 10000 7.7 250 16:40 02.11.2019
5082 Clouds 24 1012 53 10000 6.7 230 16:21 02.11.2019
5083 Clouds 24 1013 53 10000 6.2 250 15:56 02.11.2019
5084 Clouds 24 1013 57 10000 6.7 240 15:37 02.11.2019
5085 Clouds 24 1013 57 10000 6.7 240 15:19 02.11.2019
5086 Clouds 24 1014 60 10000 5.1 260 14:42 02.11.2019
5087 Clouds 24 1014 60 10000 5.1 260 14:23 02.11.2019
5088 Clouds 23 1014 64 10000 5.1 260 13:57 02.11.2019
5089 Clouds 23 1015 64 10000 5.7 260 13:38 02.11.2019
5090 Clouds 23 1015 64 10000 5.7 260 13:18 02.11.2019
5091 Clouds 22 1016 73 10000 5.1 250 12:41 02.11.2019
5092 Clouds 22 1016 73 10000 5.1 250 12:22 02.11.2019
5093 Clouds 21 1016 78 10000 5.1 240 11:57 02.11.2019
5094 Clouds 21 1016 83 10000 4.1 240 11:39 02.11.2019
5095 Clouds 20 1016 83 10000 4.1 240 11:20 02.11.2019
5096 Clouds 20 1017 88 10000 4.6 240 10:48 02.11.2019
5097 Clouds 19 1016 88 10000 5.1 230 10:28 02.11.2019
5098 Clouds 19 1017 93 10000 5.1 230 09:57 02.11.2019
5099 Clouds 19 1017 93 10000 4.6 230 09:39 02.11.2019
5100 Clouds 19 1017 93 10000 4.6 230 09:19 02.11.2019
5101 Clouds 19 1017 93 10000 4.6 230 09:19 02.11.2019
5102 Clouds 18 1017 93 10000 5.1 230 08:45 02.11.2019
5103 Clouds 18 1017 93 10000 5.1 230 08:45 02.11.2019
5104 Rain 18 1017 93 10000 5.1 230 08:22 02.11.2019
5105 Rain 18 1017 93 10000 4.1 230 07:48 02.11.2019
5106 Rain 18 1017 93 10000 4.6 220 07:29 02.11.2019
5107 Drizzle 18 1017 93 10000 5.1 230 06:55 02.11.2019
5108 Rain 19 1018 88 3000 6.7 230 06:37 02.11.2019
5109 Clouds 19 1018 88 10000 6.7 230 05:56 02.11.2019
5110 Drizzle 19 1018 88 3300 6.2 230 05:20 02.11.2019
5111 Clouds 18 1018 93 10000 3.1 210 04:21 02.11.2019
5112 Clouds 18 1019 93 10000 3.1 210 03:49 02.11.2019
5113 Clouds 19 1020 88 10000 3.1 200 02:42 02.11.2019
5114 Clouds 19 1020 88 10000 3.6 210 01:44 02.11.2019
5115 Clouds 19 1020 88 10000 3.6 210 01:23 02.11.2019
5116 Clouds 19 1021 88 10000 2.6 200 00:51 02.11.2019
5117 Clouds 19 1021 88 10000 2.6 200 00:26 02.11.2019
5118 Clouds 19 1021 93 10000 3.1 200 23:46 01.11.2019
5119 Clouds 19 1021 93 10000 3.1 200 23:22 01.11.2019
5120 Clouds 19 1022 88 10000 4.6 220 22:58 01.11.2019
5121 Clouds 19 1021 88 10000 6.2 220 22:39 01.11.2019
5122 Clouds 19 1021 88 10000 6.2 220 22:20 01.11.2019
5123 Clouds 19 1022 88 10000 5.7 220 21:41 01.11.2019
5124 Clouds 19 1022 88 10000 5.7 220 21:23 01.11.2019
5125 Clouds 19 1022 88 10000 6.7 220 20:57 01.11.2019
5126 Clouds 20 1022 83 10000 5.7 220 20:39 01.11.2019
5127 Clouds 20 1022 83 10000 5.7 220 20:19 01.11.2019
5128 Clouds 20 1021 83 10000 6.2 220 19:56 01.11.2019
5129 Clouds 21 1021 83 10000 5.1 210 19:37 01.11.2019
5130 Clouds 21 1021 83 10000 5.1 210 19:37 01.11.2019
5131 Clouds 21 1021 83 10000 5.1 210 19:19 01.11.2019
5132 Clouds 22 1022 73 10000 7.7 240 18:39 01.11.2019
5133 Clouds 22 1021 69 10000 6.2 240 18:39 01.11.2019
5134 Clouds 22 1021 69 10000 6.2 240 18:39 01.11.2019
5135 Clouds 23 1021 69 10000 6.2 240 18:20 01.11.2019
5136 Clouds 24 1021 57 10000 8.2 260 17:55 01.11.2019
5137 Clouds 25 1021 54 10000 8.7 260 17:37 01.11.2019
5138 Clouds 25 1021 54 10000 8.7 260 17:19 01.11.2019
5139 Clouds 26 1021 54 10000 6.7 210 16:38 01.11.2019
5140 Clouds 26 1021 54 10000 6.7 210 16:38 01.11.2019
5141 Clouds 26 1021 54 10000 6.7 210 16:19 01.11.2019
5142 Clouds 26 1021 54 10000 7.2 230 15:54 01.11.2019
5143 Clouds 27 1021 54 10000 6.2 230 15:36 01.11.2019
5144 Clouds 27 1022 57 10000 4.1 230 15:18 01.11.2019
5145 Clouds 27 1023 57 10000 4.1 220 14:41 01.11.2019
5146 Clouds 26 1023 61 10000 4.1 210 14:23 01.11.2019
5147 Clouds 26 1023 61 10000 4.1 210 13:57 01.11.2019
5148 Clouds 26 1023 61 10000 4.1 210 13:57 01.11.2019
5149 Clouds 25 1024 61 10000 3.1 220 13:38 01.11.2019
5150 Clouds 25 1024 61 10000 3.1 220 13:20 01.11.2019
5151 Clouds 23 1024 64 10000 2.1 230 12:43 01.11.2019
5152 Clouds 23 1024 64 10000 2.1 230 12:43 01.11.2019
5153 Clouds 24 1024 64 10000 2.1 230 12:25 01.11.2019
5154 Clouds 24 1025 64 10000 2.1 200 11:59 01.11.2019
5155 Clouds 23 1025 64 10000 1.5 230 11:40 01.11.2019
5156 Clouds 23 1025 64 10000 1.5 230 11:22 01.11.2019
5157 Clouds 22 1025 77 10000 1.5 220 10:42 01.11.2019
5158 Clouds 21 1025 77 10000 1.5 220 10:22 01.11.2019
5159 Clouds 21 1024 77 10000 1.5 200 09:57 01.11.2019
5160 Clouds 21 1024 77 10000 1.5 200 09:57 01.11.2019
5161 Clouds 20 1024 82 10000 1.5 190 09:38 01.11.2019
5162 Clouds 20 1024 82 10000 1.5 190 09:19 01.11.2019
5163 Clouds 19 1024 88 10000 0.5 0 08:43 01.11.2019
5164 Clouds 18 1024 88 10000 0.5 0 08:22 01.11.2019
5165 Clouds 17 1024 93 10000 1.5 150 07:56 01.11.2019
5166 Clouds 18 1024 82 10000 1.73 238 07:37 01.11.2019
5167 Clouds 18 1024 82 10000 1.73 238 07:19 01.11.2019
5168 Clouds 18 1024 77 10000 2.6 280 06:41 01.11.2019
5169 Clouds 18 1024 77 10000 2.6 280 06:22 01.11.2019
5170 Clouds 19 1024 82 10000 1.5 280 05:43 01.11.2019
5171 Clouds 19 1024 77 10000 2.1 290 03:57 01.11.2019
5172 Clouds 19 1025 77 10000 0.5 0 02:49 01.11.2019
5173 Clouds 19 1025 77 10000 0.5 0 02:49 01.11.2019
5174 Clouds 20 1025 73 10000 1.5 310 01:31 01.11.2019
5175 Clouds 20 1025 69 10000 3.1 310 00:42 01.11.2019
5176 Clouds 20 1025 69 10000 3.1 310 00:18 01.11.2019
5177 Clouds 21 1025 64 10000 2.6 320 23:43 31.10.2019
5178 Clouds 22 1025 64 10000 2.6 320 23:23 31.10.2019
5179 Clouds 22 1025 69 10000 3.1 310 22:56 31.10.2019
5180 Clouds 22 1024 64 10000 2.6 330 22:38 31.10.2019
5181 Clouds 22 1024 64 10000 2.6 330 22:19 31.10.2019
5182 Clouds 22 1024 61 10000 5.7 300 21:43 31.10.2019
5183 Clouds 23 1024 61 10000 5.7 300 21:20 31.10.2019
5184 Clouds 23 1024 57 10000 6.2 290 20:57 31.10.2019
5185 Clouds 23 1024 54 10000 5.7 290 20:39 31.10.2019
5186 Clouds 24 1023 54 10000 5.1 290 20:20 31.10.2019
5187 Clouds 25 1023 57 10000 2.1 240 19:42 31.10.2019
5188 Clouds 25 1023 57 10000 2.1 240 19:22 31.10.2019
5189 Clouds 25 1023 57 10000 2.6 200 18:57 31.10.2019
5190 Clouds 25 1023 57 10000 2.6 200 18:57 31.10.2019
5191 Clouds 26 1023 61 10000 3.6 190 18:39 31.10.2019
5192 Clouds 26 1023 61 10000 3.6 190 18:20 31.10.2019
5193 Clouds 26 1023 61 10000 4.1 210 17:42 31.10.2019
5194 Clouds 26 1023 61 10000 4.1 210 17:42 31.10.2019
5195 Clouds 26 1023 61 10000 4.1 210 17:22 31.10.2019
5196 Clouds 26 1023 54 10000 4.1 220 16:59 31.10.2019
5197 Clouds 26 1023 57 10000 3.6 210 16:40 31.10.2019
5198 Clouds 26 1023 57 10000 3.6 210 16:20 31.10.2019
5199 Clouds 25 1023 54 10000 2.6 220 15:56 31.10.2019
5200 Clouds 25 1024 65 10000 2.1 140 15:38 31.10.2019
5201 Clouds 25 1024 65 10000 2.1 140 15:19 31.10.2019
5202 Clouds 25 1024 61 10000 2.1 210 14:56 31.10.2019
5203 Clouds 25 1024 65 10000 1 0 14:38 31.10.2019
5204 Clouds 25 1024 65 10000 1 0 14:19 31.10.2019
5205 Clouds 24 1025 61 10000 2.1 210 13:55 31.10.2019
5206 Clouds 24 1025 73 10000 2.1 230 13:37 31.10.2019
5207 Clouds 24 1025 73 10000 2.1 230 13:19 31.10.2019
5208 Clouds 22 1026 78 10000 1.5 0 12:43 31.10.2019
5209 Clouds 22 1026 78 10000 1.5 0 12:23 31.10.2019
5210 Clouds 22 1026 73 10000 2.1 290 11:58 31.10.2019
5211 Clouds 22 1026 77 9000 2.14 299 11:40 31.10.2019
5212 Clouds 22 1026 77 9000 1.38 281 11:18 31.10.2019
5213 Clouds 21 1026 77 10000 0.5 0 10:57 31.10.2019
5214 Clouds 21 1026 77 10000 0.5 0 10:57 31.10.2019
5215 Clouds 21 1025 88 9000 0.5 0 10:38 31.10.2019
5216 Clouds 20 1025 88 9000 0.5 0 10:19 31.10.2019
5217 Clouds 19 1025 93 8000 1.38 281 09:42 31.10.2019
5218 Clouds 19 1025 93 8000 1.38 281 09:18 31.10.2019
5219 Clouds 19 1025 93 8000 1.38 281 09:18 31.10.2019
5220 Clouds 18 1024 93 6000 1.38 281 08:49 31.10.2019
5221 Clouds 18 1024 93 6000 1.38 281 08:31 31.10.2019
5222 Clouds 18 1024 93 8000 1.5 220 07:58 31.10.2019
5223 Clouds 18 1024 93 6000 1 250 07:39 31.10.2019
5224 Clouds 17 1024 93 6000 1 250 07:21 31.10.2019
5225 Clouds 18 1024 93 8000 0.5 0 06:38 31.10.2019
5226 Clouds 18 1024 93 8000 0.5 0 06:19 31.10.2019
5227 Clouds 18 1024 93 8000 2.6 190 04:35 31.10.2019
5228 Clouds 18 1024 88 8000 1.5 190 02:45 31.10.2019
5229 Clouds 19 1024 88 10000 2.6 210 01:53 31.10.2019
5230 Clouds 19 1024 82 10000 2.6 190 00:40 31.10.2019
5231 Clouds 19 1024 82 10000 2.6 190 00:22 31.10.2019
5232 Clouds 20 1024 77 10000 1.5 180 23:33 30.10.2019
5233 Clouds 20 1024 73 10000 2.6 240 22:56 30.10.2019
5234 Clouds 20 1024 68 10000 1.5 250 22:38 30.10.2019
5235 Clouds 20 1024 68 10000 1.5 250 22:18 30.10.2019
5236 Clouds 21 1024 64 10000 2.1 250 21:54 30.10.2019
5237 Clouds 21 1024 64 10000 3.1 260 21:36 30.10.2019
5238 Clouds 21 1024 64 10000 3.1 260 21:18 30.10.2019
5239 Clouds 21 1023 60 10000 3.6 230 20:42 30.10.2019
5240 Clouds 22 1023 60 10000 3.6 230 20:22 30.10.2019
5241 Clouds 22 1023 60 10000 4.6 220 19:59 30.10.2019
5242 Clouds 22 1022 57 10000 4.6 220 19:40 30.10.2019
5243 Clouds 23 1022 57 10000 4.6 220 19:22 30.10.2019
5244 Clouds 24 1022 50 10000 2.1 210 18:59 30.10.2019
5245 Clouds 24 1022 50 10000 3.1 210 18:38 30.10.2019
5246 Clouds 25 1022 50 10000 3.1 210 18:18 30.10.2019
5247 Clouds 25 1022 50 10000 3.6 230 17:55 30.10.2019
5248 Clouds 25 1022 50 10000 2.6 200 17:37 30.10.2019
5249 Clouds 25 1022 50 10000 2.6 200 17:18 30.10.2019
5250 Clouds 25 1022 47 10000 1.5 220 16:42 30.10.2019
5251 Clouds 25 1022 47 10000 1.5 220 16:23 30.10.2019
5252 Clouds 26 1022 44 10000 2.1 260 15:59 30.10.2019
5253 Clouds 25 1022 47 10000 3.1 260 15:38 30.10.2019
5254 Clouds 25 1022 47 10000 3.1 260 15:19 30.10.2019
5255 Clouds 25 1022 47 10000 1.5 260 14:57 30.10.2019
5256 Clouds 25 1022 57 10000 1 0 14:39 30.10.2019
5257 Clouds 25 1022 57 10000 1 0 14:21 30.10.2019
5258 Clouds 24 1023 57 10000 1 270 13:54 30.10.2019
5259 Clouds 24 1023 57 10000 1 270 13:54 30.10.2019
5260 Clouds 24 1023 57 10000 0.5 0 13:36 30.10.2019
5261 Clouds 24 1023 68 10000 1 0 13:18 30.10.2019
5262 Clouds 23 1023 68 10000 1.5 0 12:44 30.10.2019
5263 Clouds 21 1023 73 10000 1 80 12:25 30.10.2019
5264 Clouds 20 1023 73 10000 1 80 11:58 30.10.2019
5265 Clouds 20 1024 82 10000 2.1 30 11:40 30.10.2019
5266 Clouds 20 1024 82 10000 2.1 30 11:19 30.10.2019
5267 Mist 18 1023 100 5000 0.5 0 10:43 30.10.2019
5268 Mist 17 1023 100 5000 0.5 0 10:23 30.10.2019
5269 Mist 16 1023 100 1500 0.5 0 09:42 30.10.2019
5270 Mist 16 1023 100 1500 0.5 0 09:42 30.10.2019
5271 Mist 16 1023 100 1500 0.5 0 09:23 30.10.2019
5272 Fog 15 1022 93 250 1 0 08:57 30.10.2019
5273 Fog 15 1022 100 900 0.5 0 08:39 30.10.2019
5274 Fog 15 1022 100 900 0.5 0 08:20 30.10.2019
5275 Fog 15 1021 100 600 1.5 30 07:45 30.10.2019
5276 Fog 15 1021 100 600 1.5 30 07:21 30.10.2019
5277 Fog 15 1021 100 100 1.38 34 06:42 30.10.2019
5278 Fog 15 1021 100 100 1.38 34 06:20 30.10.2019
5279 Fog 16 1021 100 100 1.5 140 05:41 30.10.2019
5280 Fog 16 1021 93 5000 1.5 130 04:42 30.10.2019
5281 Clouds 17 1021 88 6000 1 140 03:43 30.10.2019
5282 Clouds 17 1021 88 8000 1 150 02:52 30.10.2019
5283 Clouds 17 1021 88 10000 2.1 170 01:58 30.10.2019
5284 Clouds 18 1021 82 10000 1.5 160 00:57 30.10.2019
5285 Clouds 18 1021 82 10000 1 0 00:28 30.10.2019
5286 Clouds 18 1020 77 10000 2.1 230 23:43 29.10.2019
5287 Clouds 18 1020 77 10000 2.1 230 23:23 29.10.2019
5288 Clouds 19 1020 72 10000 2.6 210 22:48 29.10.2019
5289 Clouds 19 1020 68 10000 1.5 210 22:20 29.10.2019
5290 Clouds 19 1020 68 10000 1.5 210 21:59 29.10.2019
5291 Clouds 20 1020 64 10000 2.6 250 21:41 29.10.2019
5292 Clouds 20 1020 64 10000 2.6 250 21:20 29.10.2019
5293 Clouds 21 1019 64 10000 4.1 270 20:56 29.10.2019
5294 Clouds 21 1019 60 10000 3.6 250 20:38 29.10.2019
5295 Clouds 21 1019 60 10000 3.6 250 20:38 29.10.2019
5296 Clouds 21 1019 60 10000 3.6 250 20:20 29.10.2019
5297 Clouds 21 1019 60 10000 1.5 300 19:56 29.10.2019
5298 Clouds 21 1019 60 10000 1.5 300 19:56 29.10.2019
5299 Clouds 22 1018 53 10000 1.5 210 19:38 29.10.2019
5300 Clouds 22 1018 53 10000 1.5 210 19:19 29.10.2019
5301 Clouds 23 1018 47 10000 1.5 200 18:55 29.10.2019
5302 Clouds 24 1018 47 10000 1 0 18:37 29.10.2019
5303 Clouds 24 1018 47 10000 1 0 18:37 29.10.2019
5304 Clouds 24 1018 47 10000 1 0 18:18 29.10.2019
5305 Clouds 25 1018 47 10000 1 0 17:54 29.10.2019
5306 Clouds 25 1018 47 10000 1 0 17:54 29.10.2019
5307 Clouds 25 1018 44 10000 1 320 17:36 29.10.2019
5308 Clear 25 1018 44 10000 1 320 17:18 29.10.2019
5309 Clouds 26 1018 44 10000 1.5 240 16:39 29.10.2019
5310 Clouds 26 1018 44 10000 1.5 240 16:39 29.10.2019
5311 Clouds 25 1018 44 10000 1.5 240 16:20 29.10.2019
5312 Clear 25 1018 47 10000 2.1 280 15:56 29.10.2019
5313 Clouds 25 1018 53 10000 1.5 0 15:38 29.10.2019
5314 Clouds 25 1018 53 10000 1.5 0 15:19 29.10.2019
5315 Clouds 24 1018 50 10000 1 190 14:55 29.10.2019
5316 Clouds 24 1018 60 10000 1 0 14:37 29.10.2019
5317 Clouds 24 1018 60 10000 1 0 14:18 29.10.2019
5318 Clouds 23 1019 64 10000 1.5 0 13:40 29.10.2019
5319 Clouds 23 1019 64 10000 1.5 0 13:22 29.10.2019
5320 Clouds 22 1020 73 9000 1.5 0 12:45 29.10.2019
5321 Clouds 22 1020 73 9000 1.5 0 12:26 29.10.2019
5322 Clouds 22 1020 73 9000 1.5 0 12:26 29.10.2019
5323 Clouds 21 1020 68 10000 0.5 190 11:59 29.10.2019
5324 Clouds 21 1020 77 8000 1 0 11:41 29.10.2019
5325 Clouds 20 1019 77 7000 3.1 80 11:19 29.10.2019
5326 -273 0 0 0 0 0 11:19 29.10.2019
5327 Clouds 19 1019 77 7000 3.1 80 10:57 29.10.2019
5328 Clouds 19 1019 100 8000 2.1 30 10:38 29.10.2019
5329 Clouds 19 1019 100 8000 2.1 30 10:20 29.10.2019
5330 Clouds 18 1019 82 6000 2.6 40 09:56 29.10.2019
5331 Clouds 18 1019 88 8000 0.5 0 09:37 29.10.2019
5332 Clouds 17 1018 93 7000 1 0 09:19 29.10.2019
5333 Clouds 17 1018 93 7000 0.5 0 08:44 29.10.2019
5334 Clouds 17 1018 93 7000 0.5 0 08:25 29.10.2019
5335 Clouds 17 1018 82 10000 1.5 30 07:55 29.10.2019
5336 Clouds 17 1018 93 9000 1.15 46 07:36 29.10.2019
5337 Clouds 17 1018 93 9000 1.15 46 07:18 29.10.2019
5338 Clouds 18 1018 88 9000 1.5 220 06:44 29.10.2019
5339 Clouds 18 1018 88 9000 1.5 220 06:21 29.10.2019
5340 Clouds 18 1017 77 10000 1 160 05:50 29.10.2019
5341 Clouds 18 1017 77 10000 1 160 05:26 29.10.2019
5342 Clouds 17 1017 82 10000 1.5 140 04:31 29.10.2019
5343 Clouds 17 1018 82 10000 2.1 200 02:33 29.10.2019
5344 Clouds 17 1018 88 10000 1.5 200 01:47 29.10.2019
5345 Clouds 17 1018 88 10000 1.5 200 01:21 29.10.2019
5346 Clouds 17 1018 82 10000 2.1 210 00:43 29.10.2019
5347 Clouds 18 1018 82 10000 1 0 23:44 28.10.2019
5348 Clouds 18 1018 82 10000 1 0 23:21 28.10.2019
5349 Clouds 18 1018 82 10000 1 0 23:21 28.10.2019
5350 Clouds 18 1018 77 10000 1 210 22:59 28.10.2019
5351 Clouds 18 1018 77 10000 1.5 220 22:37 28.10.2019
5352 Clouds 19 1018 77 10000 1.5 220 22:18 28.10.2019
5353 Clouds 19 1018 72 10000 2.6 230 21:56 28.10.2019
5354 Clouds 19 1018 68 10000 3.1 240 21:38 28.10.2019
5355 Clouds 19 1018 68 10000 3.1 240 21:20 28.10.2019
5356 Clouds 20 1017 68 10000 3.1 250 20:54 28.10.2019
5357 Clouds 20 1018 68 10000 2.6 210 20:36 28.10.2019
5358 Clouds 20 1018 68 10000 2.6 210 20:18 28.10.2019
5359 Clouds 21 1017 60 10000 2.1 190 19:39 28.10.2019
5360 Clouds 21 1017 60 10000 2.1 190 19:21 28.10.2019
5361 Clouds 22 1017 60 10000 2.1 210 18:59 28.10.2019
5362 Clouds 22 1017 60 10000 2.1 210 18:59 28.10.2019
5363 Clouds 22 1017 56 10000 1.5 200 18:41 28.10.2019
5364 Clouds 22 1017 56 10000 1.5 200 18:21 28.10.2019
5365 Clouds 23 1017 53 10000 0.5 0 17:57 28.10.2019
5366 Clouds 23 1017 56 10000 2.1 230 17:39 28.10.2019
5367 Clouds 23 1017 56 10000 2.1 230 17:20 28.10.2019
5368 Clouds 23 1018 56 10000 2.1 220 16:58 28.10.2019
5369 Clouds 23 1018 56 10000 2.1 210 16:39 28.10.2019
5370 Clouds 23 1018 56 10000 2.1 210 16:21 28.10.2019
5371 Clouds 23 1018 56 10000 2.6 240 15:58 28.10.2019
5372 Clouds 23 1018 56 10000 3.1 240 15:40 28.10.2019
5373 Clouds 23 1018 60 10000 2.1 230 15:21 28.10.2019
5374 Clouds 23 1018 56 10000 2.1 260 14:57 28.10.2019
5375 Clouds 22 1018 64 10000 2.1 230 14:38 28.10.2019
5376 Clouds 22 1018 64 10000 2.1 230 14:19 28.10.2019
5377 Clouds 22 1019 56 10000 2.1 0 13:56 28.10.2019
5378 Clouds 22 1019 64 10000 1.5 0 13:38 28.10.2019
5379 Clouds 22 1019 64 10000 1.5 0 13:18 28.10.2019
5380 Clouds 21 1020 68 10000 1.5 0 12:42 28.10.2019
5381 Clouds 21 1020 60 10000 0.5 360 12:21 28.10.2019
5382 Clouds 20 1020 60 10000 0.5 280 11:54 28.10.2019
5383 Clouds 20 1020 72 10000 0.5 0 11:36 28.10.2019
5384 Clouds 20 1020 72 10000 0.5 0 11:18 28.10.2019
5385 Clouds 18 1020 88 8000 0.5 0 10:39 28.10.2019
5386 Clouds 18 1020 88 10000 0.5 0 10:21 28.10.2019
5387 Clouds 17 1020 88 10000 0.5 0 09:57 28.10.2019
5388 Clouds 17 1019 87 8000 1 140 09:38 28.10.2019
5389 Mist 16 1019 93 1500 0.47 306 09:19 28.10.2019
5390 Mist 16 1019 93 1500 0.47 306 08:57 28.10.2019
5391 Mist 16 1019 93 1500 0.47 306 08:57 28.10.2019
5392 Fog 15 1019 100 300 0.47 306 08:38 28.10.2019
5393 Fog 15 1019 100 300 0.47 306 08:38 28.10.2019
5394 Fog 15 1019 100 300 0.75 345 08:19 28.10.2019
5395 Clouds 15 1019 87 8000 1 0 07:55 28.10.2019
5396 Fog 15 1019 93 400 0.75 345 07:36 28.10.2019
5397 Fog 15 1019 93 400 0.75 345 07:18 28.10.2019
5398 Clouds 16 1018 82 10000 0.75 345 06:39 28.10.2019
5399 Clouds 16 1019 82 10000 1.5 10 05:34 28.10.2019
5400 Clouds 17 1018 88 8000 1.5 130 03:45 28.10.2019
5401 Clouds 17 1019 88 8000 1.5 110 02:46 28.10.2019
5402 Clouds 17 1019 88 9000 1 160 01:52 28.10.2019
5403 Clouds 17 1019 88 9000 1.5 200 00:53 28.10.2019
5404 Clouds 17 1019 82 8000 2.1 160 00:31 28.10.2019
5405 Clouds 17 1020 82 10000 1.5 230 23:47 27.10.2019
5406 Clouds 18 1020 82 10000 1 0 23:23 27.10.2019
5407 Clouds 18 1020 77 10000 2.1 240 22:57 27.10.2019
5408 Clouds 18 1019 77 10000 2.1 240 22:39 27.10.2019
5409 Clouds 18 1019 77 10000 2.1 240 22:21 27.10.2019
5410 Clouds 19 1019 72 10000 2.6 220 21:57 27.10.2019
5411 Clouds 19 1019 68 10000 3.1 220 21:39 27.10.2019
5412 Clouds 19 1019 68 10000 3.1 220 21:20 27.10.2019
5413 Clouds 19 1019 64 10000 2.6 230 20:56 27.10.2019
5414 Clouds 20 1019 56 10000 3.1 240 20:38 27.10.2019
5415 Clouds 20 1019 56 10000 3.1 240 20:19 27.10.2019
5416 Clouds 21 1018 60 10000 3.1 220 19:54 27.10.2019
5417 Clouds 22 1018 56 10000 3.1 220 19:36 27.10.2019
5418 Clouds 22 1018 56 10000 3.1 220 19:18 27.10.2019
5419 Clouds 23 1018 53 10000 4.1 220 18:54 27.10.2019
5420 Clouds 23 1018 47 10000 2.1 220 18:36 27.10.2019
5421 Clouds 24 1018 47 10000 2.1 220 18:18 27.10.2019
5422 Clouds 25 1018 38 10000 2.6 220 17:40 27.10.2019
5423 Clouds 25 1018 38 10000 2.6 220 17:19 27.10.2019
5424 Clouds 25 1018 38 10000 2.6 220 17:19 27.10.2019
5425 Clouds 25 1018 34 10000 4.1 220 16:58 27.10.2019
5426 Clouds 26 1018 34 10000 3.6 230 16:39 27.10.2019
5427 Clouds 26 1018 34 10000 3.6 230 16:21 27.10.2019
5428 Clouds 26 1018 31 10000 3.1 250 15:56 27.10.2019
5429 Clouds 26 1018 31 10000 3.1 230 15:37 27.10.2019
5430 Clouds 25 1018 31 10000 3.1 230 15:19 27.10.2019
5431 Clouds 25 1019 31 10000 1.5 260 14:42 27.10.2019
5432 Clouds 25 1019 31 10000 1.5 260 14:21 27.10.2019
5433 Clouds 24 1019 33 10000 2.1 260 13:58 27.10.2019
5434 Clouds 24 1020 35 10000 1 270 13:39 27.10.2019
5435 Clouds 23 1020 35 10000 1 270 13:20 27.10.2019
5436 Clouds 22 1020 37 10000 1.5 320 12:57 27.10.2019
5437 Clouds 22 1020 40 10000 1 0 12:38 27.10.2019
5438 Clouds 22 1020 40 10000 1 0 12:19 27.10.2019
5439 Clouds 21 1020 49 10000 1 120 11:41 27.10.2019
5440 Clouds 20 1020 49 10000 1 120 11:21 27.10.2019
5441 Clouds 18 1020 52 10000 1 0 10:45 27.10.2019
5442 Clouds 18 1020 52 10000 1 0 10:26 27.10.2019
5443 Clouds 16 1020 59 10000 0.5 0 09:58 27.10.2019
5444 Clouds 16 1020 67 10000 0.5 60 09:39 27.10.2019
5445 Clouds 15 1020 67 10000 0.5 60 09:19 27.10.2019
5446 Clouds 14 1020 71 10000 0.5 0 08:56 27.10.2019
5447 Clouds 13 1019 66 10000 0.5 0 08:37 27.10.2019
5448 Clouds 13 1019 66 10000 0.5 0 08:37 27.10.2019
5449 Clouds 13 1019 66 10000 0.5 0 08:18 27.10.2019
5450 Clouds 13 1019 71 10000 0.5 0 07:45 27.10.2019
5451 Clouds 13 1019 71 10000 0.5 0 07:25 27.10.2019
5452 Clouds 14 1018 66 10000 1 0 06:52 27.10.2019
5453 Clouds 14 1018 66 10000 1 0 06:29 27.10.2019
5454 Clouds 14 1018 66 10000 1.5 50 05:45 27.10.2019
5455 Clouds 15 1018 62 10000 2.1 50 04:56 27.10.2019
5456 Clouds 15 1019 66 10000 1.23 41 03:34 27.10.2019
5457 Clear 17 1019 51 10000 1 0 02:25 27.10.2019
5458 Clear 18 1019 51 10000 1.5 30 01:24 27.10.2019
5459 Clear 18 1019 48 10000 1 30 00:52 27.10.2019
5460 Clear 18 1019 48 10000 1 30 00:52 27.10.2019
5461 Clear 18 1019 45 10000 0.5 0 00:32 27.10.2019
5462 Clear 19 1019 48 10000 1 0 23:57 26.10.2019
5463 Clear 19 1019 40 10000 1.5 210 23:39 26.10.2019
5464 Clear 19 1019 40 10000 1.5 210 23:21 26.10.2019
5465 Clear 20 1018 45 10000 1 90 22:57 26.10.2019
5466 Clear 18 1018 45 10000 2.6 110 22:38 26.10.2019
5467 Clear 18 1018 45 10000 2.6 110 22:19 26.10.2019
5468 Clear 21 1018 42 10000 2.1 100 21:55 26.10.2019
5469 Clear 21 1018 38 10000 1.5 50 21:36 26.10.2019
5470 Clear 23 1018 38 10000 1.5 50 21:18 26.10.2019
5471 Clear 24 1017 29 10000 2.1 360 20:42 26.10.2019
5472 Clear 24 1017 29 10000 2.1 360 20:19 26.10.2019
5473 Clear 28 1017 16 10000 1 0 19:43 26.10.2019
5474 Clear 28 1017 16 10000 1 0 19:21 26.10.2019
5475 Clear 28 1017 16 10000 1 0 19:21 26.10.2019
5476 Clear 29 1017 25 10000 1 0 18:58 26.10.2019
5477 Clear 29 1017 25 10000 0.5 190 18:40 26.10.2019
5478 Clear 29 1017 18 10000 0.5 190 18:20 26.10.2019
5479 Clear 29 1017 16 10000 1 320 17:59 26.10.2019
5480 Clear 29 1017 18 10000 1 150 17:39 26.10.2019
5481 Clear 29 1017 18 10000 1 150 17:20 26.10.2019
5482 Clear 29 1017 18 10000 1 150 17:20 26.10.2019
5483 Clear 28 1018 17 10000 1 210 16:57 26.10.2019
5484 Clear 28 1018 18 10000 1 140 16:38 26.10.2019
5485 Clear 28 1018 18 10000 1 140 16:20 26.10.2019
5486 Clear 27 1018 23 10000 0.5 40 15:40 26.10.2019
5487 Clear 27 1018 23 10000 0.5 40 15:40 26.10.2019
5488 Clear 27 1018 23 10000 0.5 40 15:19 26.10.2019
5489 Clear 25 1019 31 10000 1.5 60 14:40 26.10.2019
5490 Clear 25 1019 31 10000 1.5 60 14:40 26.10.2019
5491 Clear 25 1019 31 10000 1.5 60 14:22 26.10.2019
5492 Clear 24 1020 33 10000 1 0 13:59 26.10.2019
5493 Clear 23 1020 40 10000 1.5 60 13:40 26.10.2019
5494 Clear 26 1019 23 0 2.12 112 13:20 26.10.2019
5495 Clear 17 1019 64 0 2.24 55 12:46 26.10.2019
5496 Clear 17 1020 55 10000 3.6 60 12:23 26.10.2019
5497 Clear 17 1020 55 10000 3.6 60 11:48 26.10.2019
5498 Clear 17 1020 55 10000 3.6 60 11:28 26.10.2019
5499 Clear 17 1020 55 10000 3.6 60 11:28 26.10.2019
5500 Clear 17 1020 55 10000 3.6 60 11:28 26.10.2019
5501 Clear 14 1020 63 10000 3.1 60 10:54 26.10.2019
5502 Clear 13 1020 71 10000 1.5 40 10:36 26.10.2019
5503 Clear 13 1020 71 10000 1.5 40 10:18 26.10.2019
5504 Clear 10 1019 76 10000 2.1 20 09:41 26.10.2019
5505 Clear 10 1019 76 10000 2.1 20 09:23 26.10.2019
5506 Clear 10 1019 76 10000 2.6 40 08:43 26.10.2019
5507 Clear 10 1019 76 10000 2.6 40 08:25 26.10.2019
5508 Clear 11 1019 66 10000 2.6 40 07:46 26.10.2019
5509 Clear 11 1019 66 10000 2.6 40 07:28 26.10.2019
5510 Clear 10 1019 76 10000 0.5 0 06:43 26.10.2019
5511 Clear 10 1019 76 10000 0.5 0 06:24 26.10.2019
5512 Clear 11 1019 76 10000 0.5 0 05:19 26.10.2019
5513 Clear 12 1019 81 10000 0.5 160 04:24 26.10.2019
5514 Clear 16 1020 71 10000 1 120 02:47 26.10.2019
5515 Clear 16 1020 76 10000 2.61 38 01:55 26.10.2019
5516 Clear 17 1020 72 10000 2.61 38 01:22 26.10.2019
5517 Clear 17 1020 63 10000 0.5 0 00:24 26.10.2019
5518 Clear 18 1019 55 10000 1 90 23:43 25.10.2019
5519 Clear 19 1019 55 10000 1 90 23:20 25.10.2019
5520 Clear 19 1019 45 10000 1.5 290 22:41 25.10.2019
5521 Clear 20 1019 45 10000 1.5 290 22:23 25.10.2019
5522 Clear 21 1019 43 10000 1.5 10 21:58 25.10.2019
5523 Clear 21 1019 40 10000 1 0 21:40 25.10.2019
5524 Clear 22 1019 40 10000 1 0 21:21 25.10.2019
5525 Clear 22 1019 38 10000 0.5 0 20:56 25.10.2019
5526 Clear 23 1019 36 10000 2.1 20 20:38 25.10.2019
5527 Clear 24 1019 33 10000 2.6 10 20:19 25.10.2019
5528 Clear 26 1018 30 10000 2.6 30 19:44 25.10.2019
5529 Clear 26 1018 30 10000 2.6 30 19:25 25.10.2019
5530 Clear 27 1019 28 10000 1.5 70 18:46 25.10.2019
5531 Clear 27 1019 28 10000 1.5 70 18:24 25.10.2019
5532 Clear 27 1019 28 10000 3.1 70 17:42 25.10.2019
5533 Clear 27 1019 28 10000 3.1 70 17:42 25.10.2019
5534 Clear 26 1019 28 10000 3.1 70 17:22 25.10.2019
5535 Clear 26 1019 30 10000 1.5 40 16:58 25.10.2019
5536 Clear 26 1019 30 10000 1.5 40 16:58 25.10.2019
5537 Clear 26 1019 29 10000 2.1 90 16:40 25.10.2019
5538 Clear 26 1020 31 10000 0.5 90 16:19 25.10.2019
5539 Clear 24 1020 35 10000 1.5 0 15:41 25.10.2019
5540 Clear 24 1020 35 10000 1.5 0 15:23 25.10.2019
5541 Clear 24 1021 36 10000 2.1 90 14:59 25.10.2019
5542 Clear 23 1021 38 10000 1.5 0 14:40 25.10.2019
5543 Clear 23 1021 38 10000 1.5 0 14:21 25.10.2019
5544 Clear 22 1021 46 10000 3.1 20 13:44 25.10.2019
5545 Clear 22 1021 46 10000 3.1 20 13:44 25.10.2019
5546 Clear 21 1021 46 10000 3.1 20 13:25 25.10.2019
5547 Clear 20 1022 49 10000 4.1 60 12:58 25.10.2019
5548 Clear 19 1022 52 10000 3.6 30 12:39 25.10.2019
5549 Clear 19 1022 52 10000 3.6 30 12:20 25.10.2019
5550 Clear 17 1022 59 10000 4.1 30 11:42 25.10.2019
5551 Clear 17 1022 59 10000 4.1 30 11:24 25.10.2019
5552 Clear 16 1022 63 10000 4.1 60 10:59 25.10.2019
5553 Clear 15 1022 67 10000 4.6 30 10:39 25.10.2019
5554 Clear 14 1022 67 10000 4.6 30 10:21 25.10.2019
5555 Clear 14 1021 71 10000 5.7 60 09:57 25.10.2019
5556 Clouds 13 1021 67 10000 5.1 20 09:38 25.10.2019
5557 Clouds 13 1021 67 10000 5.1 20 09:19 25.10.2019
5558 Clouds 13 1021 67 10000 4.1 20 08:45 25.10.2019
5559 Clouds 13 1021 67 10000 4.1 20 08:26 25.10.2019
5560 Clouds 13 1021 71 10000 5.7 60 07:53 25.10.2019
5561 Clouds 13 1021 71 10000 4.1 20 07:34 25.10.2019
5562 Clouds 13 1021 71 10000 4.6 60 06:41 25.10.2019
5563 Clouds 13 1021 71 10000 4.6 50 05:51 25.10.2019
5564 Clouds 13 1021 71 10000 2.6 50 05:33 25.10.2019
5565 Clouds 13 1022 76 10000 3.1 60 04:52 25.10.2019
5566 Clouds 14 1022 76 10000 3.1 50 03:30 25.10.2019
5567 Clouds 13 1023 71 10000 3.1 50 01:54 25.10.2019
5568 Clouds 13 1023 71 10000 3.1 50 01:54 25.10.2019
5569 Clouds 15 1023 67 10000 1 0 00:50 25.10.2019
5570 Clear 15 1023 67 10000 1 0 00:20 25.10.2019
5571 Clear 15 1023 67 10000 2.6 110 23:40 24.10.2019
5572 Clear 16 1023 67 10000 2.6 110 23:22 24.10.2019
5573 Clear 15 1022 62 10000 3.1 110 22:54 24.10.2019
5574 Clear 15 1022 59 10000 3.1 130 22:36 24.10.2019
5575 Clear 16 1022 59 10000 3.1 130 22:18 24.10.2019
5576 Clear 16 1022 59 10000 3.1 130 22:18 24.10.2019
5577 Clear 16 1022 59 10000 3.1 130 21:56 24.10.2019
5578 Clear 16 1022 59 10000 2.1 140 21:37 24.10.2019
5579 Clear 16 1022 59 10000 2.1 140 21:37 24.10.2019
5580 Clear 17 1022 59 10000 2.1 140 21:18 24.10.2019
5581 Clear 18 1022 48 10000 2.1 180 20:56 24.10.2019
5582 Clear 18 1021 45 10000 2.1 180 20:37 24.10.2019
5583 Clear 20 1021 37 10000 1.5 190 20:19 24.10.2019
5584 Clear 20 1021 35 10000 1 0 19:43 24.10.2019
5585 Clear 21 1021 35 10000 1 0 19:23 24.10.2019
5586 Clear 21 1021 37 10000 1 0 18:58 24.10.2019
5587 Clear 21 1021 35 10000 2.1 170 18:40 24.10.2019
5588 Clear 21 1021 35 10000 2.1 170 18:21 24.10.2019
5589 Clear 21 1021 35 10000 1 10 17:57 24.10.2019
5590 Clear 21 1021 35 10000 1 230 17:38 24.10.2019
5591 Clear 21 1021 35 10000 1 230 17:19 24.10.2019
5592 Clear 21 1021 37 10000 1.5 270 16:54 24.10.2019
5593 Clear 21 1021 40 10000 2.1 330 16:36 24.10.2019
5594 Clear 21 1021 40 10000 2.1 330 16:18 24.10.2019
5595 Clear 20 1021 40 10000 2.1 260 15:54 24.10.2019
5596 Clear 20 1021 45 10000 1 0 15:36 24.10.2019
5597 Clear 20 1021 45 10000 1 0 15:18 24.10.2019
5598 Clear 19 1022 52 10000 1 0 14:42 24.10.2019
5599 Clear 19 1022 52 10000 1 0 14:23 24.10.2019
5600 Clear 19 1022 48 10000 1 0 13:58 24.10.2019
5601 Clear 18 1022 55 10000 1 0 13:37 24.10.2019
5602 Clear 18 1022 55 10000 1 0 13:18 24.10.2019
5603 Clear 18 1022 55 10000 1 0 13:18 24.10.2019
5604 Clear 17 1022 59 10000 1 250 12:56 24.10.2019
5605 Clear 16 1022 67 10000 1 0 12:37 24.10.2019
5606 Clear 16 1022 67 10000 1 0 12:18 24.10.2019
5607 Clear 16 1022 67 10000 0.5 0 11:55 24.10.2019
5608 Clear 15 1022 71 10000 1 0 11:36 24.10.2019
5609 Clear 14 1022 71 10000 1 0 11:18 24.10.2019
5610 Clear 13 1021 87 9000 1 0 10:42 24.10.2019
5611 Clear 13 1021 87 9000 1 0 10:23 24.10.2019
5612 Clear 11 1020 93 10000 1.5 0 09:40 24.10.2019
5613 Clear 10 1020 93 10000 1.5 0 09:19 24.10.2019
5614 Clear 11 1020 87 10000 1 0 08:59 24.10.2019
5615 Clear 11 1019 87 10000 1.5 100 08:41 24.10.2019
5616 Clear 10 1019 87 10000 1.5 100 08:20 24.10.2019
5617 Clear 10 1019 87 10000 1.5 100 08:20 24.10.2019
5618 Clear 11 1019 81 10000 1.5 290 07:48 24.10.2019
5619 Clear 11 1019 81 10000 1.5 290 07:23 24.10.2019
5620 Clear 11 1019 81 10000 1.5 290 07:23 24.10.2019
5621 Clear 11 1018 87 10000 1 0 06:56 24.10.2019
5622 Clear 11 1018 87 10000 0.5 0 06:36 24.10.2019
5623 Clear 11 1018 81 10000 1.5 270 05:55 24.10.2019
5624 Clear 12 1018 76 10000 2.1 280 05:33 24.10.2019
5625 Clear 12 1017 76 10000 3.1 270 04:33 24.10.2019
5626 Clear 13 1017 71 10000 3.6 280 03:35 24.10.2019
5627 Clouds 14 1017 67 10000 4.1 280 02:41 24.10.2019
5628 Clouds 14 1017 67 10000 4.1 280 02:20 24.10.2019
5629 Clouds 14 1017 67 10000 4.1 270 01:31 24.10.2019
5630 Clouds 14 1016 63 10000 4.1 260 00:56 24.10.2019
5631 Clouds 14 1016 67 10000 4.1 270 00:30 24.10.2019
5632 Clouds 15 1015 63 10000 3.1 260 23:57 23.10.2019
5633 Clouds 15 1015 59 10000 3.6 270 23:38 23.10.2019
5634 Clouds 15 1015 59 10000 3.6 270 23:19 23.10.2019
5635 Clouds 15 1015 67 10000 4.1 250 22:56 23.10.2019
5636 Clouds 15 1014 63 10000 3.1 240 22:37 23.10.2019
5637 Clouds 15 1014 63 10000 3.1 240 22:18 23.10.2019
5638 Clouds 15 1014 63 10000 3.1 230 21:56 23.10.2019
5639 Clouds 16 1014 59 10000 3.1 260 21:37 23.10.2019
5640 Clouds 16 1014 59 10000 3.1 260 21:37 23.10.2019
5641 Clouds 16 1014 59 10000 3.1 260 21:19 23.10.2019
5642 Clouds 16 1013 59 10000 3.6 270 20:54 23.10.2019
5643 Clouds 16 1013 59 10000 4.6 280 20:36 23.10.2019
5644 Clouds 16 1013 59 10000 6.2 290 20:18 23.10.2019
5645 Clouds 16 1012 55 10000 6.7 280 19:43 23.10.2019
5646 Clouds 16 1013 67 10000 4.6 260 19:19 23.10.2019
5647 Clouds 16 1012 55 10000 5.1 280 18:58 23.10.2019
5648 Clouds 17 1012 52 10000 5.1 280 18:39 23.10.2019
5649 Clouds 17 1012 52 10000 5.1 280 18:19 23.10.2019
5650 Clouds 17 1011 55 10000 2.6 310 17:55 23.10.2019
5651 Clouds 18 1011 63 10000 4.1 310 17:37 23.10.2019
5652 Clouds 18 1011 63 10000 4.1 310 17:18 23.10.2019
5653 Clouds 18 1010 48 10000 6.7 270 16:40 23.10.2019
5654 Clouds 18 1010 48 10000 6.7 270 16:21 23.10.2019
5655 Clouds 19 1011 52 10000 6.2 260 15:57 23.10.2019
5656 Clouds 18 1011 55 10000 8.2 260 15:39 23.10.2019
5657 Clouds 18 1011 55 10000 8.2 260 15:21 23.10.2019
5658 Clouds 18 1011 55 10000 8.7 270 14:56 23.10.2019
5659 Clouds 18 1012 59 10000 3.6 260 14:37 23.10.2019
5660 Clouds 17 1012 59 10000 3.6 260 14:19 23.10.2019
5661 Clouds 17 1012 67 10000 3.6 260 13:43 23.10.2019
5662 Clouds 17 1012 67 10000 3.6 260 13:43 23.10.2019
5663 Clouds 17 1012 67 10000 3.6 260 13:25 23.10.2019
5664 Clouds 15 1012 71 10000 3.1 220 12:59 23.10.2019
5665 Clouds 15 1012 76 10000 1.5 0 12:41 23.10.2019
5666 Clouds 14 1012 76 10000 1.5 0 12:19 23.10.2019
5667 Clouds 13 1012 71 10000 2.1 220 11:58 23.10.2019
5668 Clouds 13 1012 87 10000 1.5 0 11:40 23.10.2019
5669 Clouds 12 1012 87 10000 1.5 0 11:21 23.10.2019
5670 Clouds 11 1012 81 10000 2.6 230 10:56 23.10.2019
5671 Clouds 11 1012 81 10000 2.1 230 10:38 23.10.2019
5672 Clouds 11 1012 81 10000 2.1 230 10:19 23.10.2019
5673 Clouds 10 1011 93 10000 1 0 09:40 23.10.2019
5674 Clouds 10 1011 93 10000 1 0 09:22 23.10.2019
5675 Clouds 10 1011 81 10000 3.6 200 08:56 23.10.2019
5676 Clouds 10 1011 93 10000 1 0 08:38 23.10.2019
5677 Clouds 10 1011 93 10000 1 0 08:18 23.10.2019
5678 Clouds 10 1011 87 10000 0.5 0 07:45 23.10.2019
5679 Clouds 10 1011 87 10000 0.5 0 07:21 23.10.2019
5680 Clouds 11 1010 87 10000 1.5 220 06:45 23.10.2019
5681 Clear 11 1010 81 10000 2.1 220 06:19 23.10.2019
5682 Clear 11 1010 81 10000 1 0 05:20 23.10.2019
5683 Clear 12 1010 71 10000 2.1 200 04:33 23.10.2019
5684 Clouds 12 1011 76 10000 1 260 02:44 23.10.2019
5685 Clouds 14 1011 76 10000 1 0 01:56 23.10.2019
5686 Clouds 14 1011 76 10000 1 310 01:25 23.10.2019
5687 Clouds 14 1011 72 10000 3.1 310 00:35 23.10.2019
5688 Clouds 15 1011 72 10000 2.6 170 23:57 22.10.2019
5689 Clouds 15 1011 67 10000 3.1 150 23:38 22.10.2019
5690 Clouds 15 1011 67 10000 3.1 150 23:18 22.10.2019
5691 Clouds 15 1011 67 10000 3.1 150 23:18 22.10.2019
5692 Clouds 15 1011 67 10000 1.5 140 22:55 22.10.2019
5693 Clouds 15 1011 63 10000 3.1 60 22:37 22.10.2019
5694 Clouds 15 1011 63 10000 3.1 60 22:19 22.10.2019
5695 Clouds 16 1011 63 10000 2.6 240 21:56 22.10.2019
5696 Clouds 16 1011 63 10000 3.6 240 21:36 22.10.2019
5697 Clouds 16 1011 63 10000 3.6 240 21:36 22.10.2019
5698 Clouds 16 1010 63 10000 5.7 220 21:18 22.10.2019
5699 Clouds 16 1010 63 10000 5.7 220 20:55 22.10.2019
5700 Clouds 16 1010 63 10000 4.6 220 20:37 22.10.2019
5701 Clouds 16 1010 63 10000 4.6 220 20:18 22.10.2019
5702 Clouds 17 1010 63 10000 5.1 220 19:42 22.10.2019
5703 Clouds 17 1010 63 10000 5.1 220 19:24 22.10.2019
5704 Clouds 17 1009 59 10000 6.2 220 18:57 22.10.2019
5705 Clouds 17 1009 55 10000 6.7 220 18:39 22.10.2019
5706 Clouds 17 1009 55 10000 6.7 220 18:21 22.10.2019
5707 Clouds 18 1009 55 10000 7.7 220 17:56 22.10.2019
5708 Clouds 18 1009 55 10000 7.7 220 17:56 22.10.2019
5709 Clouds 18 1009 55 10000 7.2 220 17:38 22.10.2019
5710 Clouds 19 1009 45 10000 4.6 220 17:19 22.10.2019
5711 Clouds 19 1009 45 10000 4.6 220 16:57 22.10.2019
5712 Clouds 20 1009 40 10000 3.1 240 16:37 22.10.2019
5713 Clouds 20 1009 40 10000 3.1 240 16:18 22.10.2019
5714 Clouds 20 1010 42 10000 2.6 200 15:43 22.10.2019
5715 Clouds 20 1010 42 10000 2.6 200 15:21 22.10.2019
5716 Clouds 20 1010 34 10000 2.1 320 14:58 22.10.2019
5717 Clear 20 1011 42 10000 2.1 210 14:39 22.10.2019
5718 Clear 20 1011 42 10000 2.1 210 14:19 22.10.2019
5719 Clear 19 1012 45 10000 1 0 13:42 22.10.2019
5720 Clear 19 1012 45 10000 1 0 13:21 22.10.2019
5721 Clear 17 1012 52 10000 0.5 330 12:58 22.10.2019
5722 Clear 17 1012 59 10000 1 0 12:39 22.10.2019
5723 Clear 17 1012 59 10000 1 0 12:20 22.10.2019
5724 Clear 15 1013 67 10000 2.1 30 11:42 22.10.2019
5725 Clear 14 1013 67 10000 2.1 30 11:23 22.10.2019
5726 Clouds 13 1013 76 10000 2.1 30 10:59 22.10.2019
5727 Clear 12 1012 81 10000 1 0 10:38 22.10.2019
5728 Clear 12 1012 81 10000 1 0 10:20 22.10.2019
5729 Clouds 12 1012 81 10000 1.5 10 10:00 22.10.2019
5730 Clouds 12 1012 81 10000 1.5 10 10:00 22.10.2019
5731 Clouds 12 1012 81 10000 1.5 10 10:00 22.10.2019
5732 Clear 11 1012 87 10000 0.5 0 09:41 22.10.2019
5733 Clouds 11 1012 87 10000 0.5 0 09:22 22.10.2019
5734 Clouds 11 1012 81 10000 1.47 15 08:59 22.10.2019
5735 Clouds 11 1012 87 10000 1 0 08:41 22.10.2019
5736 Clouds 11 1012 87 10000 1 0 08:19 22.10.2019
5737 Clouds 11 1012 87 10000 0.5 0 07:44 22.10.2019
5738 Clouds 11 1012 87 10000 0.5 0 07:26 22.10.2019
5739 Clouds 11 1012 87 10000 2.1 50 06:45 22.10.2019
5740 Clouds 11 1012 87 10000 2.1 50 06:27 22.10.2019
5741 Rain 11 1013 93 10000 1.91 34 05:48 22.10.2019
5742 Rain 11 1013 93 10000 1.91 34 05:48 22.10.2019
5743 Rain 11 1013 87 10000 1.5 90 05:18 22.10.2019
5744 Clear 12 1014 81 10000 0.5 0 02:32 22.10.2019
5745 Clear 13 1014 76 10000 0.5 0 01:50 22.10.2019
5746 Clear 14 1015 76 10000 0.5 0 01:24 22.10.2019
5747 Clear 14 1015 81 10000 1.5 110 00:57 22.10.2019
5748 Clear 14 1015 71 10000 1.5 351 00:39 22.10.2019
5749 Clear 14 1015 71 10000 3.32 275 00:20 22.10.2019
5750 Clear 14 1015 71 10000 3.32 275 23:39 21.10.2019
5751 Clear 14 1015 71 10000 3.32 275 23:20 21.10.2019
5752 Clear 15 1015 59 10000 0.5 340 22:59 21.10.2019
5753 Clear 15 1015 62 10000 2.1 190 22:40 21.10.2019
5754 Clear 15 1015 62 10000 2.1 190 22:21 21.10.2019
5755 Clear 16 1015 62 10000 0.5 0 21:59 21.10.2019
5756 Clear 16 1015 59 10000 1 0 21:40 21.10.2019
5757 Clear 17 1015 59 10000 1 0 21:22 21.10.2019
5758 Clear 18 1015 42 10000 0.5 0 20:58 21.10.2019
5759 Clear 18 1015 37 10000 2.1 330 20:40 21.10.2019
5760 Clear 18 1015 37 10000 2.1 330 20:21 21.10.2019
5761 Clear 19 1015 34 10000 2.1 330 19:58 21.10.2019
5762 Clear 19 1015 35 10000 1.5 250 19:40 21.10.2019
5763 Clear 20 1015 35 10000 1.5 250 19:22 21.10.2019
5764 Clouds 20 1015 32 10000 1.5 210 18:56 21.10.2019
5765 Clouds 21 1015 32 10000 2.1 230 18:37 21.10.2019
5766 Clouds 21 1015 32 10000 2.1 230 18:19 21.10.2019
5767 Clouds 21 1015 35 10000 1 260 17:56 21.10.2019
5768 Clouds 21 1015 37 10000 1.5 280 17:37 21.10.2019
5769 Clouds 21 1015 37 10000 1.5 280 17:18 21.10.2019
5770 Clouds 20 1015 37 10000 2.1 190 16:56 21.10.2019
5771 Clouds 20 1015 40 10000 2.6 0 16:38 21.10.2019
5772 Clouds 20 1015 40 10000 2.6 0 16:19 21.10.2019
5773 Clear 20 1016 42 10000 1 0 15:45 21.10.2019
5774 Clear 20 1016 42 10000 1 0 15:25 21.10.2019
5775 Clouds 19 1016 45 10000 1.5 110 14:58 21.10.2019
5776 Clear 19 1017 52 10000 1 0 14:39 21.10.2019
5777 Clear 19 1017 52 10000 1 0 14:20 21.10.2019
5778 Clear 18 1017 48 10000 1 0 13:56 21.10.2019
5779 Clear 18 1018 55 10000 1.5 350 13:38 21.10.2019
5780 Clear 18 1017 63 10000 1 0 13:19 21.10.2019
5781 Clear 17 1018 67 10000 2.6 70 12:41 21.10.2019
5782 Clear 16 1018 72 10000 2.1 40 12:22 21.10.2019
5783 Clear 15 1018 77 10000 2.6 60 11:57 21.10.2019
5784 Clear 14 1018 76 10000 2.6 50 11:38 21.10.2019
5785 Clear 14 1018 76 10000 2.6 40 11:20 21.10.2019
5786 Clear 13 1018 87 10000 3.1 30 10:57 21.10.2019
5787 Clear 12 1017 81 10000 2.1 10 10:38 21.10.2019
5788 Clear 12 1017 81 10000 2.1 10 10:19 21.10.2019
5789 Clear 11 1017 87 10000 1 0 09:46 21.10.2019
5790 Clear 11 1017 87 10000 1 0 09:26 21.10.2019
5791 Clear 11 1017 87 10000 1 40 08:57 21.10.2019
5792 Clear 11 1016 87 10000 1.49 12.767 08:37 21.10.2019
5793 Clear 11 1016 87 10000 1.49 12.767 08:19 21.10.2019
5794 Clear 11 1016 93 10000 0.5 0 07:39 21.10.2019
5795 Clear 11 1016 93 10000 0.5 0 07:21 21.10.2019
5796 Clear 11 1016 93 10000 1.49 12.767 06:56 21.10.2019
5797 Clear 12 1016 87 10000 0.5 100 06:36 21.10.2019
5798 Clear 12 1016 87 10000 0.5 100 06:36 21.10.2019
5799 Clear 12 1016 87 10000 1 70 05:56 21.10.2019
5800 Rain 11 1016 87 10000 1 0 04:46 21.10.2019
5801 Clear 13 1016 81 10000 0.5 0 03:38 21.10.2019
5802 Clear 13 1016 87 10000 1 0 02:25 21.10.2019
5803 Clear 13 1016 87 10000 0.5 0 01:59 21.10.2019
5804 Clear 13 1016 87 10000 2.31 345.922 01:37 21.10.2019
5805 Clear 14 1016 82 10000 0.5 160 00:51 21.10.2019
5806 Clear 14 1016 77 10000 2.1 280 00:27 21.10.2019
5807 Clear 15 1016 67 10000 2.6 270 23:43 20.10.2019
5808 Clear 15 1016 67 10000 2.6 270 23:22 20.10.2019
5809 Clear 15 1016 63 10000 2.6 250 22:58 20.10.2019
5810 Clouds 15 1015 59 10000 3.1 240 22:39 20.10.2019
5811 Clouds 16 1015 59 10000 3.1 240 22:19 20.10.2019
5812 Rain 16 1015 63 10000 4.1 250 21:59 20.10.2019
5813 Rain 16 1016 72 10000 3.1 230 21:39 20.10.2019
5814 Rain 16 1016 72 10000 3.1 230 21:21 20.10.2019
5815 Rain 16 1015 52 10000 2.6 250 20:54 20.10.2019
5816 Clouds 17 1014 48 10000 3.6 290 20:36 20.10.2019
5817 Clouds 17 1014 48 10000 3.6 290 20:18 20.10.2019
5818 Clouds 18 1014 45 10000 6.2 300 19:55 20.10.2019
5819 Clouds 18 1014 40 10000 4.6 260 19:36 20.10.2019
5820 Clouds 19 1014 40 10000 4.6 260 19:18 20.10.2019
5821 Clouds 20 1014 37 10000 4.6 250 18:40 20.10.2019
5822 Clouds 20 1014 37 10000 4.6 250 18:20 20.10.2019
5823 Clouds 20 1014 40 10000 4.6 270 17:56 20.10.2019
5824 Clouds 20 1013 40 10000 4.6 250 17:37 20.10.2019
5825 Clouds 20 1013 40 10000 4.6 250 17:19 20.10.2019
5826 Clouds 20 1013 45 10000 4.6 260 16:43 20.10.2019
5827 Clouds 20 1013 45 10000 4.6 260 16:24 20.10.2019
5828 Clouds 20 1013 45 10000 4.1 260 15:59 20.10.2019
5829 Clouds 19 1013 52 10000 3.6 290 15:39 20.10.2019
5830 Clouds 19 1013 52 10000 3.6 290 15:20 20.10.2019
5831 Clouds 19 1014 52 10000 4.6 280 14:58 20.10.2019
5832 Clouds 19 1014 59 10000 4.1 290 14:38 20.10.2019
5833 Clouds 18 1014 59 10000 4.1 290 14:19 20.10.2019
5834 Clouds 18 1014 59 10000 4.1 270 13:56 20.10.2019
5835 Clouds 17 1014 59 10000 4.1 290 13:37 20.10.2019
5836 Clouds 17 1014 59 10000 4.1 290 13:18 20.10.2019
5837 Clear 17 1014 67 10000 3.6 280 12:56 20.10.2019
5838 Clouds 17 1014 67 10000 3.1 280 12:38 20.10.2019
5839 Clouds 16 1014 67 10000 3.1 280 12:20 20.10.2019
5840 Clouds 15 1014 63 10000 3.6 280 11:57 20.10.2019
5841 Clear 15 1014 77 10000 3.6 290 11:38 20.10.2019
5842 Clear 15 1014 77 10000 3.6 290 11:20 20.10.2019
5843 Clear 14 1013 77 10000 2.6 280 10:54 20.10.2019
5844 Clear 14 1013 87 10000 2.6 270 10:36 20.10.2019
5845 Clear 14 1013 87 10000 2.6 270 10:18 20.10.2019
5846 Clear 13 1012 87 10000 2.1 230 09:42 20.10.2019
5847 Clear 12 1012 87 10000 2.1 230 09:22 20.10.2019
5848 Clear 12 1012 93 10000 2.1 250 08:49 20.10.2019
5849 Clear 12 1012 93 10000 3.6 270 08:27 20.10.2019
5850 Clear 12 1011 93 10000 2.6 270 07:57 20.10.2019
5851 Clear 13 1011 87 10000 2.6 260 07:39 20.10.2019
5852 Clear 13 1011 87 10000 2.6 260 07:20 20.10.2019
5853 Clouds 13 1011 87 10000 3.1 250 06:23 20.10.2019
5854 Clouds 15 1011 87 10000 3.6 250 04:28 20.10.2019
5855 Clouds 15 1011 87 10000 3.6 250 04:28 20.10.2019
5856 Rain 15 1010 87 10000 2.6 240 03:48 20.10.2019
5857 Rain 15 1010 93 10000 3.1 240 03:21 20.10.2019
5858 Rain 16 1010 82 10000 3.6 240 02:44 20.10.2019
5859 Rain 16 1010 82 10000 3.6 240 02:18 20.10.2019
5860 Rain 16 1011 87 5000 5.7 240 01:43 20.10.2019
5861 Rain 16 1011 87 5000 5.7 240 01:19 20.10.2019
5862 Clouds 16 1009 87 10000 3.6 230 00:42 20.10.2019
5863 Rain 16 1009 77 10000 4.6 280 00:20 20.10.2019
5864 Rain 16 1009 93 10000 2.1 230 23:43 19.10.2019
5865 Rain 17 1009 93 10000 2.1 230 23:24 19.10.2019
5866 Rain 18 1008 88 10000 5.7 260 22:57 19.10.2019
5867 Rain 18 1008 77 10000 8.2 260 22:39 19.10.2019
5868 Rain 18 1008 77 10000 8.2 260 22:20 19.10.2019
5869 Thunderstorm 19 1007 88 10000 6.7 230 21:46 19.10.2019
5870 Thunderstorm 19 1007 88 10000 6.7 230 21:25 19.10.2019
5871 Rain 19 1007 88 4000 7.7 240 20:57 19.10.2019
5872 Rain 19 1007 83 7000 9.3 220 20:38 19.10.2019
5873 Rain 20 1007 83 7000 9.3 220 20:20 19.10.2019
5874 Rain 21 1007 83 8000 10.8 220 19:41 19.10.2019
5875 Rain 21 1007 83 8000 10.8 220 19:23 19.10.2019
5876 Rain 21 1008 83 7000 7.7 220 18:43 19.10.2019
5877 Rain 21 1008 83 7000 7.7 220 18:25 19.10.2019
5878 Rain 21 1008 73 4000 9.8 220 17:59 19.10.2019
5879 Rain 22 1009 60 10000 9.3 210 17:37 19.10.2019
5880 Clouds 22 1009 60 10000 9.3 210 17:19 19.10.2019
5881 Rain 22 1009 73 10000 9.3 230 16:54 19.10.2019
5882 Clouds 22 1009 60 10000 9.3 230 16:36 19.10.2019
5883 Clouds 22 1009 60 10000 9.3 230 16:18 19.10.2019
5884 Clouds 23 1010 64 10000 8.7 220 15:40 19.10.2019
5885 Clouds 23 1010 64 10000 8.7 220 15:40 19.10.2019
5886 Clouds 23 1010 64 10000 8.7 220 15:22 19.10.2019
5887 Clouds 23 1011 60 10000 7.7 230 14:38 19.10.2019
5888 Clouds 22 1011 60 10000 7.7 230 14:20 19.10.2019
5889 Clouds 22 1012 60 10000 5.7 230 13:57 19.10.2019
5890 Clouds 22 1012 56 10000 4.6 230 13:39 19.10.2019
5891 Clouds 22 1012 56 10000 4.6 230 13:18 19.10.2019
5892 Clouds 21 1013 56 10000 4.1 220 12:55 19.10.2019
5893 Rain 20 1013 56 10000 4.1 230 12:36 19.10.2019
5894 Rain 20 1013 56 10000 4.1 230 12:18 19.10.2019
5895 Rain 19 1013 77 10000 2.6 210 11:41 19.10.2019
5896 Clouds 18 1013 77 10000 2.6 210 11:22 19.10.2019
5897 Clouds 17 1013 88 10000 2.1 210 10:55 19.10.2019
5898 Clouds 17 1013 88 10000 2.1 210 10:37 19.10.2019
5899 Clouds 17 1013 93 10000 1 0 10:19 19.10.2019
5900 Clouds 17 1013 88 10000 1 160 09:42 19.10.2019
5901 Clouds 17 1013 88 10000 1 140 09:24 19.10.2019
5902 Clouds 16 1013 93 10000 1 0 08:59 19.10.2019
5903 Clouds 16 1013 93 10000 1 0 08:39 19.10.2019
5904 Clouds 16 1013 87 10000 0.5 260 08:21 19.10.2019
5905 Clouds 16 1013 87 10000 0.77 117.835 07:44 19.10.2019
5906 Clouds 16 1013 82 10000 1 150 07:24 19.10.2019
5907 Clouds 16 1013 82 10000 1 150 07:24 19.10.2019
5908 Clouds 16 1013 82 10000 1 150 07:24 19.10.2019
5909 Clouds 16 1013 93 10000 1 310 06:46 19.10.2019
5910 Mist 16 1014 93 5000 1 0 05:57 19.10.2019
5911 Mist 16 1014 93 5000 1 0 05:32 19.10.2019
5912 Clouds 16 1014 93 6000 2.1 230 04:21 19.10.2019
5913 Clear 17 1015 93 10000 3.1 220 02:44 19.10.2019
5914 Clear 18 1015 88 10000 3.6 230 01:53 19.10.2019
5915 Clouds 18 1016 88 10000 3.1 220 01:20 19.10.2019
5916 Clouds 18 1016 88 10000 3.1 220 01:20 19.10.2019
5917 Clear 18 1016 88 10000 2.6 220 00:48 19.10.2019
5918 Clear 18 1016 88 10000 3.1 230 00:26 19.10.2019
5919 Clear 19 1016 82 10000 3.6 240 23:45 18.10.2019
5920 Clear 19 1016 82 10000 3.6 240 23:26 18.10.2019
5921 Clouds 19 1016 82 10000 3.6 240 22:57 18.10.2019
5922 Clouds 20 1016 77 10000 3.6 240 22:39 18.10.2019
5923 Clouds 20 1016 77 10000 3.6 240 22:20 18.10.2019
5924 Clouds 20 1016 77 10000 3.6 240 22:20 18.10.2019
5925 Clouds 20 1016 77 10000 4.1 240 21:58 18.10.2019
5926 Clouds 20 1016 73 10000 3.6 220 21:39 18.10.2019
5927 Clouds 21 1015 73 10000 3.6 240 21:20 18.10.2019
5928 Clouds 21 1015 73 10000 3.6 240 20:56 18.10.2019
5929 Clouds 21 1015 69 10000 4.1 240 20:38 18.10.2019
5930 Clouds 22 1015 69 10000 4.1 240 20:20 18.10.2019
5931 Clouds 22 1015 69 10000 4.1 240 20:20 18.10.2019
5932 Clouds 22 1015 69 10000 4.6 240 19:57 18.10.2019
5933 Clouds 22 1015 69 10000 4.6 240 19:57 18.10.2019
5934 Clouds 23 1015 60 10000 4.6 260 19:38 18.10.2019
5935 Clouds 23 1015 60 10000 4.6 260 19:38 18.10.2019
5936 Clouds 23 1015 60 10000 4.6 260 19:20 18.10.2019
5937 Clouds 24 1016 64 10000 5.1 270 18:56 18.10.2019
5938 Clouds 23 1016 64 10000 3.6 250 18:38 18.10.2019
5939 Clouds 23 1016 64 10000 3.6 250 18:20 18.10.2019
5940 Clouds 24 1016 60 8000 3.6 240 17:39 18.10.2019
5941 Clouds 24 1016 60 8000 3.6 240 17:20 18.10.2019
5942 Clouds 24 1017 57 10000 3.6 230 16:59 18.10.2019
5943 Clouds 23 1017 60 10000 3.1 260 16:38 18.10.2019
5944 Clouds 23 1017 60 10000 3.1 260 16:19 18.10.2019
5945 Clouds 23 1017 60 10000 3.1 260 16:19 18.10.2019
5946 Clouds 24 1017 60 10000 3.1 250 15:54 18.10.2019
5947 Clouds 23 1017 64 10000 2.1 240 15:36 18.10.2019
5948 Clouds 23 1017 64 10000 2.1 240 15:18 18.10.2019
5949 Clouds 23 1018 57 10000 3.6 260 14:54 18.10.2019
5950 Clouds 23 1018 64 10000 2.1 180 14:36 18.10.2019
5951 Clouds 23 1018 64 10000 2.1 180 14:36 18.10.2019
5952 Clouds 23 1018 64 10000 2.1 180 14:18 18.10.2019
5953 Clouds 22 1019 68 10000 1.5 0 13:41 18.10.2019
5954 Clouds 22 1019 68 10000 1.5 0 13:23 18.10.2019
5955 Mist 21 1019 68 10000 1.5 180 12:57 18.10.2019
5956 Mist 21 1019 72 5000 1.5 0 12:39 18.10.2019
5957 Mist 21 1019 72 5000 1.5 0 12:20 18.10.2019
5958 Clouds 20 1020 77 8000 0.5 0 11:56 18.10.2019
5959 Clouds 19 1020 82 8000 1.06 254.017 11:38 18.10.2019
5960 Clouds 19 1020 82 8000 1.06 254.017 11:19 18.10.2019
5961 Clouds 19 1020 82 8000 1.06 254.017 11:19 18.10.2019
5962 Clouds 17 1020 88 8000 1.5 310 10:56 18.10.2019
5963 Clouds 17 1020 88 8000 1.5 310 10:56 18.10.2019
5964 Clouds 17 1020 88 8000 1.5 310 10:55 18.10.2019
5965 Clouds 17 1020 88 8000 1.5 310 10:55 18.10.2019
5966 Clouds 17 1020 88 8000 1.5 310 10:55 18.10.2019
5967 -273 0 0 0 0 0 10:36 18.10.2019
5968 Clouds 16 1019 88 9000 0.5 0 10:18 18.10.2019
5969 Fog 15 1019 87 10000 1 0 09:54 18.10.2019
5970 Fog 15 1018 100 100 1.06 254.017 09:36 18.10.2019
5971 Fog 15 1018 100 100 1.21 319.916 09:18 18.10.2019
5972 Fog 15 1018 100 600 0.5 220 08:42 18.10.2019
5973 Fog 15 1018 100 600 0.5 220 08:22 18.10.2019
5974 Clouds 15 1019 93 6000 1.21 319.916 07:44 18.10.2019
5975 Clouds 15 1019 93 6000 1.21 319.916 07:26 18.10.2019
5976 -273 0 0 0 0 0 06:41 18.10.2019
5977 Clear 16 1019 87 10000 1.11 341.207 06:22 18.10.2019
5978 Clear 16 1018 87 10000 1 0 05:58 18.10.2019
5979 Clear 16 1019 88 10000 1.5 200 05:24 18.10.2019
5980 Clear 16 1019 88 10000 1.5 240 04:49 18.10.2019
5981 Clouds 17 1019 82 10000 3.1 190 03:33 18.10.2019
5982 Clouds 17 1019 82 6000 3.1 190 02:37 18.10.2019
5983 Clouds 17 1019 82 6000 3.1 190 02:18 18.10.2019
5984 Clear 18 1020 77 10000 3.1 190 01:31 18.10.2019
5985 Clear 18 1020 77 10000 2.6 200 00:54 18.10.2019
5986 Clear 18 1020 77 10000 2.6 200 00:36 18.10.2019
5987 Clear 18 1020 77 10000 2.6 200 00:18 18.10.2019
5988 Clear 19 1019 72 10000 3.1 220 23:38 17.10.2019
5989 Clear 18 1020 77 10000 3.6 180 23:19 17.10.2019
5990 Clear 19 1019 68 10000 2.6 220 22:55 17.10.2019
5991 Clear 19 1019 64 10000 3.1 220 22:37 17.10.2019
5992 Clear 20 1019 64 10000 3.1 220 22:18 17.10.2019
5993 Clear 20 1019 60 10000 3.1 230 21:56 17.10.2019
5994 Clear 20 1019 56 10000 3.1 230 21:37 17.10.2019
5995 Clear 21 1019 56 10000 3.1 230 21:19 17.10.2019
5996 Clear 22 1019 53 10000 4.1 220 20:56 17.10.2019
5997 Clear 22 1018 53 10000 4.1 220 20:38 17.10.2019
5998 Clear 22 1018 53 10000 4.1 220 20:19 17.10.2019
5999 Clear 23 1018 47 10000 5.1 220 19:56 17.10.2019
6000 Clear 24 1018 38 10000 2.6 220 19:37 17.10.2019
6001 Clouds 23 1018 38 7000 3.1 260 19:18 17.10.2019
6002 Clouds 24 1018 33 7000 3.6 250 18:42 17.10.2019
6003 Clear 25 1018 34 10000 2.6 210 18:21 17.10.2019
6004 Clear 25 1018 36 10000 2.1 240 17:58 17.10.2019
6005 Clear 25 1018 36 10000 1.5 270 17:40 17.10.2019
6006 Clear 25 1018 36 10000 1.5 270 17:22 17.10.2019
6007 Clear 25 1019 36 10000 2.6 270 16:55 17.10.2019
6008 Clear 25 1019 27 10000 1.5 0 16:37 17.10.2019
6009 Clear 24 1019 36 10000 2.1 250 16:18 17.10.2019
6010 Clear 24 1019 36 10000 2.1 250 15:55 17.10.2019
6011 Clear 24 1020 43 10000 1.5 0 15:37 17.10.2019
6012 Clouds 24 1020 43 10000 1.5 0 15:18 17.10.2019
6013 Clouds 23 1020 43 10000 1 0 14:42 17.10.2019
6014 Clouds 23 1020 43 10000 1 0 14:23 17.10.2019
6015 Clouds 23 1020 43 10000 1 0 14:23 17.10.2019
6016 Clouds 22 1021 40 10000 1.5 220 13:56 17.10.2019
6017 Clouds 21 1021 43 10000 0.5 150 13:38 17.10.2019
6018 Clouds 21 1021 49 10000 1.5 0 13:18 17.10.2019
6019 Clouds 20 1021 55 10000 1.5 0 12:41 17.10.2019
6020 Clouds 19 1021 55 10000 1.5 0 12:20 17.10.2019
6021 Clouds 18 1021 67 10000 1 0 11:58 17.10.2019
6022 Clouds 18 1021 67 10000 1 0 11:40 17.10.2019
6023 Clouds 18 1021 59 10000 1.5 110 11:19 17.10.2019
6024 Clouds 16 1021 67 10000 1.243 80 10:55 17.10.2019
6025 Clouds 15 1021 71 10000 1 0 10:36 17.10.2019
6026 Clouds 15 1021 71 10000 1 0 10:18 17.10.2019
6027 Clouds 12 1020 93 10000 1.257 96 09:42 17.10.2019
6028 Clear 11 1020 93 10000 0.671 359 09:22 17.10.2019
6029 Clear 11 1020 87 10000 1 0 08:58 17.10.2019
6030 -273 0 0 0 0 0 08:58 17.10.2019
6031 Clear 11 1019 93 10000 0.671 359 08:39 17.10.2019
6032 Clear 11 1019 93 10000 0.671 359 08:21 17.10.2019
6033 Clear 11 1019 93 10000 0.671 359 08:21 17.10.2019
6034 Clear 12 1019 81 10000 1 90 07:55 17.10.2019
6035 -273 0 0 0 0 0 07:55 17.10.2019
6036 Clear 11 1019 93 10000 0.671 359 07:36 17.10.2019
6037 Clear 12 1019 93 10000 0.671 359 07:18 17.10.2019
6038 Clear 12 1019 81 10000 1 0 06:40 17.10.2019
6039 Clear 13 1019 81 10000 1 0 06:20 17.10.2019
6040 Clear 13 1019 71 10000 0.246 347 05:52 17.10.2019
6041 Clear 13 1019 71 10000 0.246 347 05:32 17.10.2019
6042 Clear 13 1019 71 10000 0.5 0 04:53 17.10.2019
6043 Clear 14 1019 67 10000 0.5 0 03:55 17.10.2019
6044 Clouds 15 1019 55 10000 1 250 02:37 17.10.2019
6045 Clouds 16 1019 48 10000 1 0 01:31 17.10.2019
6046 Clouds 16 1019 48 10000 3.1 280 00:40 17.10.2019
6047 Clouds 17 1019 48 10000 3.1 280 00:19 17.10.2019
6048 Clouds 17 1019 45 10000 3.1 270 23:42 16.10.2019
6049 Clouds 17 1019 45 10000 3.1 270 23:21 16.10.2019
6050 Clouds 17 1019 42 10000 3.1 270 22:56 16.10.2019
6051 Clouds 17 1019 42 10000 3.1 270 22:56 16.10.2019
6052 Clouds 18 1019 37 10000 5.1 270 22:37 16.10.2019
6053 Clouds 18 1019 37 10000 5.1 270 22:19 16.10.2019
6054 Clouds 19 1019 35 10000 4.6 260 21:57 16.10.2019
6055 Clouds 19 1019 33 10000 3.1 240 21:37 16.10.2019
6056 Clear 20 1019 33 10000 3.1 240 21:19 16.10.2019
6057 Clear 20 1018 28 10000 2.6 230 20:58 16.10.2019
6058 Clear 21 1018 23 10000 1.5 210 20:39 16.10.2019
6059 Clear 21 1018 23 10000 1.5 210 20:21 16.10.2019
6060 Clear 22 1018 23 10000 1.5 220 19:59 16.10.2019
6061 Clear 23 1018 22 10000 2.6 250 19:39 16.10.2019
6062 Clear 23 1018 22 10000 2.6 250 19:39 16.10.2019
6063 Clear 23 1018 22 10000 2.6 250 19:20 16.10.2019
6064 Clear 24 1018 19 10000 1.5 230 18:54 16.10.2019
6065 -273 0 0 0 0 0 18:54 16.10.2019
6066 Clear 24 1018 23 10000 1 0 18:36 16.10.2019
6067 Clear 24 1018 23 10000 1 0 18:18 16.10.2019
6068 Clear 24 1018 23 10000 1 0 17:54 16.10.2019
6069 Clear 24 1018 23 10000 1 80 17:36 16.10.2019
6070 Clear 24 1018 23 10000 1 80 17:36 16.10.2019
6071 Clear 24 1018 23 10000 1 80 17:18 16.10.2019
6072 Clear 24 1019 25 10000 2.1 0 16:42 16.10.2019
6073 Clear 24 1019 25 10000 2.1 0 16:42 16.10.2019
6074 Clear 23 1019 25 10000 2.1 0 16:21 16.10.2019
6075 Clear 23 1019 25 10000 2.1 0 16:21 16.10.2019
6076 Clear 23 1019 25 10000 1 260 15:58 16.10.2019
6077 Clear 23 1020 31 10000 1 0 15:39 16.10.2019
6078 Clear 23 1020 31 10000 1 0 15:39 16.10.2019
6079 Clear 23 1020 31 10000 1 0 15:39 16.10.2019
6080 Clear 23 1020 31 10000 1 0 15:19 16.10.2019
6081 Clear 22 1020 30 10000 1.5 350 14:58 16.10.2019
6082 Clear 22 1020 30 10000 1.5 350 14:39 16.10.2019
6083 Clear 22 1021 35 10000 1 0 14:19 16.10.2019
6084 Clear 21 1021 35 10000 1 0 13:57 16.10.2019
6085 Clear 20 1021 35 10000 1 0 13:38 16.10.2019
6086 Clear 20 1021 35 10000 1 0 13:38 16.10.2019
6087 Clear 20 1021 40 10000 2.6 30 13:20 16.10.2019
6088 Clear 18 1022 39 10000 3.1 60 12:42 16.10.2019
6089 Clear 18 1022 45 10000 3.1 30 12:20 16.10.2019
6090 Clear 17 1022 45 10000 3.6 40 11:45 16.10.2019
6091 Clear 17 1022 45 10000 3.6 40 11:45 16.10.2019
6092 Clear 16 1022 51 10000 3.1 30 11:19 16.10.2019
6093 Clear 15 1022 54 10000 3.1 50 10:56 16.10.2019
6094 Clear 14 1022 54 10000 3.1 50 10:36 16.10.2019
6095 Clear 14 1021 62 10000 3.1 40 10:18 16.10.2019
6096 Clear 12 1021 66 10000 2.1 40 09:40 16.10.2019
6097 Clear 12 1021 66 10000 2.1 40 09:40 16.10.2019
6098 Clear 12 1021 71 10000 1 10 09:21 16.10.2019
6099 Clear 12 1021 71 10000 2.6 30 08:46 16.10.2019
6100 Clear 12 1021 71 10000 1.5 0 08:26 16.10.2019
6101 Clear 12 1021 62 10000 1.5 10 07:59 16.10.2019
6102 Clear 12 1021 62 10000 1.5 10 07:41 16.10.2019
6103 Clear 12 1020 66 10000 1.5 0 07:22 16.10.2019
6104 Clear 12 1021 66 10000 1 0 06:47 16.10.2019
6105 -273 0 0 0 0 0 06:28 16.10.2019
6106 Clear 14 1021 62 10000 1.5 90 04:25 16.10.2019
6107 Clouds 14 1022 58 10000 1 90 02:51 16.10.2019
6108 Clouds 14 1022 62 10000 0.5 0 01:20 16.10.2019
6109 Clouds 14 1022 62 10000 2 35 00:59 16.10.2019
6110 Clouds 14 1022 62 10000 2 35 00:40 16.10.2019
6111 Clouds 15 1022 54 10000 1 0 23:58 15.10.2019
6112 Clouds 15 1022 54 10000 1 0 23:38 15.10.2019
6113 Clouds 15 1021 51 10000 1.5 50 23:19 15.10.2019
6114 -273 0 0 0 0 0 22:55 15.10.2019
6115 Clouds 15 1021 48 10000 0.5 0 22:55 15.10.2019
6116 Clouds 16 1021 48 10000 0.5 0 22:37 15.10.2019
6117 Clouds 16 1021 45 10000 1 200 22:18 15.10.2019
6118 Clouds 16 1021 45 10000 1 200 22:18 15.10.2019
6119 Clouds 17 1021 39 10000 1.5 180 21:54 15.10.2019
6120 Clouds 17 1021 39 10000 1.5 180 21:36 15.10.2019
6121 Clouds 18 1021 39 10000 2.1 190 21:18 15.10.2019
6122 Clouds 19 1021 32 10000 1.5 210 20:55 15.10.2019
6123 Clouds 20 1021 32 10000 1.5 210 20:37 15.10.2019
6124 Clouds 20 1020 34 10000 1 180 20:19 15.10.2019
6125 Clouds 20 1020 30 10000 0.5 140 19:55 15.10.2019
6126 Clouds 21 1020 30 10000 0.5 140 19:36 15.10.2019
6127 Clouds 21 1020 28 10000 1 0 19:18 15.10.2019
6128 Clouds 22 1020 28 10000 1.5 160 18:43 15.10.2019
6129 -273 0 0 0 0 0 18:25 15.10.2019
6130 -273 0 0 0 0 0 17:55 15.10.2019
6131 Clouds 22 1020 28 10000 1 80 17:55 15.10.2019
6132 Clouds 22 1020 28 10000 1 80 17:37 15.10.2019
6133 Clouds 22 1020 28 10000 1 80 17:37 15.10.2019
6134 Clouds 22 1021 30 10000 1.5 300 17:18 15.10.2019
6135 Clouds 21 1021 30 10000 1 60 16:45 15.10.2019
6136 Clouds 21 1021 32 10000 1.5 150 16:22 15.10.2019
6137 Clouds 21 1021 30 10000 1.5 90 15:58 15.10.2019
6138 Clouds 20 1021 30 10000 1.5 90 15:39 15.10.2019
6139 Clouds 20 1022 37 10000 1 0 15:19 15.10.2019
6140 Clouds 20 1022 34 10000 1.5 140 14:56 15.10.2019
6141 Clouds 20 1022 34 10000 1.5 140 14:37 15.10.2019
6142 Clouds 19 1022 39 10000 1.5 0 14:19 15.10.2019
6143 Clouds 19 1023 37 10000 1.5 60 13:43 15.10.2019
6144 Clouds 19 1023 37 10000 1.5 60 13:43 15.10.2019
6145 Clouds 19 1023 48 10000 1.5 0 13:21 15.10.2019
6146 Clouds 17 1023 42 10000 2.1 60 12:59 15.10.2019
6147 Clouds 17 1023 42 10000 2.1 60 12:38 15.10.2019
6148 Clear 17 1023 55 10000 1 0 12:20 15.10.2019
6149 Clear 16 1023 55 10000 3.1 30 11:44 15.10.2019
6150 Clear 15 1023 62 10000 0.5 0 11:21 15.10.2019
6151 Clear 15 1023 71 10000 1 0 10:58 15.10.2019
6152 Clear 14 1023 71 10000 1 0 10:39 15.10.2019
6153 Clear 13 1023 67 10000 1.34 29.304 10:19 15.10.2019
6154 Clear 13 1022 76 10000 0.5 0 09:57 15.10.2019
6155 Clear 12 1022 76 10000 0.5 0 09:37 15.10.2019
6156 Clear 11 1022 76 10000 1 0 09:19 15.10.2019
6157 Clear 11 1022 76 10000 1 0 08:41 15.10.2019
6158 Clear 11 1022 76 10000 1 0 08:21 15.10.2019
6159 -273 0 0 0 0 0 07:56 15.10.2019
6160 Clear 11 1022 87 10000 0.5 0 07:56 15.10.2019
6161 Clear 11 1022 87 10000 0.5 0 07:56 15.10.2019
6162 Clear 11 1021 87 10000 1.75 358.954 07:38 15.10.2019
6163 Clear 11 1021 87 10000 1.75 358.954 07:19 15.10.2019
6164 Fog 11 1021 87 10000 0.5 0 06:44 15.10.2019
6165 Fog 11 1021 87 10000 1 0 06:25 15.10.2019
6166 Mist 12 1021 76 10000 0.5 0 05:41 15.10.2019
6167 Clear 13 1021 82 10000 1 320 05:22 15.10.2019
6168 Clear 13 1021 82 10000 2.1 6.009 04:25 15.10.2019
6169 Clear 13 1021 82 10000 1.5 330 03:37 15.10.2019
6170 Clear 13 1021 82 10000 1.5 330 03:37 15.10.2019
6171 Clear 14 1021 77 10000 2.1 310 02:24 15.10.2019
6172 Clear 15 1021 77 10000 2.6 310 01:48 15.10.2019
6173 Clear 16 1021 72 10000 2.6 280 01:19 15.10.2019
6174 Clear 16 1021 72 10000 1.5 280 00:49 15.10.2019
6175 Clear 16 1021 72 10000 2.1 280 00:21 15.10.2019
6176 Clear 16 1021 72 10000 2.1 280 00:21 15.10.2019
6177 Clear 17 1020 68 10000 3.1 280 23:44 14.10.2019
6178 Clouds 17 1020 68 10000 2.6 310 23:20 14.10.2019
6179 Clouds 17 1020 63 10000 4.1 300 22:57 14.10.2019
6180 Clouds 17 1020 63 10000 4.1 300 22:38 14.10.2019
6181 Clouds 18 1019 56 10000 4.1 310 22:18 14.10.2019
6182 Clouds 18 1019 56 10000 4.1 310 22:18 14.10.2019
6183 Rain 18 1019 68 10000 4.6 280 21:55 14.10.2019
6184 Rain 18 1019 68 10000 3.6 270 21:36 14.10.2019
6185 Rain 18 1019 68 10000 3.6 270 21:18 14.10.2019
6186 Rain 18 1018 68 10000 5.1 260 20:54 14.10.2019
6187 Rain 18 1018 68 10000 5.1 260 20:54 14.10.2019
6188 Rain 19 1018 68 9000 4.6 260 20:36 14.10.2019
6189 Rain 19 1018 68 9000 4.6 260 20:18 14.10.2019
6190 Clouds 19 1018 64 10000 8.7 280 19:41 14.10.2019
6191 Clouds 19 1018 64 10000 8.7 280 19:41 14.10.2019
6192 Clouds 20 1017 53 10000 8.2 260 19:23 14.10.2019
6193 Clouds 20 1017 53 10000 8.2 260 19:23 14.10.2019
6194 Clouds 21 1016 46 10000 8.7 250 18:58 14.10.2019
6195 Clouds 22 1016 46 10000 8.7 250 18:39 14.10.2019
6196 Clouds 22 1016 43 10000 7.7 250 18:19 14.10.2019
6197 Clouds 22 1016 43 10000 7.7 240 17:57 14.10.2019
6198 Clouds 23 1016 40 10000 8.7 230 17:38 14.10.2019
6199 Clouds 23 1016 40 10000 8.7 230 17:20 14.10.2019
6200 Clouds 23 1016 44 10000 6.7 240 16:44 14.10.2019
6201 Clouds 23 1016 44 10000 6.7 240 16:21 14.10.2019
6202 Rain 23 1016 56 10000 2.6 260 15:44 14.10.2019
6203 Rain 23 1016 56 10000 2.6 260 15:26 14.10.2019
6204 Clouds 23 1016 49 10000 5.7 240 14:58 14.10.2019
6205 Clouds 22 1017 60 10000 3.1 250 14:39 14.10.2019
6206 Clouds 22 1017 60 10000 3.1 250 14:20 14.10.2019
6207 Clouds 21 1017 68 10000 2.6 270 13:44 14.10.2019
6208 Clouds 21 1017 68 10000 2.6 270 13:22 14.10.2019
6209 Rain 21 1017 68 10000 5.1 270 12:59 14.10.2019
6210 Rain 20 1017 68 10000 3.1 250 12:40 14.10.2019
6211 Rain 20 1017 72 10000 4.6 280 12:19 14.10.2019
6212 Clouds 19 1017 82 10000 2.6 250 11:46 14.10.2019
6213 Clouds 19 1017 82 10000 2.6 250 11:26 14.10.2019
6214 Clouds 19 1017 82 10000 2.6 250 11:26 14.10.2019
6215 Clouds 19 1016 82 10000 3.1 240 10:58 14.10.2019
6216 Clouds 19 1016 88 10000 2.6 240 10:38 14.10.2019
6217 Clouds 18 1016 88 10000 2.6 240 10:20 14.10.2019
6218 Clouds 18 1015 93 10000 3.6 220 09:55 14.10.2019
6219 Clouds 18 1015 93 10000 2.6 210 09:36 14.10.2019
6220 Clouds 17 1015 93 10000 2.6 210 09:18 14.10.2019
6221 Rain 17 1014 93 10000 2.6 210 08:43 14.10.2019
6222 Rain 17 1014 93 10000 2.6 210 08:22 14.10.2019
6223 Rain 19 1014 83 7000 4.1 230 07:42 14.10.2019
6224 Rain 19 1013 83 10000 3.6 200 07:19 14.10.2019
6225 Rain 20 1014 82 10000 4.6 230 06:48 14.10.2019
6226 Rain 19 1013 82 10000 3.1 220 06:20 14.10.2019
6227 Rain 19 1013 82 10000 3.1 220 05:49 14.10.2019
6228 Clouds 19 1013 82 10000 4.6 250 04:48 14.10.2019
6229 Clear 19 1012 72 10000 4.1 220 03:28 14.10.2019
6230 Clouds 20 1012 64 10000 3.1 200 02:49 14.10.2019
6231 Clear 21 1013 60 10000 5.1 240 01:24 14.10.2019
6232 Clear 22 1012 53 10000 3.6 220 00:58 14.10.2019
6233 Clear 23 1012 53 10000 2.6 210 00:21 14.10.2019
6234 Clear 23 1012 47 10000 2.1 240 23:45 13.10.2019
6235 Clear 24 1012 47 10000 2.1 240 23:21 13.10.2019
6236 Clear 24 1012 47 10000 3.1 280 22:59 13.10.2019
6237 Clear 24 1011 50 10000 1.5 230 22:41 13.10.2019
6238 Clear 24 1011 50 10000 1.5 230 22:21 13.10.2019
6239 Clear 24 1012 53 10000 1 120 21:58 13.10.2019
6240 Clear 25 1012 44 10000 0.5 110 21:38 13.10.2019
6241 Clear 26 1012 44 10000 0.5 110 21:19 13.10.2019
6242 Clear 27 1012 44 10000 1.5 270 20:58 13.10.2019
6243 -273 0 0 0 0 0 20:58 13.10.2019
6244 Clear 27 1011 42 10000 2.1 270 20:39 13.10.2019
6245 Clear 27 1011 42 10000 2.1 270 20:39 13.10.2019
6246 Clear 27 1011 42 10000 2.1 270 20:21 13.10.2019
6247 Clear 27 1012 45 10000 1.5 270 19:59 13.10.2019
6248 Clear 28 1012 42 10000 1.5 230 19:39 13.10.2019
6249 Clear 28 1012 42 10000 1.5 230 19:39 13.10.2019
6250 Clear 28 1012 42 10000 1.5 230 19:21 13.10.2019
6251 Clear 29 1012 39 10000 1.5 0 18:58 13.10.2019
6252 Clear 29 1012 39 10000 1.5 0 18:55 13.10.2019
6253 Clear 29 1012 39 10000 1.5 0 18:36 13.10.2019
6254 Clear 29 1012 39 10000 1.5 0 18:18 13.10.2019
6255 Clear 29 1013 42 10000 2.1 250 17:44 13.10.2019
6256 Clear 29 1013 42 10000 2.1 250 17:44 13.10.2019
6257 -273 0 0 0 0 0 17:26 13.10.2019
6258 Clear 29 1013 42 10000 2.1 250 17:25 13.10.2019
6259 Clear 29 1013 42 10000 2.1 250 17:25 13.10.2019
6260 Clear 28 1013 42 10000 2.1 0 16:54 13.10.2019
6261 Clear 28 1013 45 10000 2.1 250 16:36 13.10.2019
6262 Clear 28 1013 45 10000 2.1 250 16:18 13.10.2019
6263 Clear 27 1013 45 10000 1.5 250 15:55 13.10.2019
6264 Clear 27 1014 47 10000 1 70 15:36 13.10.2019
6265 Clear 27 1014 47 10000 1 70 15:18 13.10.2019
6266 Clear 26 1015 54 10000 2.1 160 14:40 13.10.2019
6267 Clear 25 1015 54 10000 2.1 160 14:22 13.10.2019
6268 Clouds 25 1015 57 10000 2.1 200 14:00 13.10.2019
6269 Clouds 24 1016 60 10000 2.6 140 13:39 13.10.2019
6270 Clouds 24 1016 60 10000 2.6 140 13:21 13.10.2019
6271 Clouds 24 1016 60 10000 2.6 140 12:57 13.10.2019
6272 Clouds 23 1016 60 10000 1.5 150 12:39 13.10.2019
6273 Clouds 23 1016 68 10000 1.5 90 12:20 13.10.2019
6274 Clouds 22 1016 68 10000 1.5 90 11:58 13.10.2019
6275 Clouds 22 1017 77 10000 1.5 10 11:38 13.10.2019
6276 Clouds 22 1017 77 10000 1.5 10 11:38 13.10.2019
6277 Clouds 21 1017 77 10000 1.5 10 11:19 13.10.2019
6278 Clouds 20 1016 77 10000 1.5 360 10:42 13.10.2019
6279 Clouds 19 1016 77 10000 1.5 360 10:24 13.10.2019
6280 Clouds 19 1016 77 10000 1 0 09:58 13.10.2019
6281 Clouds 19 1016 77 10000 1.5 350 09:39 13.10.2019
6282 Clouds 19 1016 77 10000 1 0 09:20 13.10.2019
6283 Clouds 19 1016 77 10000 1.5 350 09:20 13.10.2019
6284 Clouds 19 1016 77 10000 1.5 10 08:43 13.10.2019
6285 Clouds 19 1016 77 10000 1.5 10 08:23 13.10.2019
6286 Clouds 19 1016 82 10000 1.5 10 07:51 13.10.2019
6287 Clouds 19 1015 82 10000 2.1 40 07:32 13.10.2019
6288 Clouds 19 1015 82 10000 1.5 340 06:51 13.10.2019
6289 Clouds 19 1015 77 10000 1.5 340 06:23 13.10.2019
6290 Clouds 19 1015 77 10000 1.5 340 06:23 13.10.2019
6291 Clouds 20 1015 82 10000 1.5 350 05:19 13.10.2019
6292 Clouds 19 1016 77 10000 1.5 300 04:34 13.10.2019
6293 Clouds 19 1016 82 10000 2.1 240 02:53 13.10.2019
6294 Clouds 19 1016 82 10000 2.6 260 02:27 13.10.2019
6295 Clear 20 1016 77 10000 4.1 260 01:36 13.10.2019
6296 Clear 20 1016 77 10000 4.1 250 00:55 13.10.2019
6297 Clear 20 1016 77 10000 4.1 240 00:37 13.10.2019
6298 Clear 20 1016 77 10000 4.1 240 00:37 13.10.2019
6299 Clear 20 1016 77 10000 4.1 240 00:18 13.10.2019
6300 Clouds 20 1016 77 10000 6.2 250 23:41 12.10.2019
6301 Clouds 21 1016 77 10000 6.2 250 23:22 12.10.2019
6302 Clear 21 1016 78 10000 4.1 230 22:58 12.10.2019
6303 Clear 22 1015 78 10000 5.7 250 22:40 12.10.2019
6304 Clear 22 1015 78 10000 5.7 250 22:22 12.10.2019
6305 Clear 22 1015 78 10000 5.7 250 22:22 12.10.2019
6306 -273 0 0 0 0 0 21:58 12.10.2019
6307 Clear 22 1015 83 10000 7.2 220 21:58 12.10.2019
6308 Clear 23 1015 78 10000 7.7 230 21:39 12.10.2019
6309 Clear 22 1015 78 10000 7.7 230 21:21 12.10.2019
6310 Clear 23 1014 65 10000 7.2 250 20:46 12.10.2019
6311 Clear 23 1014 65 10000 7.2 250 20:46 12.10.2019
6312 Clear 24 1014 65 10000 7.2 250 20:28 12.10.2019
6313 Clear 25 1014 54 10000 6.2 240 19:57 12.10.2019
6314 Clear 26 1013 51 10000 5.1 240 19:36 12.10.2019
6315 Clear 26 1013 51 10000 5.1 240 19:18 12.10.2019
6316 Clear 29 1013 45 10000 5.1 250 18:42 12.10.2019
6317 Clear 28 1013 45 10000 5.1 250 18:24 12.10.2019
6318 Clear 29 1013 40 10000 5.1 220 17:46 12.10.2019
6319 Clear 29 1013 40 10000 5.1 220 17:21 12.10.2019
6320 Clear 30 1013 42 10000 5.7 240 16:59 12.10.2019
6321 Clear 30 1013 42 10000 5.7 240 16:59 12.10.2019
6322 Clear 30 1013 42 10000 4.1 240 16:40 12.10.2019
6323 Clear 30 1013 42 10000 4.1 240 16:21 12.10.2019
6324 Clear 30 1014 37 10000 3.6 230 15:56 12.10.2019
6325 Clear 30 1014 35 10000 4.6 230 15:37 12.10.2019
6326 Clear 29 1014 37 10000 3.6 240 15:18 12.10.2019
6327 Clear 29 1015 37 10000 3.6 230 14:40 12.10.2019
6328 Clear 29 1015 37 10000 3.6 230 14:20 12.10.2019
6329 Clear 28 1015 39 10000 3.1 240 13:51 12.10.2019
6330 Clear 28 1015 39 10000 2.1 210 13:32 12.10.2019
6331 Clear 27 1016 42 10000 1.5 250 12:56 12.10.2019
6332 Clear 26 1015 47 10000 1 0 12:38 12.10.2019
6333 Clear 26 1015 47 10000 1 0 12:20 12.10.2019
6334 Clear 25 1015 50 10000 1 0 11:45 12.10.2019
6335 Clear 24 1015 50 10000 1 0 11:24 12.10.2019
6336 Clear 23 1015 56 10000 1.5 80 10:58 12.10.2019
6337 Clear 22 1015 56 10000 1 0 10:39 12.10.2019
6338 Clear 22 1015 56 10000 1 0 10:20 12.10.2019
6339 -273 0 0 0 0 0 09:57 12.10.2019
6340 Clear 21 1014 60 10000 1.5 30 09:57 12.10.2019
6341 Clear 21 1015 60 10000 1 0 09:38 12.10.2019
6342 Clear 21 1015 60 10000 1 0 09:19 12.10.2019
6343 Clear 21 1015 60 10000 1 0 09:19 12.10.2019
6344 Clear 21 1014 56 10000 1 0 08:44 12.10.2019
6345 Clear 21 1014 56 10000 1 0 08:24 12.10.2019
6346 Clear 21 1015 60 10000 0.5 0 07:57 12.10.2019
6347 Clear 21 1014 53 10000 1 0 07:31 12.10.2019
6348 Clear 22 1014 56 10000 2.1 50 06:28 12.10.2019
6349 -273 0 0 0 0 0 05:43 12.10.2019
6350 Clear 22 1015 64 10000 2.6 30 04:34 12.10.2019
6351 Clear 22 1015 64 10000 2.1 40 03:54 12.10.2019
6352 Clear 22 1016 60 10000 0.5 0 02:50 12.10.2019
6353 Smoke 23 1016 57 10000 0.5 150 01:33 12.10.2019
6354 Smoke 23 1016 60 10000 0.5 0 00:56 12.10.2019
6355 Smoke 23 1017 57 10000 1 250 00:38 12.10.2019
6356 Smoke 24 1017 50 10000 1.5 290 23:55 11.10.2019
6357 Smoke 24 1017 50 10000 1.5 290 23:37 11.10.2019
6358 Smoke 24 1017 50 10000 1.5 290 23:18 11.10.2019
6359 Smoke 25 1016 41 10000 0.5 310 22:38 11.10.2019
6360 Smoke 25 1016 41 10000 0.5 310 22:19 11.10.2019
6361 Clear 26 1016 36 10000 2.6 270 21:55 11.10.2019
6362 Clear 26 1016 36 10000 2.6 270 21:36 11.10.2019
6363 Clear 26 1016 36 10000 2.6 270 21:18 11.10.2019
6364 Clear 27 1015 34 10000 1.5 320 20:42 11.10.2019
6365 Clear 27 1015 34 10000 1.5 320 20:24 11.10.2019
6366 Clear 29 1015 30 10000 2.1 340 19:56 11.10.2019
6367 Clear 29 1015 30 10000 0.5 0 19:38 11.10.2019
6368 Clear 28 1015 30 10000 0.5 0 19:18 11.10.2019
6369 Clear 28 1015 30 10000 0.5 20 18:56 11.10.2019
6370 Clear 29 1015 30 10000 0.5 20 18:37 11.10.2019
6371 Clear 29 1015 30 10000 0.5 20 18:18 11.10.2019
6372 Clear 29 1015 30 10000 0.5 20 17:57 11.10.2019
6373 Clear 29 1016 32 10000 2.1 280 17:37 11.10.2019
6374 Clear 29 1016 32 10000 2.1 250 17:18 11.10.2019
6375 Clear 29 1016 32 10000 2.1 250 16:54 11.10.2019
6376 Clear 29 1016 32 10000 2.1 250 16:54 11.10.2019
6377 Clear 29 1017 32 10000 2.1 250 16:36 11.10.2019
6378 Clear 29 1017 32 10000 2.1 250 16:18 11.10.2019
6379 Clear 28 1017 37 10000 1 0 15:39 11.10.2019
6380 Clear 28 1017 37 10000 1 0 15:19 11.10.2019
6381 Clear 28 1018 34 10000 1 60 14:49 11.10.2019
6382 Clear 27 1018 34 10000 1 60 14:30 11.10.2019
6383 Clear 27 1018 39 10000 2.1 60 13:58 11.10.2019
6384 Clear 26 1018 47 10000 0.5 0 13:40 11.10.2019
6385 Clear 26 1018 47 10000 0.5 0 13:22 11.10.2019
6386 Clear 26 1018 41 10000 1.5 80 12:56 11.10.2019
6387 Clear 25 1019 44 10000 2.1 140 12:38 11.10.2019
6388 Clear 25 1019 47 10000 3.1 100 12:19 11.10.2019
6389 Clear 24 1019 47 10000 3.1 100 11:55 11.10.2019
6390 Clear 23 1019 60 10000 1 0 11:36 11.10.2019
6391 Clear 23 1018 60 10000 4.1 60 11:18 11.10.2019
6392 Clear 22 1018 68 10000 1.5 0 10:41 11.10.2019
6393 Clear 22 1018 68 10000 1.5 0 10:23 11.10.2019
6394 Clear 21 1018 68 10000 2.6 50 09:57 11.10.2019
6395 Clear 21 1017 72 10000 1.5 0 09:38 11.10.2019
6396 Clear 20 1017 72 10000 3.1 50 09:20 11.10.2019
6397 Clear 20 1017 72 10000 1.5 0 09:20 11.10.2019
6398 Clear 20 1017 77 10000 0.5 0 08:55 11.10.2019
6399 Clear 20 1017 77 10000 0.5 0 08:37 11.10.2019
6400 Clear 20 1017 77 10000 0.5 0 08:19 11.10.2019
6401 Clear 20 1017 72 10000 1 0 07:45 11.10.2019
6402 Clear 20 1017 72 10000 1 0 07:27 11.10.2019
6403 Clear 20 1017 72 10000 3.1 20 06:49 11.10.2019
6404 Clear 20 1017 72 10000 3.1 20 06:24 11.10.2019
6405 Clear 20 1017 64 10000 2.6 40 05:41 11.10.2019
6406 Clear 20 1017 64 10000 2.6 40 05:20 11.10.2019
6407 Clear 21 1017 60 10000 1.5 50 04:28 11.10.2019
6408 Clear 21 1017 64 10000 1.5 80 02:41 11.10.2019
6409 Clear 23 1017 53 10000 2.1 250 00:52 11.10.2019
6410 Clear 23 1017 53 10000 2.1 250 00:29 11.10.2019
6411 Clear 24 1016 57 10000 1.5 260 23:48 10.10.2019
6412 Clear 24 1016 57 10000 1.5 260 23:23 10.10.2019
6413 Clear 25 1016 47 10000 4.6 230 22:59 10.10.2019
6414 Clear 25 1016 57 10000 2.1 220 22:40 10.10.2019
6415 Clear 25 1016 57 10000 2.1 220 22:21 10.10.2019
6416 Clear 25 1016 57 10000 2.1 220 22:21 10.10.2019
6417 Clear 25 1016 57 10000 2.1 220 22:21 10.10.2019
6418 Clear 25 1016 57 10000 2.1 220 22:21 10.10.2019
6419 Clear 26 1015 42 10000 2.6 190 21:59 10.10.2019
6420 Clear 27 1015 47 10000 1.5 0 21:40 10.10.2019
6421 Clear 27 1015 47 10000 1.5 0 21:40 10.10.2019
6422 Clear 27 1015 47 10000 1.5 0 21:22 10.10.2019
6423 Clear 30 1015 31 10000 2.1 330 20:57 10.10.2019
6424 Clear 29 1014 39 10000 0.5 260 20:39 10.10.2019
6425 Clear 30 1014 39 10000 0.5 260 20:18 10.10.2019
6426 Clear 30 1014 39 10000 0.5 260 20:18 10.10.2019
6427 Clear 32 1015 29 10000 2.6 270 19:54 10.10.2019
6428 Clear 32 1014 33 10000 1.5 240 19:36 10.10.2019
6429 Clear 32 1014 27 10000 1.5 260 19:18 10.10.2019
6430 Clear 32 1014 29 10000 1.5 0 18:41 10.10.2019
6431 Clear 33 1015 27 10000 1 120 18:20 10.10.2019
6432 Clear 32 1015 27 10000 1 120 17:56 10.10.2019
6433 Clear 32 1015 29 10000 1.5 230 17:37 10.10.2019
6434 Clear 32 1015 29 10000 1.5 230 17:18 10.10.2019
6435 Clear 32 1015 29 10000 1.5 70 16:48 10.10.2019
6436 Clear 31 1015 29 10000 1.5 0 16:26 10.10.2019
6437 Clear 31 1015 31 10000 2.1 210 15:59 10.10.2019
6438 Clear 31 1016 35 10000 0.5 70 15:39 10.10.2019
6439 Clear 30 1016 35 10000 0.5 70 15:20 10.10.2019
6440 Clear 30 1016 33 10000 1 350 14:56 10.10.2019
6441 Clear 29 1016 37 10000 1 0 14:37 10.10.2019
6442 Clear 29 1016 37 10000 1 0 14:18 10.10.2019
6443 Clear 28 1017 37 10000 2.1 360 13:55 10.10.2019
6444 Clear 28 1017 44 10000 2.1 40 13:37 10.10.2019
6445 Clear 27 1017 42 10000 1 20 13:18 10.10.2019
6446 Clear 26 1017 50 10000 1 0 12:41 10.10.2019
6447 Clear 25 1017 50 10000 1 0 12:20 10.10.2019
6448 Clear 25 1018 47 10000 1.5 20 11:58 10.10.2019
6449 Clear 25 1018 47 10000 1.5 20 11:58 10.10.2019
6450 Clear 23 1017 60 10000 1 0 11:39 10.10.2019
6451 Clear 23 1017 60 10000 1 0 11:19 10.10.2019
6452 Clear 22 1017 64 10000 0.5 0 10:45 10.10.2019
6453 Clear 21 1017 64 10000 0.5 0 10:27 10.10.2019
6454 Clear 19 1017 68 10000 0.5 0 09:58 10.10.2019
6455 Clear 18 1016 72 10000 0.5 0 09:40 10.10.2019
6456 Clear 19 1016 72 10000 0.5 0 09:22 10.10.2019
6457 Clear 18 1016 72 10000 1.96 63.761 08:58 10.10.2019
6458 Clear 18 1016 87 10000 0.5 0 08:38 10.10.2019
6459 Clear 18 1016 72 10000 1 0 08:19 10.10.2019
6460 Clear 18 1015 87 10000 1.96 63.761 07:46 10.10.2019
6461 Clear 18 1015 87 10000 1.96 63.761 07:23 10.10.2019
6462 Clear 19 1016 68 10000 1.5 120 06:49 10.10.2019
6463 Clear 19 1015 72 10000 1 0 06:29 10.10.2019
6464 Clear 20 1015 64 10000 0.5 0 05:28 10.10.2019
6465 Clear 19 1015 64 10000 0.5 0 04:55 10.10.2019
6466 Clear 20 1015 64 10000 1.5 170 04:33 10.10.2019
6467 Clear 21 1015 53 10000 1.5 170 02:19 10.10.2019
6468 Clear 21 1015 53 10000 1.5 170 02:19 10.10.2019
6469 Clear 21 1015 53 10000 3.6 180 01:36 10.10.2019
6470 Clear 21 1015 53 10000 3.6 180 01:36 10.10.2019
6471 Clear 22 1015 53 10000 3.6 180 01:18 10.10.2019
6472 Clear 23 1015 44 10000 3.1 210 00:25 10.10.2019
6473 Clear 24 1015 44 10000 3.6 220 23:41 09.10.2019
6474 Clear 24 1015 44 10000 3.6 220 23:23 09.10.2019
6475 Clear 24 1015 44 10000 3.1 210 22:59 09.10.2019
6476 Clear 24 1014 56 10000 1 220 22:41 09.10.2019
6477 Clear 25 1014 56 10000 1 220 22:22 09.10.2019
6478 Clear 25 1014 56 10000 1 220 22:22 09.10.2019
6479 Clear 26 1014 42 10000 3.6 230 21:56 09.10.2019
6480 Clear 26 1014 50 10000 1 220 21:38 09.10.2019
6481 Clear 27 1014 50 10000 1 220 21:18 09.10.2019
6482 Clear 28 1014 37 10000 3.1 210 20:54 09.10.2019
6483 Clear 28 1013 47 10000 2.6 210 20:36 09.10.2019
6484 Clear 28 1013 47 10000 2.6 210 20:18 09.10.2019
6485 Clear 30 1013 35 10000 3.1 220 19:43 09.10.2019
6486 Clear 31 1013 35 10000 3.1 220 19:22 09.10.2019
6487 Clear 32 1013 29 10000 3.1 230 18:39 09.10.2019
6488 Clear 32 1013 29 10000 3.1 230 18:21 09.10.2019
6489 Clear 32 1014 29 10000 3.1 240 17:58 09.10.2019
6490 Clear 32 1014 29 10000 2.1 220 17:40 09.10.2019
6491 Clear 32 1014 29 10000 2.1 220 17:22 09.10.2019
6492 Clear 32 1014 31 10000 1.5 280 16:57 09.10.2019
6493 Clear 31 1014 33 10000 1.5 0 16:39 09.10.2019
6494 Clear 31 1014 33 10000 1.5 0 16:21 09.10.2019
6495 Clear 31 1014 33 10000 1.5 0 16:21 09.10.2019
6496 Clear 30 1014 35 10000 2.1 250 15:57 09.10.2019
6497 Clear 30 1015 42 10000 1.5 0 15:38 09.10.2019
6498 Clear 30 1015 42 10000 1.5 0 15:19 09.10.2019
6499 Clear 29 1015 39 10000 1 300 14:55 09.10.2019
6500 Clear 29 1016 45 10000 1.5 0 14:36 09.10.2019
6501 Clear 29 1016 45 10000 1.5 0 14:36 09.10.2019
6502 Clear 28 1016 45 10000 1.5 0 14:18 09.10.2019
6503 Clear 27 1016 47 10000 1 0 13:38 09.10.2019
6504 Clear 27 1017 47 10000 1 130 13:19 09.10.2019
6505 Clear 26 1017 47 10000 1 130 12:56 09.10.2019
6506 Clear 25 1017 57 10000 1 0 12:37 09.10.2019
6507 Clear 25 1017 57 10000 0.5 360 12:19 09.10.2019
6508 Clear 24 1017 57 10000 1.86 95.854 11:40 09.10.2019
6509 Clear 24 1017 57 10000 1.86 95.854 11:40 09.10.2019
6510 Clear 23 1017 64 10000 1 0 11:21 09.10.2019
6511 Clear 22 1017 64 10000 1 0 10:59 09.10.2019
6512 Clear 20 1016 72 10000 1.86 95.854 10:40 09.10.2019
6513 Clear 20 1016 68 10000 1.5 30 10:20 09.10.2019
6514 Clear 19 1016 68 10000 1.5 30 09:56 09.10.2019
6515 Clear 18 1016 77 10000 1.86 95.854 09:38 09.10.2019
6516 Clear 19 1016 77 10000 1.57 36.403 09:18 09.10.2019
6517 Clear 18 1015 82 10000 1.53 37.882 08:39 09.10.2019
6518 Clear 18 1015 82 10000 1.53 37.882 08:20 09.10.2019
6519 Clear 18 1015 87 10000 1.53 37.882 07:47 09.10.2019
6520 Clear 18 1015 87 10000 1.53 37.882 07:47 09.10.2019
6521 Clear 18 1015 87 10000 1.53 37.882 07:25 09.10.2019
6522 Clear 18 1015 87 10000 1.53 37.882 07:25 09.10.2019
6523 Clear 19 1015 68 10000 1 0 06:59 09.10.2019
6524 Clear 19 1015 68 10000 1 0 06:41 09.10.2019
6525 Clear 19 1015 64 10000 2.1 210 05:53 09.10.2019
6526 Clear 20 1015 68 10000 1 0 05:18 09.10.2019
6527 Clear 21 1015 64 10000 2.1 200 03:49 09.10.2019
6528 Clear 21 1016 56 10000 2.1 250 02:35 09.10.2019
6529 Clear 22 1016 53 10000 2.6 250 01:39 09.10.2019
6530 Clear 22 1016 50 10000 1.5 250 01:19 09.10.2019
6531 Clear 22 1016 50 10000 1.5 250 00:55 09.10.2019
6532 Clear 23 1016 47 10000 2.6 250 00:37 09.10.2019
6533 Clear 23 1016 47 10000 2.6 250 00:19 09.10.2019
6534 Clear 24 1016 44 10000 3.1 250 23:39 08.10.2019
6535 Clear 24 1016 44 10000 3.1 250 23:39 08.10.2019
6536 Clear 24 1016 44 10000 3.1 250 23:18 08.10.2019
6537 Clear 25 1015 42 10000 4.1 240 22:55 08.10.2019
6538 Clear 25 1015 42 10000 3.6 240 22:37 08.10.2019
6539 Clear 25 1015 42 10000 3.6 240 22:18 08.10.2019
6540 Clear 26 1015 39 10000 4.6 250 21:56 08.10.2019
6541 Clear 26 1015 42 10000 5.1 250 21:37 08.10.2019
6542 Clear 27 1015 42 10000 5.1 250 21:18 08.10.2019
6543 Clear 28 1015 37 10000 4.6 250 20:55 08.10.2019
6544 Clear 28 1015 35 10000 4.1 260 20:37 08.10.2019
6545 Clear 29 1015 35 10000 4.1 260 20:18 08.10.2019
6546 Clear 31 1014 22 10000 2.6 220 19:55 08.10.2019
6547 Clear 31 1014 21 10000 3.6 240 19:36 08.10.2019
6548 Clear 31 1014 21 10000 3.6 240 19:18 08.10.2019
6549 Clear 33 1014 20 10000 2.1 200 18:42 08.10.2019
6550 Clear 34 1014 20 10000 2.1 200 18:24 08.10.2019
6551 Clear 33 1014 19 10000 2.1 220 17:58 08.10.2019
6552 Clear 33 1014 18 10000 1.5 260 17:39 08.10.2019
6553 Clear 33 1014 18 10000 1.5 260 17:20 08.10.2019
6554 Clear 33 1015 24 10000 1.5 0 16:56 08.10.2019
6555 Clear 33 1015 24 10000 1.5 0 16:56 08.10.2019
6556 Clear 33 1015 24 10000 1.5 0 16:56 08.10.2019
6557 Clear 33 1015 19 10000 2.1 180 16:37 08.10.2019
6558 Clear 33 1015 19 10000 2.1 180 16:18 08.10.2019
6559 Clear 32 1016 23 10000 1 0 15:39 08.10.2019
6560 Clear 32 1016 23 10000 1 0 15:39 08.10.2019
6561 Clear 32 1016 23 10000 1 0 15:20 08.10.2019
6562 Clear 31 1016 21 10000 1.5 0 14:56 08.10.2019
6563 Clear 31 1016 27 10000 1 0 14:38 08.10.2019
6564 Clear 31 1016 27 10000 1 0 14:19 08.10.2019
6565 Clear 31 1016 27 10000 1 0 14:19 08.10.2019
6566 Clear 30 1017 25 10000 1 60 13:55 08.10.2019
6567 Clear 29 1017 32 10000 1 30 13:37 08.10.2019
6568 Clear 28 1017 30 10000 0.5 270 13:18 08.10.2019
6569 Clear 27 1017 34 10000 0.5 0 12:41 08.10.2019
6570 Clear 26 1017 34 10000 0.5 0 12:20 08.10.2019
6571 Clear 26 1017 34 10000 0.5 0 12:20 08.10.2019
6572 Clear 25 1018 31 10000 1 0 11:58 08.10.2019
6573 Clear 25 1017 40 10000 1.5 0 11:39 08.10.2019
6574 Clear 24 1017 40 10000 1.5 0 11:21 08.10.2019
6575 Clear 22 1017 40 10000 1 60 10:54 08.10.2019
6576 Clear 22 1017 45 10000 0.5 0 10:54 08.10.2019
6577 Clear 22 1017 45 10000 0.5 0 10:36 08.10.2019
6578 Clear 19 1017 48 10000 1 0 10:18 08.10.2019
6579 Clear 18 1016 72 10000 1.19 193.276 09:40 08.10.2019
6580 Clear 19 1016 72 10000 2.41 41.345 09:22 08.10.2019
6581 Clear 18 1016 72 10000 2.41 41.345 08:45 08.10.2019
6582 Clear 19 1016 72 10000 2.33 43.519 08:25 08.10.2019
6583 Clear 19 1016 52 10000 1 260 07:58 08.10.2019
6584 Clear 19 1015 67 10000 0.5 0 07:40 08.10.2019
6585 Clear 20 1015 48 10000 1 0 07:19 08.10.2019
6586 Clear 20 1015 52 10000 2.1 50 06:46 08.10.2019
6587 Clear 21 1015 52 10000 2.1 50 06:23 08.10.2019
6588 Clear 21 1015 52 10000 1 0 05:43 08.10.2019
6589 Clear 21 1015 52 10000 1 0 05:43 08.10.2019
6590 Clear 21 1015 49 10000 0.5 10 05:19 08.10.2019
6591 Clouds 21 1016 52 10000 1.5 80 03:32 08.10.2019
6592 Clouds 21 1016 46 10000 3.1 160 02:43 08.10.2019
6593 Clouds 22 1016 46 10000 3.1 160 02:25 08.10.2019
6594 Clear 22 1016 46 10000 2.1 140 01:41 08.10.2019
6595 Clear 23 1016 46 10000 0.5 0 00:57 08.10.2019
6596 Clear 24 1016 43 10000 0.5 0 00:25 08.10.2019
6597 Clear 25 1016 36 10000 0.5 0 23:58 07.10.2019
6598 Clear 25 1016 33 10000 2.1 290 23:38 07.10.2019
6599 Clear 25 1015 31 10000 2.1 310 23:19 07.10.2019
6600 Clear 25 1015 31 10000 2.1 310 22:55 07.10.2019
6601 Clear 26 1015 26 10000 1.5 270 22:37 07.10.2019
6602 Clear 27 1015 26 10000 1.5 270 22:18 07.10.2019
6603 Clear 27 1015 24 10000 1.5 230 21:54 07.10.2019
6604 Clear 28 1015 26 10000 1 0 21:36 07.10.2019
6605 Clear 28 1015 26 10000 1 0 21:36 07.10.2019
6606 Clear 28 1015 26 10000 1 0 21:18 07.10.2019
6607 Clear 29 1015 28 10000 1 240 20:55 07.10.2019
6608 Clear 30 1015 22 10000 0.5 210 20:37 07.10.2019
6609 Clear 30 1015 22 10000 0.5 210 20:18 07.10.2019
6610 Clear 33 1015 14 10000 1.99 242.546 19:42 07.10.2019
6611 Clear 34 1015 15 10000 1 0 19:21 07.10.2019
6612 Clear 34 1015 15 10000 1 0 19:00 07.10.2019
6613 Clear 34 1015 14 10000 0.5 90 18:41 07.10.2019
6614 Clear 34 1015 14 10000 0.5 90 18:19 07.10.2019
6615 Clear 34 1015 15 10000 2.1 60 17:58 07.10.2019
6616 Clear 33 1015 15 10000 2.1 40 17:40 07.10.2019
6617 Clear 33 1015 15 10000 2.1 40 17:18 07.10.2019
6618 Clear 33 1015 18 10000 1 320 16:44 07.10.2019
6619 Clear 33 1015 18 10000 1 320 16:26 07.10.2019
6620 Clear 32 1016 19 10000 1.5 80 15:57 07.10.2019
6621 Clear 32 1016 22 10000 1.5 0 15:39 07.10.2019
6622 Clear 31 1017 22 10000 1.5 60 15:21 07.10.2019
6623 Clear 31 1017 22 10000 1.5 70 14:41 07.10.2019
6624 Clear 30 1017 26 10000 2.1 30 14:23 07.10.2019
6625 Clear 28 1017 34 10000 1.5 0 13:45 07.10.2019
6626 Clear 28 1018 26 10000 2.6 60 13:21 07.10.2019
6627 Clear 26 1018 28 10000 2.6 50 12:58 07.10.2019
6628 Clear 26 1018 41 10000 3.1 40 12:40 07.10.2019
6629 Clear 26 1018 41 10000 3.1 40 12:40 07.10.2019
6630 Clear 25 1018 41 10000 3.1 40 12:21 07.10.2019
6631 Clear 25 1018 41 10000 3.1 40 12:21 07.10.2019
6632 Clear 25 1018 41 10000 3.1 40 12:21 07.10.2019
6633 Clear 24 1018 36 10000 2.6 90 11:59 07.10.2019
6634 Clear 24 1018 36 10000 2.6 90 11:59 07.10.2019
6635 Clear 23 1018 49 10000 2.1 40 11:40 07.10.2019
6636 Clear 22 1018 49 10000 2.1 40 11:21 07.10.2019
6637 Clear 20 1018 49 10000 2.6 50 10:58 07.10.2019
6638 Clear 19 1017 68 10000 1 0 10:39 07.10.2019
6639 Clear 17 1017 63 10000 1 0 10:20 07.10.2019
6640 Clouds 16 1017 77 8000 1 0 09:40 07.10.2019
6641 Clouds 16 1017 77 8000 1 0 09:22 07.10.2019
6642 Clear 16 1017 93 10000 1.33 342.888 08:44 07.10.2019
6643 Clear 16 1017 77 10000 2.1 20 08:21 07.10.2019
6644 Clear 17 1017 77 10000 2.1 20 07:59 07.10.2019
6645 Clear 17 1017 77 10000 1 0 07:40 07.10.2019
6646 Clear 16 1016 93 10000 1.33 342.888 07:20 07.10.2019
6647 Clear 17 1017 72 10000 1 100 06:44 07.10.2019
6648 Clear 18 1017 72 10000 1 100 06:23 07.10.2019
6649 Clear 18 1017 72 10000 1.5 30 05:30 07.10.2019
6650 Clear 17 1017 72 10000 1 90 04:58 07.10.2019
6651 Clear 18 1017 67 10000 0.5 0 04:20 07.10.2019
6652 Clouds 18 1018 72 10000 1.06 21.158 03:44 07.10.2019
6653 Clouds 18 1018 72 10000 1.06 21.158 03:44 07.10.2019
6654 Clouds 18 1018 72 10000 2.29 3.523 03:19 07.10.2019
6655 Clouds 18 1018 68 10000 2.6 180 02:20 07.10.2019
6656 Clouds 19 1018 59 10000 2.1 160 01:47 07.10.2019
6657 Clear 19 1018 55 10000 1.5 160 01:19 07.10.2019
6658 Clear 20 1018 46 10000 1.5 190 00:38 07.10.2019
6659 Clear 21 1018 43 10000 0.5 190 00:19 07.10.2019
6660 Clear 22 1018 40 10000 2.6 210 23:42 06.10.2019
6661 Clear 22 1018 40 10000 2.6 210 23:21 06.10.2019
6662 Clear 23 1018 38 10000 2.1 210 22:59 06.10.2019
6663 Clear 23 1018 36 10000 2.6 210 22:40 06.10.2019
6664 Clear 23 1018 36 10000 2.6 210 22:21 06.10.2019
6665 Clear 23 1018 36 10000 2.6 210 22:21 06.10.2019
6666 Clear 24 1017 36 10000 3.1 220 21:57 06.10.2019
6667 Clear 25 1017 36 10000 2.6 230 21:37 06.10.2019
6668 Clear 26 1017 36 10000 2.6 230 21:19 06.10.2019
6669 Clear 27 1017 37 10000 4.1 220 20:57 06.10.2019
6670 Clear 27 1016 35 10000 5.1 220 20:39 06.10.2019
6671 Clear 28 1016 27 10000 4.1 220 20:20 06.10.2019
6672 Clear 29 1016 27 10000 4.1 220 19:57 06.10.2019
6673 Clear 29 1016 27 10000 4.1 220 19:57 06.10.2019
6674 Clear 30 1016 22 10000 2.6 230 19:37 06.10.2019
6675 Clear 30 1016 22 10000 2.6 230 19:19 06.10.2019
6676 Clear 30 1016 22 10000 2.6 230 19:19 06.10.2019
6677 Clear 30 1016 20 10000 2.1 250 18:56 06.10.2019
6678 Clear 31 1017 20 10000 2.6 220 18:38 06.10.2019
6679 Clear 31 1017 20 10000 2.6 220 18:19 06.10.2019
6680 Clear 31 1017 23 10000 2.1 220 17:57 06.10.2019
6681 Clear 31 1017 23 10000 2.1 210 17:38 06.10.2019
6682 Clear 31 1017 25 10000 1.5 310 17:18 06.10.2019
6683 Clear 31 1017 27 10000 2.6 190 16:42 06.10.2019
6684 Clear 30 1017 27 10000 2.6 190 16:23 06.10.2019
6685 -273 0 0 0 0 0 15:54 06.10.2019
6686 Clear 29 1018 30 10000 1 50 15:36 06.10.2019
6687 Clear 29 1018 30 10000 1 50 15:18 06.10.2019
6688 Clear 28 1019 39 10000 1 0 14:42 06.10.2019
6689 Clear 27 1019 39 10000 1 0 14:24 06.10.2019
6690 Clear 26 1019 44 10000 0.5 330 13:56 06.10.2019
6691 Clear 26 1019 44 10000 0.5 330 13:56 06.10.2019
6692 Clear 26 1019 44 10000 1.5 190 13:37 06.10.2019
6693 Clear 23 1020 50 10000 1 100 13:19 06.10.2019
6694 Clear 23 1020 50 10000 1 100 12:56 06.10.2019
6695 Clear 22 1020 56 10000 0.5 320 12:37 06.10.2019
6696 Clear 23 1020 64 10000 1 0 12:19 06.10.2019
6697 Clear 21 1020 64 10000 1 0 11:55 06.10.2019
6698 Clear 21 1020 72 10000 1 0 11:36 06.10.2019
6699 Clear 21 1020 72 10000 1 0 11:36 06.10.2019
6700 Clear 20 1020 72 10000 1 0 11:18 06.10.2019
6701 Clear 19 1019 77 10000 1.36 112.021 10:42 06.10.2019
6702 Clear 18 1019 77 10000 1.36 112.021 10:24 06.10.2019
6703 Clear 17 1018 87 10000 1 0 09:42 06.10.2019
6704 Clear 16 1018 87 10000 1 0 09:22 06.10.2019
6705 Clear 16 1018 87 10000 1 0 09:22 06.10.2019
6706 Clear 16 1018 87 10000 1 0